# Wetter Temperatur Luftdruck Luftfeuchtigkeit Sichtweite Windgeschwindigkeit Windrichtung Zeit
1 Clear 6 1039 36 10000 5 200 12:56 22.04.2021
2 Clear 6 1040 33 10000 5 200 12:38 22.04.2021
3 Clear 6 1040 33 10000 5 200 12:19 22.04.2021
4 Clear 6 1040 36 10000 5 200 11:45 22.04.2021
5 Clear 6 1040 36 10000 5 200 11:45 22.04.2021
6 Clear 6 1040 36 10000 5 210 11:22 22.04.2021
7 Clear 5 1040 33 10000 6 220 10:44 22.04.2021
8 Clear 5 1040 36 10000 5 200 10:21 22.04.2021
9 Clear 4 1040 45 10000 5 210 09:42 22.04.2021
10 Clear 4 1040 45 10000 5 210 09:19 22.04.2021
11 Clear 3 1040 44 10000 6 200 08:38 22.04.2021
12 Clear 3 1040 44 10000 6 200 08:18 22.04.2021
13 Clear 2 1040 48 10000 6 230 07:38 22.04.2021
14 Clear 2 1040 48 10000 6 230 07:19 22.04.2021
15 Clear 1 1040 51 10000 7 220 06:23 22.04.2021
16 Clear -1 1040 59 10000 6 230 05:25 22.04.2021
17 Clear -3 1040 63 10000 3 210 03:25 22.04.2021
18 Clear -4 1038 63 10000 2 180 00:45 22.04.2021
19 Clear -3 1038 63 10000 1 180 23:44 21.04.2021
20 Clear -3 1038 59 10000 2 190 23:23 21.04.2021
21 Clear -4 1037 68 10000 1 0 22:41 21.04.2021
22 Clear -4 1037 68 10000 1 0 22:23 21.04.2021
23 Clear -4 1036 68 10000 2 150 21:42 21.04.2021
24 Clear -4 1036 68 10000 2 150 21:42 21.04.2021
25 Clear -4 1036 68 10000 2 150 21:23 21.04.2021
26 Clear -4 1036 68 10000 2 150 21:23 21.04.2021
27 Clear -4 1036 68 10000 1 160 20:40 21.04.2021
28 Clear -4 1036 68 10000 1 160 20:18 21.04.2021
29 Clear -4 1036 68 10000 1 150 19:41 21.04.2021
30 Clear -4 1036 68 10000 1 150 19:23 21.04.2021
31 Clear -4 1036 63 10000 1 0 18:45 21.04.2021
32 Clear -3 1036 63 10000 1.04 134 18:24 21.04.2021
33 Clear -2 1035 54 10000 2 160 17:46 21.04.2021
34 Clear -2 1035 54 10000 1 170 17:24 21.04.2021
35 Clear -1 1035 55 10000 1 0 16:42 21.04.2021
36 Clear 0 1034 51 10000 2 170 15:56 21.04.2021
37 Clear 0 1034 51 10000 3 150 15:37 21.04.2021
38 Clear 0 1033 51 10000 3 160 14:48 21.04.2021
39 Clear 0 1033 51 10000 3 150 14:30 21.04.2021
40 Clear 0 1033 51 10000 2 140 13:51 21.04.2021
41 Clear 0 1033 51 10000 3 130 13:24 21.04.2021
42 Clear 0 1033 51 10000 3 100 12:56 21.04.2021
43 Clear 1 1032 47 10000 2 80 12:29 21.04.2021
44 Clear 0 1032 47 10000 1 0 11:47 21.04.2021
45 Clear 0 1032 47 10000 1 0 11:25 21.04.2021
46 Clear -1 1031 51 10000 2 130 10:43 21.04.2021
47 Clear 0 1031 43 10000 1 0 09:59 21.04.2021
48 Clear -1 1031 43 10000 2 110 09:41 21.04.2021
49 Clouds -2 1031 50 10000 3 90 08:56 21.04.2021
50 Clouds -2 1031 50 10000 3 90 08:56 21.04.2021
51 Clouds -2 1030 50 10000 1 0 08:37 21.04.2021
52 Clouds -2 1030 50 10000 1 0 08:18 21.04.2021
53 Clouds -3 1030 59 10000 3 50 07:29 21.04.2021
54 Clouds -4 1029 63 10000 4 90 06:25 21.04.2021
55 Clouds -6 1027 68 10000 5 80 04:41 21.04.2021
56 Clouds -5 1023 80 10000 4 30 00:51 21.04.2021
57 Clouds -4 1022 80 10000 5 30 23:48 20.04.2021
58 Clouds -4 1021 80 10000 5 10 22:59 20.04.2021
59 Clouds -3 1020 68 10000 5 10 22:38 20.04.2021
60 Clouds -3 1020 68 10000 5 10 22:18 20.04.2021
61 Clouds -3 1020 74 10000 5 10 21:45 20.04.2021
62 Clouds -2 1019 74 10000 5 10 21:24 20.04.2021
63 Clouds -2 1018 80 10000 5 340 20:42 20.04.2021
64 Clouds -2 1018 80 10000 5 340 20:23 20.04.2021
65 Clouds -2 1018 80 10000 6 340 19:52 20.04.2021
66 Clouds -2 1018 74 10000 6 340 19:34 20.04.2021
67 Clouds -2 1018 74 10000 6 360 18:54 20.04.2021
68 Clouds -2 1017 74 10000 6 360 18:35 20.04.2021
69 Clouds -1 1017 74 10000 7 360 17:43 20.04.2021
70 Clouds -1 1016 80 10000 6 360 17:18 20.04.2021
71 Clouds 0 1015 69 10000 7 350 16:43 20.04.2021
72 Clouds 1 1014 69 10000 5 340 15:43 20.04.2021
73 Clouds 1 1014 69 10000 6 340 15:25 20.04.2021
74 Clouds 1 1013 69 10000 6 340 14:52 20.04.2021
75 Snow 1 1012 75 10000 7 340 14:27 20.04.2021
76 Clouds 1 1011 100 10000 8 320 13:31 20.04.2021
77 Snow 0 1010 100 1400 8 290 12:55 20.04.2021
78 Snow 0 1010 100 2700 8 290 12:34 20.04.2021
79 Snow 0 1010 100 1100 8 280 11:58 20.04.2021
80 Snow -1 1010 100 1100 7 260 11:38 20.04.2021
81 Snow -1 1010 100 1100 7 260 11:19 20.04.2021
82 Snow -2 1011 93 1700 7 250 10:42 20.04.2021
83 Snow -2 1011 93 1700 7 250 10:20 20.04.2021
84 Snow -4 1012 100 1300 7 250 09:20 20.04.2021
85 Snow -4 1012 93 1200 8 250 08:53 20.04.2021
86 Snow -5 1013 86 1500 8 250 07:59 20.04.2021
87 Snow -5 1014 86 2600 7 250 07:35 20.04.2021
88 Snow -7 1016 86 1800 8 240 05:56 20.04.2021
89 Snow -7 1017 86 2100 8 240 05:31 20.04.2021
90 Snow -8 1018 86 1700 6 230 04:40 20.04.2021
91 Clear -10 1024 73 10000 4 240 00:52 20.04.2021
92 Clear -10 1024 67 10000 5 240 00:27 20.04.2021
93 Clear -11 1025 73 10000 3 240 23:32 19.04.2021
94 Clear -11 1026 73 10000 3 240 22:46 19.04.2021
95 Clear -12 1027 79 10000 3 250 22:26 19.04.2021
96 Clear -12 1027 79 10000 3 250 21:46 19.04.2021
97 Clear -12 1027 79 10000 3 270 21:20 19.04.2021
98 Clear -12 1028 79 10000 3 280 20:41 19.04.2021
99 Clear -12 1028 79 10000 3 280 20:20 19.04.2021
100 Clear -12 1028 79 10000 3 280 19:50 19.04.2021
101 Clear -11 1029 73 10000 3 290 19:27 19.04.2021
102 Clear -12 1029 79 10000 2 290 18:59 19.04.2021
103 Clear -11 1029 73 10000 2 280 18:40 19.04.2021
104 Clear -11 1029 73 10000 2 280 18:19 19.04.2021
105 Clear -11 1029 73 10000 2 300 17:43 19.04.2021
106 Clear -10 1029 67 10000 2 300 17:23 19.04.2021
107 Clear -10 1029 67 10000 2 300 17:23 19.04.2021
108 Clear -9 1030 62 10000 3 320 16:43 19.04.2021
109 Clear -9 1030 62 10000 4 320 16:24 19.04.2021
110 Clear -9 1030 62 10000 5 330 15:42 19.04.2021
111 Clear -9 1030 62 10000 5 330 15:23 19.04.2021
112 Clear -9 1030 57 10000 6 340 14:43 19.04.2021
113 Clear -9 1030 57 10000 6 330 14:23 19.04.2021
114 Clear -9 1030 57 10000 6 330 13:49 19.04.2021
115 Clouds -9 1030 57 10000 7 320 13:26 19.04.2021
116 Clouds -9 1030 57 10000 6 320 12:47 19.04.2021
117 Clouds -9 1030 57 10000 7 330 12:27 19.04.2021
118 Clouds -10 1030 62 10000 7 340 11:58 19.04.2021
119 Clouds -10 1030 57 10000 7 340 11:27 19.04.2021
120 Clouds -10 1030 57 10000 7 340 11:27 19.04.2021
121 Clouds -10 1029 57 10000 7 330 10:55 19.04.2021
122 Clouds -10 1029 62 10000 7 330 10:36 19.04.2021
123 Clouds -10 1029 62 10000 7 330 10:18 19.04.2021
124 Clouds -10 1029 62 10000 7 330 10:18 19.04.2021
125 Clouds -10 1029 57 10000 7 340 09:38 19.04.2021
126 Clouds -10 1029 57 10000 7 340 09:38 19.04.2021
127 Clouds -10 1029 57 10000 7 340 09:19 19.04.2021
128 Snow -10 1028 62 8000 6 340 08:32 19.04.2021
129 Clouds -10 1028 57 10000 7 360 07:49 19.04.2021
130 Clouds -11 1028 57 10000 8 350 07:20 19.04.2021
131 Snow -11 1027 57 9000 7 350 06:44 19.04.2021
132 Clouds -13 1026 66 10000 6 350 02:38 19.04.2021
133 Clouds -13 1026 72 10000 5 350 01:30 19.04.2021
134 Clouds -13 1025 66 10000 5 360 00:33 19.04.2021
135 Clouds -12 1025 56 10000 6 10 23:19 18.04.2021
136 Clouds -13 1025 66 10000 6 350 22:53 18.04.2021
137 Clouds -13 1025 66 10000 6 350 22:31 18.04.2021
138 Clouds -13 1025 66 10000 4 350 21:45 18.04.2021
139 Clouds -12 1025 61 10000 5 350 21:23 18.04.2021
140 Clouds -12 1025 67 10000 6 360 20:41 18.04.2021
141 Clouds -12 1025 67 10000 6 360 20:21 18.04.2021
142 Clouds -12 1025 67 10000 5 360 19:56 18.04.2021
143 Clouds -12 1025 61 10000 5 350 19:35 18.04.2021
144 Clouds -11 1025 57 10000 5 350 18:56 18.04.2021
145 Clouds -11 1025 57 10000 4 350 18:31 18.04.2021
146 Clouds -11 1025 62 10000 4 350 17:59 18.04.2021
147 Clouds -11 1025 62 10000 5 350 17:41 18.04.2021
148 Clouds -11 1025 62 10000 5 350 17:23 18.04.2021
149 Clear -10 1025 52 10000 5 360 16:41 18.04.2021
150 Clear -10 1025 52 10000 5 360 16:18 18.04.2021
151 Clear -10 1024 52 10000 6 10 15:39 18.04.2021
152 Clear -10 1024 52 10000 6 10 15:20 18.04.2021
153 Clear -10 1024 52 10000 9 360 14:42 18.04.2021
154 Clear -10 1024 52 10000 9 360 14:19 18.04.2021
155 Clear -9 1023 53 10000 8 10 13:53 18.04.2021
156 Clear -9 1023 48 10000 8 360 13:30 18.04.2021
157 Clear -9 1023 48 10000 7 20 12:43 18.04.2021
158 Clear -9 1022 53 10000 8 360 12:20 18.04.2021
159 Clear -9 1022 45 10000 8 10 11:41 18.04.2021
160 Clear -9 1022 45 10000 8 10 11:20 18.04.2021
161 Clear -9 1021 48 10000 8 30 10:45 18.04.2021
162 Clear -9 1021 45 10000 8 10 10:19 18.04.2021
163 Clouds -9 1020 57 10000 7 10 09:41 18.04.2021
164 Clouds -9 1020 57 10000 7 10 09:23 18.04.2021
165 Clouds -9 1020 57 10000 7 20 08:48 18.04.2021
166 Clouds -10 1019 62 10000 8 30 08:29 18.04.2021
167 Clear -10 1018 62 10000 6 30 07:41 18.04.2021
168 Clear -11 1018 67 10000 6 20 06:56 18.04.2021
169 Clear -12 1017 72 10000 5 40 05:27 18.04.2021
170 Clear -12 1017 67 10000 5 30 04:53 18.04.2021
171 Clear -13 1016 72 10000 3 50 02:23 18.04.2021
172 Clear -12 1015 72 10000 5 60 00:58 18.04.2021
173 Clear -11 1015 73 10000 4 50 23:58 17.04.2021
174 Clear -11 1014 73 10000 4 60 23:26 17.04.2021
175 Clear -11 1014 73 10000 4 50 22:44 17.04.2021
176 Clear -10 1014 67 10000 4 50 22:25 17.04.2021
177 Clear -10 1014 67 10000 4 50 21:44 17.04.2021
178 Clear -9 1014 62 10000 4 40 21:23 17.04.2021
179 Clear -8 1014 57 10000 5 50 20:40 17.04.2021
180 Clear -8 1014 57 10000 5 50 20:20 17.04.2021
181 Clear -7 1014 58 10000 6 30 19:39 17.04.2021
182 Clear -7 1014 58 10000 6 30 19:20 17.04.2021
183 Clear -6 1013 58 10000 4 30 18:49 17.04.2021
184 Snow -6 1013 63 10000 4 30 18:21 17.04.2021
185 Snow -5 1013 68 10000 4 30 17:42 17.04.2021
186 Snow -4 1013 68 10000 6 30 16:56 17.04.2021
187 Snow -3 1013 80 10000 5 10 16:37 17.04.2021
188 Snow -3 1013 80 10000 5 10 16:18 17.04.2021
189 Snow -3 1012 86 10000 6 10 15:22 17.04.2021
190 Snow -2 1012 86 10000 5 20 14:43 17.04.2021
191 Snow -1 1011 86 10000 5 340 14:19 17.04.2021
192 Snow 0 1011 86 10000 5 290 13:42 17.04.2021
193 Snow -1 1011 93 10000 5 280 12:48 17.04.2021
194 Snow -1 1011 100 10000 3 250 12:23 17.04.2021
195 Snow -1 1011 100 7000 4 220 11:51 17.04.2021
196 Snow -1 1011 100 1800 4 210 11:32 17.04.2021
197 Snow -2 1012 100 800 4 220 10:48 17.04.2021
198 Snow -2 1012 100 600 4 220 10:29 17.04.2021
199 Snow -2 1013 100 1700 4 210 09:46 17.04.2021
200 Snow 0 1014 64 9000 7 230 08:46 17.04.2021
201 Clear 0 1014 55 10000 6 220 08:26 17.04.2021
202 Clear 0 1014 55 10000 6 240 07:45 17.04.2021
203 Clear -2 1018 54 10000 6 240 04:51 17.04.2021
204 Clear -4 1019 58 10000 5 230 03:40 17.04.2021
205 Snow -5 1021 58 10000 6 230 00:55 17.04.2021
206 Clear -6 1021 58 10000 4 240 00:29 17.04.2021
207 Clear -6 1021 58 10000 4 240 23:55 16.04.2021
208 Clear -6 1022 58 10000 5 230 23:32 16.04.2021
209 Clear -6 1022 58 10000 5 230 22:51 16.04.2021
210 Clear -6 1022 58 10000 5 230 22:51 16.04.2021
211 Clear -6 1023 53 10000 5 240 22:22 16.04.2021
212 Clear -6 1023 53 10000 5 240 21:54 16.04.2021
213 Clear -7 1024 58 10000 4 240 21:35 16.04.2021
214 Clear -7 1024 63 10000 3 240 20:54 16.04.2021
215 Clear -7 1024 63 10000 3 250 20:29 16.04.2021
216 Clear -7 1024 63 10000 3 240 19:55 16.04.2021
217 Clear -6 1025 58 10000 3 230 19:37 16.04.2021
218 Clear -7 1025 58 10000 3 230 18:47 16.04.2021
219 Clear -6 1025 58 10000 2 220 18:21 16.04.2021
220 Clear -6 1026 53 10000 2 240 17:46 16.04.2021
221 Clear -6 1026 53 10000 2 300 17:19 16.04.2021
222 Clear -6 1026 53 10000 2 320 16:44 16.04.2021
223 Clear -6 1026 53 10000 2 320 16:44 16.04.2021
224 Clear -5 1026 46 10000 3 330 16:25 16.04.2021
225 Clear -5 1026 46 10000 4 340 15:51 16.04.2021
226 Clear -5 1026 46 10000 4 340 15:23 16.04.2021
227 Clear -5 1026 46 10000 5 360 14:42 16.04.2021
228 Clear -5 1026 46 10000 5 360 14:20 16.04.2021
229 Clear -5 1026 54 10000 5 360 13:50 16.04.2021
230 Clear -5 1026 54 10000 5 10 13:21 16.04.2021
231 Clear -5 1026 46 10000 6 350 12:49 16.04.2021
232 Clear -5 1026 46 10000 6 360 12:29 16.04.2021
233 Clear -6 1025 38 10000 8 360 11:55 16.04.2021
234 Clear -5 1025 46 10000 7 360 11:27 16.04.2021
235 Clear -5 1024 46 10000 7 350 10:56 16.04.2021
236 Clear -5 1024 58 10000 7 350 10:37 16.04.2021
237 Clear -5 1024 58 10000 7 350 10:19 16.04.2021
238 Clouds -5 1023 68 10000 8 350 09:42 16.04.2021
239 Clouds -5 1023 68 10000 8 350 09:20 16.04.2021
240 Snow -4 1022 68 10000 7 360 08:41 16.04.2021
241 Snow -4 1022 68 10000 7 360 08:18 16.04.2021
242 Snow -5 1020 74 10000 8 360 07:35 16.04.2021
243 Snow -5 1020 74 10000 8 360 07:35 16.04.2021
244 Clouds -4 1020 68 10000 8 360 06:58 16.04.2021
245 Snow -2 1017 80 10000 7 350 05:34 16.04.2021
246 Clear -1 1016 74 10000 6 340 04:21 16.04.2021
247 Clear -1 1013 100 10000 4 290 00:58 16.04.2021
248 Clear 0 1013 100 10000 4 290 00:40 16.04.2021
249 Clear 0 1013 100 10000 4 290 00:18 16.04.2021
250 Clouds 0 1013 100 10000 3 280 23:37 15.04.2021
251 Clouds 0 1013 100 10000 4 280 22:54 15.04.2021
252 Clouds 0 1013 100 10000 3 280 22:35 15.04.2021
253 Clouds 1 1012 100 10000 2 260 21:59 15.04.2021
254 Clouds 1 1012 100 10000 3 240 21:41 15.04.2021
255 Clouds 1 1012 100 10000 3 240 21:20 15.04.2021
256 Snow 0 1012 100 9000 2 270 20:42 15.04.2021
257 Snow 0 1012 100 9000 2 270 20:21 15.04.2021
258 Snow 1 1012 100 3900 3 310 19:44 15.04.2021
259 Snow 1 1012 100 2300 2 330 19:24 15.04.2021
260 Clear 3 1011 75 10000 3 330 18:42 15.04.2021
261 Snow 3 1011 75 10000 3 330 18:21 15.04.2021
262 Snow 3 1011 75 10000 3 340 17:55 15.04.2021
263 Snow 3 1011 75 10000 3 340 17:55 15.04.2021
264 Snow 3 1010 75 10000 3 360 17:36 15.04.2021
265 Snow 3 1010 81 10000 5 360 16:57 15.04.2021
266 Snow 3 1010 81 10000 5 360 16:57 15.04.2021
267 Snow 4 1010 75 10000 6 360 16:39 15.04.2021
268 Rain 4 1010 75 10000 6 360 16:20 15.04.2021
269 Rain 5 1010 75 10000 6 350 15:44 15.04.2021
270 Rain 6 1009 70 10000 7 350 15:25 15.04.2021
271 Rain 15 1007 41 10000 8 280 14:40 15.04.2021
272 Clear 15 1007 41 10000 8 280 14:22 15.04.2021
273 Clear 17 1007 34 10000 11 260 13:42 15.04.2021
274 Clear 17 1007 34 10000 11 260 13:18 15.04.2021
275 Clear 18 1006 29 10000 12 260 12:40 15.04.2021
276 Clear 18 1006 29 10000 12 260 12:20 15.04.2021
277 Clear 18 1006 29 10000 12 250 11:44 15.04.2021
278 Clear 18 1006 34 10000 8 230 11:22 15.04.2021
279 Clear 18 1006 34 10000 8 230 11:22 15.04.2021
280 Clear 18 1006 34 10000 8 230 11:22 15.04.2021
281 Clear 17 1006 36 10000 7 230 10:49 15.04.2021
282 Clear 17 1006 36 10000 7 230 10:49 15.04.2021
283 Clear 17 1007 36 10000 8 240 10:27 15.04.2021
284 Clear 16 1007 39 10000 7 240 09:46 15.04.2021
285 Clear 15 1008 41 10000 7 240 09:18 15.04.2021
286 Clear 14 1009 44 10000 7 240 08:42 15.04.2021
287 Clear 12 1009 50 10000 6 230 07:52 15.04.2021
288 Clear 11 1009 54 10000 6 220 07:22 15.04.2021
289 Clear 9 1010 61 10000 6 230 06:39 15.04.2021
290 Clear 9 1010 61 10000 6 230 06:20 15.04.2021
291 Clear 7 1011 70 10000 6 230 04:51 15.04.2021
292 Clear 6 1014 70 10000 5 210 00:54 15.04.2021
293 Rain 6 1016 70 10000 5 200 23:41 14.04.2021
294 Rain 6 1016 70 10000 5 200 23:19 14.04.2021
295 Clear 6 1016 75 10000 3 220 22:43 14.04.2021
296 Clear 6 1017 75 10000 3 210 22:25 14.04.2021
297 Clear 6 1017 75 10000 3 210 22:25 14.04.2021
298 Clear 6 1017 75 10000 4 200 21:47 14.04.2021
299 Clear 6 1018 75 10000 4 200 21:28 14.04.2021
300 Clear 6 1018 75 10000 4 190 20:56 14.04.2021
301 Clear 5 1019 81 10000 3 200 20:34 14.04.2021
302 Clear 4 1019 81 10000 3 210 19:53 14.04.2021
303 Clear 5 1019 81 10000 2 220 19:20 14.04.2021
304 Clear 4 1019 87 10000 3 200 18:57 14.04.2021
305 Clear 5 1020 87 10000 3 190 18:22 14.04.2021
306 Clear 4 1020 87 10000 2 190 17:58 14.04.2021
307 Clear 4 1020 93 10000 1 0 17:28 14.04.2021
308 Clear 6 1020 81 10000 2 190 16:54 14.04.2021
309 Clear 6 1021 81 10000 2 210 16:27 14.04.2021
310 Clear 8 1021 71 10000 3 240 15:44 14.04.2021
311 Clear 8 1021 71 10000 4 240 15:26 14.04.2021
312 Clouds 9 1021 66 10000 4 280 14:51 14.04.2021
313 Clouds 9 1021 66 10000 4 280 14:27 14.04.2021
314 Clouds 9 1021 76 10000 4 290 13:58 14.04.2021
315 Clouds 9 1021 87 10000 5 280 13:37 14.04.2021
316 Clouds 8 1021 100 10000 3 310 12:39 14.04.2021
317 Clouds 8 1021 100 10000 4 340 11:44 14.04.2021
318 Clouds 8 1021 100 10000 4 330 11:25 14.04.2021
319 Clouds 7 1020 100 10000 4 320 10:56 14.04.2021
320 Clouds 7 1021 100 10000 5 320 10:33 14.04.2021
321 Clouds 7 1020 100 10000 6 290 09:43 14.04.2021
322 Clouds 7 1020 100 10000 6 290 09:21 14.04.2021
323 Clouds 7 1019 100 10000 7 280 08:47 14.04.2021
324 Clouds 6 1019 100 10000 5 290 08:22 14.04.2021
325 Clouds 6 1019 100 10000 6 300 07:26 14.04.2021
326 Rain 4 1018 100 10000 5 280 06:26 14.04.2021
327 Rain 3 1018 100 10000 5 280 05:20 14.04.2021
328 Rain 4 1017 60 10000 1 0 01:54 14.04.2021
329 Rain 5 1018 60 10000 3 230 00:49 14.04.2021
330 Rain 4 1018 65 10000 1 190 00:25 14.04.2021
331 Rain 4 1020 65 10000 2 280 23:31 13.04.2021
332 Rain 5 1020 56 10000 3 240 22:44 13.04.2021
333 Rain 5 1021 56 10000 3 200 22:20 13.04.2021
334 Rain 5 1021 56 10000 2 230 21:48 13.04.2021
335 Clear 4 1022 60 10000 2 230 21:29 13.04.2021
336 Clear 5 1022 52 10000 2 240 20:48 13.04.2021
337 Clear 4 1023 60 10000 2 260 20:24 13.04.2021
338 Clear 3 1023 65 10000 4.57 255 19:56 13.04.2021
339 Clear 4 1023 56 10000 2 280 19:25 13.04.2021
340 Clear 4 1023 60 10000 2 280 18:46 13.04.2021
341 Rain 5 1024 52 10000 2 270 18:28 13.04.2021
342 Rain 6 1024 49 10000 2 250 17:40 13.04.2021
343 Clear 6 1024 49 10000 2 250 17:18 13.04.2021
344 Clear 6 1024 49 10000 3 250 16:45 13.04.2021
345 Clear 6 1024 49 10000 5 270 16:25 13.04.2021
346 Clear 6 1025 49 10000 6 280 15:53 13.04.2021
347 Clear 6 1025 49 10000 7 280 15:34 13.04.2021
348 Clear 6 1025 49 10000 7 270 14:50 13.04.2021
349 Clear 6 1025 49 10000 7 260 14:22 13.04.2021
350 Clear 6 1026 49 10000 7 260 13:45 13.04.2021
351 Clear 7 1026 45 10000 8 260 13:26 13.04.2021
352 Clear 6 1026 52 10000 8 260 12:58 13.04.2021
353 Clear 7 1026 49 10000 9 280 12:31 13.04.2021
354 Clear 7 1026 53 10000 8 280 11:59 13.04.2021
355 Clear 7 1026 45 10000 9 260 11:34 13.04.2021
356 Clear 7 1027 49 10000 8 260 10:56 13.04.2021
357 Clear 7 1027 45 10000 7 250 10:24 13.04.2021
358 Clear 7 1027 49 10000 8 270 09:59 13.04.2021
359 Clear 6 1028 56 10000 8 270 09:40 13.04.2021
360 Clear 6 1028 56 10000 8 270 09:18 13.04.2021
361 Clear 5 1028 56 10000 8 280 08:41 13.04.2021
362 Clear 5 1028 56 10000 8 280 08:20 13.04.2021
363 Clear 4 1028 56 10000 7 250 07:36 13.04.2021
364 Clear 4 1028 56 10000 6 240 06:51 13.04.2021
365 Clear 2 1029 64 10000 6 280 04:52 13.04.2021
366 Clear 0 1029 74 10000 4 280 02:41 13.04.2021
367 Clear 0 1028 74 10000 5 280 00:39 13.04.2021
368 Clear 0 1028 69 10000 4 280 23:49 12.04.2021
369 Clear 1 1028 64 10000 5 280 23:27 12.04.2021
370 Clear 2 1027 60 10000 5 280 22:39 12.04.2021
371 Clear 2 1027 60 10000 5 280 22:18 12.04.2021
372 Clear 2 1027 60 10000 5 280 21:45 12.04.2021
373 Clear 1 1027 69 10000 4 280 21:20 12.04.2021
374 Clear 1 1027 69 10000 4 280 20:41 12.04.2021
375 Clear 1 1027 69 10000 4 280 20:22 12.04.2021
376 Clear 2 1027 64 10000 5 280 19:55 12.04.2021
377 Clear 2 1027 64 10000 5 280 19:37 12.04.2021
378 Clear 2 1027 64 10000 5 280 19:18 12.04.2021
379 Clear 2 1026 69 10000 5 280 18:44 12.04.2021
380 Clear 3 1026 65 10000 5 280 18:25 12.04.2021
381 Clear 4 1026 56 10000 5 270 17:43 12.04.2021
382 Clear 6 1025 49 10000 5 260 17:23 12.04.2021
383 Clear 6 1025 49 10000 4 250 16:47 12.04.2021
384 Clear 6 1025 49 10000 5 250 16:27 12.04.2021
385 Clear 6 1025 49 10000 5 250 16:27 12.04.2021
386 Clear 7 1025 45 10000 5 250 15:49 12.04.2021
387 Clear 7 1024 49 10000 6 260 15:27 12.04.2021
388 Clear 8 1024 46 10000 6 260 14:50 12.04.2021
389 Clear 7 1024 53 10000 7 280 14:30 12.04.2021
390 Clear 7 1024 61 10000 6 280 13:49 12.04.2021
391 Clear 7 1024 57 10000 8 270 13:28 12.04.2021
392 Clear 7 1024 57 10000 9 270 12:49 12.04.2021
393 Clear 7 1024 53 10000 9 280 12:27 12.04.2021
394 Clear 8 1023 49 10000 8 270 11:59 12.04.2021
395 Clear 8 1023 49 10000 8 260 11:24 12.04.2021
396 Clear 7 1023 57 10000 8 260 10:46 12.04.2021
397 Clear 7 1023 61 10000 7 270 10:26 12.04.2021
398 Clear 6 1023 65 10000 8 280 09:49 12.04.2021
399 Clear 6 1023 70 10000 7 280 09:20 12.04.2021
400 Clear 5 1022 81 10000 7 270 08:36 12.04.2021
401 Clear 6 1022 81 10000 6 270 07:40 12.04.2021
402 Clear 6 1022 81 10000 6 270 07:20 12.04.2021
403 Clear 6 1022 81 10000 6 270 07:20 12.04.2021
404 Clouds 4 1022 100 10000 7 270 05:52 12.04.2021
405 Clouds 3 1022 100 10000 5 280 04:31 12.04.2021
406 Clouds 4 1021 100 10000 8 290 01:23 12.04.2021
407 Clouds 4 1020 100 9000 5 260 00:25 12.04.2021
408 Clouds 4 1020 100 10000 6 280 23:46 11.04.2021
409 Rain 5 1020 100 10000 5 250 23:27 11.04.2021
410 Rain 5 1020 100 10000 6 250 22:46 11.04.2021
411 Rain 6 1020 100 10000 6 250 22:25 11.04.2021
412 Rain 6 1020 100 10000 5 240 21:49 11.04.2021
413 Rain 6 1020 100 10000 5 240 21:30 11.04.2021
414 Rain 6 1020 100 10000 5 240 21:30 11.04.2021
415 Rain 6 1021 100 10000 5 230 20:58 11.04.2021
416 Rain 5 1021 100 10000 4 220 20:31 11.04.2021
417 Rain 5 1021 100 10000 4 210 19:58 11.04.2021
418 Rain 5 1022 100 10000 4 220 19:38 11.04.2021
419 Rain 5 1022 100 10000 4 220 19:19 11.04.2021
420 Rain 5 1022 100 10000 4 220 19:19 11.04.2021
421 Rain 5 1022 100 10000 4 220 19:19 11.04.2021
422 Rain 5 1023 100 3900 5 240 18:45 11.04.2021
423 Rain 5 1023 100 10000 4 230 18:25 11.04.2021
424 Rain 5 1023 100 10000 4 230 17:48 11.04.2021
425 Rain 5 1023 93 10000 4 220 17:28 11.04.2021
426 Rain 5 1023 87 10000 4 220 16:52 11.04.2021
427 Rain 6 1024 75 10000 4 220 16:25 11.04.2021
428 Rain 6 1024 81 10000 4 210 15:57 11.04.2021
429 Rain 6 1024 81 10000 3 210 15:38 11.04.2021
430 Rain 6 1024 81 10000 3 210 15:19 11.04.2021
431 Rain 6 1025 75 10000 3 230 14:46 11.04.2021
432 Clear 6 1025 75 10000 4 200 14:18 11.04.2021
433 Rain 6 1025 87 10000 4 180 13:36 11.04.2021
434 Rain 6 1025 87 10000 4 180 13:18 11.04.2021
435 Clear 5 1027 100 10000 4 190 12:22 11.04.2021
436 Clear 5 1026 93 10000 4 160 11:53 11.04.2021
437 Clear 5 1026 93 10000 4 160 11:53 11.04.2021
438 Clouds 4 1027 100 10000 5 150 11:29 11.04.2021
439 Rain 4 1028 100 9000 4 150 10:50 11.04.2021
440 Rain 4 1030 100 9000 3 160 10:32 11.04.2021
441 Rain 3 1030 100 10000 3 160 09:59 11.04.2021
442 Rain 3 1030 100 10000 5 150 09:37 11.04.2021
443 Rain 3 1030 100 10000 5 150 09:19 11.04.2021
444 Rain 3 1031 100 9000 3 140 08:30 11.04.2021
445 Rain 3 1031 100 9000 3 140 08:30 11.04.2021
446 Rain 3 1033 100 9000 3 150 07:24 11.04.2021
447 Rain 3 1033 100 8000 3 150 06:56 11.04.2021
448 Rain 2 1034 100 4400 3 120 05:44 11.04.2021
449 Rain 2 1034 100 4100 4 120 05:21 11.04.2021
450 Rain 2 1035 100 7000 4 120 04:35 11.04.2021
451 Rain 1 1036 100 4600 3 80 02:56 11.04.2021
452 Clouds 2 1036 100 6000 2 60 00:40 11.04.2021
453 Clouds 2 1036 100 6000 2 60 00:40 11.04.2021
454 Mist 2 1035 100 4900 2 60 23:51 10.04.2021
455 Fog 2 1036 100 900 1 0 23:27 10.04.2021
456 Fog 2 1036 100 2000 1 10 22:45 10.04.2021
457 Fog 2 1036 100 900 1.16 316 22:24 10.04.2021
458 Fog 2 1036 100 200 1 300 21:50 10.04.2021
459 Fog 3 1036 93 250 1.67 309 21:23 10.04.2021
460 Fog 2 1035 100 350 1 0 20:48 10.04.2021
461 Rain 2 1035 100 350 1.92 286 20:24 10.04.2021
462 Rain 3 1035 100 4700 1.92 286 19:45 10.04.2021
463 Rain 3 1035 100 3300 1 0 19:27 10.04.2021
464 Rain 3 1035 100 7000 2 320 18:53 10.04.2021
465 Rain 3 1035 100 9000 2 310 18:33 10.04.2021
466 Rain 3 1035 100 9000 3 290 17:44 10.04.2021
467 Rain 4 1035 100 8000 2 240 17:23 10.04.2021
468 Rain 5 1035 81 10000 2 250 16:31 10.04.2021
469 Rain 6 1034 75 10000 2 210 15:56 10.04.2021
470 Rain 7 1034 61 10000 3 210 15:34 10.04.2021
471 Rain 7 1034 61 10000 3 210 14:47 10.04.2021
472 Rain 7 1034 53 10000 3 210 14:23 10.04.2021
473 Rain 8 1035 49 10000 3 220 13:43 10.04.2021
474 Rain 8 1034 49 10000 4 220 13:25 10.04.2021
475 Rain 8 1034 49 10000 5 230 12:35 10.04.2021
476 Rain 8 1034 49 10000 6 220 11:52 10.04.2021
477 Clear 8 1034 49 10000 4 210 11:26 10.04.2021
478 Clear 8 1034 49 10000 5 210 10:54 10.04.2021
479 Clear 8 1034 49 10000 5 200 10:32 10.04.2021
480 Clear 8 1034 49 10000 5 200 09:59 10.04.2021
481 Clear 7 1034 53 10000 5 210 09:28 10.04.2021
482 Clear 7 1034 53 10000 5 210 08:49 10.04.2021
483 Clear 7 1034 53 10000 5 210 08:29 10.04.2021
484 Clear 7 1034 53 10000 5 210 08:29 10.04.2021
485 Clear 6 1034 56 10000 5 190 07:52 10.04.2021
486 Clear 7 1034 53 10000 6 200 07:21 10.04.2021
487 Clear 5 1034 60 10000 5 200 06:27 10.04.2021
488 Clear 2 1034 69 10000 3 190 04:42 10.04.2021
489 Clear 2 1034 64 10000 4 190 02:54 10.04.2021
490 Clear 2 1034 69 10000 4 190 02:35 10.04.2021
491 Clear 1 1033 75 10000 2 150 00:50 10.04.2021
492 Clear 1 1033 75 10000 2 150 00:29 10.04.2021
493 Clear 2 1033 69 10000 2 160 23:44 09.04.2021
494 Clear 3 1033 65 10000 2 170 23:18 09.04.2021
495 Clear 2 1033 69 10000 2 160 22:42 09.04.2021
496 Clear 2 1033 69 10000 2 160 22:22 09.04.2021
497 Clear 3 1032 70 10000 2 180 21:39 09.04.2021
498 Clear 3 1032 70 10000 2 180 21:19 09.04.2021
499 Clear 3 1032 70 10000 2 160 20:45 09.04.2021
500 Clear 3 1032 70 10000 2 160 20:23 09.04.2021
501 Clear 2 1032 75 10000 2 150 19:57 09.04.2021
502 Clear 2 1032 75 10000 2 140 19:38 09.04.2021
503 Clear 2 1032 75 10000 2 140 19:20 09.04.2021
504 Clear 2 1032 75 10000 2 120 18:41 09.04.2021
505 Clear 2 1032 75 10000 2 120 18:19 09.04.2021
506 Clear 3 1031 70 10000 3 120 17:41 09.04.2021
507 Clear 3 1031 75 10000 3 120 16:57 09.04.2021
508 Clear 4 1031 70 10000 4 120 16:38 09.04.2021
509 Clear 5 1031 65 10000 3 120 15:57 09.04.2021
510 Clear 6 1031 61 10000 3 120 15:38 09.04.2021
511 Clear 6 1031 61 10000 3 120 15:19 09.04.2021
512 Clear 6 1030 61 10000 4 110 14:41 09.04.2021
513 Clear 6 1030 61 10000 4 120 13:54 09.04.2021
514 Clear 8 1030 46 10000 5 160 13:26 09.04.2021
515 Clear 8 1030 46 10000 4 150 12:58 09.04.2021
516 Clear 7 1030 53 10000 4 150 12:37 09.04.2021
517 Clear 7 1030 53 10000 5 150 11:47 09.04.2021
518 Clear 7 1030 53 10000 4 160 11:23 09.04.2021
519 Clear 7 1030 53 10000 5 150 10:48 09.04.2021
520 Clear 6 1030 56 10000 5 140 10:30 09.04.2021
521 Clear 6 1030 61 10000 5 130 09:50 09.04.2021
522 Clear 6 1030 56 10000 5 120 09:24 09.04.2021
523 Clear 5 1030 60 10000 5 130 08:52 09.04.2021
524 Clear 3 1031 75 10000 5 130 07:39 09.04.2021
525 Clear 3 1031 70 10000 4 130 06:56 09.04.2021
526 Clear 2 1031 75 10000 4 150 05:56 09.04.2021
527 Clear -1 1030 100 10000 4 130 03:53 09.04.2021
528 Clear -2 1030 100 10000 3 120 01:48 09.04.2021
529 Clear -2 1030 100 10000 3 110 00:38 09.04.2021
530 Clear -2 1030 100 10000 3 110 00:19 09.04.2021
531 Clear -1 1030 93 10000 4 100 23:24 08.04.2021
532 Clear -1 1030 100 10000 4 100 22:45 08.04.2021
533 Clear 0 1030 93 10000 3 140 22:25 08.04.2021
534 Clouds 1 1030 80 10000 4 160 21:56 08.04.2021
535 Clouds 1 1030 80 10000 4 160 21:56 08.04.2021
536 Clouds 2 1030 75 10000 4 160 21:37 08.04.2021
537 Clouds 2 1030 75 10000 4 160 21:18 08.04.2021
538 Clouds 2 1030 80 10000 5 150 20:52 08.04.2021
539 Clouds 2 1030 80 10000 4 150 20:30 08.04.2021
540 Clouds 2 1030 80 10000 4 150 19:46 08.04.2021
541 Clouds 2 1030 80 10000 3 170 19:20 08.04.2021
542 Clouds 1 1030 86 10000 4 150 18:51 08.04.2021
543 Clouds 1 1030 86 10000 3 120 18:21 08.04.2021
544 Clouds 2 1030 80 10000 3 130 17:49 08.04.2021
545 Clouds 2 1030 80 10000 3 120 17:26 08.04.2021
546 Clouds 2 1029 80 10000 3 120 16:51 08.04.2021
547 Clouds 2 1029 80 10000 3 130 16:33 08.04.2021
548 Clouds 2 1029 80 10000 4 130 15:48 08.04.2021
549 Clouds 2 1029 80 10000 4 130 15:29 08.04.2021
550 Clouds 2 1029 75 10000 3 120 14:46 08.04.2021
551 Clouds 2 1029 75 10000 3 120 14:28 08.04.2021
552 Clouds 1 1029 80 10000 3 130 13:59 08.04.2021
553 Clouds 1 1029 80 10000 4 120 13:41 08.04.2021
554 Clouds 1 1029 80 10000 4 120 13:22 08.04.2021
555 Clouds 1 1029 80 10000 4 120 13:22 08.04.2021
556 Clouds 1 1029 80 10000 4 110 12:43 08.04.2021
557 Clouds 1 1029 80 10000 3 110 12:24 08.04.2021
558 Clouds 1 1029 80 10000 3 110 11:43 08.04.2021
559 Clouds 1 1029 86 10000 3 110 10:59 08.04.2021
560 Clouds 0 1029 86 10000 3 100 10:40 08.04.2021
561 Clouds 0 1029 86 10000 3 100 10:18 08.04.2021
562 Clouds 0 1029 93 10000 3 100 09:43 08.04.2021
563 Clouds 0 1029 86 10000 2 100 08:47 08.04.2021
564 Clouds 0 1029 86 10000 3 100 08:28 08.04.2021
565 Clouds 0 1028 86 10000 2 100 07:58 08.04.2021
566 Clouds 0 1028 86 10000 1 90 07:35 08.04.2021
567 Clouds -1 1027 100 10000 2 40 03:54 08.04.2021
568 Clouds -1 1025 100 10000 2 40 01:20 08.04.2021
569 Clouds 0 1025 93 10000 2 40 00:19 08.04.2021
570 Clouds 0 1024 93 10000 3 20 23:41 07.04.2021
571 Clouds 0 1024 93 10000 3 20 23:21 07.04.2021
572 Clouds 0 1024 93 10000 3 10 22:50 07.04.2021
573 Clouds 0 1024 93 10000 2 10 22:32 07.04.2021
574 Clouds 0 1024 93 10000 3 360 21:46 07.04.2021
575 Clouds 0 1023 93 10000 2 350 21:24 07.04.2021
576 Clouds 0 1023 93 10000 2 20 20:45 07.04.2021
577 Clouds 0 1023 93 10000 3 330 20:21 07.04.2021
578 Clouds 0 1022 93 10000 2 330 19:45 07.04.2021
579 Clouds 0 1022 93 10000 3 320 19:26 07.04.2021
580 Clouds 0 1022 93 10000 3 330 18:48 07.04.2021
581 Clouds 0 1022 86 10000 3 330 18:20 07.04.2021
582 Clouds 0 1022 86 10000 3 320 17:56 07.04.2021
583 Clouds 0 1021 86 10000 3 330 17:37 07.04.2021
584 Clouds 0 1021 86 10000 3 330 16:58 07.04.2021
585 Clouds 0 1021 86 10000 4 330 16:38 07.04.2021
586 Clouds 0 1021 86 10000 4 330 16:19 07.04.2021
587 Clouds 0 1021 86 10000 4 330 16:19 07.04.2021
588 Clouds 0 1020 86 10000 4 320 15:40 07.04.2021
589 Clouds 0 1020 86 10000 4 330 14:58 07.04.2021
590 Clouds 1 1019 80 10000 4 330 14:32 07.04.2021
591 Clouds 0 1019 86 10000 4 320 13:53 07.04.2021
592 Clouds 0 1019 86 10000 5 320 13:27 07.04.2021
593 Clouds 1 1018 80 10000 5 330 12:56 07.04.2021
594 Clouds 0 1018 86 10000 6 310 12:25 07.04.2021
595 Clouds 0 1017 93 10000 5 310 11:56 07.04.2021
596 Clouds 0 1017 93 10000 6 310 11:28 07.04.2021
597 Clouds 0 1017 93 10000 6 320 10:53 07.04.2021
598 Clouds 0 1016 93 10000 6 300 10:27 07.04.2021
599 Clouds 0 1016 93 10000 7 310 09:44 07.04.2021
600 Clouds 1 1015 93 10000 6 310 09:25 07.04.2021
601 Clouds 1 1014 93 10000 6 310 08:47 07.04.2021
602 Clouds 1 1014 100 10000 6 310 08:22 07.04.2021
603 Clouds 1 1013 100 10000 5 310 07:43 07.04.2021
604 Clouds 0 1013 100 10000 5 310 07:24 07.04.2021
605 Clouds 0 1012 100 10000 5 320 06:32 07.04.2021
606 Snow 0 1010 100 4000 6 310 04:23 07.04.2021
607 Snow 1 1006 100 8000 7 300 00:22 07.04.2021
608 Snow 1 1006 100 6000 7 300 23:47 06.04.2021
609 Snow 1 1005 100 3700 6 290 23:21 06.04.2021
610 Snow 1 1005 100 5000 7 290 22:48 06.04.2021
611 Snow 1 1005 100 9000 7 290 22:19 06.04.2021
612 Snow 1 1005 100 9000 7 290 22:19 06.04.2021
613 Snow 0 1004 100 8000 7 290 21:41 06.04.2021
614 Snow 0 1004 100 8000 7 290 21:22 06.04.2021
615 Snow 0 1004 100 7000 7 280 20:54 06.04.2021
616 Snow 0 1003 100 4600 7 280 20:24 06.04.2021
617 Snow 0 1003 100 4800 7 280 19:56 06.04.2021
618 Snow 0 1003 100 4400 7 280 19:34 06.04.2021
619 Snow 0 1003 100 3400 7 280 18:57 06.04.2021
620 Snow 0 1002 100 2500 7 280 18:38 06.04.2021
621 Snow 0 1002 100 2500 7 280 18:18 06.04.2021
622 Snow 1 1002 100 7000 7 280 17:40 06.04.2021
623 Snow 1 1002 100 7000 7 280 17:18 06.04.2021
624 Snow 1 1001 100 5000 6 280 16:42 06.04.2021
625 Snow 1 1000 100 5000 6 280 15:53 06.04.2021
626 Snow 1 1000 100 9000 5 280 15:25 06.04.2021
627 Snow 1 999 100 10000 5 250 14:43 06.04.2021
628 Snow 1 999 100 10000 5 250 14:24 06.04.2021
629 Snow 1 999 100 10000 4 250 13:46 06.04.2021
630 Snow 1 999 100 8000 4 240 13:25 06.04.2021
631 Snow 1 998 100 6000 4 230 12:45 06.04.2021
632 Snow 1 998 100 8000 4 230 12:26 06.04.2021
633 Snow 1 998 100 5000 4 220 11:55 06.04.2021
634 Snow 1 998 100 5000 4 210 11:36 06.04.2021
635 Snow 1 998 100 5000 4 210 11:18 06.04.2021
636 Snow 1 997 100 8000 4 210 10:39 06.04.2021
637 Snow 1 997 100 8000 4 210 10:19 06.04.2021
638 Snow 1 997 100 10000 4 210 09:43 06.04.2021
639 Snow 1 996 100 4700 5 210 08:50 06.04.2021
640 Snow 1 996 100 7000 4 210 08:19 06.04.2021
641 Snow 2 995 100 10000 3 200 06:57 06.04.2021
642 Snow 2 995 93 10000 4 190 06:24 06.04.2021
643 Snow 3 995 75 10000 3 170 03:54 06.04.2021
644 Clear 4 995 65 10000 2 150 00:48 06.04.2021
645 Clear 4 995 65 10000 2 150 00:21 06.04.2021
646 Clear 4 995 65 10000 2 130 23:50 05.04.2021
647 Clear 4 995 60 10000 2 140 23:28 05.04.2021
648 Clear 5 996 56 10000 2 150 22:53 05.04.2021
649 Clear 5 996 56 10000 2 140 22:33 05.04.2021
650 Clear 5 996 56 10000 2 130 21:47 05.04.2021
651 Clear 5 997 56 10000 2 130 21:23 05.04.2021
652 Clear 5 997 56 10000 3 130 20:49 05.04.2021
653 Clear 5 997 56 10000 2 120 20:30 05.04.2021
654 Clear 5 997 56 10000 2 140 19:45 05.04.2021
655 Clear 5 997 56 10000 2 140 19:25 05.04.2021
656 Clear 6 997 52 10000 2 150 18:57 05.04.2021
657 Clear 6 998 52 10000 2 140 18:38 05.04.2021
658 Clear 6 998 52 10000 2 140 18:19 05.04.2021
659 Clear 6 998 52 10000 2 150 17:46 05.04.2021
660 Clear 6 998 52 10000 2 150 17:21 05.04.2021
661 Clear 6 998 52 10000 2 150 16:44 05.04.2021
662 Clear 6 998 52 10000 2 150 16:21 05.04.2021
663 Clear 7 998 49 10000 2 160 15:56 05.04.2021
664 Clear 7 999 49 10000 3 150 15:30 05.04.2021
665 Clear 7 999 49 10000 3 140 14:58 05.04.2021
666 Clear 8 999 46 10000 3 140 14:35 05.04.2021
667 Clear 9 999 43 10000 4 160 13:40 05.04.2021
668 Clear 9 999 43 10000 4 160 13:40 05.04.2021
669 Clear 9 999 43 10000 4 160 13:22 05.04.2021
670 Clear 8 1000 46 10000 4 150 12:45 05.04.2021
671 Clear 8 1000 46 10000 5 150 12:22 05.04.2021
672 Clear 8 1000 46 10000 5 140 11:45 05.04.2021
673 Clear 8 1000 46 10000 5 140 11:45 05.04.2021
674 Clear 8 1000 46 10000 4 130 11:27 05.04.2021
675 Clear 8 1001 46 10000 5 130 10:45 05.04.2021
676 Clear 7 1001 49 10000 4 130 10:27 05.04.2021
677 Clear 7 1001 49 10000 4 130 09:48 05.04.2021
678 Clear 6 1002 52 10000 5 140 09:24 05.04.2021
679 Clear 6 1002 52 10000 4 150 08:45 05.04.2021
680 Clear 5 1002 56 10000 6 150 08:26 05.04.2021
681 Clear 5 1002 56 10000 6 150 08:26 05.04.2021
682 Clear 4 1003 56 10000 5 150 07:37 05.04.2021
683 Clear 4 1003 56 10000 5 160 06:40 05.04.2021
684 Clear 3 1005 65 10000 4 150 02:32 05.04.2021
685 Clear 3 1005 65 10000 3 150 00:52 05.04.2021
686 Clear 4 1006 65 10000 4 180 23:52 04.04.2021
687 Clear 4 1006 65 10000 4 180 23:29 04.04.2021
688 Clear 4 1006 65 10000 4 190 22:53 04.04.2021
689 Clear 4 1006 65 10000 4 190 22:30 04.04.2021
690 Clear 4 1006 65 10000 4 190 21:43 04.04.2021
691 Clear 4 1006 65 10000 3 190 21:19 04.04.2021
692 Clear 5 1006 60 10000 4 190 20:30 04.04.2021
693 Clear 5 1006 60 10000 4 190 19:58 04.04.2021
694 Clear 5 1006 60 10000 4 190 19:38 04.04.2021
695 Clear 5 1006 60 10000 4 190 19:19 04.04.2021
696 Clear 6 1006 56 10000 5 190 18:45 04.04.2021
697 Clear 6 1006 56 10000 6 190 18:24 04.04.2021
698 Clear 6 1007 56 10000 5 180 17:45 04.04.2021
699 Clear 6 1007 56 10000 4 180 17:24 04.04.2021
700 Clear 6 1007 56 10000 2 160 16:52 04.04.2021
701 Clear 6 1007 56 10000 3 170 16:21 04.04.2021
702 Clear 7 1007 49 10000 3 150 15:36 04.04.2021
703 Clear 7 1007 49 10000 4 160 14:50 04.04.2021
704 Clear 7 1008 49 10000 4 190 14:28 04.04.2021
705 Clear 8 1008 46 10000 5 190 13:53 04.04.2021
706 Clear 8 1008 46 10000 6 190 13:25 04.04.2021
707 Clear 8 1008 42 10000 6 190 12:50 04.04.2021
708 Clear 8 1008 42 10000 6 200 12:27 04.04.2021
709 Clear 7 1009 49 10000 6 190 11:43 04.04.2021
710 Clear 7 1009 49 10000 6 190 11:25 04.04.2021
711 Clear 7 1009 49 10000 6 190 10:46 04.04.2021
712 Clear 7 1009 49 10000 6 200 09:59 04.04.2021
713 Clear 6 1009 56 10000 5 200 09:27 04.04.2021
714 Clear 6 1009 56 10000 4 190 08:55 04.04.2021
715 Clear 5 1010 65 10000 4 190 08:37 04.04.2021
716 Clear 5 1010 65 10000 4 190 08:19 04.04.2021
717 Clear 3 1010 70 10000 5 200 06:39 04.04.2021
718 Clear 2 1010 75 10000 5 200 05:33 04.04.2021
719 Clear 1 1010 75 10000 4 220 01:33 04.04.2021
720 Clear 2 1010 75 10000 5 220 00:25 04.04.2021
721 Clear 2 1010 80 10000 4 210 23:52 03.04.2021
722 Clear 2 1010 87 10000 4 210 23:33 03.04.2021
723 Clear 2 1010 93 10000 3 200 22:53 03.04.2021
724 Clear 2 1010 100 10000 3 200 22:22 03.04.2021
725 Clear 2 1010 100 10000 3 190 21:56 03.04.2021
726 Clear 3 1010 93 10000 3 190 21:38 03.04.2021
727 Clear 3 1010 93 10000 3 190 21:18 03.04.2021
728 Clouds 3 1011 100 8000 2 180 20:29 03.04.2021
729 Clouds 3 1011 100 7000 3 180 19:51 03.04.2021
730 Clouds 2 1011 100 7000 3 190 19:29 03.04.2021
731 Clouds 2 1011 100 7000 3 190 18:57 03.04.2021
732 Rain 2 1011 100 7000 3 200 18:36 03.04.2021
733 Snow 2 1012 100 7000 3 200 17:57 03.04.2021
734 Rain 2 1012 100 9000 3 200 17:27 03.04.2021
735 Rain 2 1012 100 10000 3 190 16:58 03.04.2021
736 Snow 3 1012 93 7000 3 190 16:31 03.04.2021
737 Snow 3 1012 100 10000 2 210 15:53 03.04.2021
738 Snow 3 1012 100 10000 2 210 15:53 03.04.2021
739 Snow 3 1012 100 10000 4 220 15:32 03.04.2021
740 Snow 4 1012 87 10000 4 220 14:54 03.04.2021
741 Clouds 4 1012 81 10000 3 230 14:27 03.04.2021
742 Rain 4 1012 81 10000 3 230 13:58 03.04.2021
743 Rain 5 1012 75 10000 5 220 13:36 03.04.2021
744 Rain 5 1012 75 10000 5 220 13:18 03.04.2021
745 Clear 5 1011 70 10000 4 220 12:35 03.04.2021
746 Clear 5 1011 70 10000 5 230 11:57 03.04.2021
747 Clear 5 1011 70 10000 4 220 11:32 03.04.2021
748 Clear 4 1011 75 10000 4 220 10:49 03.04.2021
749 Clear 4 1011 75 10000 5 230 10:29 03.04.2021
750 Clear 3 1011 87 10000 4 220 09:47 03.04.2021
751 Clouds 3 1011 87 10000 5 230 09:25 03.04.2021
752 Clouds 2 1011 100 10000 5 230 08:38 03.04.2021
753 Clouds 1 1011 100 10000 5 220 07:48 03.04.2021
754 Clouds 1 1011 100 10000 5 240 07:27 03.04.2021
755 Clouds 1 1009 100 10000 5 250 04:26 03.04.2021
756 Clouds 1 1009 100 10000 5 250 02:58 03.04.2021
757 Clouds 1 1008 100 10000 5 260 02:34 03.04.2021
758 Clouds 1 1008 100 10000 5 250 01:31 03.04.2021
759 Clouds 1 1007 100 10000 5 250 00:19 03.04.2021
760 Clouds 1 1007 100 10000 5 250 23:46 02.04.2021
761 Clouds 1 1007 100 10000 5 250 23:19 02.04.2021
762 Clouds 1 1007 100 10000 5 250 22:45 02.04.2021
763 Clouds 1 1006 100 10000 5 250 22:26 02.04.2021
764 Clouds 1 1006 100 10000 6 250 21:42 02.04.2021
765 Clouds 1 1006 100 10000 6 250 21:19 02.04.2021
766 Clouds 1 1005 100 10000 6 250 20:47 02.04.2021
767 Snow 1 1005 100 10000 7 250 20:25 02.04.2021
768 Snow 1 1005 93 3600 4 230 19:43 02.04.2021
769 Snow 1 1005 93 3600 4 230 19:24 02.04.2021
770 Snow 0 1005 100 2100 4 200 18:50 02.04.2021
771 Snow 1 1005 93 1800 4 190 18:31 02.04.2021
772 Snow 1 1005 100 2200 4 190 17:59 02.04.2021
773 Snow 1 1005 100 5000 4 190 17:36 02.04.2021
774 Snow 2 1006 100 8000 3 180 16:44 02.04.2021
775 Snow 1 1006 100 6000 3 150 15:51 02.04.2021
776 Snow 2 1006 100 9000 3 170 15:32 02.04.2021
777 Snow 2 1007 100 7000 3 180 14:42 02.04.2021
778 Rain 2 1007 100 7000 3 180 14:21 02.04.2021
779 Snow 2 1007 80 10000 3 190 13:39 02.04.2021
780 Clouds 2 1007 80 10000 3 190 13:19 02.04.2021
781 Clouds 2 1008 80 10000 4 200 12:39 02.04.2021
782 Clouds 2 1008 80 10000 4 200 12:19 02.04.2021
783 Clouds 2 1008 80 10000 4 200 11:48 02.04.2021
784 Clouds 2 1008 80 10000 5 200 11:19 02.04.2021
785 Clouds 2 1008 80 10000 3 210 10:44 02.04.2021
786 Clouds 2 1008 80 10000 3 200 10:24 02.04.2021
787 Clouds 2 1008 80 10000 3 210 09:52 02.04.2021
788 Clouds 2 1008 75 10000 4 230 09:26 02.04.2021
789 Clouds 2 1008 75 10000 4 240 08:46 02.04.2021
790 Clouds 1 1008 80 10000 4 240 08:27 02.04.2021
791 Clouds 1 1007 93 10000 4 230 07:22 02.04.2021
792 Clouds 0 1007 100 10000 3 240 06:40 02.04.2021
793 Clouds -1 1006 100 10000 3 250 03:46 02.04.2021
794 Clouds 0 1006 100 10000 3 250 02:19 02.04.2021
795 Snow -1 1005 100 10000 3 250 00:44 02.04.2021
796 Snow -1 1005 100 9000 3 240 23:58 01.04.2021
797 Snow -1 1005 100 7000 3 240 23:27 01.04.2021
798 Snow -1 1005 100 9000 3 240 22:51 01.04.2021
799 Snow -1 1005 100 6000 3 240 22:18 01.04.2021
800 Snow -1 1005 100 8000 3 240 21:45 01.04.2021
801 Snow -1 1005 100 3800 3 230 21:24 01.04.2021
802 Snow -1 1005 100 1800 3 200 20:42 01.04.2021
803 Snow -1 1005 100 1800 3 200 20:22 01.04.2021
804 Snow -1 1005 100 2400 3 200 19:46 01.04.2021
805 Snow -1 1005 100 2100 3 200 19:27 01.04.2021
806 Snow -1 1005 100 6000 4 200 18:45 01.04.2021
807 Snow -1 1006 100 3900 4 200 18:18 01.04.2021
808 Snow 0 1006 100 3500 4 200 17:47 01.04.2021
809 Snow 0 1006 100 1800 4 200 17:24 01.04.2021
810 Snow 0 1006 100 1800 4 200 17:24 01.04.2021
811 Snow 0 1006 100 3000 5 190 16:50 01.04.2021
812 Snow 0 1007 100 2100 4 200 16:18 01.04.2021
813 Snow 2 1007 75 10000 6 190 15:40 01.04.2021
814 Snow 2 1007 75 10000 6 190 15:19 01.04.2021
815 Snow 2 1007 75 10000 4 210 14:40 01.04.2021
816 Snow 2 1007 75 10000 4 210 14:40 01.04.2021
817 Snow 2 1007 75 10000 4 210 14:40 01.04.2021
818 Snow 2 1007 75 10000 4 210 14:40 01.04.2021
819 Snow 2 1007 75 10000 4 210 14:21 01.04.2021
820 Snow 2 1008 80 9000 6 220 13:50 01.04.2021
821 Snow 3 1008 65 10000 4 220 13:30 01.04.2021
822 Snow 3 1008 65 10000 5 220 12:47 01.04.2021
823 Clouds 3 1008 65 10000 5 210 12:29 01.04.2021
824 Clouds 3 1008 65 10000 6 220 11:45 01.04.2021
825 Clouds 3 1008 65 10000 6 230 11:24 01.04.2021
826 Clouds 3 1008 65 10000 5 230 10:53 01.04.2021
827 Clouds 3 1008 65 10000 5 230 10:53 01.04.2021
828 Clouds 3 1008 65 10000 6 220 10:33 01.04.2021
829 Clouds 3 1008 60 10000 6 220 09:53 01.04.2021
830 Clouds 3 1008 60 10000 5 220 09:24 01.04.2021
831 Snow 1 1008 80 10000 5 230 08:33 01.04.2021
832 Snow 1 1008 80 10000 7 230 07:52 01.04.2021
833 Snow 2 1008 64 10000 8 230 07:18 01.04.2021
834 Clear 2 1008 55 10000 5 210 06:42 01.04.2021
835 Snow 1 1009 60 10000 4 200 03:30 01.04.2021
836 Snow 1 1010 60 10000 3 190 00:49 01.04.2021
837 Snow 1 1010 60 10000 2 190 23:44 31.03.2021
838 Snow 1 1010 60 10000 3 200 23:18 31.03.2021
839 Snow 0 1011 69 10000 2 180 22:41 31.03.2021
840 Clear 0 1011 69 10000 2 180 22:20 31.03.2021
841 Clear -1 1011 74 10000 2 180 21:45 31.03.2021
842 Clear -2 1011 80 10000 2 140 21:23 31.03.2021
843 Clear -3 1012 93 10000 2 130 20:44 31.03.2021
844 Clear -4 1012 100 10000 3 120 20:24 31.03.2021
845 Clear -5 1012 100 10000 3 110 19:59 31.03.2021
846 Clear -5 1013 100 10000 3 110 19:36 31.03.2021
847 Clear -5 1013 100 10000 3 110 19:18 31.03.2021
848 Clear -6 1013 100 10000 3 110 18:43 31.03.2021
849 Clear -5 1014 93 10000 3 120 17:57 31.03.2021
850 Clear -4 1015 86 10000 4 110 17:36 31.03.2021
851 Clear -5 1015 93 10000 4 120 16:58 31.03.2021
852 Clear -4 1016 80 10000 4 120 16:38 31.03.2021
853 Clear -4 1016 80 10000 4 120 16:20 31.03.2021
854 Clear -4 1016 86 10000 4 120 15:50 31.03.2021
855 Clear -3 1016 80 10000 4 120 15:19 31.03.2021
856 Clear -3 1016 80 10000 5 120 14:44 31.03.2021
857 Clouds -3 1017 80 10000 5 120 14:22 31.03.2021
858 Clouds -4 1018 80 10000 5 120 13:41 31.03.2021
859 Snow -5 1018 80 10000 5 120 12:42 31.03.2021
860 Snow -5 1018 80 10000 5 120 12:21 31.03.2021
861 Snow -5 1018 80 10000 5 120 12:21 31.03.2021
862 Snow -5 1019 80 3600 6 110 11:56 31.03.2021
863 Snow -5 1019 80 3500 5 120 11:21 31.03.2021
864 Snow -4 1019 68 10000 4 120 10:47 31.03.2021
865 Snow -5 1020 68 10000 4 140 10:26 31.03.2021
866 Snow -6 1020 68 10000 4 140 09:43 31.03.2021
867 Snow -7 1020 68 10000 3 130 08:59 31.03.2021
868 Snow -8 1021 73 10000 4 140 08:38 31.03.2021
869 Snow -9 1022 67 10000 4 140 07:53 31.03.2021
870 Snow -11 1022 79 10000 4 120 06:49 31.03.2021
871 Clear -15 1023 85 10000 4 110 03:51 31.03.2021
872 Clear -15 1023 92 10000 4 110 01:43 31.03.2021
873 Clear -16 1023 85 10000 3 90 00:49 31.03.2021
874 Clear -16 1023 92 10000 3 100 00:21 31.03.2021
875 Clear -15 1023 92 10000 4 90 23:41 30.03.2021
876 Clear -14 1023 85 10000 4 90 22:59 30.03.2021
877 Clear -14 1023 85 10000 4 90 22:40 30.03.2021
878 Clear -14 1023 85 10000 4 90 22:40 30.03.2021
879 Clear -14 1023 85 10000 4 90 22:21 30.03.2021
880 Clear -13 1023 85 10000 4 80 21:49 30.03.2021
881 Clear -12 1023 79 10000 4 90 21:20 30.03.2021
882 Clear -11 1023 79 10000 4 80 20:53 30.03.2021
883 Clear -11 1023 79 10000 4 80 20:53 30.03.2021
884 Clouds -10 1023 79 10000 4 90 20:28 30.03.2021
885 Clouds -9 1023 79 10000 4 80 19:51 30.03.2021
886 Clouds -8 1023 79 10000 4 60 19:27 30.03.2021
887 Snow -6 1022 73 10000 5 50 18:40 30.03.2021
888 Snow -6 1022 79 10000 4 30 17:58 30.03.2021
889 Snow -5 1022 93 9000 4 20 17:39 30.03.2021
890 Snow -5 1022 93 9000 4 20 17:20 30.03.2021
891 Snow -4 1022 93 7000 3 300 16:45 30.03.2021
892 Snow -4 1021 93 8000 4 290 16:23 30.03.2021
893 Snow -4 1021 86 10000 5 280 15:21 30.03.2021
894 Snow -4 1020 86 10000 4 280 14:57 30.03.2021
895 Clouds -4 1020 80 10000 5 290 14:22 30.03.2021
896 Clouds -4 1020 80 10000 5 300 13:59 30.03.2021
897 Clouds -4 1020 80 10000 6 290 13:37 30.03.2021
898 Snow -4 1020 80 10000 5 290 12:49 30.03.2021
899 Snow -5 1019 86 10000 6 290 12:28 30.03.2021
900 Snow -5 1019 86 10000 7 290 11:56 30.03.2021
901 Snow -5 1019 86 10000 7 260 11:23 30.03.2021
902 Snow -6 1019 93 3200 7 280 10:46 30.03.2021
903 Snow -6 1018 93 1400 8 280 10:26 30.03.2021
904 Snow -6 1018 86 2400 8 280 09:50 30.03.2021
905 Snow -7 1018 86 4500 6 250 09:31 30.03.2021
906 Snow -8 1018 86 2200 8 250 08:56 30.03.2021
907 Snow -8 1018 79 1500 6 240 08:37 30.03.2021
908 Snow -9 1019 73 7000 6 240 07:51 30.03.2021
909 Snow -10 1019 73 10000 7 230 07:22 30.03.2021
910 Clear -12 1022 85 10000 5 250 05:26 30.03.2021
911 Clear -14 1022 85 10000 4 240 04:58 30.03.2021
912 Clear -19 1024 84 10000 1 280 00:33 30.03.2021
913 Clear -19 1024 92 10000 2 290 23:34 29.03.2021
914 Clear -19 1024 92 10000 2 310 22:51 29.03.2021
915 Clear -18 1024 85 10000 3 290 22:26 29.03.2021
916 Clear -17 1024 85 10000 2 330 21:47 29.03.2021
917 Clear -16 1024 85 10000 3 330 21:27 29.03.2021
918 Clear -15 1024 78 10000 4 340 20:48 29.03.2021
919 Clear -15 1024 78 10000 4 340 20:27 29.03.2021
920 Clear -15 1024 85 10000 4 340 19:49 29.03.2021
921 Clear -14 1024 78 10000 3 340 19:22 29.03.2021
922 Clear -13 1024 78 10000 5 350 18:43 29.03.2021
923 Clear -13 1024 78 10000 5 350 18:23 29.03.2021
924 Clear -12 1023 79 10000 5 340 17:46 29.03.2021
925 Clear -11 1023 73 10000 4 330 17:18 29.03.2021
926 Clear -10 1023 73 10000 4 330 16:37 29.03.2021
927 Clear -10 1023 73 10000 4 330 16:18 29.03.2021
928 Clear -9 1022 67 10000 4 340 15:35 29.03.2021
929 Clear -9 1022 67 10000 4 340 14:57 29.03.2021
930 Clear -9 1021 67 10000 5 340 14:38 29.03.2021
931 Clear -9 1021 67 10000 5 340 13:54 29.03.2021
932 Clear -9 1021 67 10000 6 340 13:30 29.03.2021
933 Clear -9 1021 67 10000 7 350 12:51 29.03.2021
934 Clear -10 1020 67 10000 7 350 12:30 29.03.2021
935 Clear -11 1020 67 10000 6 340 11:41 29.03.2021
936 Clear -11 1020 67 10000 6 340 11:22 29.03.2021
937 Clear -11 1019 67 10000 6 350 10:40 29.03.2021
938 Clear -12 1019 72 10000 6 350 09:56 29.03.2021
939 Clear -12 1018 67 10000 6 360 09:23 29.03.2021
940 Clear -13 1018 72 10000 6 350 08:30 29.03.2021
941 Clear -13 1017 72 10000 6 350 07:51 29.03.2021
942 Clear -14 1016 78 10000 5 350 06:42 29.03.2021
943 Clear -14 1016 78 10000 5 350 05:19 29.03.2021
944 Clear -15 1013 85 10000 4 360 02:22 29.03.2021
945 Clear -15 1013 85 10000 4 10 00:26 29.03.2021
946 Clear -15 1012 85 10000 4 10 23:53 28.03.2021
947 Clear -15 1012 85 10000 4 10 23:24 28.03.2021
948 Clear -14 1012 85 10000 4 10 22:42 28.03.2021
949 Clear -14 1012 85 10000 4 10 22:23 28.03.2021
950 Clear -14 1012 85 10000 4 10 21:45 28.03.2021
951 Clear -14 1011 85 10000 3 10 21:24 28.03.2021
952 Clear -13 1011 85 10000 3 360 20:51 28.03.2021
953 Clear -13 1011 85 10000 3 360 20:33 28.03.2021
954 Clear -13 1011 85 10000 3 10 19:47 28.03.2021
955 Clear -13 1011 85 10000 3 10 19:25 28.03.2021
956 Clear -12 1011 79 10000 4 360 18:59 28.03.2021
957 Clear -11 1011 79 10000 4 350 18:36 28.03.2021
958 Clear -10 1011 79 10000 4 340 17:56 28.03.2021
959 Clear -10 1011 79 10000 3 340 17:36 28.03.2021
960 Clear -9 1011 79 10000 3 340 16:55 28.03.2021
961 Clear -9 1010 79 10000 2 340 16:24 28.03.2021
962 Clear -8 1010 73 10000 3 350 15:49 28.03.2021
963 Clear -7 1010 68 10000 3 350 15:24 28.03.2021
964 Clear -7 1010 73 10000 4 10 14:39 28.03.2021
965 Clear -7 1010 73 10000 5 360 13:55 28.03.2021
966 Clear -7 1010 73 10000 4 360 13:34 28.03.2021
967 Clear -7 1010 73 10000 5 350 12:55 28.03.2021
968 Clear -7 1010 73 10000 5 350 12:34 28.03.2021
969 Clear -7 1009 73 10000 4 360 11:50 28.03.2021
970 Clear -7 1010 79 10000 4 10 11:32 28.03.2021
971 Clear -8 1010 79 10000 4 360 10:47 28.03.2021
972 Clear -8 1010 73 10000 4 360 10:28 28.03.2021
973 Clear -8 1010 67 10000 5 330 09:49 28.03.2021
974 Clear -9 1010 73 10000 5 10 09:25 28.03.2021
975 Clear -9 1010 73 10000 4 20 08:48 28.03.2021
976 Clear -10 1010 73 10000 4 330 07:53 28.03.2021
977 Clear -10 1010 73 10000 5 360 07:34 28.03.2021
978 Clear -12 1010 79 10000 4 360 05:33 28.03.2021
979 Clear -10 1010 79 10000 3 360 01:50 28.03.2021
980 Clear -9 1009 79 10000 3 10 00:25 28.03.2021
981 Clear -9 1009 79 10000 4 20 23:48 27.03.2021
982 Clear -8 1009 73 10000 4 10 23:29 27.03.2021
983 Clear -7 1009 73 10000 4 20 22:38 27.03.2021
984 Clear -7 1009 73 10000 4 20 22:18 27.03.2021
985 Clear -6 1009 68 10000 4 20 21:41 27.03.2021
986 Clear -6 1009 68 10000 4 20 21:41 27.03.2021
987 Clear -6 1009 68 10000 4 20 21:20 27.03.2021
988 Clear -6 1009 73 10000 4 30 20:55 27.03.2021
989 Clear -6 1009 73 10000 6 30 20:36 27.03.2021
990 Clear -5 1009 68 10000 5 10 19:45 27.03.2021
991 Clear -5 1009 74 10000 6 20 19:24 27.03.2021
992 Clouds -4 1009 68 10000 6 20 18:56 27.03.2021
993 Clouds -4 1009 80 10000 5 360 18:37 27.03.2021
994 Clouds -4 1009 80 10000 5 360 18:18 27.03.2021
995 Clouds -4 1008 86 10000 6 10 17:28 27.03.2021
996 Clouds -4 1008 86 10000 6 10 17:28 27.03.2021
997 Clouds -3 1008 86 10000 7 10 16:53 27.03.2021
998 Snow -3 1008 93 5000 6 10 16:31 27.03.2021
999 Snow -2 1007 93 10000 7 10 15:58 27.03.2021
1000 Snow -2 1007 93 9000 6 10 15:36 27.03.2021
1001 Snow -1 1006 93 10000 6 10 14:55 27.03.2021
1002 Snow 1 1006 86 10000 5 360 14:22 27.03.2021
1003 Snow 2 1005 80 10000 5 340 13:27 27.03.2021
1004 Snow 3 1005 70 10000 5 330 13:00 27.03.2021
1005 Snow 4 1005 65 10000 5 300 12:35 27.03.2021
1006 Clouds 4 1004 65 10000 5 320 11:47 27.03.2021
1007 Clear 4 1004 65 10000 5 290 11:28 27.03.2021
1008 Clear 4 1004 65 10000 5 290 10:48 27.03.2021
1009 Clear 4 1004 65 10000 4 240 10:28 27.03.2021
1010 Clear 4 1003 65 10000 3 230 09:41 27.03.2021
1011 Clear 4 1003 65 10000 3 230 09:18 27.03.2021
1012 Clouds 4 1003 70 10000 4 220 08:33 27.03.2021
1013 Clouds 2 1003 80 10000 3 190 07:36 27.03.2021
1014 Snow 3 1003 81 10000 2.89 270 06:58 27.03.2021
1015 Snow 2 1003 87 10000 2 250 06:34 27.03.2021
1016 Clear -2 1003 93 10000 3.11 265 04:40 27.03.2021
1017 Clear -4 1002 100 10000 3 280 00:56 27.03.2021
1018 Clear -3 1002 100 10000 3 280 00:31 27.03.2021
1019 Clear -3 1002 100 10000 3 280 23:58 26.03.2021
1020 Clear -3 1002 100 10000 2 280 23:22 26.03.2021
1021 Clear 0 1001 86 10000 3 250 22:36 26.03.2021
1022 Clear 1 1001 80 10000 3 250 21:40 26.03.2021
1023 Clear 1 1001 80 10000 3 250 21:22 26.03.2021
1024 Clear 0 1001 86 10000 3 280 20:44 26.03.2021
1025 Clear 0 1001 86 10000 3 270 20:24 26.03.2021
1026 Clear 2 1002 75 10000 3 250 19:49 26.03.2021
1027 Clear 2 1001 75 10000 3 240 19:30 26.03.2021
1028 Clear 3 1001 70 10000 4 250 18:46 26.03.2021
1029 Clear 3 1001 75 10000 4 250 18:27 26.03.2021
1030 Clear 3 1001 75 10000 4 250 17:49 26.03.2021
1031 Clear 3 1001 70 10000 5 250 17:18 26.03.2021
1032 Clear 3 1001 70 10000 4 240 16:33 26.03.2021
1033 Clear 3 1001 70 10000 4 240 15:58 26.03.2021
1034 Clear 3 1001 70 10000 4 240 15:58 26.03.2021
1035 Clear 3 1001 75 10000 4 240 15:24 26.03.2021
1036 Clear 5 1001 60 10000 6 250 14:34 26.03.2021
1037 Clear 5 1001 60 10000 5 250 13:43 26.03.2021
1038 Clear 5 1000 60 10000 7 260 13:21 26.03.2021
1039 Clear 5 1000 65 10000 7 270 12:34 26.03.2021
1040 Clear 5 1000 65 10000 7 250 11:40 26.03.2021
1041 Clear 5 1000 65 10000 7 250 11:19 26.03.2021
1042 Clear 5 999 65 10000 7 260 10:41 26.03.2021
1043 Clouds 5 999 65 10000 8 250 09:58 26.03.2021
1044 Clouds 4 999 70 10000 8 260 09:40 26.03.2021
1045 Clouds 4 999 70 10000 7 240 08:45 26.03.2021
1046 Clouds 4 999 70 10000 7 240 08:24 26.03.2021
1047 Clouds 3 998 75 10000 6 240 07:42 26.03.2021
1048 Clouds 3 998 75 10000 6 240 07:20 26.03.2021
1049 Clouds 2 998 80 10000 6 240 06:54 26.03.2021
1050 Clouds 0 998 86 10000 5 230 05:31 26.03.2021
1051 Clouds -2 997 100 10000 5 230 02:32 26.03.2021
1052 Snow -3 998 100 2600 5 210 00:32 26.03.2021
1053 Snow -3 998 100 2200 5 220 23:46 25.03.2021
1054 Snow -3 998 93 9000 5 200 23:21 25.03.2021
1055 Snow -4 998 93 1300 5 200 22:37 25.03.2021
1056 Clouds -3 999 74 10000 5 200 21:53 25.03.2021
1057 Clouds -3 999 68 10000 5 200 21:34 25.03.2021
1058 Clouds -3 1000 68 10000 5 200 20:47 25.03.2021
1059 Clouds -4 1000 74 10000 5 200 20:27 25.03.2021
1060 Clear -4 1001 74 10000 4 190 19:50 25.03.2021
1061 Clear -4 1002 74 10000 4 210 19:31 25.03.2021
1062 Clear -4 1002 74 10000 4 210 19:31 25.03.2021
1063 Clear -4 1002 74 10000 4 220 18:57 25.03.2021
1064 Clear -4 1002 74 10000 3 230 18:39 25.03.2021
1065 Clear -4 1002 74 10000 3 230 18:18 25.03.2021
1066 Clouds -5 1003 86 10000 3 210 17:37 25.03.2021
1067 Clear -4 1003 80 10000 3 230 16:56 25.03.2021
1068 Clear -4 1003 86 10000 3 220 16:33 25.03.2021
1069 Clouds -3 1003 80 10000 2 200 15:49 25.03.2021
1070 Clouds -3 1003 80 10000 3 200 15:25 25.03.2021
1071 Clouds -3 1003 80 10000 2 230 14:49 25.03.2021
1072 Clouds -2 1003 74 10000 3 240 14:29 25.03.2021
1073 Clouds -1 1003 69 10000 4 230 13:26 25.03.2021
1074 Clouds -1 1004 74 10000 3 250 12:46 25.03.2021
1075 Clouds -1 1004 69 10000 5 240 12:22 25.03.2021
1076 Clouds -2 1004 74 10000 5 240 11:57 25.03.2021
1077 Clouds -1 1004 69 10000 5 240 11:39 25.03.2021
1078 Clouds -1 1004 69 10000 5 240 11:21 25.03.2021
1079 Clouds -1 1004 74 10000 5 250 10:45 25.03.2021
1080 Clouds -1 1004 80 10000 5 240 10:19 25.03.2021
1081 Clouds -1 1003 74 10000 3 210 09:43 25.03.2021
1082 Clouds -1 1003 74 10000 3 210 09:23 25.03.2021
1083 Clouds -1 1003 86 10000 3 230 08:31 25.03.2021
1084 Clouds -2 1003 93 10000 2 280 07:29 25.03.2021
1085 Clouds -2 1003 100 10000 3 300 06:43 25.03.2021
1086 Clouds -2 1003 100 10000 3 280 06:23 25.03.2021
1087 Clouds -3 1003 100 10000 2 220 04:51 25.03.2021
1088 Snow -3 1002 100 10000 2 210 01:25 25.03.2021
1089 Clouds -3 1002 100 10000 2 230 00:19 25.03.2021
1090 Clouds -3 1002 100 10000 2 240 23:40 24.03.2021
1091 Snow -3 1002 100 10000 2 240 23:20 24.03.2021
1092 Snow -2 1001 93 10000 3 240 22:40 24.03.2021
1093 Snow -2 1001 100 9000 3 230 21:57 24.03.2021
1094 Snow -2 1001 100 9000 3 230 21:39 24.03.2021
1095 Snow -2 1001 100 9000 3 230 21:19 24.03.2021
1096 Snow -2 1001 93 1300 3 230 20:41 24.03.2021
1097 Snow -2 1001 93 1300 3 230 20:18 24.03.2021
1098 Snow -2 1002 93 500 3 210 19:33 24.03.2021
1099 Snow -3 1002 100 10000 2 190 18:56 24.03.2021
1100 Snow -2 1002 93 9000 2 220 18:37 24.03.2021
1101 Snow -2 1002 93 9000 2 220 18:19 24.03.2021
1102 Snow -2 1002 100 10000 3 240 17:33 24.03.2021
1103 Snow -2 1002 100 10000 4 240 16:59 24.03.2021
1104 Snow -2 1002 100 8000 3 250 16:40 24.03.2021
1105 Snow -2 1002 100 8000 3 250 16:19 24.03.2021
1106 Snow -2 1002 100 9000 3 210 15:41 24.03.2021
1107 Snow -2 1002 100 9000 3 210 15:20 24.03.2021
1108 Clouds -2 1001 93 10000 3 230 14:30 24.03.2021
1109 Snow -1 1001 86 10000 3 230 13:59 24.03.2021
1110 Snow -1 1001 80 7000 5 250 13:28 24.03.2021
1111 Snow -1 1001 80 7000 5 250 13:28 24.03.2021
1112 Clouds -1 1001 80 10000 5 240 12:52 24.03.2021
1113 Clouds -1 1001 80 10000 5 240 12:32 24.03.2021
1114 Clouds -1 1001 80 10000 5 240 11:57 24.03.2021
1115 Clouds -1 1001 80 10000 5 250 11:39 24.03.2021
1116 Snow -1 1001 80 10000 5 240 10:49 24.03.2021
1117 Snow -2 1001 86 6000 5 240 10:31 24.03.2021
1118 Snow -2 1001 86 10000 6 250 09:55 24.03.2021
1119 Snow -2 1001 86 10000 5 240 09:31 24.03.2021
1120 Snow -2 1001 86 10000 4 220 08:57 24.03.2021
1121 Snow -2 1001 86 10000 4 220 08:38 24.03.2021
1122 Snow -3 1001 86 10000 4 230 07:49 24.03.2021
1123 Snow -3 1002 86 7000 4 210 07:19 24.03.2021
1124 Snow -4 1002 93 5000 3 220 06:43 24.03.2021
1125 Snow -6 1003 93 5000 3 190 02:18 24.03.2021
1126 Snow -5 1004 68 10000 3 190 00:40 24.03.2021
1127 Snow -5 1004 68 10000 3 200 23:46 23.03.2021
1128 Snow -5 1004 68 10000 3 200 23:19 23.03.2021
1129 Snow -5 1005 68 10000 3 210 22:50 23.03.2021
1130 Snow -5 1005 68 10000 3 200 22:24 23.03.2021
1131 Snow -5 1005 63 10000 3 190 21:45 23.03.2021
1132 Snow -5 1005 63 10000 3 200 21:26 23.03.2021
1133 Snow -7 1006 68 10000 2 190 20:45 23.03.2021
1134 Clear -6 1006 68 10000 3 190 20:25 23.03.2021
1135 Clear -5 1006 58 10000 3 190 19:47 23.03.2021
1136 Clear -5 1006 63 10000 2 200 19:26 23.03.2021
1137 Clear -5 1006 63 10000 3 200 18:44 23.03.2021
1138 Clear -4 1006 58 10000 3 240 18:22 23.03.2021
1139 Clear -3 1006 59 10000 4 220 17:46 23.03.2021
1140 Clear -2 1006 54 10000 4 190 17:21 23.03.2021
1141 Clear -2 1006 54 10000 4 190 16:42 23.03.2021
1142 Clear -2 1006 54 10000 4 190 16:20 23.03.2021
1143 Clear -1 1007 51 10000 3 190 15:40 23.03.2021
1144 Clear -1 1007 51 10000 3 200 14:57 23.03.2021
1145 Clear 0 1007 47 10000 4 210 14:37 23.03.2021
1146 Clear 0 1007 47 10000 4 210 14:18 23.03.2021
1147 Clear 1 1007 47 10000 4 200 13:41 23.03.2021
1148 Clear 1 1007 47 10000 4 200 13:20 23.03.2021
1149 Clear 1 1007 47 10000 6 200 12:43 23.03.2021
1150 Clear 1 1007 47 10000 5 200 12:20 23.03.2021
1151 Clear 1 1007 47 10000 5 200 11:45 23.03.2021
1152 Clear 1 1007 47 10000 7 210 10:45 23.03.2021
1153 Clear 1 1008 47 10000 5 200 10:26 23.03.2021
1154 Clear 0 1008 51 10000 4 190 09:58 23.03.2021
1155 Clear -1 1008 55 10000 4 200 09:39 23.03.2021
1156 Clear -1 1008 55 10000 4 200 09:19 23.03.2021
1157 Clear -3 1008 59 10000 4 200 08:40 23.03.2021
1158 Clear -3 1008 59 10000 4 200 08:22 23.03.2021
1159 Clear -5 1008 68 10000 3 180 07:28 23.03.2021
1160 Clear -5 1008 68 10000 4 180 06:59 23.03.2021
1161 Clear -6 1008 68 10000 3 200 06:26 23.03.2021
1162 Clear -13 1008 92 10000 2 190 03:22 23.03.2021
1163 Clear -13 1008 92 10000 2.11 220 02:18 23.03.2021
1164 Clear -12 1008 100 10000 2 210 23:43 22.03.2021
1165 Clouds -12 1008 100 7000 2 230 22:56 22.03.2021
1166 Mist -11 1008 92 4700 1 0 22:37 22.03.2021
1167 Mist -11 1008 92 4700 1 0 22:37 22.03.2021
1168 Mist -11 1008 92 4700 1 0 22:18 22.03.2021
1169 Fog -11 1008 100 150 2 240 21:40 22.03.2021
1170 Fog -11 1008 100 150 2 240 21:40 22.03.2021
1171 Fog -11 1008 100 150 2 240 21:21 22.03.2021
1172 Clouds -11 1007 100 6000 2 240 20:41 22.03.2021
1173 Clouds -11 1007 100 6000 2 240 20:21 22.03.2021
1174 Clear -12 1007 100 10000 2 250 19:53 22.03.2021
1175 Clear -11 1007 100 10000 2 250 19:30 22.03.2021
1176 Clear -13 1007 85 10000 2.94 271 18:47 22.03.2021
1177 Snow -12 1007 85 10000 1 0 18:28 22.03.2021
1178 Snow -10 1007 79 10000 1 0 17:58 22.03.2021
1179 Snow -11 1007 85 10000 2 100 17:38 22.03.2021
1180 Snow -11 1007 85 10000 2 100 17:19 22.03.2021
1181 Snow -10 1007 79 10000 2 70 16:43 22.03.2021
1182 Snow -7 1007 68 10000 2 110 15:59 22.03.2021
1183 Snow -7 1007 73 10000 2 100 15:38 22.03.2021
1184 Clear -7 1007 73 10000 2 100 15:18 22.03.2021
1185 Clouds -5 1007 68 10000 2 150 14:50 22.03.2021
1186 Clouds -4 1007 68 10000 3 170 14:31 22.03.2021
1187 Clouds -4 1007 58 10000 2 140 13:47 22.03.2021
1188 Clouds -4 1007 58 10000 2 140 13:25 22.03.2021
1189 Clouds -3 1007 59 10000 3 180 12:53 22.03.2021
1190 Clouds -3 1007 59 10000 3 180 12:24 22.03.2021
1191 Clouds -4 1007 54 10000 3 200 11:48 22.03.2021
1192 Clouds -4 1007 54 10000 3 200 11:25 22.03.2021
1193 Clouds -4 1007 54 10000 4 230 10:44 22.03.2021
1194 Clouds -4 1007 54 10000 3 210 10:24 22.03.2021
1195 Clouds -5 1007 58 10000 4 220 09:44 22.03.2021
1196 Clouds -6 1007 58 10000 4 220 09:23 22.03.2021
1197 Clouds -7 1007 63 10000 4 230 08:45 22.03.2021
1198 Clear -7 1007 63 10000 4 210 08:25 22.03.2021
1199 Clear -8 1007 62 10000 3 210 07:46 22.03.2021
1200 Clear -10 1006 67 10000 4 240 06:57 22.03.2021
1201 Clear -11 1006 67 10000 4 230 06:35 22.03.2021
1202 Clear -17 1004 85 10000 4 270 02:38 22.03.2021
1203 Clear -16 1003 92 10000 4 250 00:33 22.03.2021
1204 Clear -15 1002 85 10000 5 250 23:54 21.03.2021
1205 Clear -15 1002 85 10000 3 240 23:20 21.03.2021
1206 Clear -15 1001 85 10000 4 250 22:56 21.03.2021
1207 Clouds -14 1001 78 10000 5 250 22:20 21.03.2021
1208 Clear -14 1000 85 10000 4 250 21:41 21.03.2021
1209 Clear -14 1000 85 10000 4 250 21:22 21.03.2021
1210 Clear -13 1000 85 10000 4 250 20:44 21.03.2021
1211 Clear -13 1000 85 10000 4 250 20:26 21.03.2021
1212 Clear -13 999 85 10000 5 250 19:54 21.03.2021
1213 Clear -12 999 79 10000 5 250 19:23 21.03.2021
1214 Clear -12 999 85 10000 6 260 18:53 21.03.2021
1215 Snow -12 999 85 9000 6 260 18:27 21.03.2021
1216 Snow -11 998 79 7000 6 260 17:49 21.03.2021
1217 Snow -11 998 79 10000 7 260 17:21 21.03.2021
1218 Snow -11 997 85 8000 8 260 16:59 21.03.2021
1219 Snow -11 997 85 9000 7 250 16:41 21.03.2021
1220 Snow -11 997 85 9000 7 250 16:22 21.03.2021
1221 Snow -10 996 79 2500 7 250 15:41 21.03.2021
1222 Snow -10 996 79 2500 7 250 15:20 21.03.2021
1223 Snow -10 996 79 9000 7 250 14:46 21.03.2021
1224 Snow -10 995 79 8000 6 260 14:27 21.03.2021
1225 Snow -10 995 79 10000 8 260 13:54 21.03.2021
1226 Snow -9 994 73 10000 8 260 13:25 21.03.2021
1227 Snow -9 993 79 7000 7 250 12:42 21.03.2021
1228 Snow -9 993 79 7000 7 250 12:24 21.03.2021
1229 Clouds -8 991 79 10000 7 260 11:41 21.03.2021
1230 Clouds -8 991 79 10000 7 260 11:20 21.03.2021
1231 Clouds -8 991 79 10000 7 260 11:20 21.03.2021
1232 Snow -8 991 86 9000 7 240 10:43 21.03.2021
1233 Snow -6 990 79 9000 9 280 10:23 21.03.2021
1234 Snow -6 989 79 9000 8 280 09:46 21.03.2021
1235 Snow -5 989 80 9000 8 270 09:28 21.03.2021
1236 Snow -4 988 86 10000 8 270 08:44 21.03.2021
1237 Snow -3 987 86 8000 6 280 08:26 21.03.2021
1238 Snow -3 986 93 8000 5 280 07:39 21.03.2021
1239 Snow -3 986 93 8000 5 280 07:19 21.03.2021
1240 Snow -3 985 93 9000 5 290 05:55 21.03.2021
1241 Snow -5 985 100 2700 1 60 02:34 21.03.2021
1242 Snow -4 985 100 2300 1 0 00:43 21.03.2021
1243 Snow -4 985 100 2500 1 130 00:24 21.03.2021
1244 Snow -4 986 100 3000 1.47 110 23:50 20.03.2021
1245 Snow -4 986 100 10000 1.73 124 23:24 20.03.2021
1246 Snow -4 986 100 10000 1 0 22:56 20.03.2021
1247 Snow -5 987 100 10000 2 90 22:23 20.03.2021
1248 Snow -5 987 100 10000 2 90 21:47 20.03.2021
1249 Snow -5 988 100 10000 1 140 21:25 20.03.2021
1250 Snow -5 988 100 10000 1 100 20:48 20.03.2021
1251 Snow -4 989 93 9000 2 120 20:23 20.03.2021
1252 Snow -4 989 100 10000 2 120 19:51 20.03.2021
1253 Snow -5 990 100 10000 2 120 19:28 20.03.2021
1254 Snow -5 990 100 10000 3 110 18:50 20.03.2021
1255 Snow -4 990 93 10000 3 120 18:27 20.03.2021
1256 Snow -4 991 93 10000 3 110 17:58 20.03.2021
1257 Snow -5 991 100 10000 4 100 17:39 20.03.2021
1258 Snow -5 991 100 10000 4 100 17:19 20.03.2021
1259 Snow -4 992 93 8000 3 110 16:38 20.03.2021
1260 Snow -4 992 93 8000 3 110 16:18 20.03.2021
1261 Snow -4 993 93 3900 4 120 15:40 20.03.2021
1262 Snow -4 993 93 3900 4 120 15:40 20.03.2021
1263 Snow -4 993 93 3900 4 120 15:40 20.03.2021
1264 Snow -4 993 93 3900 4 120 15:21 20.03.2021
1265 Snow -4 994 86 10000 5 120 14:31 20.03.2021
1266 Clouds -4 994 86 8000 6 110 13:56 20.03.2021
1267 Snow -4 995 80 8000 7 110 13:29 20.03.2021
1268 Snow -3 996 68 9000 7 110 12:30 20.03.2021
1269 Snow -2 996 64 10000 7 100 11:58 20.03.2021
1270 Snow -2 996 59 10000 8 100 11:39 20.03.2021
1271 Snow -2 996 59 10000 8 100 11:20 20.03.2021
1272 Snow -2 997 59 10000 9 110 10:39 20.03.2021
1273 Clear -2 997 59 10000 9 110 10:19 20.03.2021
1274 Clear -2 998 59 10000 9 110 09:43 20.03.2021
1275 Clear -2 998 59 10000 11 100 09:21 20.03.2021
1276 Clear -2 999 59 10000 12 110 08:49 20.03.2021
1277 Snow -2 1000 64 10000 10 90 07:58 20.03.2021
1278 Snow -3 1000 68 10000 10 90 07:39 20.03.2021
1279 Snow -3 1000 68 10000 10 90 07:20 20.03.2021
1280 Snow -3 1002 74 10000 8 90 06:34 20.03.2021
1281 Clear -4 1004 86 10000 6 90 04:44 20.03.2021
1282 Clear -5 1005 100 10000 6 90 03:43 20.03.2021
1283 Clear -5 1008 100 10000 6 80 00:43 20.03.2021
1284 Clear -5 1009 100 10000 5 80 23:45 19.03.2021
1285 Clouds -5 1009 100 10000 5 80 23:18 19.03.2021
1286 Clouds -5 1010 100 10000 5 90 22:42 19.03.2021
1287 Clouds -5 1010 100 10000 5 90 22:22 19.03.2021
1288 Clouds -4 1011 100 10000 4 80 21:38 19.03.2021
1289 Clouds -4 1011 100 10000 4 80 21:38 19.03.2021
1290 Clouds -4 1011 100 10000 4 80 21:19 19.03.2021
1291 Clouds -4 1011 100 10000 5 80 20:44 19.03.2021
1292 Clouds -3 1011 93 10000 4 70 20:26 19.03.2021
1293 Clouds -3 1012 93 10000 4 70 19:47 19.03.2021
1294 Snow -3 1012 100 10000 4 70 19:22 19.03.2021
1295 Snow -3 1012 93 10000 3 70 18:49 19.03.2021
1296 Snow -3 1012 93 10000 2 90 18:21 19.03.2021
1297 Snow -4 1012 93 10000 2 70 17:56 19.03.2021
1298 Snow -3 1012 86 10000 2 70 17:37 19.03.2021
1299 Snow -3 1012 86 10000 1 60 16:59 19.03.2021
1300 Snow -3 1013 86 10000 2 40 16:40 19.03.2021
1301 Clear -3 1013 86 10000 2 40 16:21 19.03.2021
1302 Clear -2 1013 80 10000 2 340 15:33 19.03.2021
1303 Clear -2 1013 86 10000 1 0 14:51 19.03.2021
1304 Clouds -2 1013 86 10000 1 0 14:32 19.03.2021
1305 Clouds -2 1013 86 10000 2 30 13:48 19.03.2021
1306 Snow -2 1013 86 10000 3 340 13:18 19.03.2021
1307 Clouds -2 1014 86 10000 5 320 12:40 19.03.2021
1308 Snow 0 1014 55 10000 4 270 11:55 19.03.2021
1309 Snow 1 1013 40 10000 4 220 11:22 19.03.2021
1310 Snow 1 1014 40 10000 5 240 10:40 19.03.2021
1311 Clear 1 1014 40 10000 5 240 10:21 19.03.2021
1312 Clear 1 1014 40 10000 4 230 09:43 19.03.2021
1313 Clear 1 1014 40 10000 5 210 09:22 19.03.2021
1314 Clear 0 1014 43 10000 6 230 08:51 19.03.2021
1315 Clear 0 1015 47 10000 5 220 08:26 19.03.2021
1316 Clear 0 1015 47 10000 5 230 07:43 19.03.2021
1317 Clouds -1 1015 55 10000 5 220 06:59 19.03.2021
1318 Clear -1 1015 43 10000 6 210 05:26 19.03.2021
1319 Clouds -1 1018 64 10000 5 210 00:59 19.03.2021
1320 Clear -1 1018 59 10000 4 220 23:51 18.03.2021
1321 Clear -1 1018 64 10000 4 220 23:27 18.03.2021
1322 Clear -1 1019 64 10000 4 210 22:44 18.03.2021
1323 Clear -1 1019 64 10000 4 210 22:25 18.03.2021
1324 Clear -1 1019 69 10000 4 210 21:40 18.03.2021
1325 Clear -1 1019 69 10000 4 210 21:21 18.03.2021
1326 Clear -1 1019 74 10000 4 220 20:39 18.03.2021
1327 Clear -1 1019 74 10000 4 220 20:20 18.03.2021
1328 Clear 0 1020 74 10000 5 210 19:42 18.03.2021
1329 Clear 0 1020 74 10000 5 210 19:22 18.03.2021
1330 Clear 0 1020 69 10000 5 210 18:41 18.03.2021
1331 Clear 1 1021 69 10000 4 210 17:54 18.03.2021
1332 Clouds 1 1021 69 10000 5 200 17:26 18.03.2021
1333 Clear 1 1021 69 10000 4 200 16:52 18.03.2021
1334 Clear 1 1021 69 10000 4 210 16:32 18.03.2021
1335 Clear 1 1022 69 10000 4 210 15:58 18.03.2021
1336 Clear 1 1022 75 10000 3 200 15:40 18.03.2021
1337 Clear 1 1022 75 10000 3 200 15:18 18.03.2021
1338 Clear 2 1022 69 10000 3 200 14:41 18.03.2021
1339 Clear 2 1022 69 10000 3 200 14:18 18.03.2021
1340 Clear 2 1022 69 10000 3 200 13:37 18.03.2021
1341 Clear 2 1022 69 10000 3 200 13:19 18.03.2021
1342 Clear 2 1022 75 10000 4 220 12:37 18.03.2021
1343 Clear 2 1022 75 10000 4 220 12:18 18.03.2021
1344 Clear 2 1022 75 10000 5 220 11:43 18.03.2021
1345 Clear 2 1022 75 10000 4 240 10:58 18.03.2021
1346 Clear 2 1022 75 10000 5 220 10:39 18.03.2021
1347 Clear 2 1022 75 10000 5 220 10:20 18.03.2021
1348 Snow 1 1022 86 10000 4 220 09:38 18.03.2021
1349 Snow 1 1022 86 10000 4 220 09:20 18.03.2021
1350 Clouds 1 1022 86 10000 5 210 08:43 18.03.2021
1351 Clouds 1 1022 86 10000 5 210 08:23 18.03.2021
1352 Clouds 1 1021 80 10000 5 220 07:45 18.03.2021
1353 Clouds 0 1021 93 10000 4 220 06:43 18.03.2021
1354 Clouds 0 1021 93 10000 4 230 06:23 18.03.2021
1355 Clouds -1 1021 100 10000 3 220 05:25 18.03.2021
1356 Clouds -3 1018 100 10000 3 280 00:40 18.03.2021
1357 Snow -2 1018 100 10000 3 280 23:25 17.03.2021
1358 Snow -2 1017 100 10000 3 290 22:38 17.03.2021
1359 Clouds -2 1017 100 10000 3 290 22:20 17.03.2021
1360 Clouds -2 1017 100 10000 3 290 21:50 17.03.2021
1361 Clouds -2 1017 100 10000 3 280 21:31 17.03.2021
1362 Clouds -2 1016 100 10000 4 280 20:48 17.03.2021
1363 Snow -2 1016 100 10000 4 280 20:26 17.03.2021
1364 Snow -2 1016 100 10000 5 270 19:58 17.03.2021
1365 Snow -2 1016 100 10000 5 260 19:39 17.03.2021
1366 Snow -2 1016 100 10000 5 260 19:19 17.03.2021
1367 Snow -2 1015 100 9000 4 260 18:47 17.03.2021
1368 Snow -2 1015 100 6000 5 260 18:29 17.03.2021
1369 Snow -2 1015 100 10000 5 250 17:32 17.03.2021
1370 Snow -2 1015 100 10000 5 250 16:58 17.03.2021
1371 Snow -2 1015 100 10000 4 240 16:39 17.03.2021
1372 Snow -2 1015 100 10000 4 240 16:20 17.03.2021
1373 Snow -2 1014 100 7000 4 240 15:44 17.03.2021
1374 Snow -2 1014 100 3900 5 240 15:25 17.03.2021
1375 Snow -2 1014 93 3700 4 240 14:37 17.03.2021
1376 Snow -2 1014 93 3700 4 240 14:18 17.03.2021
1377 Snow -2 1014 93 4800 5 240 13:52 17.03.2021
1378 Snow -2 1014 93 4700 5 250 13:24 17.03.2021
1379 Snow -2 1014 93 9000 4 230 12:37 17.03.2021
1380 Snow -2 1014 93 9000 4 230 12:19 17.03.2021
1381 Snow -2 1013 86 10000 5 230 11:39 17.03.2021
1382 Snow -2 1013 86 10000 5 230 11:20 17.03.2021
1383 Snow -2 1013 86 9000 5 220 10:40 17.03.2021
1384 Snow -2 1013 86 9000 5 220 10:22 17.03.2021
1385 Snow -2 1013 80 10000 5 220 09:43 17.03.2021
1386 Snow -3 1013 93 10000 6 220 09:20 17.03.2021
1387 Snow -3 1013 93 8000 6 220 08:46 17.03.2021
1388 Snow -3 1013 93 2300 6 210 08:26 17.03.2021
1389 Snow -3 1013 86 6000 6 220 07:39 17.03.2021
1390 Snow -4 1013 93 5000 6 220 06:52 17.03.2021
1391 Snow -4 1013 93 3800 6 210 06:28 17.03.2021
1392 Snow -5 1014 100 3600 5 200 03:32 17.03.2021
1393 Snow -5 1014 100 3600 5 200 03:32 17.03.2021
1394 Snow -4 1015 100 3500 4 190 02:37 17.03.2021
1395 Snow -4 1015 86 5000 4 210 00:38 17.03.2021
1396 Clouds -3 1015 74 10000 3 200 23:27 16.03.2021
1397 Clouds -3 1015 74 10000 3 200 23:27 16.03.2021
1398 Clouds -3 1016 80 10000 3 200 22:46 16.03.2021
1399 Clouds -3 1016 80 10000 3 200 22:28 16.03.2021
1400 Clouds -3 1016 80 10000 3 200 21:45 16.03.2021
1401 Clouds -3 1017 80 10000 3 200 21:26 16.03.2021
1402 Clouds -3 1017 80 10000 3 200 20:58 16.03.2021
1403 Clouds -3 1017 80 10000 3 200 20:20 16.03.2021
1404 Clouds -3 1017 80 10000 3 200 19:52 16.03.2021
1405 Clouds -3 1018 74 10000 3 190 19:34 16.03.2021
1406 Clouds -3 1018 74 10000 4 200 18:58 16.03.2021
1407 Clouds -3 1018 74 10000 4 200 18:39 16.03.2021
1408 Clouds -3 1018 74 10000 4 200 18:20 16.03.2021
1409 Clouds -2 1018 74 10000 6 200 17:41 16.03.2021
1410 Clouds -2 1018 74 10000 6 200 17:22 16.03.2021
1411 Clouds -2 1018 74 10000 5 190 16:49 16.03.2021
1412 Clouds -2 1019 69 10000 4 210 16:25 16.03.2021
1413 Clouds -2 1019 69 10000 4 210 15:46 16.03.2021
1414 Clouds -2 1019 69 10000 4 210 15:21 16.03.2021
1415 Clouds -2 1019 69 10000 4 200 14:57 16.03.2021
1416 Clouds -2 1019 69 10000 3 210 14:39 16.03.2021
1417 Clouds -2 1019 69 10000 3 210 14:19 16.03.2021
1418 Clouds -2 1019 69 10000 3 210 14:19 16.03.2021
1419 Clouds -2 1019 69 10000 3 220 13:45 16.03.2021
1420 Clear -2 1019 69 10000 4 220 13:21 16.03.2021
1421 Clear -2 1019 69 10000 4 220 12:48 16.03.2021
1422 Clouds -2 1019 69 10000 5 220 12:29 16.03.2021
1423 Clouds -2 1019 69 10000 5 230 11:38 16.03.2021
1424 Clouds -2 1019 69 10000 5 230 10:59 16.03.2021
1425 Clouds -2 1019 69 10000 4 250 10:27 16.03.2021
1426 Clouds -3 1019 74 10000 6 250 09:48 16.03.2021
1427 Clouds -3 1019 68 10000 7 250 09:29 16.03.2021
1428 Clouds -3 1019 68 10000 7 250 09:29 16.03.2021
1429 Clear -3 1019 68 10000 6 250 08:58 16.03.2021
1430 Clear -3 1018 68 10000 7 250 08:40 16.03.2021
1431 Clear -3 1018 68 10000 7 250 08:19 16.03.2021
1432 Clear -4 1018 68 10000 7 250 07:35 16.03.2021
1433 Clear -4 1018 68 10000 6 240 06:39 16.03.2021
1434 Clear -5 1018 74 10000 5 240 05:52 16.03.2021
1435 Clear -5 1018 74 10000 5 230 05:34 16.03.2021
1436 Clouds -7 1017 79 10000 3 230 02:45 16.03.2021
1437 Clouds -7 1017 79 10000 3 220 02:23 16.03.2021
1438 Clouds -7 1017 73 10000 3 240 23:57 15.03.2021
1439 Clouds -7 1017 73 10000 4 250 23:28 15.03.2021
1440 Clouds -7 1017 73 10000 4 250 23:28 15.03.2021
1441 Clouds -7 1017 73 10000 4 250 22:51 15.03.2021
1442 Clouds -8 1017 73 10000 5 250 22:33 15.03.2021
1443 Clouds -8 1017 73 10000 5 250 21:55 15.03.2021
1444 Clouds -8 1016 73 10000 4 240 21:34 15.03.2021
1445 Clear -8 1016 73 10000 4 240 20:58 15.03.2021
1446 Clear -9 1016 79 10000 4 230 20:40 15.03.2021
1447 Clear -9 1016 79 10000 4 230 20:21 15.03.2021
1448 Clear -9 1016 79 10000 4 230 19:50 15.03.2021
1449 Clear -9 1016 79 10000 4 230 19:50 15.03.2021
1450 Clear -8 1016 67 10000 4 230 19:31 15.03.2021
1451 Clear -8 1017 73 10000 4 230 18:57 15.03.2021
1452 Clear -8 1017 73 10000 4 240 18:28 15.03.2021
1453 Clouds -8 1017 73 10000 4 230 17:56 15.03.2021
1454 Clouds -8 1017 73 10000 3 240 17:32 15.03.2021
1455 Clouds -7 1016 68 10000 3 240 16:52 15.03.2021
1456 Clouds -7 1016 68 10000 4 240 16:34 15.03.2021
1457 Clear -7 1016 68 10000 4 250 15:46 15.03.2021
1458 Clear -6 1016 63 10000 4 240 15:26 15.03.2021
1459 Clear -6 1016 63 10000 3 240 14:45 15.03.2021
1460 Clear -5 1016 58 10000 3 230 14:23 15.03.2021
1461 Clear -5 1016 58 10000 3 240 13:49 15.03.2021
1462 Clear -4 1016 54 10000 5 240 13:27 15.03.2021
1463 Clear -4 1016 54 10000 6 240 12:50 15.03.2021
1464 Clear -4 1016 54 10000 8 240 12:20 15.03.2021
1465 Clear -4 1015 54 10000 7 240 11:56 15.03.2021
1466 Clear -4 1015 54 10000 7 240 11:37 15.03.2021
1467 Clear -4 1015 54 10000 8 250 10:56 15.03.2021
1468 Clear -5 1015 54 10000 6 240 10:32 15.03.2021
1469 Clear -5 1015 54 10000 5 240 09:53 15.03.2021
1470 Clear -5 1015 54 10000 5 220 09:35 15.03.2021
1471 Clear -6 1015 58 10000 5 230 08:54 15.03.2021
1472 Clear -6 1015 58 10000 6 210 08:34 15.03.2021
1473 Clear -6 1015 58 10000 6 220 07:56 15.03.2021
1474 Clear -6 1015 58 10000 5 220 07:32 15.03.2021
1475 Clear -6 1015 58 10000 6 240 06:41 15.03.2021
1476 Clear -7 1015 63 10000 4 230 05:33 15.03.2021
1477 Clouds -8 1014 79 10000 4 220 01:47 15.03.2021
1478 Clouds -8 1014 93 10000 3 230 23:59 14.03.2021
1479 Clouds -8 1014 93 10000 3 230 23:21 14.03.2021
1480 Clouds -9 1014 100 10000 3 220 22:47 14.03.2021
1481 Clouds -9 1014 100 10000 3 230 22:23 14.03.2021
1482 Clouds -9 1014 100 10000 3 230 22:23 14.03.2021
1483 Clear -9 1015 100 10000 3 230 21:49 14.03.2021
1484 Clear -9 1015 92 10000 3 230 21:20 14.03.2021
1485 Clear -9 1015 92 10000 3 230 20:50 14.03.2021
1486 Snow -9 1015 92 10000 4 230 20:27 14.03.2021
1487 Snow -9 1015 92 6000 4 240 19:50 14.03.2021
1488 Snow -8 1015 86 7000 4 240 19:24 14.03.2021
1489 Snow -8 1015 86 10000 4 240 18:56 14.03.2021
1490 Snow -9 1015 92 5000 4 240 18:28 14.03.2021
1491 Snow -8 1015 86 9000 5 250 17:41 14.03.2021
1492 Snow -8 1015 86 9000 5 250 17:23 14.03.2021
1493 Snow -8 1015 79 8000 5 260 16:49 14.03.2021
1494 Snow -8 1015 86 9000 7 270 16:28 14.03.2021
1495 Snow -7 1015 73 10000 8 280 15:56 14.03.2021
1496 Snow -6 1015 58 10000 7 280 15:36 14.03.2021
1497 Snow -5 1014 50 10000 4 240 14:41 14.03.2021
1498 Snow -5 1014 50 10000 4 240 14:23 14.03.2021
1499 Snow -5 1014 50 10000 4 240 13:49 14.03.2021
1500 Clear -5 1014 50 10000 5 230 13:29 14.03.2021
1501 Clear -5 1014 50 10000 5 230 13:29 14.03.2021
1502 Clear -4 1014 46 10000 5 230 12:47 14.03.2021
1503 Clear -4 1015 46 10000 5 230 12:28 14.03.2021
1504 Clear -4 1015 46 10000 6 230 11:54 14.03.2021
1505 Clear -5 1015 46 10000 6 220 11:35 14.03.2021
1506 Clear -5 1015 46 10000 8 220 10:56 14.03.2021
1507 Clear -5 1015 46 10000 7 230 10:37 14.03.2021
1508 Clear -5 1015 46 10000 7 230 10:18 14.03.2021
1509 Clear -6 1015 49 10000 7 220 09:43 14.03.2021
1510 Clear -6 1015 49 10000 7 220 09:22 14.03.2021
1511 Clear -7 1016 49 10000 7 230 08:43 14.03.2021
1512 Clear -7 1016 53 10000 6 220 08:23 14.03.2021
1513 Clear -8 1016 53 10000 6 220 07:46 14.03.2021
1514 Clear -10 1016 62 10000 6 220 06:47 14.03.2021
1515 Clear -12 1016 72 10000 4 240 04:51 14.03.2021
1516 Clear -12 1015 79 10000 4 250 00:51 14.03.2021
1517 Clear -11 1015 73 10000 4 250 00:19 14.03.2021
1518 Clear -11 1015 73 10000 5 250 23:48 13.03.2021
1519 Clear -11 1015 73 10000 5 250 23:25 13.03.2021
1520 Clear -11 1015 79 10000 5 250 22:53 13.03.2021
1521 Clear -11 1015 79 10000 5 250 22:27 13.03.2021
1522 Clear -11 1015 79 10000 5 250 21:44 13.03.2021
1523 Clear -11 1015 79 10000 5 250 21:25 13.03.2021
1524 Clear -10 1015 73 10000 4 250 20:52 13.03.2021
1525 Clear -10 1015 79 10000 5 250 20:31 13.03.2021
1526 Clear -10 1014 73 10000 5 260 19:53 13.03.2021
1527 Clear -11 1014 79 10000 5 260 19:30 13.03.2021
1528 Clear -10 1014 73 10000 5 260 18:44 13.03.2021
1529 Clear -10 1013 73 10000 5 270 18:23 13.03.2021
1530 Clear -10 1013 73 10000 5 260 17:59 13.03.2021
1531 Clear -10 1013 79 10000 4 240 17:40 13.03.2021
1532 Clear -10 1013 79 10000 4 240 17:21 13.03.2021
1533 Clear -9 1012 73 10000 5 250 16:43 13.03.2021
1534 Clear -9 1012 73 10000 5 250 16:19 13.03.2021
1535 Clear -9 1011 73 10000 5 250 15:27 13.03.2021
1536 Clear -8 1011 67 10000 6 260 14:47 13.03.2021
1537 Clear -8 1010 73 10000 7 250 14:28 13.03.2021
1538 Clear -8 1010 73 10000 7 260 13:47 13.03.2021
1539 Clear -8 1010 67 10000 7 260 13:24 13.03.2021
1540 Clear -8 1010 67 10000 7 260 13:24 13.03.2021
1541 Clear -8 1010 73 10000 8 260 12:43 13.03.2021
1542 Clear -8 1009 67 10000 8 260 12:20 13.03.2021
1543 Clear -9 1009 73 10000 8 260 11:49 13.03.2021
1544 Clear -9 1009 73 10000 9 260 11:28 13.03.2021
1545 Clear -9 1008 67 10000 7 250 10:50 13.03.2021
1546 Clear -10 1007 73 10000 7 260 10:29 13.03.2021
1547 Clear -10 1007 73 10000 6 250 09:47 13.03.2021
1548 Clear -11 1007 73 10000 7 270 08:58 13.03.2021
1549 Clear -12 1007 72 10000 7 270 08:39 13.03.2021
1550 Clear -12 1007 72 10000 7 270 08:19 13.03.2021
1551 Clear -13 1006 72 10000 6 250 07:46 13.03.2021
1552 Clear -15 1005 72 10000 6 250 06:18 13.03.2021
1553 Clear -17 1005 66 10000 5 240 02:54 13.03.2021
1554 Clear -18 1005 65 10000 4 230 00:50 13.03.2021
1555 Clear -19 1005 71 10000 5 230 23:54 12.03.2021
1556 Clear -19 1006 65 10000 5 230 23:32 12.03.2021
1557 Clear -20 1006 65 10000 5 240 22:42 12.03.2021
1558 Clear -20 1006 65 10000 5 240 22:23 12.03.2021
1559 Clear -21 1006 65 10000 4 230 21:44 12.03.2021
1560 Clear -21 1006 65 10000 4 230 21:24 12.03.2021
1561 Clear -21 1007 65 10000 4 230 20:55 12.03.2021
1562 Clear -21 1007 65 10000 4 230 20:32 12.03.2021
1563 Clear -21 1007 65 10000 4 230 19:56 12.03.2021
1564 Clear -21 1007 65 10000 4 230 19:38 12.03.2021
1565 Clear -21 1007 65 10000 4 230 19:18 12.03.2021
1566 Clear -21 1008 65 10000 4 230 18:35 12.03.2021
1567 Clear -21 1008 59 10000 4 230 17:49 12.03.2021
1568 Clear -22 1008 64 10000 4 230 17:30 12.03.2021
1569 Clear -22 1008 59 10000 3 230 16:55 12.03.2021
1570 Clear -22 1008 64 10000 3 210 16:36 12.03.2021
1571 Clear -23 1008 59 10000 3 210 15:52 12.03.2021
1572 Clear -23 1008 59 10000 3 210 15:27 12.03.2021
1573 Clear -22 1008 54 10000 3 220 14:48 12.03.2021
1574 Clear -21 1008 54 10000 3 240 14:20 12.03.2021
1575 Clear -21 1008 54 10000 4 240 13:43 12.03.2021
1576 Clear -20 1008 54 10000 4 240 13:21 12.03.2021
1577 Clear -19 1008 50 10000 4 230 12:56 12.03.2021
1578 Clear -19 1008 50 10000 4 250 12:37 12.03.2021
1579 Clear -19 1008 50 10000 4 250 12:19 12.03.2021
1580 Clear -18 1008 50 10000 4 250 11:48 12.03.2021
1581 Clear -18 1007 46 10000 3 280 11:20 12.03.2021
1582 Clear -19 1007 50 10000 4 280 10:48 12.03.2021
1583 Clear -19 1007 50 10000 2 280 10:23 12.03.2021
1584 Clear -20 1007 54 10000 4 300 09:48 12.03.2021
1585 Clear -20 1007 54 10000 4 310 09:19 12.03.2021
1586 Clear -22 1006 64 10000 4 300 08:40 12.03.2021
1587 Clear -23 1006 64 10000 4 290 07:51 12.03.2021
1588 Clear -24 1006 64 10000 4 300 07:29 12.03.2021
1589 Clear -25 1006 64 10000 4 300 06:45 12.03.2021
1590 Clear -27 1005 63 10000 2 290 05:56 12.03.2021
1591 Snow -28 1003 76 8000 3 360 00:59 12.03.2021
1592 Clear -28 1003 76 10000 2 350 23:56 11.03.2021
1593 Clear -27 1003 76 10000 2 20 22:59 11.03.2021
1594 Clear -26 1003 76 10000 2 360 22:39 11.03.2021
1595 Clear -26 1003 76 10000 2 360 22:20 11.03.2021
1596 Clear -26 1003 76 10000 2 10 21:46 11.03.2021
1597 Clear -25 1003 77 10000 2 10 21:25 11.03.2021
1598 Clouds -25 1003 77 9000 2 20 20:49 11.03.2021
1599 Snow -24 1004 70 10000 3 50 20:23 11.03.2021
1600 Snow -24 1004 77 10000 4 50 19:54 11.03.2021
1601 Snow -24 1004 77 6000 4 60 19:36 11.03.2021
1602 Snow -23 1005 70 9000 4 60 18:53 11.03.2021
1603 Clouds -23 1005 70 10000 4 50 18:35 11.03.2021
1604 Clear -23 1005 70 10000 4 50 17:53 11.03.2021
1605 Clear -23 1005 70 10000 4 60 17:35 11.03.2021
1606 Clouds -23 1006 70 10000 5 50 16:37 11.03.2021
1607 Clouds -23 1006 70 10000 5 50 16:19 11.03.2021
1608 Clear -23 1006 70 10000 5 50 15:39 11.03.2021
1609 Clear -23 1006 70 10000 5 50 15:20 11.03.2021
1610 Clear -22 1006 64 10000 5 50 14:45 11.03.2021
1611 Clear -22 1006 64 10000 5 50 14:18 11.03.2021
1612 Clear -22 1006 64 10000 5 50 13:45 11.03.2021
1613 Clear -21 1006 65 10000 5 40 13:22 11.03.2021
1614 Clear -21 1007 65 10000 5 50 12:54 11.03.2021
1615 Clear -21 1006 65 10000 5 50 12:29 11.03.2021
1616 Clear -20 1006 59 10000 5 40 11:47 11.03.2021
1617 Clear -20 1006 59 10000 6 50 11:29 11.03.2021
1618 Clear -20 1007 59 10000 5 40 10:55 11.03.2021
1619 Clear -21 1007 65 10000 5 40 10:25 11.03.2021
1620 Clear -21 1007 59 10000 5 50 09:50 11.03.2021
1621 Clear -21 1007 59 10000 6 40 09:32 11.03.2021
1622 Clear -21 1007 59 10000 6 40 09:32 11.03.2021
1623 Clear -22 1007 64 10000 4 40 08:50 11.03.2021
1624 Clear -22 1007 59 10000 5 40 08:31 11.03.2021
1625 Clear -23 1008 64 10000 4 50 07:47 11.03.2021
1626 Clear -24 1008 64 10000 4 40 07:20 11.03.2021
1627 Clear -26 1008 64 10000 3 40 06:40 11.03.2021
1628 Clear -26 1008 64 10000 3 40 06:21 11.03.2021
1629 Clouds -31 1008 76 10000 2 50 02:25 11.03.2021
1630 Clear -30 1008 76 10000 2 30 00:23 11.03.2021
1631 Clear -29 1008 76 10000 2 50 23:22 10.03.2021
1632 Clear -29 1008 76 10000 3 50 22:42 10.03.2021
1633 Clear -29 1008 76 10000 3 50 22:19 10.03.2021
1634 Clear -28 1008 69 10000 4 40 21:41 10.03.2021
1635 Clear -28 1008 69 10000 4 40 21:21 10.03.2021
1636 Clear -28 1008 69 10000 4 40 21:21 10.03.2021
1637 Clear -28 1008 69 10000 4 50 20:44 10.03.2021
1638 Clear -28 1009 69 10000 4 50 20:26 10.03.2021
1639 Clear -27 1009 69 10000 5 50 19:42 10.03.2021
1640 Clear -27 1009 69 10000 5 50 19:23 10.03.2021
1641 Clear -27 1009 69 10000 4 50 18:44 10.03.2021
1642 Clear -27 1009 69 10000 4 50 18:24 10.03.2021
1643 Clear -27 1009 69 10000 4 50 18:24 10.03.2021
1644 Clear -26 1010 64 10000 4 50 17:46 10.03.2021
1645 Clear -26 1010 64 10000 3 50 17:21 10.03.2021
1646 Clear -26 1010 70 10000 2 50 16:57 10.03.2021
1647 Clear -25 1010 64 10000 3 50 16:37 10.03.2021
1648 Clear -25 1010 64 10000 3 50 16:19 10.03.2021
1649 Clear -24 1010 64 10000 3 50 15:41 10.03.2021
1650 Clear -24 1010 64 10000 3 50 15:22 10.03.2021
1651 Clear -22 1011 59 10000 3 40 14:41 10.03.2021
1652 Clear -22 1011 59 10000 3 40 14:41 10.03.2021
1653 Clear -22 1011 59 10000 3 40 14:19 10.03.2021
1654 Clear -22 1011 59 10000 2 30 13:46 10.03.2021
1655 Clear -21 1011 59 10000 3 30 13:25 10.03.2021
1656 Clear -20 1011 54 10000 2 40 12:45 10.03.2021
1657 Clear -19 1011 55 10000 3 40 12:18 10.03.2021
1658 Clear -19 1012 55 10000 3 30 11:32 10.03.2021
1659 Clear -19 1012 55 10000 3 360 10:57 10.03.2021
1660 Clear -19 1012 60 10000 3 30 10:37 10.03.2021
1661 Clear -19 1012 60 10000 3 30 10:19 10.03.2021
1662 Clear -20 1012 59 10000 3 40 09:42 10.03.2021
1663 Clear -20 1012 59 10000 3 40 09:21 10.03.2021
1664 Clear -20 1012 59 10000 3 50 08:50 10.03.2021
1665 Clear -20 1012 65 10000 3 60 08:28 10.03.2021
1666 Clear -21 1012 65 10000 2 60 07:58 10.03.2021
1667 Clear -23 1012 70 10000 2 40 07:30 10.03.2021
1668 Clear -24 1012 64 10000 1.43 34 06:56 10.03.2021
1669 Clear -24 1012 70 10000 1.64 34 06:25 10.03.2021
1670 Clear -31 1010 76 10000 2 350 02:27 10.03.2021
1671 Clear -29 1010 76 10000 2 340 23:49 09.03.2021
1672 Clear -28 1009 76 10000 2 320 23:19 09.03.2021
1673 Clear -27 1009 76 10000 3 360 22:39 09.03.2021
1674 Clear -27 1009 76 10000 3 360 22:18 09.03.2021
1675 Clear -27 1008 76 10000 2 350 21:45 09.03.2021
1676 Clear -26 1008 76 10000 1 0 21:24 09.03.2021
1677 Clouds -25 1007 77 10000 2 340 20:58 09.03.2021
1678 Clouds -25 1007 84 10000 2 350 20:39 09.03.2021
1679 Clouds -25 1007 84 10000 2 350 20:20 09.03.2021
1680 Clouds -25 1007 84 10000 2 360 19:46 09.03.2021
1681 Clouds -24 1007 77 10000 2 340 19:26 09.03.2021
1682 Clouds -23 1007 84 10000 2 20 18:48 09.03.2021
1683 Clouds -22 1006 77 10000 2 20 18:25 09.03.2021
1684 Snow -22 1006 84 5000 1 0 17:51 09.03.2021
1685 Snow -21 1006 84 5000 2 10 17:29 09.03.2021
1686 Clouds -21 1006 84 10000 3 30 16:47 09.03.2021
1687 Clouds -20 1006 84 10000 3 30 16:26 09.03.2021
1688 Clouds -19 1006 78 10000 3 40 15:59 09.03.2021
1689 Snow -18 1006 85 9000 3 50 15:36 09.03.2021
1690 Snow -18 1006 85 9000 3 50 15:18 09.03.2021
1691 Snow -16 1006 78 8000 3 50 14:28 09.03.2021
1692 Clouds -16 1006 85 10000 4 60 13:47 09.03.2021
1693 Snow -15 1006 78 5000 4 80 13:22 09.03.2021
1694 Snow -15 1006 85 1800 4 70 12:59 09.03.2021
1695 Snow -15 1005 85 1700 4 80 12:38 09.03.2021
1696 Snow -15 1005 85 2000 5 90 11:59 09.03.2021
1697 Snow -15 1005 85 1900 4 80 11:39 09.03.2021
1698 Snow -15 1005 85 1900 4 80 11:20 09.03.2021
1699 Snow -15 1005 78 5000 4 80 10:41 09.03.2021
1700 Snow -15 1005 78 5000 4 80 10:23 09.03.2021
1701 Snow -15 1005 85 9000 5 80 09:58 09.03.2021
1702 Snow -15 1005 85 8000 4 80 09:37 09.03.2021
1703 Snow -15 1005 85 8000 4 80 09:18 09.03.2021
1704 Snow -16 1005 85 4800 4 90 08:35 09.03.2021
1705 Snow -16 1005 85 3400 4 80 07:48 09.03.2021
1706 Snow -17 1006 85 3300 3 60 07:28 09.03.2021
1707 Snow -18 1006 85 6000 3 60 06:59 09.03.2021
1708 Snow -19 1006 84 6000 2 50 05:54 09.03.2021
1709 Clear -24 1006 84 10000 1 250 02:27 09.03.2021
1710 Clear -25 1005 84 10000 1 270 23:59 08.03.2021
1711 Clear -24 1005 84 10000 1 0 23:39 08.03.2021
1712 Clear -24 1005 84 10000 1 0 23:20 08.03.2021
1713 Clear -23 1005 84 10000 2 240 22:41 08.03.2021
1714 Clear -23 1005 84 10000 2 240 22:23 08.03.2021
1715 Clear -24 1005 84 10000 2 260 21:50 08.03.2021
1716 Clear -21 1005 84 10000 2 250 21:30 08.03.2021
1717 Clear -23 1004 84 10000 2 250 20:44 08.03.2021
1718 Clear -23 1004 84 10000 2 250 20:23 08.03.2021
1719 Clear -21 1004 84 10000 2 240 19:54 08.03.2021
1720 Clear -23 1004 84 10000 2 260 19:27 08.03.2021
1721 Clear -22 1004 92 10000 3 280 18:38 08.03.2021
1722 Clear -22 1004 92 10000 3 280 18:19 08.03.2021
1723 Clear -21 1003 84 10000 3 280 17:48 08.03.2021
1724 Clear -20 1003 84 10000 3 270 17:24 08.03.2021
1725 Clear -20 1003 84 10000 4 280 16:45 08.03.2021
1726 Clear -18 1003 85 10000 5 280 16:26 08.03.2021
1727 Clear -18 1002 78 10000 5 280 15:47 08.03.2021
1728 Clouds -18 1002 85 10000 6 280 15:24 08.03.2021
1729 Clouds -15 1001 78 10000 6 280 14:22 08.03.2021
1730 Clouds -14 1000 78 10000 7 280 13:58 08.03.2021
1731 Clouds -13 1000 78 10000 6 280 13:24 08.03.2021
1732 Clouds -13 1000 78 10000 7 280 12:59 08.03.2021
1733 Clouds -12 999 79 10000 7 290 12:41 08.03.2021
1734 Clouds -12 999 79 10000 7 290 12:20 08.03.2021
1735 Clouds -11 999 73 10000 7 300 11:37 08.03.2021
1736 Clouds -11 999 73 10000 7 300 11:18 08.03.2021
1737 Clouds -11 998 79 10000 8 300 10:41 08.03.2021
1738 Clouds -11 998 79 10000 8 300 10:19 08.03.2021
1739 Clouds -11 997 79 10000 6 320 09:30 08.03.2021
1740 Clouds -12 997 85 10000 6 310 08:54 08.03.2021
1741 Snow -12 997 79 10000 5 320 08:27 08.03.2021
1742 Snow -11 996 79 10000 5 320 07:23 08.03.2021
1743 Snow -13 996 92 7000 4 340 06:38 08.03.2021
1744 Snow -14 998 85 9000 4 20 03:37 08.03.2021
1745 Snow -14 1002 85 9000 1 70 00:43 08.03.2021
1746 Snow -15 1002 92 7000 2 80 23:54 07.03.2021
1747 Snow -15 1003 85 8000 3 90 23:28 07.03.2021
1748 Clouds -15 1003 92 10000 3 80 22:59 07.03.2021
1749 Snow -15 1004 85 10000 3 80 22:40 07.03.2021
1750 Snow -15 1004 85 10000 3 80 22:20 07.03.2021
1751 Clouds -17 1005 85 10000 2 110 21:42 07.03.2021
1752 Clouds -17 1005 85 10000 2 110 21:23 07.03.2021
1753 Clouds -15 1006 92 9000 3 90 20:43 07.03.2021
1754 Clouds -15 1006 92 9000 3 90 20:24 07.03.2021
1755 Snow -15 1006 92 7000 2 70 19:56 07.03.2021
1756 Snow -14 1007 92 9000 2 90 19:37 07.03.2021
1757 Snow -14 1007 92 9000 2 90 19:19 07.03.2021
1758 Snow -12 1007 92 7000 2 100 18:40 07.03.2021
1759 Snow -12 1007 92 7000 2 100 18:19 07.03.2021
1760 Snow -13 1008 85 3200 1.15 142 17:39 07.03.2021
1761 Snow -13 1008 85 3200 0.98 168 17:20 07.03.2021
1762 Clouds -14 1008 85 8000 1 100 16:54 07.03.2021
1763 Clouds -17 1008 92 10000 2 120 16:36 07.03.2021
1764 Clouds -17 1008 92 10000 2 120 16:36 07.03.2021
1765 Clouds -16 1008 92 10000 1 0 16:18 07.03.2021
1766 Clouds -16 1008 92 10000 1 150 15:41 07.03.2021
1767 Clouds -16 1008 92 10000 1 150 15:20 07.03.2021
1768 Clouds -13 1008 78 10000 2 270 14:30 07.03.2021
1769 Clouds -13 1008 78 10000 2 270 14:30 07.03.2021
1770 Clouds -11 1008 73 10000 2 240 13:57 07.03.2021
1771 Clouds -11 1008 79 10000 2 240 13:38 07.03.2021
1772 Clouds -11 1008 79 10000 2 240 13:18 07.03.2021
1773 Clouds -10 1008 73 10000 4 240 12:40 07.03.2021
1774 Clouds -10 1008 73 10000 4 240 12:21 07.03.2021
1775 Clear -9 1008 73 10000 4 230 11:24 07.03.2021
1776 Clear -9 1007 73 10000 4 240 10:59 07.03.2021
1777 Clear -9 1007 79 10000 4 230 10:38 07.03.2021
1778 Clear -9 1006 79 10000 4 240 09:58 07.03.2021
1779 Clouds -9 1006 86 10000 5 240 09:39 07.03.2021
1780 Clouds -9 1006 86 10000 5 240 09:19 07.03.2021
1781 Clear -9 1006 86 10000 4 240 08:45 07.03.2021
1782 Clear -10 1005 92 10000 3 240 08:22 07.03.2021
1783 Snow -11 1005 100 10000 2 220 07:23 07.03.2021
1784 Clouds -21 1002 84 10000 2 260 02:40 07.03.2021
1785 Snow -19 1001 84 6000 2 290 00:35 07.03.2021
1786 Clouds -19 1000 84 10000 2 280 23:41 06.03.2021
1787 Clouds -19 1000 84 10000 2 280 23:20 06.03.2021
1788 Snow -18 1000 92 10000 2 280 22:46 06.03.2021
1789 Snow -17 1000 92 3500 2 300 22:24 06.03.2021
1790 Snow -17 999 92 3500 2 290 21:49 06.03.2021
1791 Snow -17 999 85 4800 3 280 21:21 06.03.2021
1792 Snow -17 999 92 8000 2 290 20:44 06.03.2021
1793 Snow -18 998 92 10000 2 320 20:19 06.03.2021
1794 Clouds -16 998 100 10000 2 280 19:40 06.03.2021
1795 Clouds -16 998 100 10000 2 280 19:18 06.03.2021
1796 Clear -13 997 100 10000 3 330 18:42 06.03.2021
1797 Clear -13 997 100 10000 3 330 18:22 06.03.2021
1798 Clear -12 997 100 10000 4 340 17:55 06.03.2021
1799 Clear -12 997 100 10000 4 340 17:33 06.03.2021
1800 Clear -12 996 92 10000 4 340 16:59 06.03.2021
1801 Clear -11 996 92 10000 4 340 16:37 06.03.2021
1802 Clear -11 996 92 10000 4 340 16:18 06.03.2021
1803 Clouds -10 996 100 10000 3 340 15:39 06.03.2021
1804 Clouds -10 996 100 10000 3 340 15:21 06.03.2021
1805 Snow -9 996 100 8000 3 330 14:33 06.03.2021
1806 Snow -8 995 93 4900 3 340 13:56 06.03.2021
1807 Snow -8 995 93 1400 4 350 13:37 06.03.2021
1808 Snow -8 995 93 1400 4 350 13:19 06.03.2021
1809 Snow -8 995 86 8000 3 340 12:42 06.03.2021
1810 Snow -8 995 86 8000 3 340 12:18 06.03.2021
1811 Snow -8 994 93 10000 3 350 11:44 06.03.2021
1812 Snow -7 994 86 10000 4 350 11:20 06.03.2021
1813 Snow -7 994 86 10000 4 350 10:44 06.03.2021
1814 Clouds -7 993 86 10000 3 10 09:58 06.03.2021
1815 Clouds -7 993 86 10000 3 350 09:26 06.03.2021
1816 Clouds -7 993 86 10000 1 0 08:56 06.03.2021
1817 Clouds -7 993 100 10000 2 300 08:31 06.03.2021
1818 Clouds -8 993 100 10000 2 280 07:56 06.03.2021
1819 Clouds -9 993 100 10000 2 270 07:22 06.03.2021
1820 Clouds -9 993 100 10000 1 110 06:42 06.03.2021
1821 Snow -12 994 100 10000 1 80 03:49 06.03.2021
1822 Snow -10 994 100 5000 3 90 01:43 06.03.2021
1823 Snow -10 995 100 5000 3 100 00:47 06.03.2021
1824 Snow -10 995 100 3200 3 90 23:50 05.03.2021
1825 Snow -10 995 100 2000 2 80 23:19 05.03.2021
1826 Snow -11 996 100 2800 3 90 22:44 05.03.2021
1827 Snow -11 996 100 6000 2 80 22:22 05.03.2021
1828 Snow -12 996 100 6000 2 90 21:51 05.03.2021
1829 Snow -12 996 100 6000 2 80 21:31 05.03.2021
1830 Clouds -14 996 92 6000 1 90 20:50 05.03.2021
1831 Mist -14 996 100 5000 2 90 20:26 05.03.2021
1832 Mist -14 996 100 5000 2 90 20:26 05.03.2021
1833 Clouds -14 996 92 8000 1 80 19:54 05.03.2021
1834 Clouds -14 996 92 6000 1 90 19:26 05.03.2021
1835 Mist -12 996 92 6000 2 80 18:56 05.03.2021
1836 Clouds -12 996 92 6000 1.82 201 18:38 05.03.2021
1837 Clouds -12 996 92 6000 2.16 211 18:18 05.03.2021
1838 Clouds -10 996 100 6000 2.16 211 17:33 05.03.2021
1839 Clouds -10 996 100 6000 2.39 219 16:45 05.03.2021
1840 Clouds -9 996 100 6000 1 0 16:24 05.03.2021
1841 Clouds -8 996 100 9000 1 0 15:56 05.03.2021
1842 Snow -8 996 100 9000 1 0 15:29 05.03.2021
1843 Snow -7 996 100 3800 1 200 14:58 05.03.2021
1844 Snow -7 995 100 10000 1 190 14:38 05.03.2021
1845 Clouds -7 995 86 10000 1 200 13:46 05.03.2021
1846 Clear -7 995 93 10000 2 290 13:21 05.03.2021
1847 Clouds -5 995 80 10000 3 280 12:48 05.03.2021
1848 Clouds -4 994 80 10000 3 220 11:43 05.03.2021
1849 Clouds -4 994 80 10000 4 220 11:23 05.03.2021
1850 Clouds -5 994 86 10000 3 260 10:59 05.03.2021
1851 Clouds -4 994 80 10000 3 220 10:39 05.03.2021
1852 Clouds -4 994 80 10000 3 220 10:20 05.03.2021
1853 Clouds -4 994 86 10000 4 240 09:46 05.03.2021
1854 Clouds -4 993 86 10000 4 210 09:26 05.03.2021
1855 Snow -5 993 93 7000 2 240 08:40 05.03.2021
1856 Snow -5 993 93 7000 2 240 08:21 05.03.2021
1857 Snow -6 993 93 4200 3 220 07:38 05.03.2021
1858 Clouds -7 993 100 10000 3 220 06:45 05.03.2021
1859 Clouds -7 993 100 10000 3 220 06:27 05.03.2021
1860 Snow -6 992 100 6000 2 180 01:47 05.03.2021
1861 Clouds -6 992 100 10000 2 190 00:26 05.03.2021
1862 Clouds -6 992 100 10000 2 190 23:26 04.03.2021
1863 Clouds -6 992 100 10000 1 0 22:37 04.03.2021
1864 Snow -6 993 100 8000 1 0 21:56 04.03.2021
1865 Snow -6 993 100 8000 1 140 21:34 04.03.2021
1866 Snow -6 993 100 8000 1 140 21:34 04.03.2021
1867 Snow -6 993 100 6000 2 160 20:59 04.03.2021
1868 Snow -7 993 100 5000 2 160 20:41 04.03.2021
1869 Snow -7 993 100 5000 2 160 20:21 04.03.2021
1870 Snow -7 993 100 3300 2 160 19:53 04.03.2021
1871 Snow -7 993 100 6000 2 160 19:26 04.03.2021
1872 Snow -7 994 100 3300 3 160 18:54 04.03.2021
1873 Snow -7 994 100 8000 3 150 18:30 04.03.2021
1874 Snow -7 994 100 2800 3 150 17:58 04.03.2021
1875 Snow -7 994 100 7000 4 150 17:39 04.03.2021
1876 Snow -7 994 100 7000 4 150 17:18 04.03.2021
1877 Snow -7 994 93 10000 4 150 16:43 04.03.2021
1878 Snow -7 994 100 10000 4 150 16:24 04.03.2021
1879 Snow -7 994 93 10000 4 160 15:46 04.03.2021
1880 Snow -7 995 93 10000 4 160 15:27 04.03.2021
1881 Snow -7 995 93 5000 4 160 14:44 04.03.2021
1882 Snow -6 995 86 4500 4 160 14:18 04.03.2021
1883 Snow -6 995 86 3600 5 160 13:42 04.03.2021
1884 Snow -6 995 86 3600 5 160 13:22 04.03.2021
1885 Snow -6 995 86 9000 5 160 12:42 04.03.2021
1886 Snow -6 995 79 7000 5 160 11:58 04.03.2021
1887 Snow -6 995 79 8000 5 160 11:40 04.03.2021
1888 Snow -6 995 79 8000 5 160 11:19 04.03.2021
1889 Snow -7 995 86 10000 6 160 10:37 04.03.2021
1890 Snow -7 996 86 5000 4 160 09:55 04.03.2021
1891 Snow -7 996 79 7000 5 160 09:28 04.03.2021
1892 Snow -7 996 79 10000 4 160 08:53 04.03.2021
1893 Snow -8 996 79 9000 4 150 08:28 04.03.2021
1894 Clouds -9 996 79 10000 4 150 07:37 04.03.2021
1895 Snow -9 996 86 10000 5 180 06:41 04.03.2021
1896 Snow -9 996 86 10000 5 180 06:21 04.03.2021
1897 Snow -11 997 85 10000 5 180 02:39 04.03.2021
1898 Snow -11 997 85 10000 4 190 00:20 04.03.2021
1899 Snow -11 997 85 5000 4 190 22:39 03.03.2021
1900 Snow -11 997 85 5000 4 190 22:20 03.03.2021
1901 Snow -11 997 85 8000 5 200 21:41 03.03.2021
1902 Snow -11 997 85 8000 5 200 21:23 03.03.2021
1903 Snow -11 997 85 9000 4 200 20:54 03.03.2021
1904 Snow -11 997 85 7000 4 200 20:35 03.03.2021
1905 Snow -11 997 85 8000 3 190 19:51 03.03.2021
1906 Snow -11 997 85 5000 4 190 19:30 03.03.2021
1907 Snow -11 997 85 4400 4 200 18:58 03.03.2021
1908 Snow -11 997 85 2500 4 200 18:39 03.03.2021
1909 Snow -11 997 85 4700 5 200 17:58 03.03.2021
1910 Snow -11 997 85 10000 4 200 17:22 03.03.2021
1911 Snow -11 997 85 10000 5 200 16:55 03.03.2021
1912 Snow -11 997 85 8000 5 200 16:27 03.03.2021
1913 Snow -10 997 79 8000 5 200 15:57 03.03.2021
1914 Snow -10 997 85 2400 4 200 15:33 03.03.2021
1915 Snow -10 997 92 2700 5 190 14:50 03.03.2021
1916 Snow -10 997 92 2700 5 190 14:27 03.03.2021
1917 Snow -10 997 92 2100 6 180 13:47 03.03.2021
1918 Snow -10 997 92 1600 5 170 13:28 03.03.2021
1919 Snow -10 997 92 2000 5 170 12:43 03.03.2021
1920 Snow -10 997 85 1400 5 170 12:23 03.03.2021
1921 Snow -10 997 79 2700 5 160 11:45 03.03.2021
1922 Snow -10 997 79 4800 5 160 11:27 03.03.2021
1923 Snow -11 997 79 6000 6 160 10:46 03.03.2021
1924 Snow -11 998 79 3600 5 160 10:22 03.03.2021
1925 Snow -12 998 79 4600 6 160 09:44 03.03.2021
1926 Snow -13 999 78 10000 5 150 08:55 03.03.2021
1927 Snow -14 999 78 10000 5 150 08:37 03.03.2021
1928 Clouds -14 999 78 10000 5 150 08:18 03.03.2021
1929 Clouds -15 999 78 10000 6 160 07:39 03.03.2021
1930 Clouds -15 1000 78 10000 5 160 06:46 03.03.2021
1931 Clear -16 1000 85 10000 6 150 05:45 03.03.2021
1932 Clear -16 1001 78 10000 5 150 04:50 03.03.2021
1933 Clear -17 1001 85 10000 5 150 04:24 03.03.2021
1934 Clear -16 1003 85 10000 5 150 00:39 03.03.2021
1935 Clear -16 1003 85 10000 5 150 23:44 02.03.2021
1936 Clear -16 1003 85 10000 4 150 22:54 02.03.2021
1937 Clear -16 1004 85 10000 4 160 22:24 02.03.2021
1938 Clear -16 1004 85 10000 4 150 21:59 02.03.2021
1939 Clear -16 1004 85 10000 4 150 21:37 02.03.2021
1940 Clear -16 1004 85 10000 4 150 21:18 02.03.2021
1941 Clear -15 1005 78 10000 4 160 20:41 02.03.2021
1942 Clear -15 1005 78 10000 4 160 20:21 02.03.2021
1943 Clear -16 1005 85 10000 4 160 19:49 02.03.2021
1944 Clear -15 1005 78 10000 4 160 19:30 02.03.2021
1945 Clear -15 1005 78 10000 4 160 18:55 02.03.2021
1946 Clear -15 1006 78 10000 5 160 18:36 02.03.2021
1947 Clear -15 1006 78 10000 5 160 18:18 02.03.2021
1948 Clear -15 1006 78 10000 4 160 17:40 02.03.2021
1949 Clear -15 1006 78 10000 4 160 17:20 02.03.2021
1950 Clear -15 1006 78 10000 5 160 16:47 02.03.2021
1951 Clear -15 1006 72 10000 5 160 15:55 02.03.2021
1952 Clear -15 1007 72 10000 4 150 15:29 02.03.2021
1953 Clear -15 1007 72 10000 4 150 14:56 02.03.2021
1954 Clear -15 1007 72 10000 4 160 14:21 02.03.2021
1955 Clear -14 1007 66 10000 4 150 13:48 02.03.2021
1956 Clear -15 1007 72 10000 4 150 13:26 02.03.2021
1957 Clear -15 1007 66 10000 4 150 12:50 02.03.2021
1958 Clear -15 1008 66 10000 4 150 12:26 02.03.2021
1959 Clear -15 1008 66 10000 4 150 11:52 02.03.2021
1960 Clear -15 1008 61 10000 4 150 11:25 02.03.2021
1961 Clear -15 1008 61 10000 4 150 10:54 02.03.2021
1962 Clear -16 1009 66 10000 4 150 10:30 02.03.2021
1963 Clear -17 1009 71 10000 4 150 09:44 02.03.2021
1964 Clear -17 1009 78 10000 3 150 09:24 02.03.2021
1965 Clear -18 1010 78 10000 4 130 08:54 02.03.2021
1966 Clear -19 1010 78 10000 4 140 08:33 02.03.2021
1967 Clear -20 1011 84 10000 3 140 07:46 02.03.2021
1968 Clear -23 1011 84 10000 2 150 06:37 02.03.2021
1969 Clear -23 1011 84 10000 2 160 05:52 02.03.2021
1970 Clear -24 1011 84 10000 2 160 05:32 02.03.2021
1971 Clear -25 1011 84 10000 2 150 04:37 02.03.2021
1972 Clear -27 1013 83 10000 2 120 01:42 02.03.2021
1973 Clear -27 1013 83 10000 2 120 01:21 02.03.2021
1974 Clear -24 1013 84 10000 2 130 23:29 01.03.2021
1975 Clear -24 1014 84 10000 2 140 22:56 01.03.2021
1976 Clear -24 1014 84 10000 2 130 22:38 01.03.2021
1977 Clear -24 1014 84 10000 2 130 22:19 01.03.2021
1978 Clear -23 1014 77 10000 2 130 21:41 01.03.2021
1979 Clear -23 1014 77 10000 2 130 21:23 01.03.2021
1980 Clear -23 1014 77 10000 2 130 21:23 01.03.2021
1981 Clear -24 1015 84 10000 3 150 20:42 01.03.2021
1982 Clear -24 1015 84 10000 3 150 20:20 01.03.2021
1983 Clear -24 1015 84 10000 2 150 19:43 01.03.2021
1984 Clear -24 1015 84 10000 2 150 19:24 01.03.2021
1985 Clear -24 1015 84 10000 2 130 18:43 01.03.2021
1986 Clear -24 1015 84 10000 2 130 18:23 01.03.2021
1987 Clear -24 1016 84 10000 2 130 17:47 01.03.2021
1988 Clear -24 1016 84 10000 3 120 17:22 01.03.2021
1989 Clear -23 1016 70 10000 3 120 16:46 01.03.2021
1990 Clear -23 1016 77 10000 3 120 16:27 01.03.2021
1991 Clear -23 1016 77 10000 2 120 15:47 01.03.2021
1992 Clear -23 1016 77 10000 3 110 15:22 01.03.2021
1993 Clear -23 1016 77 10000 4 100 14:57 01.03.2021
1994 Clear -22 1017 77 10000 5 90 14:38 01.03.2021
1995 Clear -21 1017 71 10000 3 80 13:47 01.03.2021
1996 Clear -19 1017 65 10000 4 110 13:28 01.03.2021
1997 Clear -19 1017 65 10000 4 90 12:59 01.03.2021
1998 Clear -19 1017 71 10000 4 80 12:40 01.03.2021
1999 Clear -19 1017 71 10000 4 80 12:21 01.03.2021
2000 Clear -19 1017 65 10000 4 80 11:46 01.03.2021
2001 Clear -18 1018 65 10000 3 90 10:59 01.03.2021
2002 Clear -18 1018 65 10000 3 90 10:36 01.03.2021
2003 Clear -18 1018 65 10000 3 90 10:18 01.03.2021
2004 Clear -18 1019 60 10000 3 130 09:46 01.03.2021
2005 Clear -19 1019 65 10000 3 130 09:23 01.03.2021
2006 Clear -19 1019 65 10000 3 130 09:23 01.03.2021
2007 Clear -19 1019 65 10000 3 140 08:53 01.03.2021
2008 Clear -19 1019 65 10000 3 130 08:22 01.03.2021
2009 Clouds -22 1020 77 10000 2 130 06:54 01.03.2021
2010 Clouds -24 1020 84 10000 2 100 06:24 01.03.2021
2011 Clouds -30 1021 83 10000 3 90 02:26 01.03.2021
2012 Clouds -28 1021 76 10000 3 90 23:41 28.02.2021
2013 Clouds -28 1021 83 10000 3 90 22:55 28.02.2021
2014 Clouds -28 1021 83 10000 3 90 22:26 28.02.2021
2015 Clouds -27 1021 83 10000 3 90 21:54 28.02.2021
2016 Clouds -27 1022 83 10000 4 100 21:32 28.02.2021
2017 Clear -26 1022 84 10000 3 100 20:58 28.02.2021
2018 Clear -25 1022 84 10000 3 110 20:38 28.02.2021
2019 Clouds -24 1022 84 10000 3 120 19:57 28.02.2021
2020 Clear -23 1022 77 10000 3 110 19:38 28.02.2021
2021 Clear -23 1022 77 10000 3 110 19:20 28.02.2021
2022 Clear -23 1023 77 10000 3 120 18:43 28.02.2021
2023 Clear -23 1023 77 10000 3 110 18:25 28.02.2021
2024 Clear -22 1023 71 10000 4 110 17:50 28.02.2021
2025 Clear -22 1023 77 10000 3 120 17:28 28.02.2021
2026 Clear -23 1023 77 10000 3 90 16:56 28.02.2021
2027 Clear -24 1023 77 10000 4 90 16:37 28.02.2021
2028 Clear -23 1023 77 10000 4 100 15:57 28.02.2021
2029 Clear -23 1024 84 10000 3 110 15:37 28.02.2021
2030 Clear -23 1024 84 10000 3 110 15:18 28.02.2021
2031 Clear -23 1024 77 10000 3 110 14:48 28.02.2021
2032 Clear -23 1024 77 10000 4 90 14:26 28.02.2021
2033 Clear -22 1024 77 10000 4 80 13:52 28.02.2021
2034 Clear -20 1024 71 10000 4 80 13:21 28.02.2021
2035 Clear -18 1024 60 10000 3 110 12:56 28.02.2021
2036 Clear -18 1024 65 10000 3 120 12:38 28.02.2021
2037 Clear -18 1024 65 10000 4 120 12:19 28.02.2021
2038 Clear -18 1024 65 10000 4 120 11:44 28.02.2021
2039 Clear -19 1025 78 10000 3 130 11:25 28.02.2021
2040 Clear -19 1025 78 10000 4 140 10:55 28.02.2021
2041 Clear -19 1025 78 10000 3 150 10:29 28.02.2021
2042 Clear -19 1025 78 10000 3 140 09:51 28.02.2021
2043 Clouds -20 1025 84 10000 3 150 09:33 28.02.2021
2044 Clouds -20 1025 77 9000 3 140 08:50 28.02.2021
2045 Mist -21 1025 84 9000 3 140 08:31 28.02.2021
2046 Clouds -21 1026 84 10000 2 130 07:57 28.02.2021
2047 Mist -21 1026 77 9000 2 140 07:37 28.02.2021
2048 Mist -22 1025 77 10000 1 0 06:55 28.02.2021
2049 Clouds -26 1026 84 9000 2 100 05:25 28.02.2021
2050 Fog -27 1026 76 1100 2 100 03:44 28.02.2021
2051 Clouds -28 1026 76 10000 2 100 01:55 28.02.2021
2052 Clouds -29 1026 76 6000 2 90 00:52 28.02.2021
2053 Fog -30 1026 76 100 2 80 00:34 28.02.2021
2054 Mist -29 1026 76 6000 1.9 196 23:45 27.02.2021
2055 Mist -28 1026 76 5000 1.93 203 23:19 27.02.2021
2056 Clear -29 1026 76 10000 1.93 203 22:49 27.02.2021
2057 Clear -30 1026 76 10000 1.94 206 22:21 27.02.2021
2058 Clear -29 1026 83 10000 1.94 206 21:46 27.02.2021
2059 Clear -28 1026 76 10000 1.95 209 21:24 27.02.2021
2060 Clear -26 1026 76 10000 1.95 209 20:49 27.02.2021
2061 Clear -27 1026 83 10000 2.08 216 20:28 27.02.2021
2062 Clouds -26 1026 84 6000 2.08 216 19:46 27.02.2021
2063 Mist -27 1026 76 2400 2.24 224 19:27 27.02.2021
2064 Fog -28 1026 76 100 1 190 18:55 27.02.2021
2065 Fog -27 1026 76 50 1 170 18:36 27.02.2021
2066 Fog -27 1026 76 50 1 170 18:18 27.02.2021
2067 Fog -28 1026 83 100 2.4 223 17:41 27.02.2021
2068 Fog -28 1026 83 100 2.52 221 17:19 27.02.2021
2069 Mist -28 1026 83 3000 1 0 16:49 27.02.2021
2070 Clear -28 1026 83 10000 1 60 16:28 27.02.2021
2071 Clear -26 1026 84 10000 1 60 15:46 27.02.2021
2072 Clear -26 1027 84 10000 1 0 15:19 27.02.2021
2073 Clear -23 1027 84 10000 2.11 217 14:41 27.02.2021
2074 Clear -23 1027 84 10000 1.69 228 14:21 27.02.2021
2075 Clear -20 1027 71 10000 2 240 13:43 27.02.2021
2076 Clear -20 1027 71 10000 2 240 13:19 27.02.2021
2077 Clear -20 1027 71 10000 3 240 12:45 27.02.2021
2078 Clear -19 1027 65 10000 4 240 12:24 27.02.2021
2079 Clear -19 1027 65 10000 5 240 11:51 27.02.2021
2080 Clouds -19 1027 65 9000 5 240 11:31 27.02.2021
2081 Clear -19 1027 65 10000 5 240 10:51 27.02.2021
2082 Clear -19 1027 65 10000 5 240 10:32 27.02.2021
2083 Clear -19 1027 65 10000 6 240 09:53 27.02.2021
2084 Clear -19 1027 65 10000 5 240 09:31 27.02.2021
2085 Clear -19 1026 71 10000 4 240 08:43 27.02.2021
2086 Clear -19 1026 71 10000 4 240 08:24 27.02.2021
2087 Clouds -20 1026 77 10000 4 240 07:44 27.02.2021
2088 Clouds -21 1026 77 10000 4 250 06:55 27.02.2021
2089 Clouds -23 1026 77 10000 3 250 01:22 27.02.2021
2090 Clouds -23 1026 77 10000 3 250 01:22 27.02.2021
2091 Snow -24 1026 77 10000 2 270 00:30 27.02.2021
2092 Snow -25 1026 84 10000 2 270 23:40 26.02.2021
2093 Snow -25 1026 84 10000 2 270 23:20 26.02.2021
2094 Clouds -24 1026 77 10000 3 260 22:34 26.02.2021
2095 Clouds -24 1026 77 10000 2 260 21:54 26.02.2021
2096 Clouds -25 1026 77 10000 3 260 21:35 26.02.2021
2097 Clouds -26 1026 84 10000 2 260 20:55 26.02.2021
2098 Clouds -27 1026 83 10000 1 0 20:36 26.02.2021
2099 Clouds -27 1026 83 10000 1 0 20:18 26.02.2021
2100 Clouds -28 1026 83 10000 2.59 246 19:26 26.02.2021
2101 Clouds -28 1026 76 10000 2 250 18:52 26.02.2021
2102 Clear -29 1026 76 10000 2 250 18:24 26.02.2021
2103 Clear -29 1026 83 10000 2 270 17:56 26.02.2021
2104 Clouds -29 1026 83 10000 2 250 17:36 26.02.2021
2105 Clouds -28 1026 76 8000 1 240 16:58 26.02.2021
2106 Clouds -28 1026 76 10000 2 240 16:40 26.02.2021
2107 Clouds -28 1026 76 10000 2 240 16:40 26.02.2021
2108 Clouds -28 1026 76 10000 2 240 16:22 26.02.2021
2109 Clouds -27 1026 76 10000 1 0 15:43 26.02.2021
2110 Clouds -27 1026 76 10000 2 240 15:23 26.02.2021
2111 Clouds -28 1026 76 10000 2 250 14:52 26.02.2021
2112 Clear -27 1026 76 10000 2 240 14:34 26.02.2021
2113 Clear -27 1026 76 10000 2 240 13:49 26.02.2021
2114 Clear -25 1026 70 10000 2 250 13:30 26.02.2021
2115 Clear -25 1026 70 10000 3 230 12:48 26.02.2021
2116 Clear -24 1026 64 10000 3 250 12:26 26.02.2021
2117 Clear -24 1025 64 10000 3 220 11:40 26.02.2021
2118 Clear -24 1025 64 10000 2 210 10:58 26.02.2021
2119 Clear -24 1024 64 10000 1 0 10:25 26.02.2021
2120 Clear -24 1024 64 10000 1 0 09:47 26.02.2021
2121 Clear -24 1024 64 10000 1 0 09:27 26.02.2021
2122 Clear -26 1024 70 10000 2 250 08:35 26.02.2021
2123 Clouds -27 1024 69 10000 2 250 07:56 26.02.2021
2124 Clouds -28 1024 69 10000 2 250 07:20 26.02.2021
2125 Clouds -30 1024 69 10000 2 250 06:31 26.02.2021
2126 Snow -33 1024 68 6000 3 290 04:59 26.02.2021
2127 Clouds -35 1023 68 10000 2 290 02:38 26.02.2021
2128 Clear -35 1022 75 10000 2 300 00:27 26.02.2021
2129 Clear -34 1022 68 10000 3 340 23:39 25.02.2021
2130 Clear -34 1022 75 10000 3 350 22:57 25.02.2021
2131 Clear -33 1022 68 10000 3 340 22:37 25.02.2021
2132 Clear -33 1022 68 10000 3 330 21:50 25.02.2021
2133 Clear -33 1021 75 10000 3 330 21:31 25.02.2021
2134 Clear -33 1021 75 10000 3 340 20:54 25.02.2021
2135 Clear -33 1021 75 10000 3 360 20:36 25.02.2021
2136 Clear -33 1021 75 10000 3 360 20:18 25.02.2021
2137 Clear -33 1021 75 10000 3 360 20:18 25.02.2021
2138 Clear -32 1021 75 10000 4 360 19:46 25.02.2021
2139 Clear -32 1021 75 10000 4 350 19:19 25.02.2021
2140 Clear -31 1021 76 10000 3 350 18:39 25.02.2021
2141 Clear -31 1021 76 10000 3 350 18:18 25.02.2021
2142 Clear -30 1021 69 10000 4 350 17:33 25.02.2021
2143 Clear -30 1021 76 10000 5 340 16:56 25.02.2021
2144 Clouds -30 1020 69 9000 4 350 16:33 25.02.2021
2145 Clear -30 1020 69 10000 4 350 15:48 25.02.2021
2146 Clear -30 1020 69 10000 4 350 15:28 25.02.2021
2147 Clear -29 1020 69 10000 4 340 14:32 25.02.2021
2148 Clear -29 1020 69 10000 5 340 13:59 25.02.2021
2149 Clear -28 1020 69 10000 4 340 13:40 25.02.2021
2150 Clear -28 1020 69 10000 4 340 13:19 25.02.2021
2151 Clouds -29 1021 86 10000 3.89 8 12:24 25.02.2021
2152 Clouds -29 1021 86 10000 3.89 8 11:57 25.02.2021
2153 Clouds -29 1021 86 10000 3.89 8 11:39 25.02.2021
2154 Clear -27 1019 63 10000 5 350 10:51 25.02.2021
2155 Clear -27 1019 63 10000 5 350 10:32 25.02.2021
2156 Clear -27 1019 63 10000 5 350 09:45 25.02.2021
2157 Clear -27 1019 63 10000 5 350 09:22 25.02.2021
2158 Clear -28 1019 63 10000 5 340 08:30 25.02.2021
2159 Clear -28 1019 63 10000 4 360 07:58 25.02.2021
2160 Clear -28 1019 63 10000 4 30 07:38 25.02.2021
2161 Clear -29 1019 69 10000 3 20 06:57 25.02.2021
2162 Clouds -33 1019 68 10000 2 30 04:22 25.02.2021
2163 Clear -33 1019 75 10000 2 30 01:39 25.02.2021
2164 Clear -33 1020 75 10000 2 40 00:46 25.02.2021
2165 Clouds -34 1020 75 10000 3 50 23:56 24.02.2021
2166 Clear -34 1021 75 10000 4 50 23:32 24.02.2021
2167 Clear -33 1021 68 10000 5 40 22:47 24.02.2021
2168 Clear -33 1021 68 10000 3 60 22:29 24.02.2021
2169 Clear -33 1021 75 10000 3 60 21:48 24.02.2021
2170 Clear -33 1022 75 10000 3 60 21:24 24.02.2021
2171 Clear -33 1022 75 10000 3 60 20:48 24.02.2021
2172 Clear -32 1022 68 10000 3 50 20:25 24.02.2021
2173 Clear -32 1023 68 10000 3 60 19:40 24.02.2021
2174 Clear -32 1023 68 10000 3 60 19:20 24.02.2021
2175 Clear -32 1023 68 10000 3 60 19:20 24.02.2021
2176 Clear -32 1023 75 10000 4 50 18:48 24.02.2021
2177 Clear -32 1023 75 10000 4 50 18:29 24.02.2021
2178 Clear -31 1024 69 10000 4 50 17:39 24.02.2021
2179 Clear -31 1024 69 10000 4 50 17:20 24.02.2021
2180 Clear -31 1024 76 10000 3 50 16:45 24.02.2021
2181 Clear -30 1025 69 10000 3 40 16:20 24.02.2021
2182 Clear -30 1025 69 10000 3 40 15:47 24.02.2021
2183 Clear -30 1025 76 10000 2 50 15:25 24.02.2021
2184 Clear -29 1026 76 10000 2 10 14:35 24.02.2021
2185 Clear -28 1026 69 10000 3 40 13:59 24.02.2021
2186 Clear -27 1026 63 10000 4 40 13:40 24.02.2021
2187 Clear -27 1026 63 10000 4 40 13:22 24.02.2021
2188 Clear -27 1027 69 10000 3 30 12:45 24.02.2021
2189 Clear -26 1027 64 10000 4 30 12:26 24.02.2021
2190 Clear -26 1027 64 10000 4 40 11:50 24.02.2021
2191 Clear -26 1028 64 10000 4 40 11:21 24.02.2021
2192 Clear -26 1029 64 10000 3 70 10:32 24.02.2021
2193 Clear -26 1029 64 10000 3 110 09:50 24.02.2021
2194 Clear -27 1029 69 10000 4 100 09:20 24.02.2021
2195 Clear -28 1030 69 10000 4 80 08:37 24.02.2021
2196 Clear -28 1030 69 10000 4 80 08:19 24.02.2021
2197 Clear -30 1030 69 10000 3 60 07:20 24.02.2021
2198 Clear -33 1031 75 10000 3 90 06:42 24.02.2021
2199 Clear -37 1032 74 10000 2 90 04:23 24.02.2021
2200 Clear -36 1033 75 10000 2 80 00:43 24.02.2021
2201 Clear -37 1033 74 10000 2 80 23:29 23.02.2021
2202 Clear -36 1034 68 10000 2 70 22:40 23.02.2021
2203 Clear -36 1034 68 10000 2 70 22:40 23.02.2021
2204 Clear -36 1034 68 10000 2 70 22:20 23.02.2021
2205 Clear -36 1034 68 10000 2 70 22:20 23.02.2021
2206 Clear -36 1034 75 10000 1 60 21:44 23.02.2021
2207 Clear -36 1034 75 10000 2 70 21:24 23.02.2021
2208 Clear -36 1034 68 10000 1 0 20:49 23.02.2021
2209 Clear -37 1034 74 10000 2.61 48 20:29 23.02.2021
2210 Clear -37 1034 74 10000 1 90 19:48 23.02.2021
2211 Clear -36 1034 75 10000 1 0 19:28 23.02.2021
2212 Clear -35 1034 68 10000 1 0 18:58 23.02.2021
2213 Clear -35 1034 68 10000 2 60 18:39 23.02.2021
2214 Clear -35 1034 68 10000 2 60 18:18 23.02.2021
2215 Clear -34 1034 68 10000 3 60 17:39 23.02.2021
2216 Clear -36 1034 75 10000 2.73 40 16:56 23.02.2021
2217 Clear -36 1034 75 10000 1 0 16:36 23.02.2021
2218 Clear -36 1034 75 10000 1 0 16:18 23.02.2021
2219 Clear -35 1034 68 10000 2 10 15:40 23.02.2021
2220 Clear -35 1034 68 10000 2 10 15:21 23.02.2021
2221 Clear -35 1034 68 10000 1 0 14:44 23.02.2021
2222 Clear -34 1034 68 10000 2 360 14:25 23.02.2021
2223 Clear -34 1034 68 10000 3 360 13:47 23.02.2021
2224 Clear -33 1034 62 10000 3 360 13:26 23.02.2021
2225 Clear -33 1033 68 10000 3 350 12:51 23.02.2021
2226 Clear -32 1033 68 10000 2 350 12:20 23.02.2021
2227 Clear -31 1033 62 10000 3 350 11:50 23.02.2021
2228 Clear -31 1033 62 10000 2 350 11:22 23.02.2021
2229 Clouds -30 1033 63 10000 2 60 10:51 23.02.2021
2230 Clouds -31 1033 62 10000 1 0 10:32 23.02.2021
2231 Clouds -31 1033 62 10000 2 350 09:45 23.02.2021
2232 Clouds -31 1032 62 10000 1.94 31 09:25 23.02.2021
2233 Clear -32 1032 62 10000 2 10 08:51 23.02.2021
2234 Clear -33 1032 68 10000 2 10 08:24 23.02.2021
2235 Clear -33 1032 62 10000 2 350 07:58 23.02.2021
2236 Clouds -39 1031 67 10000 1.65 17 05:40 23.02.2021
2237 Clouds -40 1031 67 9000 1 0 04:58 23.02.2021
2238 Clear -40 1030 67 10000 1 320 02:34 23.02.2021
2239 Clear -39 1029 67 10000 1 330 00:20 23.02.2021
2240 Clear -40 1029 67 10000 1 310 23:57 22.02.2021
2241 Clear -39 1029 67 10000 1 0 23:21 22.02.2021
2242 Clear -38 1028 67 10000 1 310 22:41 22.02.2021
2243 Clear -38 1028 67 10000 1 310 22:20 22.02.2021
2244 Clear -38 1028 67 10000 1 0 21:45 22.02.2021
2245 Clear -38 1028 67 10000 1 0 21:45 22.02.2021
2246 Clear -38 1028 74 10000 1 0 21:23 22.02.2021
2247 Clear -37 1028 67 10000 2 340 20:52 22.02.2021
2248 Clear -37 1027 67 10000 1 340 20:29 22.02.2021
2249 Clouds -38 1027 74 10000 2 310 19:53 22.02.2021
2250 Clear -38 1027 74 10000 1 300 19:35 22.02.2021
2251 Clear -37 1027 67 10000 1 310 18:56 22.02.2021
2252 Clear -37 1027 74 10000 2 300 18:37 22.02.2021
2253 Clear -37 1027 74 10000 2 300 18:19 22.02.2021
2254 Clear -36 1026 75 10000 2 310 17:26 22.02.2021
2255 Clear -35 1026 68 10000 3 320 16:54 22.02.2021
2256 Clear -35 1026 68 10000 3 310 16:32 22.02.2021
2257 Clear -35 1026 75 10000 2 300 15:46 22.02.2021
2258 Clear -34 1026 68 10000 3 330 15:27 22.02.2021
2259 Clear -34 1025 75 10000 3 320 14:47 22.02.2021
2260 Clear -33 1025 68 10000 3 320 14:28 22.02.2021
2261 Clear -33 1025 75 10000 3 320 13:46 22.02.2021
2262 Clear -31 1024 69 10000 3 330 12:56 22.02.2021
2263 Clear -30 1023 69 10000 3 330 12:24 22.02.2021
2264 Clear -29 1023 63 10000 4 320 11:58 22.02.2021
2265 Clear -29 1023 69 10000 3 310 11:39 22.02.2021
2266 Clear -29 1023 69 10000 3 310 11:20 22.02.2021
2267 Clear -29 1022 69 10000 3 310 10:46 22.02.2021
2268 Clear -29 1022 69 10000 3 310 10:22 22.02.2021
2269 Clear -29 1022 76 10000 3 310 09:42 22.02.2021
2270 Clear -29 1022 76 10000 3 310 09:24 22.02.2021
2271 Clear -30 1022 76 10000 2 310 08:49 22.02.2021
2272 Clear -31 1021 76 10000 3 280 08:24 22.02.2021
2273 Clear -32 1021 75 10000 3 280 07:53 22.02.2021
2274 Clear -32 1021 68 10000 3 260 07:25 22.02.2021
2275 Clear -33 1020 68 10000 1 0 06:29 22.02.2021
2276 Clear -35 1020 68 10000 2 350 05:26 22.02.2021
2277 Clear -36 1019 75 10000 2 340 03:25 22.02.2021
2278 Clear -36 1019 75 10000 2 340 02:33 22.02.2021
2279 Clear -34 1019 68 10000 2 310 00:45 22.02.2021
2280 Clouds -34 1019 75 10000 2 330 00:19 22.02.2021
2281 Clear -33 1018 68 10000 2 310 23:27 21.02.2021
2282 Clear -34 1018 75 10000 1 0 22:40 21.02.2021
2283 Clear -34 1018 75 10000 1 0 22:21 21.02.2021
2284 Clear -32 1018 75 10000 1 0 21:36 21.02.2021
2285 Clear -31 1018 76 10000 1 0 20:58 21.02.2021
2286 Clear -31 1018 76 10000 1 0 20:39 21.02.2021
2287 Clear -31 1018 76 10000 1 0 20:19 21.02.2021
2288 Clear -31 1018 83 10000 1 0 19:49 21.02.2021
2289 Clear -30 1018 76 10000 1 0 19:30 21.02.2021
2290 Clear -29 1018 76 10000 1 0 18:40 21.02.2021
2291 Clear -29 1018 76 10000 1 0 18:22 21.02.2021
2292 Clouds -28 1018 83 10000 1 0 17:29 21.02.2021
2293 Snow -27 1018 76 10000 2 30 16:55 21.02.2021
2294 Snow -26 1018 76 9000 3 50 16:34 21.02.2021
2295 Clear -26 1018 76 10000 3 60 15:54 21.02.2021
2296 Clear -26 1017 84 10000 2 50 15:22 21.02.2021
2297 Clear -26 1017 84 10000 2 50 14:49 21.02.2021
2298 Clear -25 1017 77 10000 1 20 14:28 21.02.2021
2299 Clear -25 1017 77 10000 2 30 13:46 21.02.2021
2300 Clear -24 1017 77 10000 2 40 13:23 21.02.2021
2301 Clear -24 1017 77 10000 3 70 12:31 21.02.2021
2302 Clear -24 1017 77 10000 3 90 11:45 21.02.2021
2303 Clear -23 1017 70 10000 3 100 11:20 21.02.2021
2304 Clouds -24 1017 77 10000 3 100 10:25 21.02.2021
2305 Clouds -25 1017 84 10000 3 100 09:57 21.02.2021
2306 Clouds -25 1017 77 10000 3 90 09:35 21.02.2021
2307 Mist -25 1017 77 10000 3 80 08:59 21.02.2021
2308 Mist -25 1017 77 3900 3 70 08:30 21.02.2021
2309 Clouds -26 1017 76 6000 2 80 07:37 21.02.2021
2310 Clouds -27 1017 76 10000 3 80 06:59 21.02.2021
2311 Clouds -30 1018 76 10000 3 90 04:44 21.02.2021
2312 Mist -30 1019 76 5000 3 90 02:31 21.02.2021
2313 Clouds -30 1019 76 10000 4 90 00:47 21.02.2021
2314 Clouds -30 1020 76 10000 3 90 00:20 21.02.2021
2315 Clear -30 1020 76 10000 2 100 23:28 20.02.2021
2316 Clear -30 1020 83 10000 3 100 22:47 20.02.2021
2317 Clear -28 1021 76 10000 2 100 22:27 20.02.2021
2318 Clear -28 1021 83 10000 2 100 21:45 20.02.2021
2319 Clear -26 1021 76 10000 2 110 21:26 20.02.2021
2320 Clear -26 1021 76 10000 2 140 20:49 20.02.2021
2321 Clouds -26 1021 84 10000 2 130 20:28 20.02.2021
2322 Clear -26 1021 84 10000 2 120 19:53 20.02.2021
2323 Clear -26 1022 84 10000 2 110 19:31 20.02.2021
2324 Clear -25 1022 77 10000 1 0 18:46 20.02.2021
2325 Clear -26 1022 76 10000 1 0 18:27 20.02.2021
2326 Clear -25 1022 84 10000 2 170 17:43 20.02.2021
2327 Clear -25 1022 84 10000 2 170 17:25 20.02.2021
2328 Clear -24 1022 84 10000 2 150 16:43 20.02.2021
2329 Clouds -25 1022 84 10000 2 150 16:22 20.02.2021
2330 Clouds -24 1022 77 10000 3 120 15:37 20.02.2021
2331 Clouds -25 1022 84 10000 2 110 14:49 20.02.2021
2332 Clouds -25 1023 84 10000 2 130 14:24 20.02.2021
2333 Clouds -25 1023 77 10000 1 170 13:51 20.02.2021
2334 Clear -25 1023 77 10000 1 0 13:27 20.02.2021
2335 Clouds -24 1023 70 10000 2 200 12:52 20.02.2021
2336 Clouds -24 1023 70 10000 2 200 12:32 20.02.2021
2337 Clouds -24 1022 70 10000 2 210 11:48 20.02.2021
2338 Clear -24 1022 70 10000 3 220 11:30 20.02.2021
2339 Clouds -24 1022 70 10000 3 240 10:50 20.02.2021
2340 Clear -24 1022 70 10000 2 210 09:59 20.02.2021
2341 Clear -25 1022 77 10000 3 210 09:40 20.02.2021
2342 Clear -25 1022 77 10000 3 220 08:49 20.02.2021
2343 Clear -26 1022 76 10000 3 250 08:19 20.02.2021
2344 Clear -32 1019 75 10000 2 250 03:40 20.02.2021
2345 Clear -32 1019 75 10000 3 250 02:30 20.02.2021
2346 Clear -33 1019 75 10000 2 250 01:50 20.02.2021
2347 Clear -33 1019 75 10000 2.52 243 00:48 20.02.2021
2348 Clear -33 1018 75 10000 1 280 00:23 20.02.2021
2349 Clear -33 1018 68 10000 1 270 23:19 19.02.2021
2350 Clear -32 1018 75 10000 2.17 269 22:28 19.02.2021
2351 Clear -32 1018 75 10000 2.17 269 21:58 19.02.2021
2352 Clear -32 1017 75 10000 2 280 21:32 19.02.2021
2353 Clouds -32 1017 75 10000 3 280 20:57 19.02.2021
2354 Clouds -32 1017 75 10000 3 280 20:37 19.02.2021
2355 Clouds -32 1017 75 10000 3 280 20:18 19.02.2021
2356 Clouds -32 1016 75 10000 3 280 19:30 19.02.2021
2357 Clear -32 1016 75 10000 3 280 18:57 19.02.2021
2358 Clear -32 1016 75 10000 4 280 18:35 19.02.2021
2359 Clear -32 1016 75 10000 4 280 17:56 19.02.2021
2360 Clear -32 1016 75 10000 4 280 17:23 19.02.2021
2361 Clear -31 1016 76 10000 4 280 16:39 19.02.2021
2362 Clear -31 1016 76 10000 4 280 16:20 19.02.2021
2363 Clear -32 1016 75 10000 3 280 15:45 19.02.2021
2364 Clear -31 1016 76 10000 3 280 15:27 19.02.2021
2365 Clear -29 1016 76 10000 4 260 14:41 19.02.2021
2366 Clear -29 1016 76 10000 4 260 14:23 19.02.2021
2367 Clouds -28 1015 76 10000 4 270 13:44 19.02.2021
2368 Clouds -28 1015 76 10000 3 270 13:24 19.02.2021
2369 Clouds -27 1015 69 10000 3 280 12:44 19.02.2021
2370 Clear -27 1015 76 10000 3 280 12:24 19.02.2021
2371 Clear -27 1015 76 10000 3 290 11:51 19.02.2021
2372 Clear -27 1015 76 10000 3 300 11:26 19.02.2021
2373 Clear -27 1015 76 10000 4 300 10:51 19.02.2021
2374 Clear -27 1015 76 10000 3 290 10:22 19.02.2021
2375 Clear -27 1015 76 10000 3 330 09:48 19.02.2021
2376 Clear -28 1015 76 10000 3 340 09:26 19.02.2021
2377 Clear -29 1015 76 10000 4 350 08:53 19.02.2021
2378 Clear -30 1015 76 10000 2 340 08:24 19.02.2021
2379 Clear -31 1015 76 10000 2 10 07:49 19.02.2021
2380 Clear -32 1015 75 10000 4 360 07:30 19.02.2021
2381 Clear -33 1015 68 10000 2 360 06:53 19.02.2021
2382 Clear -37 1015 74 10000 1 0 05:28 19.02.2021
2383 Clear -38 1015 74 10000 1 0 04:41 19.02.2021
2384 Clear -36 1016 68 10000 2 50 01:47 19.02.2021
2385 Clear -36 1017 75 10000 2 50 00:37 19.02.2021
2386 Clear -35 1017 68 10000 2 50 23:55 18.02.2021
2387 Clear -35 1017 68 10000 2 60 23:35 18.02.2021
2388 Clear -35 1017 75 10000 2 40 22:50 18.02.2021
2389 Clear -34 1018 68 10000 1 80 22:29 18.02.2021
2390 Clear -35 1018 68 10000 1 0 21:48 18.02.2021
2391 Clear -35 1019 68 10000 2.71 54 21:25 18.02.2021
2392 Clear -35 1019 75 10000 2 70 20:44 18.02.2021
2393 Clear -34 1019 75 10000 2 60 20:23 18.02.2021
2394 Clear -33 1019 75 10000 3 50 19:47 18.02.2021
2395 Clear -34 1019 75 10000 3 40 19:28 18.02.2021
2396 Clear -32 1020 75 10000 3 30 18:53 18.02.2021
2397 Clear -32 1020 75 10000 4 20 18:30 18.02.2021
2398 Clear -34 1021 75 10000 2 20 17:53 18.02.2021
2399 Clear -35 1021 75 10000 1 20 17:26 18.02.2021
2400 Clear -34 1022 75 10000 1.81 54 16:59 18.02.2021
2401 Clear -34 1022 75 10000 1.81 54 16:40 18.02.2021
2402 Clear -34 1022 75 10000 1.8 44 16:19 18.02.2021
2403 Clear -33 1022 75 10000 1 0 15:38 18.02.2021
2404 Clear -33 1022 75 10000 1 0 15:20 18.02.2021
2405 Clear -33 1022 75 10000 1 0 14:48 18.02.2021
2406 Clear -31 1023 76 10000 1 50 14:29 18.02.2021
2407 Clear -31 1023 69 10000 2 10 13:46 18.02.2021
2408 Clear -29 1024 69 10000 1 0 13:19 18.02.2021
2409 Clear -29 1024 69 10000 1 50 12:45 18.02.2021
2410 Clear -28 1024 69 10000 2 20 12:22 18.02.2021
2411 Clear -28 1024 69 10000 1 0 11:46 18.02.2021
2412 Clear -28 1024 69 10000 1 0 11:26 18.02.2021
2413 Clear -28 1024 76 10000 1 260 10:47 18.02.2021
2414 Clear -29 1024 69 10000 2 280 10:29 18.02.2021
2415 Clear -29 1024 76 10000 2 270 09:49 18.02.2021
2416 Clear -28 1024 69 10000 2 340 09:24 18.02.2021
2417 Clear -29 1024 69 10000 2 280 08:47 18.02.2021
2418 Clear -30 1024 76 10000 3 300 08:25 18.02.2021
2419 Clear -31 1023 76 10000 3 280 07:34 18.02.2021
2420 Clear -32 1023 68 10000 3 280 06:53 18.02.2021
2421 Clear -35 1021 75 10000 3 280 02:54 18.02.2021
2422 Clear -34 1020 75 10000 3 280 23:55 17.02.2021
2423 Clear -34 1020 75 10000 3 280 23:24 17.02.2021
2424 Clear -34 1019 75 10000 4 280 22:53 17.02.2021
2425 Clear -34 1019 75 10000 3 280 22:27 17.02.2021
2426 Clear -34 1019 75 10000 3 280 21:56 17.02.2021
2427 Clear -34 1019 75 10000 3 280 21:22 17.02.2021
2428 Clear -33 1018 75 10000 3 280 20:49 17.02.2021
2429 Clouds -33 1018 75 10000 4 290 20:31 17.02.2021
2430 Clouds -33 1018 75 10000 4 280 19:50 17.02.2021
2431 Clouds -33 1018 75 10000 4 280 19:32 17.02.2021
2432 Clouds -33 1017 75 10000 4 280 18:46 17.02.2021
2433 Clouds -33 1017 75 10000 4 280 18:26 17.02.2021
2434 Clouds -33 1017 75 10000 4 280 17:42 17.02.2021
2435 Clouds -33 1017 75 10000 4 280 17:20 17.02.2021
2436 Clouds -32 1017 75 10000 4 280 16:47 17.02.2021
2437 Clouds -32 1017 75 10000 4 280 16:28 17.02.2021
2438 Clouds -31 1016 76 10000 4 280 15:45 17.02.2021
2439 Snow -31 1016 76 7000 5 280 15:27 17.02.2021
2440 Clear -30 1016 76 10000 4 280 14:50 17.02.2021
2441 Clear -31 1016 76 10000 3 260 14:29 17.02.2021
2442 Clear -30 1016 76 10000 3 250 13:50 17.02.2021
2443 Clear -29 1016 69 10000 3 250 13:32 17.02.2021
2444 Clear -29 1016 76 10000 4 240 12:50 17.02.2021
2445 Clear -29 1015 76 10000 3 240 12:25 17.02.2021
2446 Clear -29 1015 76 10000 3 230 11:46 17.02.2021
2447 Clear -28 1015 69 10000 3 240 11:28 17.02.2021
2448 Clear -28 1015 69 10000 4 250 10:49 17.02.2021
2449 Clear -28 1015 76 10000 3 220 10:31 17.02.2021
2450 Clear -28 1014 76 10000 3 280 09:56 17.02.2021
2451 Clear -29 1014 76 10000 3 280 09:36 17.02.2021
2452 Clear -29 1014 76 10000 3 280 08:45 17.02.2021
2453 Clear -30 1014 76 10000 2 280 08:23 17.02.2021
2454 Clear -31 1013 69 10000 4 280 07:37 17.02.2021
2455 Clear -34 1013 68 10000 3 290 06:37 17.02.2021
2456 Clear -35 1012 75 10000 3 310 03:52 17.02.2021
2457 Clear -33 1011 75 10000 2 280 02:31 17.02.2021
2458 Clear -33 1010 75 10000 2 280 01:34 17.02.2021
2459 Clear -32 1010 75 10000 2 280 00:25 17.02.2021
2460 Clear -32 1009 75 10000 2 280 23:39 16.02.2021
2461 Clear -31 1009 76 10000 2 290 22:47 16.02.2021
2462 Clear -30 1009 83 10000 2 300 22:26 16.02.2021
2463 Clear -30 1009 83 10000 2 300 22:26 16.02.2021
2464 Clear -29 1009 76 10000 3 300 21:59 16.02.2021
2465 Clear -29 1009 76 10000 3 300 21:59 16.02.2021
2466 Clear -28 1009 76 10000 3 300 21:39 16.02.2021
2467 Clear -28 1009 76 10000 3 300 21:39 16.02.2021
2468 Clear -28 1009 76 10000 3 300 21:39 16.02.2021
2469 Clear -28 1009 76 10000 3 300 21:39 16.02.2021
2470 Clear -28 1009 76 10000 3 300 21:21 16.02.2021
2471 Clouds -28 1009 83 10000 3 290 20:50 16.02.2021
2472 Snow -27 1008 83 6000 3 290 20:24 16.02.2021
2473 Snow -26 1008 84 5000 3 300 19:49 16.02.2021
2474 Clear -25 1008 77 10000 4 300 19:29 16.02.2021
2475 Clear -25 1008 84 10000 4 290 18:53 16.02.2021
2476 Clouds -25 1008 84 10000 4 280 18:26 16.02.2021
2477 Clouds -23 1008 77 10000 5 280 17:56 16.02.2021
2478 Snow -22 1008 84 10000 5 280 17:37 16.02.2021
2479 Snow -22 1008 84 10000 5 280 17:19 16.02.2021
2480 Snow -21 1008 84 9000 3 230 16:42 16.02.2021
2481 Snow -21 1008 84 9000 3 230 16:20 16.02.2021
2482 Snow -20 1008 84 4300 4 200 15:42 16.02.2021
2483 Snow -20 1008 84 4300 4 200 15:24 16.02.2021
2484 Snow -20 1008 84 4900 3 200 14:42 16.02.2021
2485 Snow -20 1008 84 4900 3 200 14:24 16.02.2021
2486 Snow -20 1008 77 2400 4 190 13:47 16.02.2021
2487 Snow -21 1008 84 7000 4 190 13:22 16.02.2021
2488 Snow -21 1008 77 6000 4 190 12:43 16.02.2021
2489 Snow -22 1009 77 4500 3 190 12:20 16.02.2021
2490 Snow -22 1009 71 3600 3 200 11:44 16.02.2021
2491 Clouds -23 1009 77 10000 3 200 11:22 16.02.2021
2492 Snow -23 1010 70 9000 3 200 10:49 16.02.2021
2493 Clouds -24 1010 70 10000 3 220 10:30 16.02.2021
2494 Clear -24 1010 70 10000 4 200 09:55 16.02.2021
2495 Clear -24 1010 70 10000 4 220 09:29 16.02.2021
2496 Clear -25 1010 77 10000 3 220 08:53 16.02.2021
2497 Clear -25 1010 70 10000 3 250 08:32 16.02.2021
2498 Clear -25 1010 70 10000 3 240 07:59 16.02.2021
2499 Clear -25 1010 70 10000 4 260 07:18 16.02.2021
2500 Clear -25 1010 70 10000 4 260 07:18 16.02.2021
2501 Clear -25 1009 77 10000 5 250 03:21 16.02.2021
2502 Clouds -23 1008 77 10000 4 260 00:43 16.02.2021
2503 Snow -21 1007 77 9000 5 280 23:31 15.02.2021
2504 Snow -20 1007 77 6000 6 280 22:59 15.02.2021
2505 Snow -20 1007 84 9000 5 280 22:40 15.02.2021
2506 Snow -20 1006 84 6000 4 280 21:56 15.02.2021
2507 Snow -21 1006 84 9000 3 260 21:37 15.02.2021
2508 Snow -21 1006 84 9000 3 260 21:19 15.02.2021
2509 Snow -20 1006 84 8000 3 270 20:44 15.02.2021
2510 Clouds -20 1006 84 10000 3 280 20:24 15.02.2021
2511 Clouds -18 1006 85 10000 4 280 19:43 15.02.2021
2512 Snow -17 1005 85 10000 3 290 19:21 15.02.2021
2513 Snow -16 1005 85 2600 3 280 18:44 15.02.2021
2514 Snow -16 1005 85 3400 1 230 18:25 15.02.2021
2515 Snow -15 1005 85 1100 1 0 17:41 15.02.2021
2516 Snow -15 1005 85 1100 1 0 17:22 15.02.2021
2517 Snow -16 1005 92 2500 1 0 16:53 15.02.2021
2518 Snow -16 1005 92 2300 1 350 16:26 15.02.2021
2519 Snow -16 1005 92 2100 1 0 15:49 15.02.2021
2520 Snow -16 1005 85 900 1 0 15:22 15.02.2021
2521 Snow -17 1005 85 1300 1 0 14:49 15.02.2021
2522 Snow -17 1005 85 9000 2 70 14:22 15.02.2021
2523 Clear -18 1005 92 10000 2 60 13:58 15.02.2021
2524 Clear -17 1005 92 10000 1 0 13:37 15.02.2021
2525 Clear -17 1005 92 10000 1 0 13:18 15.02.2021
2526 Clear -14 1005 72 10000 1 230 12:38 15.02.2021
2527 Clear -14 1005 72 10000 1 230 12:18 15.02.2021
2528 Clear -13 1006 72 10000 4 240 11:40 15.02.2021
2529 Clear -13 1006 72 10000 4 240 11:18 15.02.2021
2530 Clear -13 1005 66 10000 3 240 10:45 15.02.2021
2531 Clear -14 1006 72 10000 4 250 10:21 15.02.2021
2532 Clear -14 1006 72 10000 7 250 09:52 15.02.2021
2533 Clear -14 1005 72 10000 5 250 09:32 15.02.2021
2534 Snow -14 1005 78 10000 7 250 08:37 15.02.2021
2535 Snow -13 1005 78 10000 9 240 07:38 15.02.2021
2536 Snow -13 1005 85 7000 7 270 06:45 15.02.2021
2537 Snow -11 1003 85 3500 6 250 05:37 15.02.2021
2538 Snow -12 1002 92 2800 3 120 02:22 15.02.2021
2539 Snow -14 1004 92 1000 6 120 00:33 15.02.2021
2540 Snow -14 1005 85 1400 7 120 23:33 14.02.2021
2541 Snow -15 1006 85 900 7 120 22:52 14.02.2021
2542 Snow -15 1007 85 4800 7 120 22:34 14.02.2021
2543 Snow -15 1008 78 4300 7 120 21:58 14.02.2021
2544 Snow -16 1010 85 3800 7 120 21:38 14.02.2021
2545 Snow -16 1010 85 3800 7 120 21:18 14.02.2021
2546 Snow -17 1011 85 1400 7 120 20:39 14.02.2021
2547 Snow -17 1011 85 1400 7 120 20:20 14.02.2021
2548 Snow -18 1013 85 1200 8 120 19:40 14.02.2021
2549 Snow -18 1014 85 1400 8 120 18:49 14.02.2021
2550 Snow -18 1015 78 1600 9 110 18:29 14.02.2021
2551 Snow -18 1017 78 1900 9 110 17:49 14.02.2021
2552 Snow -19 1018 84 1800 7 120 17:30 14.02.2021
2553 Snow -19 1019 78 2500 9 110 16:43 14.02.2021
2554 Snow -19 1019 78 2500 9 110 16:24 14.02.2021
2555 Snow -19 1019 78 1700 9 110 15:46 14.02.2021
2556 Snow -20 1021 84 1800 8 110 15:26 14.02.2021
2557 Snow -20 1022 84 1100 8 100 14:42 14.02.2021
2558 Snow -20 1022 84 1100 8 100 14:20 14.02.2021
2559 Snow -21 1023 77 1700 7 90 13:41 14.02.2021
2560 Snow -21 1023 77 1700 7 90 13:23 14.02.2021
2561 Snow -22 1024 84 4100 5 90 12:24 14.02.2021
2562 Snow -22 1024 77 4200 6 90 11:52 14.02.2021
2563 Snow -23 1025 84 1600 6 90 11:33 14.02.2021
2564 Snow -23 1025 77 10000 6 90 10:59 14.02.2021
2565 Clear -23 1026 77 10000 6 80 10:23 14.02.2021
2566 Clear -23 1027 77 10000 5 90 09:40 14.02.2021
2567 Clear -23 1027 77 10000 5 90 09:21 14.02.2021
2568 Clear -23 1027 77 10000 5 80 08:56 14.02.2021
2569 Clear -24 1027 77 10000 5 80 07:59 14.02.2021
2570 Clear -25 1027 77 10000 5 100 06:59 14.02.2021
2571 Clear -26 1027 76 10000 3 70 05:43 14.02.2021
2572 Clear -27 1027 76 10000 3 60 03:57 14.02.2021
2573 Clear -28 1026 76 10000 2 60 02:29 14.02.2021
2574 Clear -27 1025 76 10000 2 50 00:57 14.02.2021
2575 Clear -26 1025 76 10000 2 40 00:37 14.02.2021
2576 Clear -26 1025 76 10000 2 50 23:44 13.02.2021
2577 Clear -26 1024 76 10000 3 60 23:25 13.02.2021
2578 Clear -25 1024 77 10000 3 40 22:50 13.02.2021
2579 Clear -25 1024 84 10000 2 60 22:21 13.02.2021
2580 Clear -25 1024 84 10000 2 70 21:49 13.02.2021
2581 Clouds -24 1024 77 10000 3 70 21:26 13.02.2021
2582 Clouds -24 1023 84 10000 3 60 20:43 13.02.2021
2583 Clouds -23 1023 77 7000 4 40 20:22 13.02.2021
2584 Clouds -23 1023 84 10000 3 40 19:47 13.02.2021
2585 Clouds -23 1023 84 10000 1 0 19:23 13.02.2021
2586 Clouds -22 1023 84 10000 2 60 18:49 13.02.2021
2587 Snow -22 1023 77 10000 2 70 18:24 13.02.2021
2588 Snow -21 1023 84 10000 2 80 17:43 13.02.2021
2589 Snow -21 1022 84 10000 3 90 17:23 13.02.2021
2590 Snow -21 1023 84 10000 3 90 16:48 13.02.2021
2591 Snow -21 1023 84 10000 4 90 16:30 13.02.2021
2592 Snow -21 1023 84 9000 3 90 15:42 13.02.2021
2593 Snow -21 1023 84 9000 3 90 15:24 13.02.2021
2594 Snow -21 1023 84 9000 3 120 14:33 13.02.2021
2595 Snow -21 1023 84 7000 4 110 13:48 13.02.2021
2596 Snow -21 1023 84 5000 4 110 13:26 13.02.2021
2597 Snow -21 1023 84 7000 5 110 12:50 13.02.2021
2598 Snow -21 1023 84 4900 4 110 12:20 13.02.2021
2599 Snow -21 1023 84 3000 5 100 11:46 13.02.2021
2600 Snow -21 1024 84 4200 4 110 11:20 13.02.2021
2601 Snow -21 1024 77 4500 5 100 10:47 13.02.2021
2602 Snow -21 1024 77 4300 4 110 10:27 13.02.2021
2603 Snow -22 1024 84 4000 3 120 09:59 13.02.2021
2604 Snow -22 1025 84 3400 3 130 09:41 13.02.2021
2605 Snow -22 1025 84 3400 3 130 09:20 13.02.2021
2606 Snow -22 1026 77 2700 3 140 08:40 13.02.2021
2607 Snow -23 1026 84 3600 3 130 07:54 13.02.2021
2608 Snow -24 1027 77 5000 3 130 06:42 13.02.2021
2609 Snow -24 1027 77 5000 3 130 06:19 13.02.2021
2610 Clouds -25 1028 77 10000 2 130 04:19 13.02.2021
2611 Clouds -28 1029 76 10000 2 90 01:54 13.02.2021
2612 Clouds -28 1030 76 10000 1 90 00:51 13.02.2021
2613 Clear -29 1030 76 10000 1 90 23:55 12.02.2021
2614 Clear -29 1030 76 10000 1.94 185 23:31 12.02.2021
2615 Clear -30 1031 76 10000 1.69 183 22:58 12.02.2021
2616 Clear -29 1031 76 10000 1.39 190 22:29 12.02.2021
2617 Clouds -29 1031 76 9000 1.39 190 21:50 12.02.2021
2618 Clear -29 1031 83 10000 2 280 21:29 12.02.2021
2619 Clear -29 1031 76 10000 2 290 20:55 12.02.2021
2620 Clear -30 1031 76 10000 2 290 20:37 12.02.2021
2621 Clear -30 1031 76 10000 2 290 20:18 12.02.2021
2622 Clear -30 1031 76 10000 1 0 19:43 12.02.2021
2623 Clear -30 1031 83 10000 2 280 19:25 12.02.2021
2624 Clear -30 1031 76 10000 1 270 18:30 12.02.2021
2625 Clear -30 1031 76 10000 2 280 17:47 12.02.2021
2626 Clear -29 1031 76 10000 2 280 17:25 12.02.2021
2627 Clear -29 1031 76 10000 3 280 16:36 12.02.2021
2628 Clear -28 1031 69 10000 3 250 15:47 12.02.2021
2629 Clear -29 1031 76 10000 3 260 15:21 12.02.2021
2630 Clear -29 1031 76 10000 3 250 14:43 12.02.2021
2631 Clear -28 1031 76 10000 3 250 14:24 12.02.2021
2632 Clear -28 1031 76 10000 3 250 13:41 12.02.2021
2633 Clear -28 1031 76 10000 3 250 13:22 12.02.2021
2634 Clear -27 1031 69 10000 3 240 12:49 12.02.2021
2635 Clear -26 1031 70 10000 3 250 12:30 12.02.2021
2636 Clear -26 1031 76 10000 3 280 11:42 12.02.2021
2637 Clear -26 1031 76 10000 3 280 11:20 12.02.2021
2638 Clear -26 1031 76 10000 3 280 10:44 12.02.2021
2639 Clear -26 1030 76 10000 3 280 09:50 12.02.2021
2640 Clear -27 1030 76 10000 4 280 09:29 12.02.2021
2641 Clear -28 1030 76 10000 3 280 08:51 12.02.2021
2642 Clear -28 1030 76 10000 4 280 08:29 12.02.2021
2643 Clear -29 1030 76 10000 3 290 07:57 12.02.2021
2644 Clear -30 1030 76 10000 3 280 07:35 12.02.2021
2645 Clear -31 1030 76 10000 3 280 06:55 12.02.2021
2646 Clear -33 1029 75 10000 4 280 05:48 12.02.2021
2647 Clear -33 1029 68 10000 3 280 05:23 12.02.2021
2648 Clear -31 1028 76 10000 4 280 01:48 12.02.2021
2649 Clear -29 1028 76 10000 3 280 23:41 11.02.2021
2650 Clear -29 1028 76 10000 3 280 23:22 11.02.2021
2651 Clear -29 1028 76 10000 3 280 22:57 11.02.2021
2652 Clear -29 1028 76 10000 3 280 22:38 11.02.2021
2653 Clear -29 1028 76 10000 3 280 22:20 11.02.2021
2654 Clear -30 1028 83 10000 3 280 21:38 11.02.2021
2655 Clear -30 1028 83 10000 3 280 21:19 11.02.2021
2656 Clear -29 1028 76 10000 4 280 20:42 11.02.2021
2657 Clear -29 1028 76 10000 4 280 20:22 11.02.2021
2658 Clear -29 1028 83 10000 3 280 19:48 11.02.2021
2659 Clear -28 1028 76 10000 4 280 19:29 11.02.2021
2660 Clear -28 1028 83 10000 4 280 18:53 11.02.2021
2661 Clear -27 1028 76 10000 4 280 18:29 11.02.2021
2662 Clear -27 1028 76 10000 4 280 17:54 11.02.2021
2663 Clear -26 1028 76 10000 4 280 17:22 11.02.2021
2664 Clear -26 1028 76 10000 4 280 17:22 11.02.2021
2665 Clear -26 1028 76 10000 4 260 16:58 11.02.2021
2666 Snow -25 1027 70 10000 4 270 16:40 11.02.2021
2667 Snow -25 1027 70 10000 4 270 16:21 11.02.2021
2668 Snow -25 1027 77 10000 4 270 15:42 11.02.2021
2669 Snow -25 1027 77 10000 4 270 15:24 11.02.2021
2670 Snow -25 1027 77 10000 4 280 14:44 11.02.2021
2671 Snow -25 1027 77 10000 4 270 14:25 11.02.2021
2672 Clear -25 1027 77 10000 4 270 13:41 11.02.2021
2673 Clear -25 1027 77 10000 4 270 13:19 11.02.2021
2674 Clear -25 1027 77 10000 4 260 12:47 11.02.2021
2675 Clear -25 1027 70 10000 5 260 12:23 11.02.2021
2676 Clear -25 1026 70 10000 4 250 11:45 11.02.2021
2677 Clear -25 1026 70 10000 4 250 11:21 11.02.2021
2678 Clear -25 1026 70 10000 4 240 10:44 11.02.2021
2679 Clear -26 1026 76 10000 4 240 10:25 11.02.2021
2680 Clear -26 1026 70 10000 4 240 09:53 11.02.2021
2681 Clear -26 1026 70 10000 4 250 09:22 11.02.2021
2682 Clear -27 1025 76 10000 4 240 08:51 11.02.2021
2683 Clear -27 1025 76 10000 4 250 08:21 11.02.2021
2684 Clear -29 1025 76 10000 4 250 06:52 11.02.2021
2685 Clouds -30 1025 76 9000 4 250 06:33 11.02.2021
2686 Clear -31 1025 76 10000 5 250 04:55 11.02.2021
2687 Clear -31 1024 76 10000 4 250 02:29 11.02.2021
2688 Clear -31 1024 76 10000 4 250 00:47 11.02.2021
2689 Clear -32 1024 75 10000 4 250 00:19 11.02.2021
2690 Clear -32 1024 75 10000 4 250 23:39 10.02.2021
2691 Clear -32 1024 75 10000 4 250 22:52 10.02.2021
2692 Clear -32 1024 75 10000 3 250 22:28 10.02.2021
2693 Clear -31 1023 69 10000 5 260 21:57 10.02.2021
2694 Clear -31 1023 76 10000 4 260 21:38 10.02.2021
2695 Clear -32 1023 75 10000 4 270 21:19 10.02.2021
2696 Clear -31 1023 69 10000 5 280 20:40 10.02.2021
2697 Clear -31 1023 69 10000 5 280 20:22 10.02.2021
2698 Clouds -31 1023 76 10000 5 270 19:44 10.02.2021
2699 Clear -31 1022 76 10000 5 280 19:23 10.02.2021
2700 Clear -31 1022 76 10000 5 280 18:40 10.02.2021
2701 Clear -31 1022 76 10000 5 280 18:21 10.02.2021
2702 Clear -31 1021 69 10000 5 280 17:50 10.02.2021
2703 Clouds -31 1021 76 10000 5 280 17:23 10.02.2021
2704 Clear -31 1021 76 10000 5 280 16:53 10.02.2021
2705 Clear -31 1021 76 10000 5 280 16:29 10.02.2021
2706 Clear -31 1020 76 10000 5 280 15:47 10.02.2021
2707 Clear -30 1020 76 10000 5 280 15:22 10.02.2021
2708 Clear -30 1020 76 10000 5 280 14:42 10.02.2021
2709 Clear -30 1020 76 10000 5 280 14:21 10.02.2021
2710 Clear -29 1019 76 10000 5 280 13:50 10.02.2021
2711 Clouds -28 1019 76 10000 5 280 13:27 10.02.2021
2712 Clear -28 1019 76 10000 5 280 12:48 10.02.2021
2713 Clouds -27 1018 76 10000 5 280 12:29 10.02.2021
2714 Clouds -27 1018 76 10000 5 280 11:47 10.02.2021
2715 Clear -26 1017 76 10000 6 280 11:29 10.02.2021
2716 Clear -26 1017 76 10000 6 280 11:29 10.02.2021
2717 Clear -26 1017 76 10000 5 280 10:49 10.02.2021
2718 Clear -26 1016 76 10000 5 280 10:20 10.02.2021
2719 Clouds -26 1016 76 10000 5 280 09:44 10.02.2021
2720 Clouds -27 1016 83 10000 5 280 09:22 10.02.2021
2721 Clear -27 1015 76 10000 5 280 08:50 10.02.2021
2722 Clouds -27 1015 76 10000 5 280 08:30 10.02.2021
2723 Clouds -28 1014 76 10000 4 280 07:22 10.02.2021
2724 Clouds -31 1012 76 8000 4 280 04:54 10.02.2021
2725 Clouds -30 1009 83 10000 3 280 01:20 10.02.2021
2726 Clouds -28 1008 76 10000 2 290 23:40 09.02.2021
2727 Clouds -28 1008 76 10000 2 290 23:19 09.02.2021
2728 Clear -28 1007 76 10000 3 290 22:41 09.02.2021
2729 Clear -28 1007 76 10000 3 290 22:23 09.02.2021
2730 Clear -28 1006 76 10000 3 280 21:40 09.02.2021
2731 Clear -28 1006 76 10000 3 280 21:19 09.02.2021
2732 Snow -27 1005 76 9000 3 280 20:41 09.02.2021
2733 Snow -27 1005 76 9000 3 280 20:23 09.02.2021
2734 Snow -26 1004 76 8000 3 280 19:40 09.02.2021
2735 Snow -26 1004 76 8000 3 280 19:21 09.02.2021
2736 Clouds -26 1004 76 9000 4 290 18:42 09.02.2021
2737 Clouds -26 1004 76 9000 4 290 18:21 09.02.2021
2738 Clouds -25 1004 77 10000 3 280 17:45 09.02.2021
2739 Snow -25 1003 77 9000 4 280 17:25 09.02.2021
2740 Snow -24 1003 77 8000 4 290 16:50 09.02.2021
2741 Snow -24 1003 84 5000 4 280 16:19 09.02.2021
2742 Snow -23 1002 77 4700 3 280 15:50 09.02.2021
2743 Snow -23 1002 77 9000 4 280 15:28 09.02.2021
2744 Snow -24 1001 84 10000 3 280 14:57 09.02.2021
2745 Snow -23 1001 84 6000 3 280 14:29 09.02.2021
2746 Snow -22 1000 77 7000 3 260 13:55 09.02.2021
2747 Clouds -22 1000 77 10000 2 270 13:29 09.02.2021
2748 Clear -22 999 84 10000 2 300 12:59 09.02.2021
2749 Clear -21 999 77 10000 2 300 12:40 09.02.2021
2750 Clear -21 999 77 10000 2 300 12:21 09.02.2021
2751 Clouds -21 999 84 10000 3 330 11:43 09.02.2021
2752 Clear -20 998 84 10000 2 300 11:21 09.02.2021
2753 Clear -20 998 84 10000 2 300 11:21 09.02.2021
2754 Clear -20 997 84 10000 2 290 10:55 09.02.2021
2755 Clear -20 997 84 10000 2 280 10:20 09.02.2021
2756 Clear -20 996 84 10000 1 0 09:44 09.02.2021
2757 Clear -20 996 84 10000 1.48 35 09:26 09.02.2021
2758 Clouds -21 996 84 10000 2 270 08:53 09.02.2021
2759 Clouds -22 995 84 10000 1.47 37 08:27 09.02.2021
2760 Clouds -22 994 84 10000 1 0 07:36 09.02.2021
2761 Snow -24 993 77 3400 1 30 04:59 09.02.2021
2762 Snow -24 992 77 1900 3 50 03:45 09.02.2021
2763 Snow -24 991 77 9000 2.53 55 01:38 09.02.2021
2764 Snow -24 991 84 5000 2 30 23:58 08.02.2021
2765 Clouds -24 991 84 8000 3.07 63 23:22 08.02.2021
2766 Clouds -25 990 84 10000 2 100 22:56 08.02.2021
2767 Clouds -22 990 84 10000 2 40 22:38 08.02.2021
2768 Clouds -22 990 84 10000 2 40 22:20 08.02.2021
2769 Snow -22 990 84 6000 2 60 21:38 08.02.2021
2770 Snow -22 990 84 6000 2 60 21:19 08.02.2021
2771 Clouds -22 990 84 10000 2 70 20:44 08.02.2021
2772 Clouds -24 990 84 10000 1 70 20:23 08.02.2021
2773 Clouds -23 990 84 10000 1 20 19:49 08.02.2021
2774 Snow -22 990 84 9000 1 70 19:27 08.02.2021
2775 Clouds -21 990 84 10000 1 70 18:50 08.02.2021
2776 Clouds -21 990 84 10000 1 70 18:50 08.02.2021
2777 Snow -22 990 84 5000 2 80 18:25 08.02.2021
2778 Clouds -21 990 84 9000 2 70 17:47 08.02.2021
2779 Clouds -22 991 84 9000 2 70 17:27 08.02.2021
2780 Clouds -21 991 84 10000 2 90 16:58 08.02.2021
2781 Clear -21 991 84 10000 1 60 16:40 08.02.2021
2782 Clear -21 991 84 10000 1 60 16:20 08.02.2021
2783 Clear -21 990 84 10000 1 0 15:38 08.02.2021
2784 Clear -21 990 84 10000 1 0 15:18 08.02.2021
2785 Clear -20 990 84 10000 2 80 14:50 08.02.2021
2786 Clear -20 990 84 10000 2 70 14:28 08.02.2021
2787 Clear -18 990 78 10000 2 140 13:49 08.02.2021
2788 Clear -17 990 78 10000 2 140 13:28 08.02.2021
2789 Clouds -16 991 72 10000 3 180 12:39 08.02.2021
2790 Clouds -16 991 72 10000 3 180 12:19 08.02.2021
2791 Clouds -15 991 66 10000 4 180 11:38 08.02.2021
2792 Clouds -15 991 66 10000 6 180 10:47 08.02.2021
2793 Clouds -15 991 66 10000 6 190 10:26 08.02.2021
2794 Clouds -15 991 72 10000 6 190 09:56 08.02.2021
2795 Clouds -15 991 66 10000 7 200 09:36 08.02.2021
2796 Clouds -15 991 72 10000 6 190 08:57 08.02.2021
2797 Clouds -15 991 78 10000 6 200 08:26 08.02.2021
2798 Snow -15 990 78 9000 8 190 07:42 08.02.2021
2799 Snow -14 990 85 1500 5 200 06:39 08.02.2021
2800 Snow -14 990 78 7000 6 190 05:18 08.02.2021
2801 Snow -14 989 85 10000 6 190 02:27 08.02.2021
2802 Clear -15 989 78 10000 5 190 00:25 08.02.2021
2803 Clear -15 988 72 10000 6 190 23:55 07.02.2021
2804 Snow -15 988 72 10000 6 200 23:28 07.02.2021
2805 Snow -15 988 72 10000 6 200 22:58 07.02.2021
2806 Snow -15 988 72 10000 8 210 22:40 07.02.2021
2807 Snow -15 988 72 10000 8 210 22:21 07.02.2021
2808 Snow -14 987 78 10000 9 210 21:50 07.02.2021
2809 Snow -12 986 79 4100 8 200 21:25 07.02.2021
2810 Snow -12 986 79 4100 8 200 21:25 07.02.2021
2811 Snow -11 985 85 1800 8 200 20:50 07.02.2021
2812 Snow -9 984 92 2300 7 210 20:29 07.02.2021
2813 Snow -8 983 86 4000 8 190 19:52 07.02.2021
2814 Snow -7 983 79 9000 7 190 19:29 07.02.2021
2815 Snow -7 983 86 7000 7 190 18:49 07.02.2021
2816 Snow -6 982 86 7000 8 190 18:29 07.02.2021
2817 Snow -6 982 79 10000 9 190 17:58 07.02.2021
2818 Snow -5 981 80 9000 9 200 17:39 07.02.2021
2819 Snow -5 981 80 9000 9 200 17:18 07.02.2021
2820 Snow -4 980 86 5000 9 190 16:42 07.02.2021
2821 Snow -4 980 86 5000 9 190 16:21 07.02.2021
2822 Snow -3 980 100 1900 8 190 15:44 07.02.2021
2823 Snow -2 979 93 6000 8 200 15:22 07.02.2021
2824 Snow -2 978 100 5000 8 190 14:46 07.02.2021
2825 Snow -1 978 100 3100 5 160 14:27 07.02.2021
2826 Snow -1 978 100 2200 4 160 13:52 07.02.2021
2827 Snow -1 978 100 2000 5 160 13:30 07.02.2021
2828 Snow 0 978 100 1400 6 140 12:43 07.02.2021
2829 Snow 0 978 100 1400 6 140 12:22 07.02.2021
2830 Snow 0 978 86 1300 5 130 11:46 07.02.2021
2831 Snow 0 978 100 1600 5 120 11:27 07.02.2021
2832 Snow 0 979 100 1900 5 120 10:48 07.02.2021
2833 Snow 1 979 100 5000 5 120 10:24 07.02.2021
2834 Snow 1 980 100 5000 5 120 09:46 07.02.2021
2835 Snow 1 980 100 9000 5 120 09:21 07.02.2021
2836 Clouds 1 981 100 10000 6 130 08:23 07.02.2021
2837 Clouds 1 983 100 7000 5 140 06:34 07.02.2021
2838 Mist 1 984 100 5000 5 150 05:57 07.02.2021
2839 Rain 1 986 100 7000 5 160 03:50 07.02.2021
2840 Rain 1 989 100 9000 5 160 01:27 07.02.2021
2841 Rain 1 990 100 10000 4 150 00:35 07.02.2021
2842 Rain 1 990 100 10000 5 140 23:44 06.02.2021
2843 Rain 1 992 100 9000 3 140 22:40 06.02.2021
2844 Rain 1 993 100 10000 3 160 21:40 06.02.2021
2845 Rain 1 993 100 10000 3 160 21:21 06.02.2021
2846 Rain 1 993 100 8000 4 180 20:51 06.02.2021
2847 Rain 1 993 100 10000 4 160 20:25 06.02.2021
2848 Rain 1 993 100 10000 4 150 19:57 06.02.2021
2849 Rain 1 993 100 10000 4 150 19:31 06.02.2021
2850 Rain 1 994 100 10000 4 150 18:49 06.02.2021
2851 Rain 1 994 100 6000 4 150 18:31 06.02.2021
2852 Rain 0 995 100 7000 3 160 17:48 06.02.2021
2853 Rain 1 995 100 9000 4 180 17:22 06.02.2021
2854 Rain 0 995 100 10000 4 180 16:59 06.02.2021
2855 Rain 0 995 100 9000 4 180 16:40 06.02.2021
2856 Clouds 0 995 100 9000 4 180 16:22 06.02.2021
2857 Mist 0 995 100 5000 4 180 15:45 06.02.2021
2858 Snow 0 996 100 7000 4 180 15:21 06.02.2021
2859 Snow -1 996 100 7000 5 190 14:45 06.02.2021
2860 Snow -1 996 100 8000 4 190 14:25 06.02.2021
2861 Snow -1 996 100 9000 4 200 13:49 06.02.2021
2862 Snow -1 996 100 10000 4 190 13:21 06.02.2021
2863 Snow -2 996 100 10000 4 190 12:22 06.02.2021
2864 Rain -2 996 100 9000 4 200 11:48 06.02.2021
2865 Snow -2 997 100 10000 5 210 11:22 06.02.2021
2866 Clouds -2 997 100 10000 5 210 10:57 06.02.2021
2867 Snow -2 996 100 8000 5 220 10:39 06.02.2021
2868 Clouds -2 997 100 10000 5 220 09:59 06.02.2021
2869 Clouds -2 996 100 10000 5 210 09:37 06.02.2021
2870 Clouds -2 996 100 10000 5 210 09:18 06.02.2021
2871 Clouds -2 996 100 10000 6 200 08:33 06.02.2021
2872 Clouds -3 996 100 10000 5 200 07:59 06.02.2021
2873 Snow -4 997 100 10000 5 180 05:44 06.02.2021
2874 Snow -5 998 100 6000 5 180 03:58 06.02.2021
2875 Snow -7 1000 100 10000 4 160 01:58 06.02.2021
2876 Snow -8 1001 100 10000 4 160 00:48 06.02.2021
2877 Snow -8 1001 100 10000 4 160 00:48 06.02.2021
2878 Snow -8 1002 100 10000 3 170 00:19 06.02.2021
2879 Snow -9 1002 100 10000 3 160 23:43 05.02.2021
2880 Snow -9 1002 100 10000 3 160 23:24 05.02.2021
2881 Snow -9 1003 100 10000 3 160 22:47 05.02.2021
2882 Snow -9 1003 100 9000 3 160 22:20 05.02.2021
2883 Snow -10 1004 100 10000 3 160 21:45 05.02.2021
2884 Clouds -10 1005 100 10000 2 150 21:26 05.02.2021
2885 Clouds -10 1005 100 10000 2 160 20:46 05.02.2021
2886 Clouds -10 1006 100 10000 2 160 19:52 05.02.2021
2887 Clouds -11 1006 100 10000 2 150 19:20 05.02.2021
2888 Clouds -11 1006 100 10000 2 150 19:20 05.02.2021
2889 Clouds -11 1006 92 10000 2 170 18:54 05.02.2021
2890 Clouds -12 1006 100 10000 3 160 18:27 05.02.2021
2891 Snow -12 1007 92 9000 2 140 17:44 05.02.2021
2892 Snow -13 1007 92 9000 2 130 17:24 05.02.2021
2893 Snow -14 1008 92 10000 1 130 16:49 05.02.2021
2894 Snow -14 1008 92 9000 2 120 16:24 05.02.2021
2895 Snow -15 1009 92 10000 2 120 15:57 05.02.2021
2896 Snow -15 1009 92 10000 3 120 15:26 05.02.2021
2897 Snow -15 1009 92 9000 4 120 14:42 05.02.2021
2898 Snow -15 1009 92 9000 4 120 14:24 05.02.2021
2899 Clear -15 1010 92 10000 3 120 13:59 05.02.2021
2900 Clouds -15 1010 85 10000 3 120 13:37 05.02.2021
2901 Clouds -16 1010 92 10000 3 120 12:56 05.02.2021
2902 Clouds -15 1010 85 10000 3 110 12:37 05.02.2021
2903 Clear -15 1011 92 10000 4 110 11:42 05.02.2021
2904 Clear -15 1011 92 10000 4 110 11:22 05.02.2021
2905 Clouds -15 1011 92 10000 3 110 10:59 05.02.2021
2906 Clouds -15 1011 92 10000 4 100 10:27 05.02.2021
2907 Clear -15 1012 92 10000 3 110 09:48 05.02.2021
2908 Clear -15 1012 92 10000 3 110 09:29 05.02.2021
2909 Clouds -15 1012 85 10000 3 100 08:58 05.02.2021
2910 Clear -15 1012 85 10000 2 110 08:28 05.02.2021
2911 Clear -16 1012 92 10000 2 150 07:38 05.02.2021
2912 Clouds -16 1013 85 8000 2 150 06:57 05.02.2021
2913 Snow -17 1013 85 5000 2 120 05:38 05.02.2021
2914 Snow -18 1014 92 6000 2 110 03:23 05.02.2021
2915 Clouds -19 1014 92 10000 2 100 02:25 05.02.2021
2916 Fog -20 1015 92 900 0.71 148 00:41 05.02.2021
2917 Fog -20 1015 92 900 0.71 148 00:41 05.02.2021
2918 Fog -20 1015 92 900 0.42 231 00:21 05.02.2021
2919 Mist -20 1015 84 8000 0.42 231 23:58 04.02.2021
2920 Fog -20 1015 84 3700 0.42 231 23:39 04.02.2021
2921 Fog -20 1015 84 3700 1.05 258 23:20 04.02.2021
2922 Fog -20 1015 92 3600 1.05 258 22:51 04.02.2021
2923 Fog -20 1015 92 200 1.38 262 22:27 04.02.2021
2924 Clouds -19 1015 84 9000 1.38 262 21:42 04.02.2021
2925 Clouds -19 1015 84 9000 1.6 267 21:20 04.02.2021
2926 Clouds -20 1015 84 10000 2 290 20:52 04.02.2021
2927 Clouds -20 1015 84 10000 2 260 20:34 04.02.2021
2928 Clouds -21 1015 84 10000 2 260 19:45 04.02.2021
2929 Clear -22 1015 84 10000 2 280 18:57 04.02.2021
2930 Clear -21 1015 84 10000 2 280 18:26 04.02.2021
2931 Clear -21 1014 92 10000 2 280 17:56 04.02.2021
2932 Clear -21 1014 92 10000 3 280 17:37 04.02.2021
2933 Clear -21 1014 92 10000 3 280 17:18 04.02.2021
2934 Clear -20 1014 84 10000 3 280 16:41 04.02.2021
2935 Clear -20 1014 84 10000 3 280 16:18 04.02.2021
2936 Clear -18 1014 92 10000 4 260 15:40 04.02.2021
2937 Clear -18 1014 92 10000 4 260 15:20 04.02.2021
2938 Clouds -18 1014 92 10000 3 260 14:48 04.02.2021
2939 Clouds -17 1014 92 10000 3 270 14:21 04.02.2021
2940 Clouds -17 1014 85 10000 4 270 13:48 04.02.2021
2941 Clear -16 1014 85 10000 4 270 13:28 04.02.2021
2942 Clouds -15 1014 85 10000 5 260 12:54 04.02.2021
2943 Snow -13 1013 85 6000 4 250 11:57 04.02.2021
2944 Snow -13 1013 85 4900 5 270 11:37 04.02.2021
2945 Snow -13 1013 85 4900 5 270 11:18 04.02.2021
2946 Snow -13 1012 92 10000 4 270 10:35 04.02.2021
2947 Clear -13 1012 85 10000 5 280 09:46 04.02.2021
2948 Clear -14 1012 85 10000 5 280 09:23 04.02.2021
2949 Clouds -13 1011 85 10000 5 270 08:57 04.02.2021
2950 Clouds -13 1011 85 9000 6 280 08:26 04.02.2021
2951 Snow -13 1011 85 5000 6 280 07:57 04.02.2021
2952 Clouds -14 1011 92 10000 5 280 07:34 04.02.2021
2953 Clouds -14 1011 92 10000 5 270 06:52 04.02.2021
2954 Clouds -15 1010 92 10000 5 270 06:34 04.02.2021
2955 Clouds -13 1009 92 10000 4 260 02:41 04.02.2021
2956 Clouds -13 1009 92 10000 4 260 02:23 04.02.2021
2957 Snow -13 1008 92 5000 4 260 00:29 04.02.2021
2958 Snow -13 1008 92 8000 5 260 23:34 03.02.2021
2959 Clouds -13 1008 92 10000 4 270 22:40 03.02.2021
2960 Clouds -13 1008 92 10000 4 270 22:21 03.02.2021
2961 Clear -14 1008 85 10000 4 280 21:55 03.02.2021
2962 Clear -13 1008 92 10000 4 250 21:25 03.02.2021
2963 Snow -12 1008 92 8000 5 260 20:57 03.02.2021
2964 Clouds -12 1008 92 10000 5 250 20:36 03.02.2021
2965 Clear -12 1007 92 10000 5 250 19:57 03.02.2021
2966 Snow -11 1007 92 10000 5 250 19:28 03.02.2021
2967 Snow -11 1007 92 8000 5 260 18:59 03.02.2021
2968 Snow -11 1007 92 9000 4 260 18:39 03.02.2021
2969 Snow -11 1007 92 9000 4 260 18:39 03.02.2021
2970 Snow -11 1007 92 9000 4 260 18:19 03.02.2021
2971 Clear -11 1007 85 10000 4 250 17:48 03.02.2021
2972 Clear -11 1007 85 10000 4 250 17:48 03.02.2021
2973 Clear -11 1007 92 10000 5 250 17:27 03.02.2021
2974 Clouds -11 1007 92 10000 5 250 16:48 03.02.2021
2975 Clouds -11 1007 92 10000 5 250 16:26 03.02.2021
2976 Clouds -11 1007 92 10000 3 240 15:41 03.02.2021
2977 Clouds -11 1007 92 10000 3 240 15:22 03.02.2021
2978 Clouds -12 1008 92 10000 3 240 14:47 03.02.2021
2979 Clouds -11 1008 92 10000 4 250 14:24 03.02.2021
2980 Clouds -11 1008 92 10000 4 250 13:50 03.02.2021
2981 Clouds -11 1008 92 10000 3 240 13:21 03.02.2021
2982 Clear -11 1008 92 10000 4 250 12:46 03.02.2021
2983 Clear -10 1008 92 10000 4 250 12:21 03.02.2021
2984 Clouds -10 1008 92 10000 4 250 11:43 03.02.2021
2985 Clouds -11 1008 92 10000 3 240 11:24 03.02.2021
2986 Clouds -11 1008 92 10000 3 230 10:45 03.02.2021
2987 Clouds -11 1008 92 10000 5 250 10:21 03.02.2021
2988 Clouds -11 1007 85 10000 2 240 09:46 03.02.2021
2989 Clouds -12 1008 92 10000 4 270 09:27 03.02.2021
2990 Clear -12 1008 92 10000 6 280 08:49 03.02.2021
2991 Clouds -11 1007 100 8000 6 280 07:59 03.02.2021
2992 Snow -11 1007 92 10000 5 270 07:32 03.02.2021
2993 Snow -10 1007 92 9000 5 270 06:38 03.02.2021
2994 Snow -10 1007 100 3500 5 290 04:51 03.02.2021
2995 Snow -10 1006 100 5000 4 290 04:27 03.02.2021
2996 Clouds -9 1006 100 10000 4 280 02:43 03.02.2021
2997 Clouds -9 1006 100 10000 3 260 02:23 03.02.2021
2998 Snow -9 1007 100 7000 2 210 00:27 03.02.2021
2999 Snow -9 1007 92 4700 2 210 23:47 02.02.2021
3000 Snow -9 1008 100 2400 2 200 23:28 02.02.2021
3001 Snow -9 1008 100 3300 3 200 22:54 02.02.2021
3002 Snow -9 1008 100 2400 3 190 22:22 02.02.2021
3003 Snow -9 1009 100 3500 3 200 21:54 02.02.2021
3004 Snow -9 1009 100 4500 3 200 21:29 02.02.2021
3005 Snow -9 1009 100 4800 3 200 20:52 02.02.2021
3006 Clear -9 1010 92 10000 3 200 20:27 02.02.2021
3007 Clear -9 1010 92 10000 3 200 19:59 02.02.2021
3008 Clear -9 1010 92 10000 3 200 19:40 02.02.2021
3009 Clear -9 1010 92 10000 3 200 19:22 02.02.2021
3010 Clear -10 1011 100 10000 3 210 18:43 02.02.2021
3011 Clear -10 1011 92 10000 4 220 18:24 02.02.2021
3012 Clear -10 1012 100 10000 4 220 17:48 02.02.2021
3013 Clouds -10 1012 100 10000 4 220 17:21 02.02.2021
3014 Clear -10 1012 92 10000 4 220 16:55 02.02.2021
3015 Clouds -10 1013 100 10000 5 220 16:36 02.02.2021
3016 Clouds -10 1013 100 10000 5 230 15:57 02.02.2021
3017 Clouds -10 1013 100 10000 4 220 15:38 02.02.2021
3018 Clouds -10 1013 100 10000 4 220 15:18 02.02.2021
3019 Clouds -9 1013 92 10000 5 220 14:39 02.02.2021
3020 Clouds -9 1013 92 10000 5 220 14:18 02.02.2021
3021 Clouds -9 1013 92 10000 5 220 13:44 02.02.2021
3022 Clouds -8 1013 93 10000 5 220 13:25 02.02.2021
3023 Snow -8 1013 93 10000 5 230 12:53 02.02.2021
3024 Snow -8 1013 93 9000 5 220 12:23 02.02.2021
3025 Snow -8 1013 93 6000 6 230 11:40 02.02.2021
3026 Snow -8 1013 93 3900 5 220 11:19 02.02.2021
3027 Snow -8 1013 93 3900 5 220 11:19 02.02.2021
3028 Snow -8 1013 93 3900 5 220 10:45 02.02.2021
3029 Snow -8 1013 93 6000 6 240 10:26 02.02.2021
3030 Snow -8 1012 93 4200 6 230 09:45 02.02.2021
3031 Snow -8 1012 86 5000 6 230 09:23 02.02.2021
3032 Snow -8 1012 86 6000 6 230 08:43 02.02.2021
3033 Snow -9 1012 86 7000 5 230 07:50 02.02.2021
3034 Snow -10 1012 92 3200 5 220 07:25 02.02.2021
3035 Snow -10 1012 85 2800 4 230 06:40 02.02.2021
3036 Snow -10 1012 85 3000 5 220 05:51 02.02.2021
3037 Snow -11 1012 85 8000 4 220 04:21 02.02.2021
3038 Snow -12 1012 85 5000 3 210 02:25 02.02.2021
3039 Snow -13 1012 92 2100 3 200 00:46 02.02.2021
3040 Clouds -13 1013 92 10000 4 190 23:58 01.02.2021
3041 Clouds -14 1013 92 10000 3 170 22:59 01.02.2021
3042 Clouds -14 1013 92 10000 3 170 22:39 01.02.2021
3043 Clouds -14 1013 92 10000 3 170 22:20 01.02.2021
3044 Snow -14 1014 92 10000 3 160 21:46 01.02.2021
3045 Snow -14 1014 85 9000 3 150 21:22 01.02.2021
3046 Snow -14 1015 92 10000 4 160 20:42 01.02.2021
3047 Snow -14 1015 92 10000 4 160 20:24 01.02.2021
3048 Snow -13 1015 85 9000 4 160 19:47 01.02.2021
3049 Snow -13 1016 92 5000 3 160 19:21 01.02.2021
3050 Snow -13 1016 92 4000 3 160 18:56 01.02.2021
3051 Snow -13 1016 92 4000 4 160 18:37 01.02.2021
3052 Snow -13 1016 92 4000 4 160 18:19 01.02.2021
3053 Snow -12 1017 85 4800 5 160 17:41 01.02.2021
3054 Snow -12 1017 85 4800 5 160 17:19 01.02.2021
3055 Snow -12 1018 85 8000 4 150 16:33 01.02.2021
3056 Snow -12 1018 85 4000 4 150 15:56 01.02.2021
3057 Snow -13 1019 92 3300 4 140 15:37 01.02.2021
3058 Snow -13 1019 92 3300 4 140 15:19 01.02.2021
3059 Clouds -13 1020 92 10000 4 150 14:46 01.02.2021
3060 Clouds -13 1020 92 10000 5 140 13:56 01.02.2021
3061 Clear -13 1021 92 10000 5 140 13:38 01.02.2021
3062 Clear -13 1021 92 10000 5 140 13:20 01.02.2021
3063 Clear -13 1021 92 10000 5 140 12:44 01.02.2021
3064 Clear -12 1021 85 10000 3 140 12:23 01.02.2021
3065 Clear -12 1022 92 10000 4 150 11:42 01.02.2021
3066 Clear -12 1022 92 10000 4 150 11:20 01.02.2021
3067 Clear -12 1022 85 10000 3 150 10:46 01.02.2021
3068 Clear -12 1022 85 10000 3 160 10:20 01.02.2021
3069 Clear -12 1022 92 10000 4 150 09:45 01.02.2021
3070 Clear -12 1022 92 10000 3 160 09:24 01.02.2021
3071 Clear -12 1023 92 10000 3 150 08:54 01.02.2021
3072 Clear -13 1023 92 10000 2 150 07:53 01.02.2021
3073 Snow -16 1024 85 10000 1 0 06:37 01.02.2021
3074 Snow -16 1024 85 9000 2.43 173 04:30 01.02.2021
3075 Snow -15 1024 92 7000 1 0 01:46 01.02.2021
3076 Snow -14 1024 92 9000 1 200 23:46 31.01.2021
3077 Snow -14 1023 92 5000 1 0 22:45 31.01.2021
3078 Snow -14 1023 92 8000 1 230 22:25 31.01.2021
3079 Snow -13 1023 92 8000 2 240 21:56 31.01.2021
3080 Snow -13 1023 92 8000 1 0 21:37 31.01.2021
3081 Snow -13 1023 92 8000 1 0 21:37 31.01.2021
3082 Snow -13 1023 92 8000 1 0 21:18 31.01.2021
3083 Snow -13 1023 92 7000 1 0 20:40 31.01.2021
3084 Snow -13 1023 92 7000 1 0 20:18 31.01.2021
3085 Snow -13 1023 85 5000 2 210 19:37 31.01.2021
3086 Snow -13 1023 85 5000 2 210 19:19 31.01.2021
3087 Clouds -14 1022 85 10000 3 190 18:42 31.01.2021
3088 Clouds -14 1022 85 10000 3 190 18:23 31.01.2021
3089 Clouds -14 1022 85 10000 2 180 17:49 31.01.2021
3090 Clear -14 1022 92 10000 3 170 17:24 31.01.2021
3091 Snow -14 1022 85 10000 3 180 16:58 31.01.2021
3092 Snow -14 1022 92 8000 4 170 16:39 31.01.2021
3093 Snow -14 1022 92 8000 4 170 16:19 31.01.2021
3094 Snow -15 1022 85 7000 3 170 15:43 31.01.2021
3095 Snow -15 1022 85 4500 3 150 14:50 31.01.2021
3096 Snow -15 1022 85 4100 4 160 14:28 31.01.2021
3097 Snow -15 1022 85 6000 5 160 13:57 31.01.2021
3098 Snow -15 1022 78 10000 4 160 13:38 31.01.2021
3099 Snow -16 1021 85 4000 4 140 12:56 31.01.2021
3100 Snow -16 1021 85 6000 4 150 12:37 31.01.2021
3101 Snow -16 1021 85 6000 4 150 12:19 31.01.2021
3102 Snow -16 1021 85 10000 4 140 11:38 31.01.2021
3103 Snow -16 1021 85 10000 4 140 11:19 31.01.2021
3104 Snow -16 1021 85 9000 5 140 10:44 31.01.2021
3105 Snow -16 1021 85 7000 5 140 10:25 31.01.2021
3106 Snow -16 1022 78 9000 5 150 09:33 31.01.2021
3107 Snow -17 1022 85 6000 4 140 08:34 31.01.2021
3108 Snow -18 1022 85 5000 5 140 07:50 31.01.2021
3109 Mist -20 1023 84 4400 5 130 05:54 31.01.2021
3110 Mist -20 1023 84 4400 5 130 05:54 31.01.2021
3111 Snow -24 1027 77 5000 6 120 00:53 31.01.2021
3112 Snow -25 1027 77 5000 6 120 00:28 31.01.2021
3113 Snow -26 1028 76 6000 6 120 23:34 30.01.2021
3114 Snow -26 1028 76 7000 6 120 22:59 30.01.2021
3115 Snow -26 1028 70 6000 6 120 22:33 30.01.2021
3116 Snow -27 1029 76 6000 6 120 21:43 30.01.2021
3117 Snow -27 1029 76 8000 6 120 21:23 30.01.2021
3118 Snow -28 1030 76 3700 6 120 20:50 30.01.2021
3119 Snow -28 1030 69 4100 5 120 20:32 30.01.2021
3120 Snow -29 1031 76 6000 6 120 19:55 30.01.2021
3121 Clouds -29 1031 69 10000 6 120 19:36 30.01.2021
3122 Clouds -29 1031 69 10000 6 120 19:18 30.01.2021
3123 Clouds -31 1032 76 10000 6 120 18:39 30.01.2021
3124 Clouds -31 1032 76 10000 6 120 18:19 30.01.2021
3125 Clear -32 1033 75 10000 6 110 17:24 30.01.2021
3126 Clear -32 1033 75 10000 6 110 17:24 30.01.2021
3127 Clear -32 1033 75 10000 6 110 16:57 30.01.2021
3128 Clear -32 1034 68 10000 6 120 16:37 30.01.2021
3129 Clear -32 1034 68 10000 6 120 16:19 30.01.2021
3130 Clear -32 1035 68 10000 6 110 15:42 30.01.2021
3131 Clear -32 1035 68 10000 6 110 15:22 30.01.2021
3132 Clear -33 1035 68 10000 6 110 14:52 30.01.2021
3133 Clear -33 1035 68 10000 5 110 14:22 30.01.2021
3134 Clear -33 1036 68 10000 6 110 13:40 30.01.2021
3135 Clear -33 1036 68 10000 6 110 13:19 30.01.2021
3136 Clouds -33 1037 62 10000 4 120 12:42 30.01.2021
3137 Clouds -33 1037 62 10000 4 120 12:20 30.01.2021
3138 Clouds -33 1037 62 10000 5 110 11:37 30.01.2021
3139 Clouds -33 1037 62 10000 5 110 10:51 30.01.2021
3140 Clouds -33 1037 62 10000 5 110 09:53 30.01.2021
3141 Clouds -33 1038 62 10000 4 110 09:31 30.01.2021
3142 Clouds -34 1038 68 10000 3 120 08:49 30.01.2021
3143 Clouds -35 1038 61 10000 4 100 08:30 30.01.2021
3144 Clouds -36 1038 68 10000 3 110 07:23 30.01.2021
3145 Clouds -38 1038 67 10000 3 100 06:19 30.01.2021
3146 Clear -41 1038 66 10000 3 50 03:35 30.01.2021
3147 Clear -42 1038 66 10000 2 60 02:26 30.01.2021
3148 Clear -41 1037 74 10000 1 0 01:35 30.01.2021
3149 Clear -40 1037 67 10000 1 0 00:47 30.01.2021
3150 Clouds -40 1037 67 6000 2 280 00:21 30.01.2021
3151 Clear -39 1037 67 10000 1.56 46 23:49 29.01.2021
3152 Clear -39 1036 67 10000 1.63 37 23:24 29.01.2021
3153 Clear -39 1036 67 10000 1 0 22:45 29.01.2021
3154 Clear -39 1036 67 10000 2.2 31 22:20 29.01.2021
3155 Clear -39 1035 74 10000 2 20 21:37 29.01.2021
3156 Clear -39 1035 74 10000 2 20 21:19 29.01.2021
3157 Clear -37 1035 67 10000 4 10 20:41 29.01.2021
3158 Clear -37 1035 67 10000 4 10 20:21 29.01.2021
3159 Clear -37 1035 67 10000 3 330 19:38 29.01.2021
3160 Clear -37 1035 67 10000 3 330 19:19 29.01.2021
3161 Clear -37 1034 74 10000 3 330 18:42 29.01.2021
3162 Clear -36 1033 68 10000 3 340 17:45 29.01.2021
3163 Clear -36 1033 68 10000 3 350 17:22 29.01.2021
3164 Clear -36 1033 68 10000 2 330 16:47 29.01.2021
3165 Clear -36 1032 68 10000 2 320 16:24 29.01.2021
3166 Clear -35 1032 68 10000 2 310 15:51 29.01.2021
3167 Clear -35 1031 68 10000 3 330 15:31 29.01.2021
3168 Clear -34 1031 68 10000 4 340 14:56 29.01.2021
3169 Clear -34 1031 68 10000 3 330 14:18 29.01.2021
3170 Clear -34 1030 68 10000 4 340 13:44 29.01.2021
3171 Clear -33 1030 68 10000 4 330 13:26 29.01.2021
3172 Clear -31 1028 62 10000 4 330 12:29 29.01.2021
3173 Clear -31 1028 69 10000 4 330 11:51 29.01.2021
3174 Clear -30 1027 69 10000 4 330 11:20 29.01.2021
3175 Clouds -29 1026 63 9000 5 340 10:52 29.01.2021
3176 Clear -29 1026 69 10000 6 330 10:33 29.01.2021
3177 Clouds -28 1024 69 9000 6 330 09:49 29.01.2021
3178 Clouds -28 1024 69 9000 6 330 09:28 29.01.2021
3179 Clouds -27 1023 69 9000 5 340 08:46 29.01.2021
3180 Clouds -27 1022 69 9000 6 330 08:22 29.01.2021
3181 Clear -26 1021 70 10000 6 310 07:42 29.01.2021
3182 Clear -26 1021 70 10000 6 310 07:22 29.01.2021
3183 Clear -25 1019 70 10000 5 300 05:38 29.01.2021
3184 Snow -25 1017 77 10000 4 300 03:50 29.01.2021
3185 Clear -26 1015 76 10000 3 290 00:45 29.01.2021
3186 Clear -25 1015 77 10000 4 310 00:22 29.01.2021
3187 Clear -25 1015 77 10000 4 310 00:22 29.01.2021
3188 Clear -25 1014 77 10000 4 310 23:45 28.01.2021
3189 Clear -24 1013 77 10000 3 300 23:26 28.01.2021
3190 Clear -24 1013 77 10000 4 310 22:50 28.01.2021
3191 Clear -23 1013 77 10000 4 300 22:29 28.01.2021
3192 Clouds -23 1012 77 10000 3 300 21:59 28.01.2021
3193 Snow -22 1011 77 10000 4 300 21:40 28.01.2021
3194 Snow -22 1011 77 10000 4 300 21:20 28.01.2021
3195 Snow -20 1010 77 9000 4 310 20:40 28.01.2021
3196 Snow -20 1010 77 9000 4 310 20:19 28.01.2021
3197 Snow -20 1010 77 6000 2 290 19:47 28.01.2021
3198 Snow -21 1009 84 4300 2 290 19:24 28.01.2021
3199 Snow -21 1009 84 6000 2 330 18:48 28.01.2021
3200 Snow -21 1009 84 8000 2 10 18:28 28.01.2021
3201 Snow -20 1009 77 8000 1 350 17:47 28.01.2021
3202 Snow -21 1009 84 2300 1 30 17:29 28.01.2021
3203 Snow -20 1009 77 1700 2 70 16:46 28.01.2021
3204 Snow -20 1009 77 1500 2 100 16:25 28.01.2021
3205 Snow -21 1009 84 1400 3 90 15:56 28.01.2021
3206 Snow -21 1009 84 6000 3 110 15:23 28.01.2021
3207 Snow -21 1009 77 5000 4 110 14:43 28.01.2021
3208 Snow -21 1009 77 5000 4 110 14:23 28.01.2021
3209 Snow -22 1010 84 3300 4 110 13:49 28.01.2021
3210 Snow -22 1010 84 2500 4 120 13:21 28.01.2021
3211 Snow -22 1010 77 1900 5 120 12:46 28.01.2021
3212 Snow -23 1011 77 1700 4 120 12:21 28.01.2021
3213 Snow -23 1011 77 1600 5 130 11:44 28.01.2021
3214 Snow -24 1012 77 1500 5 120 11:21 28.01.2021
3215 Snow -24 1012 77 1100 6 120 10:54 28.01.2021
3216 Snow -25 1013 77 1500 6 120 10:35 28.01.2021
3217 Snow -25 1014 77 1500 5 120 09:59 28.01.2021
3218 Snow -25 1015 77 2000 6 110 09:30 28.01.2021
3219 Snow -25 1016 70 1200 6 110 08:57 28.01.2021
3220 Snow -26 1017 76 1600 5 110 08:38 28.01.2021
3221 Snow -26 1017 76 1800 4 110 07:45 28.01.2021
3222 Snow -27 1018 76 2000 6 120 06:51 28.01.2021
3223 Snow -27 1019 69 2700 6 120 06:30 28.01.2021
3224 Snow -29 1021 76 2600 5 120 04:30 28.01.2021
3225 Snow -30 1025 69 10000 5 110 01:40 28.01.2021
3226 Snow -31 1026 76 6000 4 120 23:54 27.01.2021
3227 Snow -31 1026 76 7000 4 110 23:24 27.01.2021
3228 Snow -31 1026 76 7000 4 110 23:24 27.01.2021
3229 Snow -31 1026 76 9000 3 120 22:43 27.01.2021
3230 Snow -31 1026 76 3700 4 90 22:24 27.01.2021
3231 Snow -31 1027 69 9000 4 90 21:44 27.01.2021
3232 Clear -31 1027 69 10000 5 90 21:24 27.01.2021
3233 Clear -31 1027 69 10000 4 90 20:55 27.01.2021
3234 Clear -31 1028 69 10000 3 90 20:31 27.01.2021
3235 Clear -31 1028 69 10000 2 90 19:56 27.01.2021
3236 Clear -31 1028 69 10000 2 90 19:37 27.01.2021
3237 Clear -31 1028 69 10000 2 90 19:18 27.01.2021
3238 Clear -31 1028 69 10000 2 70 18:40 27.01.2021
3239 Clear -31 1028 69 10000 2 70 18:21 27.01.2021
3240 Clear -31 1027 76 10000 1 0 17:40 27.01.2021
3241 Clear -31 1027 76 10000 2 50 17:18 27.01.2021
3242 Clear -31 1027 76 10000 2 30 16:44 27.01.2021
3243 Clear -30 1027 69 10000 3 10 16:26 27.01.2021
3244 Clear -30 1027 76 10000 2 350 15:49 27.01.2021
3245 Clear -30 1027 76 10000 2 340 15:30 27.01.2021
3246 Clear -30 1027 76 10000 3 330 14:40 27.01.2021
3247 Clear -30 1027 76 10000 3 330 14:20 27.01.2021
3248 Clear -30 1027 76 10000 3 310 13:41 27.01.2021
3249 Clear -31 1026 76 10000 3 290 12:46 27.01.2021
3250 Clear -31 1026 76 10000 3 280 12:26 27.01.2021
3251 Clear -29 1026 69 10000 3 300 11:52 27.01.2021
3252 Clear -29 1025 76 10000 3 310 11:26 27.01.2021
3253 Clear -29 1025 76 10000 3 290 10:52 27.01.2021
3254 Clear -29 1024 76 10000 2 300 10:26 27.01.2021
3255 Clear -29 1024 76 10000 3 290 09:59 27.01.2021
3256 Clear -28 1024 69 10000 3 320 09:33 27.01.2021
3257 Clear -29 1023 76 10000 3 320 08:47 27.01.2021
3258 Clear -29 1023 69 10000 3 310 07:58 27.01.2021
3259 Clear -29 1022 76 10000 3 320 07:39 27.01.2021
3260 Clear -29 1021 76 10000 3 330 06:47 27.01.2021
3261 Clear -29 1020 76 10000 4 330 05:56 27.01.2021
3262 Clouds -29 1020 76 10000 4 330 05:35 27.01.2021
3263 Clear -27 1017 83 10000 4 340 02:46 27.01.2021
3264 Clear -26 1017 76 10000 4 340 02:20 27.01.2021
3265 Clear -25 1016 84 10000 3 320 01:46 27.01.2021
3266 Clear -22 1014 77 10000 3 340 00:29 27.01.2021
3267 Clear -21 1013 77 10000 2 10 23:40 26.01.2021
3268 Clear -21 1013 77 10000 2 10 23:21 26.01.2021
3269 Clear -20 1012 77 10000 2 330 22:40 26.01.2021
3270 Clear -20 1012 77 10000 2 330 22:19 26.01.2021
3271 Clear -20 1012 84 10000 2 310 21:52 26.01.2021
3272 Clouds -20 1011 84 10000 1.04 202 21:25 26.01.2021
3273 Snow -20 1011 84 7000 1.04 202 20:54 26.01.2021
3274 Clouds -20 1011 84 10000 1.04 202 20:36 26.01.2021
3275 Snow -20 1011 84 10000 1.56 180 20:18 26.01.2021
3276 Snow -20 1011 84 10000 1.56 180 20:18 26.01.2021
3277 Snow -20 1012 77 10000 1 0 19:40 26.01.2021
3278 Snow -20 1012 77 10000 1 0 19:19 26.01.2021
3279 Snow -20 1013 77 2100 2 190 18:42 26.01.2021
3280 Snow -20 1013 77 2100 2 190 18:23 26.01.2021
3281 Snow -21 1012 84 2400 2 170 17:48 26.01.2021
3282 Snow -21 1013 84 2100 2 170 17:23 26.01.2021
3283 Snow -21 1013 84 2200 2 170 16:52 26.01.2021
3284 Snow -21 1014 77 2500 3 170 16:21 26.01.2021
3285 Snow -21 1014 77 2000 3 170 15:53 26.01.2021
3286 Snow -21 1015 77 1800 3 170 15:35 26.01.2021
3287 Snow -22 1015 84 3000 3 170 14:49 26.01.2021
3288 Snow -22 1016 77 2800 3 160 14:30 26.01.2021
3289 Snow -23 1016 77 3300 3 160 13:59 26.01.2021
3290 Snow -23 1017 77 1300 4 160 13:29 26.01.2021
3291 Snow -24 1017 84 2100 4 160 12:46 26.01.2021
3292 Snow -24 1017 84 2100 4 160 12:46 26.01.2021
3293 Snow -24 1018 77 3100 4 160 12:26 26.01.2021
3294 Snow -24 1018 77 2100 4 160 11:59 26.01.2021
3295 Snow -24 1019 77 1000 4 160 11:40 26.01.2021
3296 Snow -25 1019 77 2400 4 160 10:56 26.01.2021
3297 Snow -25 1019 77 2100 3 160 10:33 26.01.2021
3298 Snow -25 1020 77 2500 4 160 09:50 26.01.2021
3299 Snow -26 1021 76 1800 4 160 09:32 26.01.2021
3300 Snow -26 1021 76 1200 4 160 08:55 26.01.2021
3301 Snow -26 1022 76 1500 4 160 08:37 26.01.2021
3302 Snow -26 1022 76 1800 5 160 07:53 26.01.2021
3303 Snow -27 1023 76 1900 4 160 06:53 26.01.2021
3304 Snow -27 1024 76 5000 5 160 05:45 26.01.2021
3305 Snow -27 1024 76 3100 4 150 05:24 26.01.2021
3306 Snow -30 1027 76 1300 5 140 02:58 26.01.2021
3307 Snow -31 1028 76 1100 5 130 00:58 26.01.2021
3308 Snow -31 1029 76 1300 5 140 23:44 25.01.2021
3309 Snow -30 1029 69 1300 6 140 23:25 25.01.2021
3310 Snow -31 1030 76 1200 5 140 22:40 25.01.2021
3311 Snow -31 1030 76 1200 5 140 22:18 25.01.2021
3312 Snow -32 1031 75 1300 5 130 21:39 25.01.2021
3313 Snow -32 1032 68 1300 4 130 20:53 25.01.2021
3314 Snow -33 1032 75 1300 4 120 20:33 25.01.2021
3315 Snow -33 1032 75 1200 4 120 19:58 25.01.2021
3316 Snow -33 1033 68 1100 4 120 19:40 25.01.2021
3317 Snow -33 1033 68 1100 4 120 19:20 25.01.2021
3318 Snow -34 1033 68 2100 5 120 18:42 25.01.2021
3319 Mist -34 1033 68 2100 5 120 18:22 25.01.2021
3320 Snow -34 1034 68 3100 4 120 17:43 25.01.2021
3321 Mist -35 1034 68 2400 4 110 17:24 25.01.2021
3322 Mist -36 1034 75 2100 4 120 16:43 25.01.2021
3323 Mist -36 1035 68 4100 3 120 16:24 25.01.2021
3324 Mist -37 1035 74 3500 4 120 15:54 25.01.2021
3325 Mist -37 1035 67 3500 4 110 15:34 25.01.2021
3326 Mist -37 1035 67 5000 4 120 14:53 25.01.2021
3327 Mist -38 1035 74 7000 3 120 14:20 25.01.2021
3328 Mist -38 1036 67 10000 4 110 13:57 25.01.2021
3329 Mist -38 1036 67 10000 4 110 13:57 25.01.2021
3330 Mist -38 1036 67 9000 3 110 13:36 25.01.2021
3331 Mist -38 1036 67 9000 3 110 13:36 25.01.2021
3332 Mist -38 1036 67 9000 4 110 12:49 25.01.2021
3333 Mist -38 1036 67 9000 4 110 12:27 25.01.2021
3334 Mist -38 1037 67 5000 4 110 11:58 25.01.2021
3335 Mist -38 1037 67 5000 4 110 11:25 25.01.2021
3336 Mist -38 1037 67 3300 3 110 10:45 25.01.2021
3337 Fog -39 1037 74 900 3 120 10:21 25.01.2021
3338 Fog -39 1037 74 300 3 110 09:48 25.01.2021
3339 Fog -39 1038 67 650 3 120 09:28 25.01.2021
3340 Fog -40 1038 67 400 2 120 08:33 25.01.2021
3341 Fog -41 1038 74 300 2 110 07:51 25.01.2021
3342 Fog -41 1038 66 250 2 110 07:27 25.01.2021
3343 Fog -43 1038 66 200 2 110 06:25 25.01.2021
3344 Fog -42 1039 66 200 2 90 01:37 25.01.2021
3345 Fog -42 1039 66 150 2 100 00:37 25.01.2021
3346 Fog -42 1040 66 450 1 0 23:20 24.01.2021
3347 Fog -42 1039 66 600 2 100 22:48 24.01.2021
3348 Fog -42 1040 66 250 2 70 22:28 24.01.2021
3349 Fog -43 1040 66 150 2 80 21:58 24.01.2021
3350 Fog -43 1040 66 50 1 0 21:27 24.01.2021
3351 Fog -43 1040 66 50 2 70 20:47 24.01.2021
3352 Fog -43 1040 66 150 2 60 20:23 24.01.2021
3353 Fog -44 1040 66 650 2 60 19:57 24.01.2021
3354 Mist -45 1040 65 5000 1.44 148 19:38 24.01.2021
3355 Mist -45 1040 65 5000 1.35 142 19:19 24.01.2021
3356 Mist -45 1040 65 4400 1.47 154 18:41 24.01.2021
3357 Mist -45 1040 65 4400 1.17 161 18:21 24.01.2021
3358 Mist -45 1040 65 2800 1 0 17:57 24.01.2021
3359 Mist -45 1040 65 2200 1.17 161 17:38 24.01.2021
3360 Fog -45 1040 65 1300 1 290 17:18 24.01.2021
3361 Fog -44 1040 66 2100 2 300 16:41 24.01.2021
3362 Fog -44 1040 66 2100 2 300 16:20 24.01.2021
3363 Mist -45 1040 65 2200 2 280 15:45 24.01.2021
3364 Fog -44 1040 66 900 1 290 15:20 24.01.2021
3365 Fog -44 1040 66 750 2 280 14:51 24.01.2021
3366 Clouds -44 1040 66 6000 2 280 14:26 24.01.2021
3367 Clear -43 1040 66 10000 1 320 13:36 24.01.2021
3368 Clear -44 1040 66 10000 2 300 12:52 24.01.2021
3369 Clear -43 1040 66 10000 2 330 12:24 24.01.2021
3370 Clear -42 1040 66 10000 2 320 11:59 24.01.2021
3371 Clear -43 1040 66 10000 2 290 11:41 24.01.2021
3372 Clear -43 1040 66 10000 2 290 11:20 24.01.2021
3373 Clear -42 1039 66 10000 2 300 10:35 24.01.2021
3374 Clear -42 1039 60 10000 2 300 09:47 24.01.2021
3375 Clouds -43 1039 66 9000 3 290 09:20 24.01.2021
3376 Clouds -44 1039 66 7000 2 290 08:47 24.01.2021
3377 Mist -47 1037 65 3900 3 280 04:23 24.01.2021
3378 Clouds -47 1036 65 6000 3 290 02:20 24.01.2021
3379 Mist -47 1036 65 5000 3 290 00:57 24.01.2021
3380 Mist -47 1035 65 4000 3 290 00:21 24.01.2021
3381 Clouds -47 1035 65 6000 2 280 23:42 23.01.2021
3382 Clouds -47 1035 65 6000 2 280 23:22 23.01.2021
3383 Clear -46 1035 65 10000 2 300 22:41 23.01.2021
3384 Clear -46 1035 65 10000 2 300 22:20 23.01.2021
3385 Clear -46 1034 65 9000 2 300 21:24 23.01.2021
3386 Clear -46 1034 65 6000 2 300 20:59 23.01.2021
3387 Clear -46 1034 65 6000 3 290 20:39 23.01.2021
3388 Clear -46 1034 65 6000 3 290 20:21 23.01.2021
3389 Clear -46 1033 65 6000 3 290 19:45 23.01.2021
3390 Clear -45 1033 65 10000 3 300 19:20 23.01.2021
3391 Clear -45 1033 65 10000 3 300 18:43 23.01.2021
3392 Clouds -45 1033 65 8000 3 300 18:24 23.01.2021
3393 Clouds -45 1033 65 7000 3 290 17:44 23.01.2021
3394 Clouds -44 1033 66 6000 3 290 17:25 23.01.2021
3395 Clouds -44 1033 66 7000 3 300 16:46 23.01.2021
3396 Clouds -44 1033 66 7000 3 300 16:46 23.01.2021
3397 Clouds -44 1032 66 7000 3 300 16:24 23.01.2021
3398 Clouds -43 1032 66 7000 3 300 15:31 23.01.2021
3399 Clouds -43 1032 66 8000 4 310 14:58 23.01.2021
3400 Clouds -43 1032 66 9000 4 290 14:30 23.01.2021
3401 Clear -43 1032 66 10000 3 290 13:50 23.01.2021
3402 Clear -43 1032 66 10000 3 290 13:50 23.01.2021
3403 Clear -43 1032 66 10000 3 290 13:32 23.01.2021
3404 Clear -42 1032 66 10000 4 290 12:49 23.01.2021
3405 Clear -42 1031 66 10000 4 300 12:26 23.01.2021
3406 Clear -42 1031 66 10000 4 310 11:45 23.01.2021
3407 Clear -42 1031 66 10000 4 300 11:19 23.01.2021
3408 Clear -42 1030 66 10000 4 310 10:29 23.01.2021
3409 Clear -42 1030 66 10000 3 300 09:57 23.01.2021
3410 Clear -42 1030 66 10000 3 320 09:32 23.01.2021
3411 Clear -42 1029 66 10000 3 330 08:53 23.01.2021
3412 Clear -43 1029 66 10000 3 330 07:57 23.01.2021
3413 Clouds -43 1029 66 9000 3 330 07:18 23.01.2021
3414 Clouds -43 1027 66 8000 3 320 03:35 23.01.2021
3415 Mist -41 1026 66 5000 3 330 00:38 23.01.2021
3416 Mist -41 1025 66 5000 3 340 23:38 22.01.2021
3417 Mist -40 1024 67 5000 2 330 22:45 22.01.2021
3418 Mist -40 1024 67 5000 3 350 22:22 22.01.2021
3419 Mist -40 1024 67 5000 2 340 21:45 22.01.2021
3420 Mist -40 1024 67 5000 2 340 21:45 22.01.2021
3421 Mist -40 1023 67 4600 3 340 21:25 22.01.2021
3422 Mist -40 1023 67 5000 4 360 20:54 22.01.2021
3423 Clouds -40 1023 67 10000 3 360 20:32 22.01.2021
3424 Clear -39 1022 67 10000 3 350 19:48 22.01.2021
3425 Clear -39 1022 67 10000 3 360 19:21 22.01.2021
3426 Clear -39 1022 67 10000 3 10 18:50 22.01.2021
3427 Clear -39 1021 67 10000 4 360 18:27 22.01.2021
3428 Clear -38 1021 67 10000 3 360 17:56 22.01.2021
3429 Clear -38 1021 67 10000 3 360 17:38 22.01.2021
3430 Clear -38 1020 67 10000 3 360 16:56 22.01.2021
3431 Clouds -38 1020 67 8000 4 20 16:31 22.01.2021
3432 Clouds -38 1020 67 6000 3 10 15:55 22.01.2021
3433 Mist -38 1019 67 5000 3 10 15:25 22.01.2021
3434 Clouds -38 1019 74 6000 3 10 14:43 22.01.2021
3435 Clouds -37 1018 67 7000 4 20 14:25 22.01.2021
3436 Clear -37 1018 67 10000 3 20 13:46 22.01.2021
3437 Clear -37 1017 67 10000 3 20 13:26 22.01.2021
3438 Clear -37 1016 67 10000 2 10 12:40 22.01.2021
3439 Clear -37 1016 67 10000 2 10 12:18 22.01.2021
3440 Clear -37 1015 67 10000 3 20 11:39 22.01.2021
3441 Clear -37 1015 67 10000 2 20 10:48 22.01.2021
3442 Clear -37 1014 67 10000 3 20 10:25 22.01.2021
3443 Clouds -36 1014 61 10000 4 20 09:45 22.01.2021
3444 Snow -37 1013 67 6000 4 20 08:59 22.01.2021
3445 Snow -36 1013 61 9000 4 40 08:32 22.01.2021
3446 Snow -36 1013 68 7000 4 50 07:50 22.01.2021
3447 Snow -34 1010 75 8000 4 40 05:26 22.01.2021
3448 Snow -29 1009 69 7000 4 50 02:29 22.01.2021
3449 Snow -28 1008 76 8000 4 50 00:30 22.01.2021
3450 Snow -28 1008 76 8000 4 60 23:50 21.01.2021
3451 Snow -28 1008 76 7000 4 60 23:21 21.01.2021
3452 Snow -27 1008 69 7000 4 50 22:48 21.01.2021
3453 Snow -27 1008 76 8000 5 60 21:59 21.01.2021
3454 Snow -27 1008 76 7000 5 60 21:40 21.01.2021
3455 Snow -27 1008 76 7000 5 60 21:19 21.01.2021
3456 Clear -27 1008 76 10000 5 60 20:46 21.01.2021
3457 Snow -26 1008 70 8000 5 70 20:21 21.01.2021
3458 Snow -26 1008 76 3500 5 60 19:50 21.01.2021
3459 Snow -26 1007 76 4000 4 50 19:26 21.01.2021
3460 Snow -25 1007 77 3500 4 70 18:49 21.01.2021
3461 Snow -25 1008 77 8000 5 70 18:23 21.01.2021
3462 Snow -25 1008 77 5000 5 80 17:59 21.01.2021
3463 Snow -25 1008 77 4100 5 80 17:40 21.01.2021
3464 Snow -25 1008 77 4100 5 80 17:18 21.01.2021
3465 Snow -25 1008 77 3800 6 80 16:41 21.01.2021
3466 Snow -25 1008 77 3800 6 80 16:22 21.01.2021
3467 Snow -25 1008 77 4600 6 80 15:49 21.01.2021
3468 Snow -25 1008 77 9000 5 80 15:28 21.01.2021
3469 Snow -25 1008 77 9000 6 90 14:48 21.01.2021
3470 Snow -25 1008 77 10000 5 80 14:29 21.01.2021
3471 Snow -24 1009 70 10000 6 90 13:47 21.01.2021
3472 Snow -24 1009 77 4900 7 100 13:26 21.01.2021
3473 Snow -24 1009 77 4900 7 100 12:46 21.01.2021
3474 Snow -24 1009 77 3900 6 100 12:25 21.01.2021
3475 Snow -24 1009 77 3900 7 100 11:56 21.01.2021
3476 Snow -24 1009 77 2400 7 100 11:35 21.01.2021
3477 Snow -24 1009 77 1800 7 100 10:57 21.01.2021
3478 Snow -24 1009 77 4000 6 100 10:38 21.01.2021
3479 Snow -24 1010 77 3700 7 100 09:56 21.01.2021
3480 Snow -24 1010 77 5000 8 110 09:37 21.01.2021
3481 Snow -24 1010 77 5000 8 110 09:18 21.01.2021
3482 Snow -24 1010 77 2200 8 100 08:34 21.01.2021
3483 Snow -24 1011 77 1400 9 110 07:46 21.01.2021
3484 Snow -24 1011 84 4500 8 110 07:26 21.01.2021
3485 Snow -24 1011 77 4100 8 100 05:59 21.01.2021
3486 Snow -24 1012 84 3700 9 100 04:54 21.01.2021
3487 Clear -24 1015 77 10000 7 110 02:19 21.01.2021
3488 Clear -25 1017 77 10000 5 120 00:42 21.01.2021
3489 Clear -26 1017 76 10000 5 110 23:44 20.01.2021
3490 Clear -26 1017 76 10000 7 90 23:24 20.01.2021
3491 Clear -26 1018 76 10000 5 100 22:52 20.01.2021
3492 Clear -27 1018 76 10000 5 90 22:29 20.01.2021
3493 Clear -27 1019 76 10000 4 90 21:54 20.01.2021
3494 Clear -28 1020 76 10000 4 90 21:23 20.01.2021
3495 Clear -28 1020 76 10000 4 90 21:23 20.01.2021
3496 Clear -28 1020 76 10000 4 90 20:52 20.01.2021
3497 Clear -28 1021 76 10000 4 90 20:23 20.01.2021
3498 Clear -28 1021 76 10000 4 100 19:48 20.01.2021
3499 Clear -28 1021 76 10000 4 100 19:29 20.01.2021
3500 Clear -29 1022 83 10000 2 120 18:43 20.01.2021
3501 Clear -29 1022 83 10000 2 110 18:21 20.01.2021
3502 Clear -29 1022 83 10000 3 110 17:50 20.01.2021
3503 Clear -29 1022 83 10000 3 130 17:31 20.01.2021
3504 Clear -28 1023 76 10000 3 140 16:51 20.01.2021
3505 Clear -28 1023 76 10000 2 130 16:23 20.01.2021
3506 Clouds -28 1023 76 10000 2 120 15:45 20.01.2021
3507 Clear -28 1023 76 10000 2 130 15:19 20.01.2021
3508 Clouds -28 1023 76 10000 2 110 14:41 20.01.2021
3509 Clouds -28 1023 76 10000 2 110 14:20 20.01.2021
3510 Clouds -29 1024 76 10000 2 110 13:38 20.01.2021
3511 Clouds -29 1024 76 7000 3 110 12:57 20.01.2021
3512 Clear -28 1024 76 10000 2 140 12:24 20.01.2021
3513 Clear -27 1024 76 10000 1 130 11:41 20.01.2021
3514 Clear -27 1024 76 10000 1 130 11:21 20.01.2021
3515 Clear -27 1024 76 10000 1 0 10:50 20.01.2021
3516 Clear -27 1024 76 10000 1 0 10:50 20.01.2021
3517 Clear -27 1024 76 10000 2 190 10:27 20.01.2021
3518 Clouds -28 1025 76 10000 1 0 09:39 20.01.2021
3519 Clouds -28 1025 76 10000 1 0 09:19 20.01.2021
3520 Clear -28 1025 76 10000 1 0 08:44 20.01.2021
3521 Clear -31 1025 76 10000 1 260 08:23 20.01.2021
3522 Clear -30 1025 76 10000 1 0 07:53 20.01.2021
3523 Clouds -30 1025 69 10000 1 190 07:20 20.01.2021
3524 Clouds -33 1025 75 10000 2 240 04:44 20.01.2021
3525 Clear -35 1024 75 10000 2 250 02:57 20.01.2021
3526 Clear -34 1024 68 10000 2 260 00:58 20.01.2021
3527 Clear -34 1023 75 10000 2 280 23:57 19.01.2021
3528 Clear -34 1023 75 10000 3 280 23:38 19.01.2021
3529 Clear -34 1023 75 10000 3 280 22:59 19.01.2021
3530 Clear -33 1022 75 10000 2 280 22:40 19.01.2021
3531 Clear -33 1022 75 10000 2 280 22:21 19.01.2021
3532 Clear -33 1022 75 10000 3 280 21:55 19.01.2021
3533 Clear -32 1022 75 10000 3 280 21:35 19.01.2021
3534 Clear -33 1022 75 10000 4 280 20:50 19.01.2021
3535 Clear -33 1022 75 10000 4 280 20:30 19.01.2021
3536 Clear -33 1022 75 10000 4 280 19:56 19.01.2021
3537 Clear -33 1021 75 10000 4 280 19:37 19.01.2021
3538 Clear -33 1021 75 10000 4 280 19:37 19.01.2021
3539 Clear -33 1021 75 10000 4 280 19:18 19.01.2021
3540 Clear -32 1021 75 10000 3 280 18:39 19.01.2021
3541 Clear -32 1021 75 10000 3 280 18:20 19.01.2021
3542 Clear -32 1020 75 10000 4 280 17:42 19.01.2021
3543 Clear -32 1020 75 10000 4 280 17:20 19.01.2021
3544 Clear -31 1020 76 10000 4 290 16:40 19.01.2021
3545 Clear -31 1020 76 10000 4 290 16:21 19.01.2021
3546 Clear -31 1019 76 10000 5 290 15:51 19.01.2021
3547 Clear -31 1019 76 10000 4 280 15:32 19.01.2021
3548 Clear -32 1018 75 10000 4 280 14:47 19.01.2021
3549 Clear -32 1018 75 10000 4 280 14:26 19.01.2021
3550 Clear -32 1018 75 10000 4 280 13:52 19.01.2021
3551 Clear -32 1017 75 10000 4 280 13:23 19.01.2021
3552 Clear -31 1017 76 10000 4 280 12:51 19.01.2021
3553 Clear -31 1017 76 10000 4 280 12:30 19.01.2021
3554 Clear -29 1016 76 10000 4 280 11:52 19.01.2021
3555 Clear -29 1016 76 10000 4 280 11:29 19.01.2021
3556 Clear -29 1016 76 10000 5 280 10:59 19.01.2021
3557 Clear -29 1015 76 10000 5 280 10:40 19.01.2021
3558 Clear -29 1015 76 10000 5 280 10:18 19.01.2021
3559 Clouds -30 1014 76 10000 5 280 09:42 19.01.2021
3560 Clouds -30 1014 76 10000 5 280 09:19 19.01.2021
3561 Clouds -30 1013 76 10000 5 280 08:33 19.01.2021
3562 Clouds -30 1013 76 10000 5 280 07:51 19.01.2021
3563 Clear -31 1012 69 10000 5 280 06:59 19.01.2021
3564 Clear -32 1010 75 10000 6 280 04:18 19.01.2021
3565 Clear -33 1009 75 10000 5 280 02:22 19.01.2021
3566 Clear -33 1008 68 10000 5 280 00:34 19.01.2021
3567 Clear -34 1007 75 10000 5 280 23:47 18.01.2021
3568 Clear -34 1007 75 10000 4 280 23:23 18.01.2021
3569 Clear -33 1006 75 10000 5 290 22:41 18.01.2021
3570 Clear -33 1006 75 10000 5 290 22:21 18.01.2021
3571 Clear -32 1006 75 10000 5 280 21:47 18.01.2021
3572 Clear -32 1006 75 10000 5 280 21:22 18.01.2021
3573 Clear -33 1005 75 10000 4 280 20:55 18.01.2021
3574 Clear -32 1005 75 10000 4 280 20:33 18.01.2021
3575 Clear -32 1005 75 10000 4 280 19:54 18.01.2021
3576 Clear -31 1005 76 10000 4 260 19:34 18.01.2021
3577 Clear -29 1004 76 10000 4 250 18:48 18.01.2021
3578 Clear -29 1004 76 10000 4 250 18:26 18.01.2021
3579 Clear -29 1004 76 10000 4 250 17:47 18.01.2021
3580 Clear -29 1004 76 10000 4 250 17:28 18.01.2021
3581 Clear -29 1004 76 10000 4 250 16:50 18.01.2021
3582 Clear -29 1004 76 10000 5 260 16:25 18.01.2021
3583 Clouds -29 1004 76 10000 5 270 15:52 18.01.2021
3584 Clouds -29 1004 76 10000 6 280 15:27 18.01.2021
3585 Clear -29 1004 76 10000 5 260 14:56 18.01.2021
3586 Clear -29 1004 76 10000 5 260 14:38 18.01.2021
3587 Clear -29 1004 76 10000 5 260 14:19 18.01.2021
3588 Clear -28 1003 76 10000 6 260 13:44 18.01.2021
3589 Clear -28 1003 76 10000 6 250 13:20 18.01.2021
3590 Clear -28 1003 76 10000 5 250 12:45 18.01.2021
3591 Clear -27 1003 69 10000 6 260 12:18 18.01.2021
3592 Snow -27 1002 76 10000 6 260 11:42 18.01.2021
3593 Snow -27 1002 76 10000 6 260 11:23 18.01.2021
3594 Snow -27 1001 76 10000 6 270 10:47 18.01.2021
3595 Snow -27 1001 76 10000 6 260 10:21 18.01.2021
3596 Snow -27 1000 76 10000 6 270 09:39 18.01.2021
3597 Snow -27 1000 76 10000 6 270 09:18 18.01.2021
3598 Clear -27 1000 76 10000 6 260 08:26 18.01.2021
3599 Clouds -27 999 76 10000 6 260 07:48 18.01.2021
3600 Clouds -27 998 76 10000 5 260 06:35 18.01.2021
3601 Clouds -27 997 76 8000 5 270 04:41 18.01.2021
3602 Clouds -27 997 76 8000 5 270 04:22 18.01.2021
3603 Clouds -27 996 76 9000 5 270 03:46 18.01.2021
3604 Clouds -27 996 76 8000 5 280 03:25 18.01.2021
3605 Clouds -27 996 76 6000 5 280 02:53 18.01.2021
3606 Clouds -27 995 76 10000 5 270 02:18 18.01.2021
3607 Clouds -26 994 84 10000 5 270 00:39 18.01.2021
3608 Clouds -26 994 84 10000 5 270 23:51 17.01.2021
3609 Snow -24 994 77 9000 4 250 23:24 17.01.2021
3610 Clouds -24 994 77 10000 4 250 22:50 17.01.2021
3611 Snow -24 994 84 10000 3 240 22:22 17.01.2021
3612 Snow -24 994 84 10000 3 240 22:22 17.01.2021
3613 Snow -23 993 77 10000 3 240 21:43 17.01.2021
3614 Snow -23 993 77 10000 3 240 21:24 17.01.2021
3615 Snow -23 993 77 6000 3 240 20:51 17.01.2021
3616 Snow -23 993 84 7000 3 230 20:32 17.01.2021
3617 Snow -22 993 77 9000 3 250 19:53 17.01.2021
3618 Snow -22 993 77 9000 4 250 19:34 17.01.2021
3619 Clouds -22 993 84 10000 3 250 18:53 17.01.2021
3620 Clouds -21 993 77 10000 4 250 18:29 17.01.2021
3621 Clouds -21 993 84 10000 5 250 17:50 17.01.2021
3622 Clouds -21 993 84 10000 5 250 17:29 17.01.2021
3623 Clouds -20 993 77 10000 4 250 16:45 17.01.2021
3624 Clouds -20 993 84 10000 3 250 16:25 17.01.2021
3625 Clear -20 993 84 10000 4 250 15:53 17.01.2021
3626 Clear -20 993 84 10000 3 240 15:27 17.01.2021
3627 Clear -20 993 84 10000 4 250 14:59 17.01.2021
3628 Clear -19 994 78 10000 4 240 14:27 17.01.2021
3629 Clear -19 994 84 10000 5 240 13:59 17.01.2021
3630 Clear -18 994 78 10000 6 250 13:41 17.01.2021
3631 Clear -18 994 78 10000 6 250 13:21 17.01.2021
3632 Clear -18 994 78 10000 5 250 12:44 17.01.2021
3633 Clouds -18 993 85 10000 6 240 12:24 17.01.2021
3634 Clouds -17 993 85 10000 7 250 11:25 17.01.2021
3635 Snow -16 993 78 8000 10 260 10:51 17.01.2021
3636 Snow -16 992 85 8000 8 250 10:25 17.01.2021
3637 Snow -16 992 85 10000 8 250 09:50 17.01.2021
3638 Snow -15 992 85 7000 7 250 08:58 17.01.2021
3639 Snow -14 991 85 7000 7 250 08:40 17.01.2021
3640 Snow -14 992 85 7000 2.43 187 04:30 17.01.2021
3641 Snow -14 993 85 2700 3 120 02:51 17.01.2021
3642 Snow -14 996 85 9000 4 130 00:57 17.01.2021
3643 Snow -14 996 85 1600 6 110 00:21 17.01.2021
3644 Snow -14 998 85 10000 5 110 23:52 16.01.2021
3645 Snow -15 999 92 7000 5 100 23:22 16.01.2021
3646 Snow -15 1000 92 8000 5 90 22:53 16.01.2021
3647 Snow -16 1001 92 10000 6 90 22:19 16.01.2021
3648 Snow -16 1002 85 1200 5 80 21:45 16.01.2021
3649 Snow -16 1003 85 10000 5 80 21:22 16.01.2021
3650 Snow -16 1004 85 5000 4 100 20:47 16.01.2021
3651 Snow -17 1004 92 1200 4 90 20:23 16.01.2021
3652 Snow -17 1005 85 800 4 80 19:49 16.01.2021
3653 Snow -17 1006 85 4200 4 90 19:29 16.01.2021
3654 Snow -17 1007 85 2900 3 100 18:46 16.01.2021
3655 Snow -18 1007 92 9000 3 70 18:27 16.01.2021
3656 Snow -18 1007 85 10000 3 70 17:50 16.01.2021
3657 Clouds -19 1008 84 10000 2 60 17:30 16.01.2021
3658 Clear -19 1009 84 10000 2 80 16:53 16.01.2021
3659 Clouds -20 1009 92 10000 2 70 16:35 16.01.2021
3660 Clouds -20 1010 84 10000 2 70 15:56 16.01.2021
3661 Clouds -20 1010 84 9000 2 70 15:37 16.01.2021
3662 Clouds -22 1011 84 10000 1 60 14:31 16.01.2021
3663 Clouds -21 1011 92 9000 2 60 13:52 16.01.2021
3664 Clouds -21 1011 92 9000 2 60 13:52 16.01.2021
3665 Clouds -21 1012 84 8000 2 70 13:30 16.01.2021
3666 Clouds -21 1012 84 10000 0.74 183 12:47 16.01.2021
3667 Clouds -18 1013 85 10000 1 340 12:22 16.01.2021
3668 Clouds -19 1013 84 10000 1.08 257 11:55 16.01.2021
3669 Clouds -17 1013 92 10000 1 300 11:26 16.01.2021
3670 Clouds -17 1013 92 10000 2 280 10:51 16.01.2021
3671 Clouds -17 1013 92 10000 2 280 10:33 16.01.2021
3672 Snow -16 1013 85 9000 2 290 09:50 16.01.2021
3673 Snow -15 1014 85 5000 3 300 09:19 16.01.2021
3674 Clouds -15 1013 85 10000 4 270 08:18 16.01.2021
3675 Snow -15 1013 92 9000 3 220 06:44 16.01.2021
3676 Snow -14 1013 85 5000 4 220 04:52 16.01.2021
3677 Snow -14 1013 85 3500 4 210 02:58 16.01.2021
3678 Snow -14 1014 85 2500 5 210 02:37 16.01.2021
3679 Snow -14 1015 85 2400 5 200 00:45 16.01.2021
3680 Snow -14 1015 85 2400 5 200 00:20 16.01.2021
3681 Snow -14 1016 85 1800 4 200 23:30 15.01.2021
3682 Snow -14 1017 85 900 5 200 22:27 15.01.2021
3683 Snow -14 1017 85 700 5 190 21:53 15.01.2021
3684 Snow -14 1018 85 600 6 190 21:34 15.01.2021
3685 Snow -14 1018 78 900 8 190 20:43 15.01.2021
3686 Snow -14 1019 85 800 7 180 20:23 15.01.2021
3687 Snow -14 1019 85 300 7 180 19:45 15.01.2021
3688 Snow -14 1020 85 1000 7 180 19:25 15.01.2021
3689 Snow -15 1020 92 800 6 170 18:45 15.01.2021
3690 Snow -15 1021 85 800 6 170 18:20 15.01.2021
3691 Snow -15 1022 85 900 7 180 17:56 15.01.2021
3692 Snow -15 1023 85 600 6 180 17:37 15.01.2021
3693 Snow -15 1023 85 600 6 180 17:19 15.01.2021
3694 Snow -16 1024 78 650 6 160 16:40 15.01.2021
3695 Snow -16 1024 78 650 6 160 16:21 15.01.2021
3696 Snow -17 1026 85 900 6 160 15:40 15.01.2021
3697 Snow -17 1026 85 900 6 160 15:18 15.01.2021
3698 Snow -17 1028 78 2000 6 160 14:39 15.01.2021
3699 Snow -17 1028 78 2000 6 160 14:20 15.01.2021
3700 Snow -18 1029 85 2000 5 150 13:40 15.01.2021
3701 Snow -18 1029 85 2000 5 150 13:19 15.01.2021
3702 Snow -18 1030 85 2000 5 160 12:46 15.01.2021
3703 Snow -18 1030 85 2000 5 160 12:25 15.01.2021
3704 Snow -18 1031 85 9000 4 160 11:42 15.01.2021
3705 Snow -18 1031 85 9000 4 160 11:20 15.01.2021
3706 Snow -18 1032 85 9000 4 180 10:51 15.01.2021
3707 Clouds -19 1032 84 10000 4 190 10:22 15.01.2021
3708 Clear -19 1033 84 10000 3 190 09:49 15.01.2021
3709 Clear -19 1033 84 10000 4 190 09:29 15.01.2021
3710 Clear -20 1034 84 10000 5 200 08:28 15.01.2021
3711 Clear -21 1034 84 10000 5 200 07:45 15.01.2021
3712 Clear -21 1034 77 10000 5 200 07:23 15.01.2021
3713 Clear -22 1035 77 10000 4 210 06:37 15.01.2021
3714 Clear -25 1036 77 10000 3 220 02:45 15.01.2021
3715 Clear -25 1036 77 10000 4 240 00:47 15.01.2021
3716 Clear -25 1036 77 10000 4 240 23:31 14.01.2021
3717 Clear -25 1036 77 10000 4 240 22:58 14.01.2021
3718 Clear -25 1036 77 10000 4 240 22:58 14.01.2021
3719 Clear -25 1036 84 10000 4 240 22:37 14.01.2021
3720 Clear -25 1036 84 10000 4 240 22:19 14.01.2021
3721 Clear -24 1036 77 10000 4 240 21:40 14.01.2021
3722 Clear -24 1036 77 10000 4 240 21:20 14.01.2021
3723 Clear -24 1036 77 10000 5 250 20:48 14.01.2021
3724 Clear -24 1036 77 10000 6 250 20:22 14.01.2021
3725 Clear -23 1035 77 10000 6 250 19:41 14.01.2021
3726 Clear -23 1035 77 10000 6 250 19:23 14.01.2021
3727 Clear -23 1035 77 10000 6 250 18:49 14.01.2021
3728 Clear -23 1035 77 10000 6 250 18:18 14.01.2021
3729 Clear -23 1035 77 10000 5 250 17:44 14.01.2021
3730 Clear -22 1035 77 10000 6 250 17:25 14.01.2021
3731 Clear -22 1035 77 10000 6 250 16:39 14.01.2021
3732 Clear -22 1035 77 10000 6 250 15:56 14.01.2021
3733 Clear -22 1035 77 10000 6 250 15:56 14.01.2021
3734 Clear -21 1035 71 10000 6 250 15:38 14.01.2021
3735 Clear -21 1034 77 10000 6 250 14:58 14.01.2021
3736 Clear -21 1034 77 10000 6 250 14:36 14.01.2021
3737 Clear -21 1034 77 10000 6 250 14:18 14.01.2021
3738 Clear -21 1034 77 10000 5 250 13:48 14.01.2021
3739 Clear -21 1034 71 10000 6 250 13:19 14.01.2021
3740 Clear -21 1033 71 10000 6 250 12:38 14.01.2021
3741 Clear -21 1033 71 10000 6 250 12:18 14.01.2021
3742 Clear -21 1033 71 10000 6 250 11:41 14.01.2021
3743 Clear -21 1033 71 10000 6 250 11:20 14.01.2021
3744 Clear -21 1033 71 10000 6 250 10:49 14.01.2021
3745 Clear -21 1033 71 10000 6 250 10:22 14.01.2021
3746 Clear -21 1032 71 10000 6 250 09:44 14.01.2021
3747 Clear -21 1032 71 10000 6 250 09:22 14.01.2021
3748 Clear -21 1032 71 10000 5 250 08:48 14.01.2021
3749 Clear -21 1032 71 10000 5 250 08:22 14.01.2021
3750 Clear -22 1032 77 10000 5 250 07:45 14.01.2021
3751 Clear -22 1032 77 10000 6 250 06:46 14.01.2021
3752 Clear -22 1031 77 10000 6 260 05:45 14.01.2021
3753 Clear -19 1030 84 10000 6 270 00:45 14.01.2021
3754 Clear -18 1029 78 10000 7 260 23:54 13.01.2021
3755 Clouds -18 1029 78 10000 7 260 23:22 13.01.2021
3756 Clouds -18 1029 78 10000 6 250 22:28 13.01.2021
3757 Snow -18 1029 78 10000 6 250 21:57 13.01.2021
3758 Snow -18 1029 78 9000 6 260 21:38 13.01.2021
3759 Clouds -18 1029 78 10000 6 250 20:58 13.01.2021
3760 Snow -18 1029 78 10000 6 250 20:30 13.01.2021
3761 Clouds -18 1029 78 10000 6 250 19:58 13.01.2021
3762 Clouds -18 1029 85 10000 6 250 19:37 13.01.2021
3763 Clouds -18 1029 85 10000 6 250 19:19 13.01.2021
3764 Clouds -18 1029 85 10000 6 260 18:40 13.01.2021
3765 Clouds -18 1029 85 10000 7 260 17:51 13.01.2021
3766 Clouds -17 1028 85 10000 7 270 17:25 13.01.2021
3767 Clouds -17 1028 85 10000 7 260 16:51 13.01.2021
3768 Clouds -16 1029 85 10000 7 270 16:22 13.01.2021
3769 Clouds -16 1028 85 10000 6 280 15:53 13.01.2021
3770 Clouds -16 1028 85 10000 6 280 15:35 13.01.2021
3771 Clouds -16 1028 92 10000 6 280 14:48 13.01.2021
3772 Clouds -15 1028 85 10000 6 290 13:55 13.01.2021
3773 Clear -15 1028 85 10000 6 290 13:32 13.01.2021
3774 Clear -15 1028 85 10000 6 290 12:47 13.01.2021
3775 Clear -15 1028 85 10000 6 290 12:29 13.01.2021
3776 Clouds -15 1028 92 10000 5 310 11:59 13.01.2021
3777 Clear -14 1028 85 10000 6 310 11:40 13.01.2021
3778 Clear -14 1028 85 10000 6 310 11:22 13.01.2021
3779 Clear -14 1027 85 10000 7 290 10:41 13.01.2021
3780 Clear -14 1027 85 10000 7 290 10:22 13.01.2021
3781 Clear -16 1027 85 10000 6 280 09:34 13.01.2021
3782 Clouds -15 1027 85 10000 6 270 08:53 13.01.2021
3783 Clouds -14 1027 85 10000 6 280 08:32 13.01.2021
3784 Clouds -15 1027 85 10000 4 280 07:37 13.01.2021
3785 Clouds -15 1027 85 10000 4 280 06:58 13.01.2021
3786 Clouds -17 1026 92 10000 4 290 04:21 13.01.2021
3787 Clouds -17 1026 85 10000 4 290 03:48 13.01.2021
3788 Clouds -17 1026 85 10000 4 290 03:29 13.01.2021
3789 Clouds -18 1026 85 10000 4 300 01:44 13.01.2021
3790 Clouds -20 1026 84 10000 3 290 00:29 13.01.2021
3791 Clouds -21 1026 84 10000 3 290 23:24 12.01.2021
3792 Clouds -22 1026 84 10000 3 280 22:47 12.01.2021
3793 Clouds -22 1026 77 10000 3 290 22:24 12.01.2021
3794 Clouds -23 1026 84 10000 3 300 21:53 12.01.2021
3795 Clouds -23 1026 77 10000 3 300 21:31 12.01.2021
3796 Clouds -24 1026 84 10000 3 300 20:49 12.01.2021
3797 Clouds -24 1026 77 10000 3 290 20:27 12.01.2021
3798 Clouds -25 1026 84 10000 3 310 19:56 12.01.2021
3799 Clear -25 1026 77 10000 3 290 19:37 12.01.2021
3800 Clouds -26 1026 76 10000 3 290 18:49 12.01.2021
3801 Clouds -26 1026 76 10000 3 300 18:24 12.01.2021
3802 Clouds -27 1026 76 10000 2 300 17:48 12.01.2021
3803 Clouds -27 1026 76 10000 2 300 17:30 12.01.2021
3804 Clouds -28 1026 76 10000 2 330 16:44 12.01.2021
3805 Clouds -28 1026 76 10000 3 320 16:24 12.01.2021
3806 Clouds -29 1026 76 10000 3 320 15:45 12.01.2021
3807 Clouds -29 1026 76 10000 3 320 15:21 12.01.2021
3808 Clouds -29 1026 76 10000 3 300 14:44 12.01.2021
3809 Clouds -29 1026 76 10000 3 300 14:25 12.01.2021
3810 Clouds -29 1026 76 10000 3 300 13:52 12.01.2021
3811 Clouds -29 1026 76 10000 2 310 13:22 12.01.2021
3812 Clouds -30 1027 76 10000 3 320 12:26 12.01.2021
3813 Clouds -30 1027 76 10000 2 300 11:41 12.01.2021
3814 Clouds -30 1027 76 10000 2 320 10:55 12.01.2021
3815 Clouds -30 1027 76 10000 2 320 10:55 12.01.2021
3816 Clouds -30 1027 76 10000 2 320 10:55 12.01.2021
3817 Clouds -30 1027 76 10000 2 290 10:26 12.01.2021
3818 Clouds -31 1027 76 10000 2 310 09:58 12.01.2021
3819 Clear -31 1027 76 10000 3 290 09:38 12.01.2021
3820 Clear -31 1027 76 10000 3 290 09:18 12.01.2021
3821 Clear -32 1028 75 10000 3 300 08:26 12.01.2021
3822 Clear -34 1028 75 10000 3 280 07:37 12.01.2021
3823 Clear -34 1028 75 10000 3 280 07:37 12.01.2021
3824 Clear -35 1029 75 10000 4 280 06:50 12.01.2021
3825 Clear -36 1029 75 10000 3 280 05:35 12.01.2021
3826 Clouds -36 1030 75 10000 4 280 03:28 12.01.2021
3827 Clouds -36 1031 68 10000 4 280 02:21 12.01.2021
3828 Clouds -37 1031 74 10000 3 290 01:31 12.01.2021
3829 Clear -37 1032 74 10000 2 280 00:19 12.01.2021
3830 Clouds -37 1032 74 10000 2 300 23:37 11.01.2021
3831 Clouds -37 1032 74 10000 2 300 23:18 11.01.2021
3832 Clear -37 1032 67 10000 2 280 22:45 11.01.2021
3833 Clouds -37 1033 67 10000 3 280 22:27 11.01.2021
3834 Clouds -37 1033 67 10000 3 280 21:43 11.01.2021
3835 Clouds -37 1033 67 10000 3 280 21:25 11.01.2021
3836 Clouds -37 1033 74 10000 2 280 20:49 11.01.2021
3837 Clouds -37 1033 74 10000 2 310 20:30 11.01.2021
3838 Clouds -37 1033 74 10000 2 300 19:58 11.01.2021
3839 Clouds -37 1033 74 10000 2 290 19:35 11.01.2021
3840 Clouds -37 1033 74 10000 2 290 19:35 11.01.2021
3841 Clouds -37 1034 67 10000 2 290 18:47 11.01.2021
3842 Clear -37 1033 74 10000 2 290 18:28 11.01.2021
3843 Clear -36 1034 68 10000 2 300 17:57 11.01.2021
3844 Clear -37 1033 74 10000 2 290 17:39 11.01.2021
3845 Clear -37 1033 74 10000 2 290 17:20 11.01.2021
3846 Clear -36 1033 68 10000 2 290 16:43 11.01.2021
3847 Clear -36 1033 75 10000 1 0 16:24 11.01.2021
3848 Clouds -35 1034 68 10000 1 290 15:50 11.01.2021
3849 Clouds -35 1033 68 10000 2 330 15:31 11.01.2021
3850 Clear -35 1033 75 10000 2 360 14:41 11.01.2021
3851 Clear -35 1033 75 10000 2 360 14:19 11.01.2021
3852 Clear -35 1033 75 10000 1 350 13:44 11.01.2021
3853 Clouds -35 1033 75 10000 1 310 13:20 11.01.2021
3854 Clear -34 1033 75 10000 2 330 12:41 11.01.2021
3855 Clear -34 1033 75 10000 2 330 12:21 11.01.2021
3856 Clear -33 1033 68 10000 2 310 11:43 11.01.2021
3857 Clear -33 1032 75 10000 2 330 10:55 11.01.2021
3858 Clear -33 1032 75 10000 2 340 10:28 11.01.2021
3859 Clear -32 1032 68 10000 2 350 09:45 11.01.2021
3860 Clear -33 1032 75 10000 2 340 09:24 11.01.2021
3861 Clear -32 1032 68 10000 1 0 08:47 11.01.2021
3862 Clear -33 1032 75 10000 2 340 08:21 11.01.2021
3863 Clear -33 1031 75 10000 2 40 07:40 11.01.2021
3864 Clear -33 1031 75 10000 2 40 07:19 11.01.2021
3865 Clear -33 1031 75 10000 1 0 06:46 11.01.2021
3866 Clear -31 1029 76 10000 3 60 01:53 11.01.2021
3867 Clear -30 1029 76 10000 4 50 00:40 11.01.2021
3868 Clear -29 1028 76 10000 3 50 23:45 10.01.2021
3869 Clear -28 1028 76 10000 4 40 22:49 10.01.2021
3870 Clear -27 1028 76 10000 3 30 22:28 10.01.2021
3871 Clear -26 1027 76 10000 4 30 21:56 10.01.2021
3872 Clear -25 1027 77 10000 3 30 21:36 10.01.2021
3873 Clear -25 1027 77 10000 3 30 21:18 10.01.2021
3874 Clear -25 1027 77 10000 4 30 20:37 10.01.2021
3875 Clear -25 1027 77 10000 4 30 20:19 10.01.2021
3876 Clear -24 1027 77 10000 3 30 19:38 10.01.2021
3877 Clear -24 1027 77 10000 3 30 19:20 10.01.2021
3878 Clear -23 1027 77 10000 3 30 18:43 10.01.2021
3879 Clear -23 1027 84 10000 4 30 18:20 10.01.2021
3880 Clear -22 1027 84 10000 2 20 17:23 10.01.2021
3881 Snow -21 1026 84 10000 2 20 16:46 10.01.2021
3882 Snow -20 1026 77 8000 3 30 16:27 10.01.2021
3883 Snow -20 1026 84 9000 3 20 15:26 10.01.2021
3884 Snow -20 1026 84 10000 3 10 14:56 10.01.2021
3885 Clouds -20 1026 84 10000 2 10 14:38 10.01.2021
3886 Clouds -20 1026 84 10000 3 20 13:56 10.01.2021
3887 Clouds -20 1026 84 10000 2 10 13:38 10.01.2021
3888 Clouds -20 1026 84 10000 2 10 13:20 10.01.2021
3889 Clouds -20 1026 84 10000 3 350 12:50 10.01.2021
3890 Clouds -20 1026 84 10000 3 350 12:32 10.01.2021
3891 Clouds -20 1026 84 10000 3 340 11:48 10.01.2021
3892 Clouds -20 1025 84 10000 2 340 11:20 10.01.2021
3893 Clouds -19 1025 78 10000 3 350 10:45 10.01.2021
3894 Clouds -19 1025 78 10000 3 340 10:22 10.01.2021
3895 Clear -19 1025 84 10000 3 340 09:36 10.01.2021
3896 Clouds -19 1025 84 10000 3 340 08:23 10.01.2021
3897 Snow -19 1025 84 10000 3 330 07:37 10.01.2021
3898 Snow -20 1025 84 10000 2 320 06:21 10.01.2021
3899 Snow -20 1026 84 6000 2 330 05:41 10.01.2021
3900 Clouds -20 1025 77 10000 1 300 03:56 10.01.2021
3901 Snow -21 1026 77 10000 2 20 01:30 10.01.2021
3902 Snow -21 1026 84 8000 2 20 23:58 09.01.2021
3903 Snow -22 1026 84 8000 2 10 23:40 09.01.2021
3904 Snow -22 1026 84 9000 1 0 22:50 09.01.2021
3905 Snow -22 1026 84 9000 1 0 22:19 09.01.2021
3906 Snow -22 1026 77 9000 2.14 24 21:58 09.01.2021
3907 Clouds -22 1026 77 10000 1 10 21:39 09.01.2021
3908 Clouds -22 1026 77 10000 1 10 21:20 09.01.2021
3909 Clouds -23 1026 84 10000 1.99 27 20:45 09.01.2021
3910 Clouds -23 1026 77 10000 1 0 19:57 09.01.2021
3911 Clouds -23 1026 77 10000 1 0 19:39 09.01.2021
3912 Clouds -23 1026 77 10000 1 0 19:18 09.01.2021
3913 Clouds -24 1026 84 10000 2 10 18:35 09.01.2021
3914 Clouds -24 1026 84 10000 2 10 17:51 09.01.2021
3915 Clouds -24 1026 84 10000 2 350 17:32 09.01.2021
3916 Clouds -23 1026 77 10000 2 350 16:36 09.01.2021
3917 Clouds -23 1026 77 10000 2 350 16:18 09.01.2021
3918 Clouds -24 1026 84 10000 2 350 15:40 09.01.2021
3919 Clouds -24 1026 84 10000 2 350 14:43 09.01.2021
3920 Clouds -24 1026 77 10000 2 350 14:21 09.01.2021
3921 Clouds -24 1026 77 10000 3 350 13:59 09.01.2021
3922 Clouds -25 1026 84 10000 2 340 13:40 09.01.2021
3923 Clouds -25 1026 84 10000 2 340 13:22 09.01.2021
3924 Clouds -25 1026 84 10000 2 350 12:27 09.01.2021
3925 Clouds -24 1026 77 10000 2 350 11:57 09.01.2021
3926 Clouds -24 1026 77 10000 2 360 11:37 09.01.2021
3927 Clouds -24 1026 77 10000 2 350 10:56 09.01.2021
3928 Clouds -24 1026 84 10000 2 330 10:37 09.01.2021
3929 Clouds -24 1026 84 10000 2 330 10:18 09.01.2021
3930 Clouds -24 1026 77 10000 1 360 09:42 09.01.2021
3931 Clouds -24 1026 77 10000 1 360 09:18 09.01.2021
3932 Clouds -27 1026 76 8000 1 340 07:47 09.01.2021
3933 Snow -27 1026 83 3500 1 350 06:42 09.01.2021
3934 Snow -27 1026 83 3500 1 350 06:23 09.01.2021
3935 Clouds -28 1026 76 7000 1 330 03:49 09.01.2021
3936 Clouds -28 1027 76 10000 1 0 02:40 09.01.2021
3937 Clouds -28 1027 76 10000 1 0 02:22 09.01.2021
3938 Clouds -28 1027 83 9000 1 0 00:49 09.01.2021
3939 Clear -26 1027 76 10000 0.47 273 00:23 09.01.2021
3940 Clear -27 1028 83 10000 0.47 273 23:38 08.01.2021
3941 Clouds -26 1028 84 10000 0.73 251 22:38 08.01.2021
3942 Clear -24 1028 84 10000 1.17 227 21:47 08.01.2021
3943 Clouds -22 1029 84 10000 1 0 20:58 08.01.2021
3944 Snow -22 1029 84 8000 1 100 20:33 08.01.2021
3945 Clouds -22 1030 84 10000 1 130 19:57 08.01.2021
3946 Snow -21 1030 84 10000 1 0 19:24 08.01.2021
3947 Snow -21 1030 84 10000 2 140 18:50 08.01.2021
3948 Snow -20 1030 84 10000 2 150 18:30 08.01.2021
3949 Snow -20 1031 84 10000 2 150 17:50 08.01.2021
3950 Snow -20 1031 84 10000 1 0 17:22 08.01.2021
3951 Snow -20 1031 84 9000 2 140 16:44 08.01.2021
3952 Snow -19 1032 84 2300 3 140 15:45 08.01.2021
3953 Snow -19 1032 84 1600 3 140 15:25 08.01.2021
3954 Snow -19 1033 84 5000 4 130 14:36 08.01.2021
3955 Snow -19 1033 84 2700 4 130 13:47 08.01.2021
3956 Snow -19 1034 84 2500 3 140 13:21 08.01.2021
3957 Snow -20 1034 84 3700 4 140 12:49 08.01.2021
3958 Snow -20 1035 84 2300 4 140 12:20 08.01.2021
3959 Snow -20 1035 84 2100 4 140 11:45 08.01.2021
3960 Snow -21 1036 84 2400 4 140 11:27 08.01.2021
3961 Snow -21 1036 84 1700 3 140 10:53 08.01.2021
3962 Snow -21 1037 77 1100 4 140 10:34 08.01.2021
3963 Snow -21 1037 77 1600 3 140 09:46 08.01.2021
3964 Snow -22 1038 84 1400 3 140 09:28 08.01.2021
3965 Snow -23 1038 84 1500 3 130 08:38 08.01.2021
3966 Snow -23 1039 77 2700 3 140 07:27 08.01.2021
3967 Clear -24 1040 84 10000 2 140 05:55 08.01.2021
3968 Mist -25 1045 77 4300 2 160 23:48 07.01.2021
3969 Clear -26 1045 76 10000 2 130 23:30 07.01.2021
3970 Clear -27 1045 83 10000 2 130 22:47 07.01.2021
3971 Clear -28 1046 83 10000 3 130 22:26 07.01.2021
3972 Clear -27 1046 76 10000 2 130 21:46 07.01.2021
3973 Clouds -27 1047 83 10000 2 130 21:27 07.01.2021
3974 Clouds -26 1047 76 10000 2 130 20:47 07.01.2021
3975 Clouds -26 1047 76 10000 2 120 20:29 07.01.2021
3976 Clouds -26 1048 76 10000 2 120 19:45 07.01.2021
3977 Clouds -28 1048 83 10000 2 100 19:23 07.01.2021
3978 Clouds -26 1049 76 10000 2 110 18:31 07.01.2021
3979 Clear -26 1049 84 10000 3 110 17:58 07.01.2021
3980 Clear -26 1050 84 10000 2 120 17:28 07.01.2021
3981 Clear -25 1050 84 10000 2 140 16:53 07.01.2021
3982 Clear -25 1051 84 10000 2 140 16:30 07.01.2021
3983 Clear -25 1051 84 10000 2 140 16:30 07.01.2021
3984 Clear -25 1051 84 10000 3 140 15:47 07.01.2021
3985 Clear -25 1051 77 10000 2 140 15:29 07.01.2021
3986 Clear -25 1051 77 10000 2 140 15:29 07.01.2021
3987 Clear -26 1052 76 10000 2 130 14:27 07.01.2021
3988 Clear -25 1052 84 10000 2 130 13:47 07.01.2021
3989 Clear -25 1052 77 10000 2 130 13:18 07.01.2021
3990 Clear -25 1053 77 10000 3 110 12:47 07.01.2021
3991 Clear -25 1053 83 10000 2 110 11:57 07.01.2021
3992 Clear -24 1054 76 10000 2 100 11:37 07.01.2021
3993 Clear -22 1054 76 10000 2 130 10:51 07.01.2021
3994 Clear -22 1054 76 10000 2 130 10:32 07.01.2021
3995 Clear -22 1054 83 10000 2 130 09:48 07.01.2021
3996 Clear -22 1055 76 10000 2 130 09:22 07.01.2021
3997 Clear -23 1055 76 10000 2 120 08:30 07.01.2021
3998 Clear -26 1055 75 10000 2 130 07:53 07.01.2021
3999 Clear -26 1055 75 10000 2 130 07:32 07.01.2021
4000 Clear -27 1055 75 10000 2 150 05:26 07.01.2021
4001 Clear -27 1056 75 10000 2 140 00:58 07.01.2021
4002 Clear -26 1056 83 10000 1 0 23:51 06.01.2021
4003 Clear -26 1056 83 10000 2 170 22:50 06.01.2021
4004 Clear -26 1057 83 10000 2 160 21:59 06.01.2021
4005 Clear -26 1057 83 10000 2 160 21:41 06.01.2021
4006 Clear -26 1057 83 10000 2 150 21:21 06.01.2021
4007 Clear -26 1057 83 10000 2 150 20:39 06.01.2021
4008 Clear -25 1057 75 10000 2 150 20:18 06.01.2021
4009 Clear -26 1057 75 10000 2 150 19:41 06.01.2021
4010 Clear -26 1057 75 10000 1 140 19:22 06.01.2021
4011 Clear -26 1057 75 10000 1 140 18:42 06.01.2021
4012 Clear -26 1057 75 10000 2 140 18:24 06.01.2021
4013 Clear -26 1057 75 10000 2 140 17:43 06.01.2021
4014 Clear -27 1057 82 9000 1 150 17:25 06.01.2021
4015 Clear -27 1057 75 7000 2 150 16:45 06.01.2021
4016 Clear -27 1057 75 6000 2 160 16:20 06.01.2021
4017 Clear -27 1057 75 6000 2 160 15:54 06.01.2021
4018 Clear -27 1058 75 6000 2 150 15:32 06.01.2021
4019 Clear -27 1058 75 6000 1 160 14:52 06.01.2021
4020 Clear -27 1058 75 6000 1 160 14:27 06.01.2021
4021 Clear -27 1058 75 7000 1 170 13:47 06.01.2021
4022 Clear -26 1058 75 7000 1 160 13:24 06.01.2021
4023 Clear -26 1058 75 6000 1 150 12:49 06.01.2021
4024 Clouds -25 1058 75 7000 2 150 12:26 06.01.2021
4025 Clear -25 1058 75 7000 2 140 11:39 06.01.2021
4026 Clear -24 1058 83 10000 2 180 11:20 06.01.2021
4027 Clear -23 1058 76 10000 2 200 10:31 06.01.2021
4028 Clear -24 1058 83 10000 2 190 09:52 06.01.2021
4029 Clear -23 1058 76 10000 1 0 09:22 06.01.2021
4030 Clear -25 1058 83 10000 2 210 08:41 06.01.2021
4031 Clear -25 1058 75 10000 2 190 08:18 06.01.2021
4032 Clear -25 1058 75 10000 2 220 07:27 06.01.2021
4033 Clear -26 1057 75 10000 1 190 05:52 06.01.2021
4034 Clear -26 1057 75 10000 2 200 04:41 06.01.2021
4035 Clear -25 1057 75 10000 2 190 02:47 06.01.2021
4036 Clear -25 1057 75 10000 2 190 02:26 06.01.2021
4037 Clear -25 1057 75 10000 1 190 01:34 06.01.2021
4038 Clear -24 1057 76 10000 2 220 23:34 05.01.2021
4039 Clear -24 1057 76 10000 2 210 22:45 05.01.2021
4040 Clear -24 1057 76 10000 2 210 22:22 05.01.2021
4041 Clear -24 1057 76 10000 2 210 21:57 05.01.2021
4042 Clear -24 1057 76 10000 3 190 20:58 05.01.2021
4043 Clear -25 1057 83 10000 3 200 20:28 05.01.2021
4044 Clear -24 1057 76 10000 3 200 19:45 05.01.2021
4045 Clear -24 1057 76 10000 3 190 19:23 05.01.2021
4046 Clear -24 1057 76 10000 4 190 18:45 05.01.2021
4047 Clear -24 1057 76 10000 4 190 18:26 05.01.2021
4048 Clear -24 1057 76 10000 4 190 17:52 05.01.2021
4049 Clear -24 1056 76 10000 4 190 17:31 05.01.2021
4050 Clear -25 1056 83 10000 3 190 16:53 05.01.2021
4051 Clear -25 1056 75 10000 3 190 16:23 05.01.2021
4052 Clear -25 1056 75 10000 3 190 15:51 05.01.2021
4053 Clear -25 1056 75 10000 3 190 15:29 05.01.2021
4054 Clear -25 1057 75 10000 4 190 14:47 05.01.2021
4055 Clear -25 1057 75 10000 2 190 13:55 05.01.2021
4056 Clear -25 1057 75 10000 2 190 13:35 05.01.2021
4057 Clear -27 1057 75 10000 2 170 12:51 05.01.2021
4058 Clear -27 1057 75 10000 2 170 12:29 05.01.2021
4059 Clear -29 1057 75 6000 1 0 11:53 05.01.2021
4060 -273 0 0 0 0 0 11:26 05.01.2021
4061 -273 0 0 0 0 0 11:26 05.01.2021
4062 Clear -28 1057 75 10000 2 170 11:26 05.01.2021
4063 Clear -27 1057 75 10000 2 180 10:44 05.01.2021
4064 Clear -27 1057 75 10000 2 180 09:59 05.01.2021
4065 Clear -27 1057 75 10000 2 200 09:40 05.01.2021
4066 Clear -28 1057 75 10000 2 200 08:45 05.01.2021
4067 Clear -29 1057 75 10000 2 190 08:18 05.01.2021
4068 Clear -32 1056 74 8000 2 170 05:29 05.01.2021
4069 Clear -32 1056 74 10000 1 0 02:56 05.01.2021
4070 Mist -32 1056 74 9000 2 160 00:23 05.01.2021
4071 Mist -32 1056 74 10000 2 150 23:40 04.01.2021
4072 Mist -31 1056 67 10000 2 140 23:21 04.01.2021
4073 Mist -32 1056 74 10000 2 150 22:45 04.01.2021
4074 Mist -32 1056 74 10000 2 140 21:58 04.01.2021
4075 Mist -32 1056 74 10000 1 0 21:39 04.01.2021
4076 Clear -31 1056 67 10000 2 160 20:58 04.01.2021
4077 Clear -31 1056 67 10000 2 160 20:34 04.01.2021
4078 Clear -31 1056 74 10000 2 160 19:59 04.01.2021
4079 Clear -31 1056 74 10000 2 150 19:40 04.01.2021
4080 Clear -31 1056 74 8000 2 160 19:19 04.01.2021
4081 Clear -31 1056 74 8000 2 160 18:40 04.01.2021
4082 Mist -32 1056 74 10000 2 160 17:48 04.01.2021
4083 Mist -32 1056 74 10000 2 160 17:28 04.01.2021
4084 Fog -31 1056 67 9000 2 150 16:57 04.01.2021
4085 Fog -31 1056 67 9000 2 150 16:38 04.01.2021
4086 Fog -31 1056 67 5000 2 160 16:20 04.01.2021
4087 Fog -31 1056 67 5000 2 160 15:41 04.01.2021
4088 Mist -31 1056 67 8000 2 150 14:54 04.01.2021
4089 Mist -31 1056 67 6000 2 150 13:56 04.01.2021
4090 Mist -32 1056 74 10000 2 150 13:35 04.01.2021
4091 Fog -31 1056 67 8000 2 160 12:51 04.01.2021
4092 Mist -31 1056 67 3500 2 160 12:25 04.01.2021
4093 Mist -32 1056 74 4400 2 140 11:39 04.01.2021
4094 Mist -31 1056 67 3500 2 140 11:18 04.01.2021
4095 Mist -32 1056 74 3300 3 140 10:42 04.01.2021
4096 Mist -32 1056 74 3300 2 130 10:21 04.01.2021
4097 Mist -31 1056 67 8000 2 140 09:25 04.01.2021
4098 Mist -31 1056 67 8000 2 140 08:57 04.01.2021
4099 Mist -32 1056 67 9000 2 150 08:22 04.01.2021
4100 Mist -33 1056 74 9000 2 150 07:46 04.01.2021
4101 Mist -33 1056 67 5000 1 0 05:36 04.01.2021
4102 Clear -33 1056 67 9000 2 130 04:56 04.01.2021
4103 Clouds -34 1057 73 10000 2 140 01:31 04.01.2021
4104 Clouds -33 1057 67 10000 1 140 23:57 03.01.2021
4105 Clouds -34 1057 73 10000 1 150 23:37 03.01.2021
4106 Clouds -33 1057 74 6000 1 150 22:57 03.01.2021
4107 Clouds -33 1057 74 10000 2 190 22:39 03.01.2021
4108 Mist -33 1057 74 5000 2 190 22:21 03.01.2021
4109 Mist -33 1057 67 5000 1 0 21:37 03.01.2021
4110 Clouds -34 1057 73 7000 1 0 20:56 03.01.2021
4111 Clouds -34 1057 66 6000 1 0 20:38 03.01.2021
4112 Clouds -32 1057 67 9000 1 0 20:18 03.01.2021
4113 Clouds -33 1057 67 10000 1 0 19:44 03.01.2021
4114 Mist -33 1057 74 5000 1 120 19:22 03.01.2021
4115 Clouds -32 1057 67 10000 1 0 18:43 03.01.2021
4116 Clouds -34 1058 73 10000 2 180 18:21 03.01.2021
4117 Clear -34 1058 66 10000 2 140 17:51 03.01.2021
4118 Clear -34 1058 66 10000 2 140 17:26 03.01.2021
4119 Clear -33 1058 74 10000 1 180 16:45 03.01.2021
4120 Clear -34 1058 66 10000 1 0 16:20 03.01.2021
4121 Clear -33 1058 74 10000 2.42 203 15:52 03.01.2021
4122 Clear -33 1058 74 10000 2.42 203 15:34 03.01.2021
4123 Clear -33 1058 74 10000 1 240 14:58 03.01.2021
4124 Clear -34 1058 73 10000 1 0 14:31 03.01.2021
4125 Clear -33 1058 74 10000 2 210 13:47 03.01.2021
4126 Clear -33 1059 74 10000 2 210 13:23 03.01.2021
4127 Clear -33 1059 74 10000 2 210 13:23 03.01.2021
4128 Clear -34 1059 73 10000 1 0 12:50 03.01.2021
4129 Clear -33 1059 74 10000 2 230 11:43 03.01.2021
4130 Clear -33 1059 74 10000 2 230 11:24 03.01.2021
4131 Clear -32 1059 74 10000 1 0 10:52 03.01.2021
4132 Clear -32 1059 74 10000 1 0 10:30 03.01.2021
4133 Clear -33 1059 74 10000 2 230 09:41 03.01.2021
4134 Clear -33 1059 74 10000 3 230 09:22 03.01.2021
4135 Clear -35 1059 66 8000 2 240 07:50 03.01.2021
4136 Clouds -36 1059 66 9000 1 0 05:58 03.01.2021
4137 Clear -36 1059 66 10000 1 0 02:28 03.01.2021
4138 Clear -36 1059 66 10000 2.13 216 01:47 03.01.2021
4139 Clear -36 1059 66 10000 2.13 216 01:47 03.01.2021
4140 Clear -37 1059 65 10000 2.34 208 00:20 03.01.2021
4141 Clear -37 1059 65 10000 2.34 208 23:30 02.01.2021
4142 Clear -38 1059 65 10000 1 0 22:56 02.01.2021
4143 Clear -39 1059 65 10000 2.24 200 22:32 02.01.2021
4144 Clear -39 1059 65 10000 2 191 21:52 02.01.2021
4145 Clear -39 1059 65 10000 2 191 21:32 02.01.2021
4146 Clear -38 1059 73 10000 1.9 192 20:55 02.01.2021
4147 Clear -37 1059 65 10000 1.9 192 20:36 02.01.2021
4148 Clear -37 1059 73 9000 1.75 184 20:18 02.01.2021
4149 Clear -37 1058 73 7000 1 70 19:20 02.01.2021
4150 Clouds -37 1058 73 6000 1.74 189 18:58 02.01.2021
4151 Clouds -37 1058 73 6000 1.72 191 18:39 02.01.2021
4152 Mist -38 1058 73 4200 1.97 190 18:19 02.01.2021
4153 Clear -38 1058 65 10000 1.97 190 17:43 02.01.2021
4154 Clear -38 1058 73 10000 1.78 190 16:58 02.01.2021
4155 Clear -37 1058 73 9000 1.54 189 16:23 02.01.2021
4156 Clear -37 1058 73 9000 1.54 189 15:54 02.01.2021
4157 Clouds -36 1057 73 6000 1.54 189 15:32 02.01.2021
4158 Clouds -36 1057 66 8000 1 80 14:55 02.01.2021
4159 Clouds -36 1057 66 8000 1 80 14:35 02.01.2021
4160 Clouds -36 1057 73 10000 1 0 13:49 02.01.2021
4161 Mist -35 1057 66 5000 1 90 13:18 02.01.2021
4162 Mist -34 1057 66 5000 1.04 172 12:43 02.01.2021
4163 Clouds -34 1057 73 8000 1 150 12:24 02.01.2021
4164 Clouds -34 1057 73 8000 1 0 11:43 02.01.2021
4165 Clouds -33 1056 74 7000 1 240 11:21 02.01.2021
4166 Clouds -32 1056 67 7000 1 0 10:42 02.01.2021
4167 Clouds -33 1056 74 7000 1 0 10:24 02.01.2021
4168 Mist -33 1056 74 2800 1.67 164 09:43 02.01.2021
4169 Mist -33 1055 74 2800 1.24 165 09:21 02.01.2021
4170 Fog -34 1055 73 400 1 90 08:49 02.01.2021
4171 Mist -34 1055 73 2100 1 120 08:19 02.01.2021
4172 Clouds -36 1054 73 10000 2 100 07:25 02.01.2021
4173 Clouds -36 1054 73 10000 2 100 06:58 02.01.2021
4174 Clouds -35 1054 73 10000 1.09 207 06:24 02.01.2021
4175 Clouds -35 1053 73 7000 2 90 04:27 02.01.2021
4176 Clouds -37 1051 65 9000 2 90 00:53 02.01.2021
4177 Clouds -37 1051 65 9000 2 90 00:33 02.01.2021
4178 Clouds -36 1051 73 8000 1 60 23:43 01.01.2021
4179 Clouds -36 1051 73 9000 1 60 23:19 01.01.2021
4180 Clouds -35 1050 66 6000 1 50 22:47 01.01.2021
4181 Clouds -35 1050 66 8000 1 0 22:22 01.01.2021
4182 Clouds -35 1050 66 9000 2 70 21:43 01.01.2021
4183 Clouds -36 1049 73 9000 2 80 21:21 01.01.2021
4184 Clouds -35 1049 73 8000 1 60 20:51 01.01.2021
4185 Clouds -35 1049 66 10000 1 60 20:19 01.01.2021
4186 Clouds -36 1049 73 10000 2 60 19:42 01.01.2021
4187 Clear -37 1048 73 10000 2 60 19:23 01.01.2021
4188 Clear -36 1048 66 10000 0.3 79 18:49 01.01.2021
4189 Clear -36 1048 66 10000 0.37 56 18:31 01.01.2021
4190 Clear -36 1048 66 10000 0.37 56 17:59 01.01.2021
4191 Clear -35 1048 66 10000 0.37 56 17:40 01.01.2021
4192 Clear -36 1048 73 10000 0.54 43 17:18 01.01.2021
4193 Clear -35 1047 73 10000 0.54 43 16:36 01.01.2021
4194 Clear -35 1047 73 10000 0.55 11 15:45 01.01.2021
4195 Clouds -34 1047 73 10000 0.51 356 14:56 01.01.2021
4196 Clouds -34 1047 73 10000 0.51 356 14:37 01.01.2021
4197 Clouds -33 1046 74 10000 0.53 341 13:46 01.01.2021
4198 Clouds -33 1046 74 10000 0.71 345 13:25 01.01.2021
4199 Clouds -33 1046 74 10000 1 340 12:43 01.01.2021
4200 Clouds -32 1046 74 10000 1 0 12:18 01.01.2021
4201 Clouds -32 1045 74 10000 1 50 11:39 01.01.2021
4202 Clouds -31 1045 74 10000 1.07 314 11:18 01.01.2021
4203 Clouds -31 1045 74 10000 1 30 10:43 01.01.2021
4204 Clouds -31 1044 74 10000 0.86 311 09:47 01.01.2021
4205 Clouds -31 1044 67 10000 1.04 313 09:21 01.01.2021
4206 Clouds -32 1044 74 10000 1.04 311 08:29 01.01.2021
4207 Clouds -33 1042 74 10000 2 310 04:53 01.01.2021
4208 Clouds -34 1041 73 10000 2 290 02:56 01.01.2021
4209 Clear -36 1041 66 10000 2 290 01:37 01.01.2021
4210 Clear -35 1041 66 10000 2 320 00:28 01.01.2021
4211 Clear -36 1041 73 10000 3 280 23:37 31.12.2020
4212 Clear -35 1040 73 10000 1 0 23:19 31.12.2020
4213 Clouds -34 1040 66 10000 2 330 22:40 31.12.2020
4214 Clear -35 1040 73 10000 2 330 22:20 31.12.2020
4215 Clear -35 1040 73 10000 2 320 21:47 31.12.2020
4216 Clear -35 1040 73 10000 2 320 21:25 31.12.2020
4217 Clouds -35 1040 73 10000 2 310 20:54 31.12.2020
4218 Clear -34 1040 66 10000 2 310 20:18 31.12.2020
4219 Clear -34 1040 66 10000 2 310 19:47 31.12.2020
4220 Clear -34 1040 66 10000 2 310 19:28 31.12.2020
4221 Clear -34 1039 66 10000 2 320 18:50 31.12.2020
4222 Clear -34 1039 66 10000 1 0 18:24 31.12.2020
4223 Clear -34 1039 73 10000 2 300 17:45 31.12.2020
4224 Clear -34 1039 73 10000 2 300 17:23 31.12.2020
4225 Clear -34 1039 73 10000 2 330 16:43 31.12.2020
4226 Clear -33 1039 67 10000 2 340 16:25 31.12.2020
4227 Clear -33 1039 74 10000 2 350 15:50 31.12.2020
4228 Clear -33 1038 74 10000 2 320 15:23 31.12.2020
4229 Clear -33 1038 74 10000 2 320 15:23 31.12.2020
4230 Clear -33 1038 74 10000 2 320 14:58 31.12.2020
4231 Clear -33 1039 74 10000 2 320 14:39 31.12.2020
4232 Clear -33 1038 74 10000 2 320 14:21 31.12.2020
4233 Clear -33 1038 74 10000 3 310 13:39 31.12.2020
4234 Clear -33 1038 74 10000 3 310 13:39 31.12.2020
4235 Clear -32 1038 67 10000 3 310 13:21 31.12.2020
4236 Clear -32 1038 74 10000 2 330 12:54 31.12.2020
4237 Clear -32 1038 74 10000 2 330 12:35 31.12.2020
4238 Clear -32 1038 74 10000 2 310 11:52 31.12.2020
4239 Clear -32 1038 74 10000 2 310 11:32 31.12.2020
4240 Clear -32 1038 74 10000 2 310 11:32 31.12.2020
4241 Clear -32 1038 74 10000 2 310 11:32 31.12.2020
4242 Clear -31 1037 74 10000 2 330 10:50 31.12.2020
4243 Clear -31 1037 74 10000 2 330 10:30 31.12.2020
4244 Clear -31 1037 74 10000 2 340 09:58 31.12.2020
4245 Clear -31 1037 74 10000 2 330 09:38 31.12.2020
4246 Clear -31 1037 74 10000 2 320 09:18 31.12.2020
4247 Clear -31 1037 74 10000 1 0 08:45 31.12.2020
4248 Clear -31 1037 74 10000 1 0 08:27 31.12.2020
4249 Clear -32 1036 74 10000 2 10 07:33 31.12.2020
4250 Clear -32 1036 74 10000 2 350 06:46 31.12.2020
4251 Clear -32 1036 67 10000 2 350 05:29 31.12.2020
4252 Clear -32 1035 74 10000 2 330 02:58 31.12.2020
4253 Clear -32 1035 74 10000 1 0 02:26 31.12.2020
4254 Clear -31 1034 74 10000 1 0 01:48 31.12.2020
4255 Clear -32 1034 74 10000 1 0 01:28 31.12.2020
4256 Clear -32 1034 74 10000 2 350 00:48 31.12.2020
4257 Clear -31 1034 74 10000 1 0 23:55 30.12.2020
4258 Clear -31 1033 74 10000 1 0 23:20 30.12.2020
4259 Clear -30 1033 74 10000 1 0 22:52 30.12.2020
4260 Clear -30 1033 74 10000 1 0 22:32 30.12.2020
4261 Clear -30 1033 74 10000 1 0 21:48 30.12.2020
4262 Clear -30 1033 74 10000 1 0 21:25 30.12.2020
4263 Clear -30 1032 74 10000 1 0 20:52 30.12.2020
4264 Clear -30 1032 74 10000 1 0 20:24 30.12.2020
4265 Clear -29 1032 75 10000 1 0 19:42 30.12.2020
4266 Clear -29 1032 75 10000 2 350 19:23 30.12.2020
4267 Clear -29 1032 75 10000 2 350 18:56 30.12.2020
4268 Clear -29 1032 82 10000 1 0 18:37 30.12.2020
4269 Clouds -28 1031 75 10000 2 50 18:18 30.12.2020
4270 Clouds -28 1031 75 10000 2 50 17:41 30.12.2020
4271 Clouds -28 1031 75 10000 1 0 17:20 30.12.2020
4272 Clouds -28 1031 75 10000 1 0 17:20 30.12.2020
4273 Clouds -28 1031 75 10000 1 0 16:37 30.12.2020
4274 Clouds -27 1031 75 10000 2 40 15:49 30.12.2020
4275 Clouds -27 1031 75 10000 1 0 15:26 30.12.2020
4276 Clear -27 1030 75 10000 1 60 14:44 30.12.2020
4277 Clear -27 1030 75 10000 2 50 14:26 30.12.2020
4278 Clear -27 1030 82 10000 2 40 13:52 30.12.2020
4279 Clear -26 1029 75 10000 1 0 12:47 30.12.2020
4280 Clouds -26 1029 75 10000 2 40 12:22 30.12.2020
4281 Clouds -26 1029 75 10000 2 40 11:39 30.12.2020
4282 Clouds -25 1029 75 10000 2 30 11:20 30.12.2020
4283 Clouds -25 1029 75 10000 2 30 10:54 30.12.2020
4284 Clouds -25 1029 75 10000 2 30 10:35 30.12.2020
4285 Clouds -25 1029 75 10000 2 30 09:53 30.12.2020
4286 Clouds -25 1029 75 10000 2 30 09:35 30.12.2020
4287 Snow -25 1028 83 10000 2 60 08:35 30.12.2020
4288 Clouds -25 1028 75 10000 2 60 07:32 30.12.2020
4289 Snow -26 1028 83 6000 3 70 06:53 30.12.2020
4290 Snow -26 1028 83 6000 3 70 06:32 30.12.2020
4291 Clouds -26 1027 83 10000 3 70 05:45 30.12.2020
4292 Clouds -26 1027 83 10000 3 70 05:27 30.12.2020
4293 Snow -25 1027 75 10000 3 80 03:28 30.12.2020
4294 Clouds -24 1026 83 10000 3 70 02:43 30.12.2020
4295 Clouds -24 1026 83 10000 3 70 02:25 30.12.2020
4296 Clouds -24 1026 83 10000 3 70 02:25 30.12.2020
4297 Clouds -25 1026 83 10000 3 70 01:33 30.12.2020
4298 Clouds -23 1026 76 10000 2 80 00:51 30.12.2020
4299 Clouds -23 1026 76 10000 2 80 00:31 30.12.2020
4300 Snow -23 1026 83 10000 2 90 23:57 29.12.2020
4301 Snow -22 1026 76 10000 3 100 23:39 29.12.2020
4302 Snow -22 1026 83 4500 3 80 23:18 29.12.2020
4303 Snow -22 1026 83 5000 3 90 22:40 29.12.2020
4304 Snow -22 1026 83 10000 4 90 22:22 29.12.2020
4305 Snow -22 1026 83 7000 4 90 21:46 29.12.2020
4306 Snow -21 1026 83 7000 4 90 21:26 29.12.2020
4307 Snow -21 1026 83 5000 4 90 20:48 29.12.2020
4308 Snow -20 1026 76 9000 4 90 20:26 29.12.2020
4309 Snow -20 1026 76 9000 4 90 19:56 29.12.2020
4310 Snow -20 1026 83 4500 4 90 19:37 29.12.2020
4311 Snow -20 1025 76 5000 4 80 19:18 29.12.2020
4312 Snow -20 1025 83 5000 4 90 18:39 29.12.2020
4313 Snow -20 1025 83 6000 3 80 18:18 29.12.2020
4314 Snow -20 1025 83 7000 3 80 17:38 29.12.2020
4315 Snow -20 1025 83 7000 3 80 17:38 29.12.2020
4316 Snow -20 1025 76 6000 3 80 17:19 29.12.2020
4317 Snow -20 1025 76 3400 3 80 16:36 29.12.2020
4318 Snow -20 1025 76 5000 3 90 15:56 29.12.2020
4319 Clear -20 1025 76 10000 3 80 15:36 29.12.2020
4320 Snow -21 1025 83 10000 3 80 14:58 29.12.2020
4321 Snow -21 1025 83 10000 3 80 14:36 29.12.2020
4322 Clouds -21 1025 83 10000 3 90 14:18 29.12.2020
4323 Clouds -21 1025 83 10000 3 90 14:18 29.12.2020
4324 Snow -20 1025 76 5000 2 100 13:39 29.12.2020
4325 Clear -21 1025 83 10000 3 90 13:18 29.12.2020
4326 Clouds -21 1025 83 10000 3 90 12:37 29.12.2020
4327 Snow -21 1025 83 10000 3 90 12:19 29.12.2020
4328 Snow -22 1025 83 10000 4 90 11:52 29.12.2020
4329 Snow -22 1025 83 10000 4 90 11:31 29.12.2020
4330 Snow -21 1025 83 10000 5 100 10:23 29.12.2020
4331 Snow -21 1025 83 10000 5 110 09:48 29.12.2020
4332 Snow -21 1025 83 6000 5 100 09:20 29.12.2020
4333 Snow -21 1025 83 7000 5 110 08:52 29.12.2020
4334 Snow -20 1025 76 6000 5 110 08:19 29.12.2020
4335 Snow -20 1024 76 4100 4 120 07:26 29.12.2020
4336 Snow -20 1025 76 7000 5 110 06:26 29.12.2020
4337 Clouds -20 1025 83 10000 5 100 03:45 29.12.2020
4338 Snow -18 1025 84 9000 4 120 00:47 29.12.2020
4339 Snow -17 1025 84 5000 4 120 00:20 29.12.2020
4340 Snow -17 1025 84 10000 4 130 23:34 28.12.2020
4341 Snow -17 1025 84 9000 5 130 22:28 28.12.2020
4342 Snow -16 1025 77 2300 6 140 21:45 28.12.2020
4343 Snow -16 1025 77 2500 5 140 21:24 28.12.2020
4344 Snow -16 1026 77 2800 6 140 20:42 28.12.2020
4345 Snow -16 1026 77 3300 6 140 20:22 28.12.2020
4346 Snow -16 1026 77 2600 6 140 19:48 28.12.2020
4347 Snow -16 1026 77 2600 6 140 19:24 28.12.2020
4348 Snow -16 1026 77 2100 6 140 18:52 28.12.2020
4349 Snow -16 1026 77 2300 6 140 18:28 28.12.2020
4350 Snow -16 1026 77 2300 6 140 18:28 28.12.2020
4351 Snow -16 1026 77 2500 6 140 17:46 28.12.2020
4352 Snow -16 1026 77 1700 7 140 17:26 28.12.2020
4353 Snow -16 1026 77 1600 6 130 16:46 28.12.2020
4354 Snow -16 1026 77 1600 6 130 16:26 28.12.2020
4355 Snow -16 1027 77 1400 6 140 15:53 28.12.2020
4356 Snow -16 1027 77 1600 6 140 15:26 28.12.2020
4357 Snow -16 1027 77 1800 6 140 14:28 28.12.2020
4358 Snow -16 1027 77 1200 7 140 13:38 28.12.2020
4359 Snow -16 1027 77 1200 6 140 13:19 28.12.2020
4360 Snow -16 1027 77 1200 6 140 12:25 28.12.2020
4361 Snow -16 1028 77 1600 6 140 11:48 28.12.2020
4362 Snow -16 1028 77 1600 6 140 11:29 28.12.2020
4363 Snow -16 1028 84 700 6 140 10:54 28.12.2020
4364 Snow -16 1028 84 700 6 140 10:28 28.12.2020
4365 Snow -16 1028 77 600 7 140 09:52 28.12.2020
4366 Snow -17 1028 84 900 6 140 09:22 28.12.2020
4367 Snow -17 1028 84 900 6 140 08:58 28.12.2020
4368 Snow -18 1028 77 1500 6 140 06:52 28.12.2020
4369 Snow -19 1029 77 1300 7 140 04:56 28.12.2020
4370 Snow -21 1030 83 2100 7 140 03:21 28.12.2020
4371 Snow -21 1031 76 1400 7 140 01:52 28.12.2020
4372 Snow -23 1033 76 1100 7 130 23:50 27.12.2020
4373 Snow -23 1034 76 900 7 130 23:20 27.12.2020
4374 Snow -23 1034 76 900 7 130 23:20 27.12.2020
4375 Snow -24 1034 76 1200 7 130 22:24 27.12.2020
4376 Snow -24 1035 76 1000 8 120 21:27 27.12.2020
4377 Snow -24 1035 76 900 7 120 20:56 27.12.2020
4378 Snow -25 1037 69 1500 8 120 19:49 27.12.2020
4379 Snow -25 1037 69 1500 8 120 19:23 27.12.2020
4380 Snow -27 1038 75 3200 8 110 18:49 27.12.2020
4381 Snow -27 1038 75 2100 7 120 18:20 27.12.2020
4382 Snow -27 1038 75 2100 7 120 18:20 27.12.2020
4383 Snow -27 1038 75 2100 7 120 17:54 27.12.2020
4384 Snow -28 1039 75 2100 6 120 17:34 27.12.2020
4385 Snow -29 1041 75 3400 5 120 16:54 27.12.2020
4386 Snow -30 1041 74 2300 5 120 16:21 27.12.2020
4387 Snow -31 1042 74 2500 5 120 15:22 27.12.2020
4388 Snow -31 1042 67 2000 5 120 14:45 27.12.2020
4389 Snow -32 1043 74 4900 5 120 14:27 27.12.2020
4390 Mist -33 1043 74 9000 6 110 13:23 27.12.2020
4391 Mist -34 1044 73 7000 6 110 12:51 27.12.2020
4392 Clouds -34 1044 66 10000 5 110 12:22 27.12.2020
4393 Clouds -35 1045 73 10000 5 110 11:40 27.12.2020
4394 Clouds -35 1045 66 9000 5 120 10:53 27.12.2020
4395 Clouds -35 1045 66 9000 5 120 10:26 27.12.2020
4396 Clouds -35 1045 66 9000 4 120 09:58 27.12.2020
4397 Mist -36 1046 66 3100 4 110 08:50 27.12.2020
4398 Mist -37 1046 73 1200 4 120 08:26 27.12.2020
4399 Mist -37 1047 65 5000 3 120 07:28 27.12.2020
4400 Mist -39 1047 65 4400 4 120 05:46 27.12.2020
4401 Mist -40 1048 65 4400 4 100 04:58 27.12.2020
4402 Mist -41 1048 64 2300 4 90 03:22 27.12.2020
4403 Mist -41 1048 64 2600 3 90 01:46 27.12.2020
4404 Mist -41 1048 64 2200 4 90 00:25 27.12.2020
4405 Mist -41 1048 64 2200 3 90 23:41 26.12.2020
4406 Mist -41 1048 64 2600 3 90 23:21 26.12.2020
4407 Mist -41 1048 64 2500 3 90 22:38 26.12.2020
4408 Mist -41 1048 64 2600 3 90 22:18 26.12.2020
4409 Mist -41 1048 64 2600 3 90 22:18 26.12.2020
4410 Mist -41 1048 72 3200 3 90 21:52 26.12.2020
4411 Mist -41 1048 64 2300 3 90 21:24 26.12.2020
4412 Mist -41 1048 64 1800 3 80 20:43 26.12.2020
4413 Mist -41 1048 64 1900 3 90 20:20 26.12.2020
4414 Mist -42 1048 64 1800 3 90 19:30 26.12.2020
4415 Mist -41 1048 64 2900 3 100 18:54 26.12.2020
4416 Mist -41 1048 64 1800 3 90 18:32 26.12.2020
4417 Fog -41 1048 64 1500 3 90 17:46 26.12.2020
4418 Mist -42 1048 64 2800 2 90 17:27 26.12.2020
4419 Mist -42 1047 64 4800 2 90 16:38 26.12.2020
4420 Clouds -42 1047 64 6000 3 100 15:58 26.12.2020
4421 Clouds -42 1047 64 7000 3 100 15:20 26.12.2020
4422 Clouds -42 1047 64 10000 3 90 14:30 26.12.2020
4423 Clouds -42 1047 64 10000 2 80 13:57 26.12.2020
4424 Clouds -41 1047 64 10000 2 90 13:36 26.12.2020
4425 Clouds -41 1047 64 8000 3 90 12:53 26.12.2020
4426 Clouds -41 1047 64 8000 3 90 12:35 26.12.2020
4427 Clear -41 1047 64 9000 1 0 11:59 26.12.2020
4428 Clear -41 1047 64 10000 1 0 11:41 26.12.2020
4429 Clear -41 1046 64 10000 2 60 11:19 26.12.2020
4430 Clouds -41 1046 64 10000 2 60 10:43 26.12.2020
4431 Clear -41 1046 64 10000 1 60 10:23 26.12.2020
4432 Clouds -42 1046 72 10000 2 60 09:41 26.12.2020
4433 Mist -42 1046 64 9000 1 0 08:54 26.12.2020
4434 Fog -42 1046 64 250 1.84 102 08:18 26.12.2020
4435 Fog -42 1045 64 150 1 0 07:20 26.12.2020
4436 Mist -43 1044 64 9000 2 70 03:54 26.12.2020
4437 Fog -43 1044 64 350 1 70 02:34 26.12.2020
4438 Mist -43 1043 64 4600 0.33 84 00:28 26.12.2020
4439 Mist -43 1043 64 9000 0.33 84 23:46 25.12.2020
4440 Mist -43 1043 64 9000 0.13 140 23:27 25.12.2020
4441 Fog -43 1043 64 2200 0.13 140 22:51 25.12.2020
4442 Fog -43 1043 64 2200 0.19 111 22:26 25.12.2020
4443 Mist -43 1043 64 7000 0.19 111 21:41 25.12.2020
4444 Mist -44 1043 63 5000 0.26 228 21:23 25.12.2020
4445 Clear -43 1042 64 10000 1 0 20:39 25.12.2020
4446 Clouds -43 1043 64 7000 1 280 19:54 25.12.2020
4447 Clouds -43 1043 64 7000 1 280 19:36 25.12.2020
4448 Mist -43 1042 64 3200 1 290 18:39 25.12.2020
4449 Mist -43 1042 64 4200 0.38 63 17:58 25.12.2020
4450 Mist -42 1042 64 4800 1 0 17:35 25.12.2020
4451 Mist -42 1041 64 5000 1 310 16:49 25.12.2020
4452 Clear -42 1041 64 7000 1 0 16:21 25.12.2020
4453 Mist -42 1041 64 4800 2 290 15:46 25.12.2020
4454 Mist -42 1041 64 6000 1 300 15:22 25.12.2020
4455 Mist -42 1041 64 5000 2 290 14:32 25.12.2020
4456 Clear -41 1041 64 8000 1 0 13:48 25.12.2020
4457 Clouds -41 1041 64 8000 1 0 13:26 25.12.2020
4458 Clear -41 1040 64 10000 1 0 12:56 25.12.2020
4459 Clear -41 1040 64 10000 1 0 12:27 25.12.2020
4460 Clear -41 1040 64 10000 1 320 11:46 25.12.2020
4461 Clear -41 1039 64 10000 2 300 11:23 25.12.2020
4462 Clear -41 1039 64 10000 3 290 10:40 25.12.2020
4463 Clear -41 1038 64 10000 2 320 09:49 25.12.2020
4464 Clear -42 1038 64 10000 2 300 08:53 25.12.2020
4465 Clear -42 1038 64 10000 2 300 08:35 25.12.2020
4466 Clouds -42 1037 64 9000 2 300 06:51 25.12.2020
4467 Clear -42 1036 64 10000 2 310 06:21 25.12.2020
4468 Clouds -41 1034 64 9000 2 10 02:23 25.12.2020
4469 Clouds -40 1033 65 8000 3 360 00:32 25.12.2020
4470 Clouds -39 1031 65 10000 3 360 23:32 24.12.2020
4471 Clouds -39 1031 65 10000 3 360 22:55 24.12.2020
4472 Clouds -38 1030 65 7000 4 350 22:25 24.12.2020
4473 Clouds -38 1030 65 9000 3 350 21:52 24.12.2020
4474 Clouds -37 1029 65 8000 4 360 20:59 24.12.2020
4475 Clouds -37 1028 73 10000 4 350 19:54 24.12.2020
4476 Clouds -36 1027 66 10000 4 350 18:22 24.12.2020
4477 Clear -36 1026 66 10000 4 360 17:39 24.12.2020
4478 Clouds -35 1026 66 10000 4 360 17:21 24.12.2020
4479 Clear -35 1025 73 10000 4 350 16:25 24.12.2020
4480 Clear -34 1025 66 10000 4 360 15:49 24.12.2020
4481 Clear -34 1025 66 10000 4 360 15:26 24.12.2020
4482 Clear -33 1024 67 10000 4 360 14:57 24.12.2020
4483 Clouds -33 1024 67 10000 4 360 14:38 24.12.2020
4484 Clear -33 1024 67 10000 4 10 14:19 24.12.2020
4485 Clear -33 1023 67 10000 4 360 13:39 24.12.2020
4486 Clouds -34 1023 73 10000 3 360 13:18 24.12.2020
4487 Snow -34 1023 66 4300 3 350 12:40 24.12.2020
4488 Snow -34 1022 66 4900 4 350 12:18 24.12.2020
4489 Snow -34 1022 73 9000 4 350 11:38 24.12.2020
4490 Snow -33 1021 74 8000 4 350 11:19 24.12.2020
4491 Snow -32 1021 74 7000 4 350 10:43 24.12.2020
4492 Snow -31 1020 74 9000 3 10 10:20 24.12.2020
4493 Snow -30 1020 67 10000 4 350 09:50 24.12.2020
4494 Snow -30 1019 67 9000 3 10 08:58 24.12.2020
4495 Snow -30 1019 67 9000 3 20 07:56 24.12.2020
4496 Clear -31 1019 74 10000 3 10 07:37 24.12.2020
4497 Clear -31 1018 74 10000 2 20 06:27 24.12.2020
4498 Clear -31 1016 74 10000 3 30 03:51 24.12.2020
4499 Clear -29 1015 68 10000 4 30 01:52 24.12.2020
4500 Clear -29 1014 75 10000 4 40 01:23 24.12.2020
4501 Clear -28 1014 75 10000 4 40 00:43 24.12.2020
4502 Clear -27 1014 68 10000 4 30 00:19 24.12.2020
4503 Clear -27 1014 75 10000 4 30 23:40 23.12.2020
4504 Clear -26 1013 75 10000 4 30 23:21 23.12.2020
4505 Snow -26 1013 75 10000 3 50 22:48 23.12.2020
4506 Snow -26 1013 75 5000 4 40 22:26 23.12.2020
4507 Clear -25 1013 75 10000 4 30 21:46 23.12.2020
4508 Clear -25 1012 75 10000 3 30 21:22 23.12.2020
4509 Clear -24 1012 76 10000 3 40 20:46 23.12.2020
4510 Clear -24 1012 76 10000 3 50 20:28 23.12.2020
4511 Clear -24 1012 76 10000 3 40 19:45 23.12.2020
4512 Clear -24 1012 83 10000 3 50 19:24 23.12.2020
4513 Clear -24 1012 83 10000 3 50 18:56 23.12.2020
4514 Clear -24 1011 83 10000 3 50 18:36 23.12.2020
4515 Snow -23 1011 76 10000 3 50 17:57 23.12.2020
4516 Snow -22 1011 76 3000 4 80 17:36 23.12.2020
4517 Snow -22 1011 76 3000 4 80 17:18 23.12.2020
4518 Snow -22 1011 76 4800 5 80 16:39 23.12.2020
4519 Snow -22 1011 76 4100 5 80 16:21 23.12.2020
4520 Snow -22 1011 76 7000 4 80 15:40 23.12.2020
4521 Snow -22 1010 76 5000 5 80 15:22 23.12.2020
4522 Snow -22 1011 76 4400 5 80 14:52 23.12.2020
4523 Snow -22 1011 76 3800 4 70 14:25 23.12.2020
4524 Snow -22 1011 76 3800 4 70 13:58 23.12.2020
4525 Snow -22 1010 76 7000 6 80 13:39 23.12.2020
4526 Snow -22 1010 76 9000 6 80 13:18 23.12.2020
4527 Snow -22 1010 76 8000 4 80 12:46 23.12.2020
4528 Snow -22 1010 76 7000 5 80 12:21 23.12.2020
4529 Snow -22 1010 76 5000 5 90 11:45 23.12.2020
4530 Snow -22 1010 76 2400 5 100 10:58 23.12.2020
4531 Clouds -22 1010 76 10000 5 100 10:40 23.12.2020
4532 Snow -23 1010 83 9000 6 90 10:21 23.12.2020
4533 Snow -23 1010 83 4500 5 90 09:27 23.12.2020
4534 Snow -23 1010 76 10000 5 90 08:42 23.12.2020
4535 Snow -23 1010 76 9000 5 90 08:18 23.12.2020
4536 Snow -23 1011 76 4100 5 100 07:21 23.12.2020
4537 Snow -23 1011 76 3200 5 100 06:39 23.12.2020
4538 Snow -23 1011 76 3900 5 110 05:26 23.12.2020
4539 Snow -23 1012 83 2600 5 100 04:51 23.12.2020
4540 Clear -25 1014 83 10000 4 100 00:34 23.12.2020
4541 Snow -26 1015 83 10000 4 100 23:48 22.12.2020
4542 Snow -26 1015 83 10000 4 100 23:28 22.12.2020
4543 Clear -26 1016 75 10000 3 100 22:44 22.12.2020
4544 Clear -26 1016 75 10000 3 100 22:25 22.12.2020
4545 Clouds -26 1017 75 10000 3 110 21:57 22.12.2020
4546 Clouds -26 1017 75 10000 3 110 21:38 22.12.2020
4547 Clouds -26 1017 75 10000 3 100 21:18 22.12.2020
4548 Clouds -26 1017 75 10000 3 100 20:47 22.12.2020
4549 Clouds -26 1017 75 10000 2 120 20:21 22.12.2020
4550 Clouds -26 1018 75 10000 2 110 19:44 22.12.2020
4551 Clouds -26 1018 75 10000 2 110 19:21 22.12.2020
4552 Clouds -26 1018 83 10000 3 90 18:54 22.12.2020
4553 Clouds -26 1018 83 10000 3 90 18:30 22.12.2020
4554 Clouds -28 1018 75 10000 4 90 17:57 22.12.2020
4555 Clouds -28 1018 82 10000 1 90 17:26 22.12.2020
4556 Clouds -27 1018 75 10000 2.81 112 16:56 22.12.2020
4557 Clouds -27 1018 75 10000 2.81 112 16:37 22.12.2020
4558 Clouds -28 1019 82 10000 2.75 111 16:19 22.12.2020
4559 Clouds -28 1019 75 10000 2.75 111 15:42 22.12.2020
4560 Clouds -28 1019 75 10000 2.47 105 15:21 22.12.2020
4561 Clouds -28 1019 82 10000 2.47 105 14:45 22.12.2020
4562 Clear -28 1019 75 10000 1.92 101 14:26 22.12.2020
4563 Clear -28 1019 75 10000 1.92 101 13:48 22.12.2020
4564 Mist -28 1019 75 5000 1.19 104 13:19 22.12.2020
4565 Mist -28 1019 75 5000 1.19 104 12:57 22.12.2020
4566 Clear -27 1019 82 10000 1.51 117 12:38 22.12.2020
4567 Mist -28 1019 82 5000 0.94 131 12:19 22.12.2020
4568 Clouds -26 1019 75 8000 0.94 131 11:42 22.12.2020
4569 Clear -26 1019 75 10000 1 0 11:22 22.12.2020
4570 Snow -26 1019 83 10000 0.7 197 10:55 22.12.2020
4571 Snow -25 1019 75 10000 1 0 10:27 22.12.2020
4572 Snow -25 1019 75 10000 1 0 09:58 22.12.2020
4573 Snow -25 1019 83 6000 2 240 09:30 22.12.2020
4574 Clouds -25 1020 83 10000 3 240 08:57 22.12.2020
4575 Clouds -25 1020 75 10000 2 240 08:38 22.12.2020
4576 Clouds -25 1020 83 10000 3 250 07:57 22.12.2020
4577 Snow -25 1019 75 5000 3 260 07:27 22.12.2020
4578 Snow -26 1020 83 10000 4 250 06:32 22.12.2020
4579 Snow -27 1020 75 7000 3 240 05:30 22.12.2020
4580 Clear -31 1021 74 10000 4 280 02:24 22.12.2020
4581 Clouds -33 1022 74 10000 2 290 00:25 22.12.2020
4582 Clear -34 1022 81 10000 3 280 23:46 21.12.2020
4583 Clear -33 1022 74 10000 4 290 23:22 21.12.2020
4584 Clear -33 1022 74 10000 3 280 22:37 21.12.2020
4585 Clear -33 1022 74 10000 3 280 22:19 21.12.2020
4586 Clear -33 1023 74 10000 4 280 21:47 21.12.2020
4587 Clear -33 1023 74 10000 4 280 21:28 21.12.2020
4588 Clear -33 1022 82 10000 3 280 20:45 21.12.2020
4589 Clear -32 1022 74 10000 2 290 20:21 21.12.2020
4590 Clear -32 1022 74 10000 2 300 19:47 21.12.2020
4591 Clear -32 1022 74 10000 3 290 19:22 21.12.2020
4592 Clear -32 1022 74 10000 3 290 18:59 21.12.2020
4593 Clear -31 1022 74 10000 3 300 18:41 21.12.2020
4594 Clear -31 1022 74 10000 3 300 18:23 21.12.2020
4595 Clear -31 1021 74 10000 3 290 17:42 21.12.2020
4596 Clear -31 1021 74 10000 3 290 17:23 21.12.2020
4597 Clear -30 1021 74 10000 4 320 16:45 21.12.2020
4598 Clear -29 1021 75 10000 4 320 16:21 21.12.2020
4599 Clear -29 1021 75 10000 4 330 15:43 21.12.2020
4600 Clear -28 1020 75 10000 4 330 14:58 21.12.2020
4601 Clear -28 1020 75 10000 4 330 14:36 21.12.2020
4602 Clear -28 1020 75 10000 4 330 14:18 21.12.2020
4603 Clear -27 1020 75 10000 4 330 13:40 21.12.2020
4604 Clear -26 1019 75 10000 4 330 13:21 21.12.2020
4605 Clear -26 1019 75 10000 4 320 12:42 21.12.2020
4606 Clear -25 1018 75 10000 4 320 12:22 21.12.2020
4607 Clouds -24 1017 69 10000 5 320 11:43 21.12.2020
4608 Clouds -23 1017 76 10000 6 330 11:22 21.12.2020
4609 Clouds -23 1017 76 10000 6 330 10:58 21.12.2020
4610 Clouds -23 1016 76 10000 6 330 10:39 21.12.2020
4611 Clouds -23 1016 76 10000 6 320 09:56 21.12.2020
4612 Clouds -22 1016 69 10000 6 320 09:38 21.12.2020
4613 Clouds -21 1015 70 10000 6 330 09:20 21.12.2020
4614 Snow -21 1014 83 8000 6 330 08:26 21.12.2020
4615 Snow -15 1012 77 8000 5 320 07:19 21.12.2020
4616 Clouds -15 1011 84 10000 5 320 05:39 21.12.2020
4617 Snow -15 1010 84 9000 5 330 04:30 21.12.2020
4618 Snow -13 1007 84 6000 6 290 00:37 21.12.2020
4619 Snow -12 1007 85 7000 6 280 23:50 20.12.2020
4620 Snow -12 1007 85 4300 6 290 23:21 20.12.2020
4621 Snow -12 1006 85 8000 5 280 22:45 20.12.2020
4622 Snow -13 1006 84 10000 5 280 22:23 20.12.2020
4623 Snow -13 1006 84 10000 5 280 21:55 20.12.2020
4624 Snow -12 1006 85 9000 5 270 21:37 20.12.2020
4625 Snow -12 1006 85 7000 5 270 21:18 20.12.2020
4626 Snow -12 1006 85 7000 6 260 20:42 20.12.2020
4627 Snow -12 1006 85 4000 5 270 20:21 20.12.2020
4628 Snow -12 1006 85 4000 5 250 19:42 20.12.2020
4629 Snow -13 1006 92 5000 6 250 19:20 20.12.2020
4630 Snow -13 1006 84 4700 5 250 18:54 20.12.2020
4631 Snow -13 1006 84 4700 5 250 18:35 20.12.2020
4632 Snow -13 1007 84 9000 6 250 17:47 20.12.2020
4633 Snow -13 1007 84 9000 6 250 17:28 20.12.2020
4634 Snow -13 1007 84 4400 6 250 16:49 20.12.2020
4635 Snow -13 1007 84 6000 7 250 16:30 20.12.2020
4636 Snow -13 1007 84 9000 6 250 15:52 20.12.2020
4637 Snow -13 1007 84 9000 6 250 15:30 20.12.2020
4638 Snow -13 1007 84 7000 6 250 14:58 20.12.2020
4639 Snow -13 1008 84 10000 6 250 14:36 20.12.2020
4640 Snow -13 1008 78 10000 6 250 13:57 20.12.2020
4641 Snow -13 1008 78 10000 6 240 13:37 20.12.2020
4642 Snow -14 1008 84 9000 5 240 13:18 20.12.2020
4643 Snow -14 1009 84 10000 6 240 12:44 20.12.2020
4644 Snow -14 1009 77 10000 6 240 12:22 20.12.2020
4645 Snow -15 1009 84 10000 5 230 11:49 20.12.2020
4646 Clouds -16 1010 84 10000 5 230 11:26 20.12.2020
4647 Clouds -16 1010 77 10000 4 230 10:49 20.12.2020
4648 Clear -17 1011 84 10000 4 230 10:21 20.12.2020
4649 Clear -17 1011 77 10000 4 230 09:47 20.12.2020
4650 Clear -17 1011 77 10000 4 230 09:29 20.12.2020
4651 Clear -17 1012 84 10000 4 230 08:59 20.12.2020
4652 Clear -18 1012 84 10000 4 230 08:40 20.12.2020
4653 Clear -18 1013 84 10000 4 240 07:59 20.12.2020
4654 Clear -19 1014 77 10000 4 240 07:19 20.12.2020
4655 Clear -20 1017 83 10000 5 250 02:41 20.12.2020
4656 Clear -20 1018 83 10000 5 250 00:53 20.12.2020
4657 Clear -20 1018 83 10000 5 250 23:36 19.12.2020
4658 Clear -19 1018 84 10000 5 250 23:18 19.12.2020
4659 Clear -19 1018 84 10000 5 250 22:42 19.12.2020
4660 Clear -19 1019 84 10000 5 250 22:24 19.12.2020
4661 Clear -19 1019 84 10000 5 250 21:45 19.12.2020
4662 Clear -19 1019 84 10000 5 250 21:26 19.12.2020
4663 Snow -19 1019 84 10000 5 250 20:58 19.12.2020
4664 Clear -20 1019 83 10000 4 240 20:24 19.12.2020
4665 Clear -20 1019 83 10000 4 240 19:59 19.12.2020
4666 Clear -20 1020 83 10000 6 250 19:41 19.12.2020
4667 Snow -21 1020 83 10000 6 250 19:21 19.12.2020
4668 Snow -21 1020 76 7000 5 250 18:33 19.12.2020
4669 Clouds -23 1021 76 9000 3 240 17:56 19.12.2020
4670 Clouds -23 1021 76 9000 3 240 17:32 19.12.2020
4671 Clouds -24 1021 76 9000 3 240 16:59 19.12.2020
4672 Clouds -24 1021 76 10000 4 250 16:39 19.12.2020
4673 Clouds -25 1021 83 10000 2 210 16:21 19.12.2020
4674 Clear -25 1021 83 10000 3 250 15:49 19.12.2020
4675 Clear -26 1022 83 10000 3 270 15:21 19.12.2020
4676 Clear -27 1022 75 10000 4 280 14:38 19.12.2020
4677 Clear -27 1022 82 10000 4 280 13:58 19.12.2020
4678 Clear -27 1022 82 10000 4 280 13:37 19.12.2020
4679 Clear -26 1022 75 10000 4 280 13:18 19.12.2020
4680 Clear -27 1022 82 10000 4 280 12:42 19.12.2020
4681 Clear -26 1022 75 10000 5 290 12:24 19.12.2020
4682 Clear -26 1021 75 10000 4 280 11:53 19.12.2020
4683 Clear -26 1021 75 10000 4 280 11:32 19.12.2020
4684 Clear -25 1020 83 10000 4 290 10:42 19.12.2020
4685 Clear -25 1020 83 10000 5 290 10:19 19.12.2020
4686 Clear -25 1019 83 10000 4 290 09:42 19.12.2020
4687 Clear -25 1019 75 10000 4 290 08:59 19.12.2020
4688 Clear -25 1018 75 10000 4 290 08:20 19.12.2020
4689 Clear -26 1017 75 10000 5 300 07:20 19.12.2020
4690 Clear -26 1017 75 10000 4 290 06:50 19.12.2020
4691 Clear -26 1016 75 10000 5 300 05:24 19.12.2020
4692 Clear -26 1014 83 10000 4 290 03:50 19.12.2020
4693 Clear -24 1012 76 10000 5 300 00:49 19.12.2020
4694 Clear -24 1012 83 10000 5 310 00:22 19.12.2020
4695 Clear -23 1011 76 10000 4 310 23:57 18.12.2020
4696 Clear -23 1011 76 10000 4 310 23:39 18.12.2020
4697 Clear -22 1011 76 10000 5 320 23:18 18.12.2020
4698 Clear -22 1010 76 10000 4 320 22:42 18.12.2020
4699 Clear -21 1010 76 10000 4 320 22:20 18.12.2020
4700 Clear -21 1009 76 10000 5 340 21:46 18.12.2020
4701 Clear -20 1009 70 10000 6 340 21:28 18.12.2020
4702 Clear -19 1008 70 10000 6 350 20:27 18.12.2020
4703 Clear -18 1007 70 10000 6 360 19:52 18.12.2020
4704 Clear -17 1007 64 10000 6 360 19:27 18.12.2020
4705 Clear -17 1007 70 10000 6 360 18:54 18.12.2020
4706 Clear -17 1007 70 10000 6 360 18:36 18.12.2020
4707 Clouds -16 1007 65 10000 6 360 18:18 18.12.2020
4708 Snow -16 1006 77 3800 6 360 17:22 18.12.2020
4709 Snow -15 1006 84 2800 6 360 16:49 18.12.2020
4710 Snow -14 1006 84 1800 5 360 16:27 18.12.2020
4711 Snow -14 1006 84 1800 5 360 15:56 18.12.2020
4712 Snow -14 1005 84 2500 6 20 15:38 18.12.2020
4713 Snow -13 1005 84 4500 6 10 15:20 18.12.2020
4714 Snow -12 1005 92 1600 5 10 14:54 18.12.2020
4715 Snow -10 1005 92 1800 6 360 14:21 18.12.2020
4716 Snow -10 1005 92 2500 5 10 13:46 18.12.2020
4717 Snow -10 1005 92 3300 4 20 13:24 18.12.2020
4718 Snow -9 1005 85 3900 4 10 12:46 18.12.2020
4719 Snow -9 1005 100 1700 3 10 11:45 18.12.2020
4720 Snow -8 1005 92 4300 3 10 11:22 18.12.2020
4721 Snow -8 1005 100 2400 2 330 10:39 18.12.2020
4722 Snow -8 1005 100 4900 2 310 10:20 18.12.2020
4723 Snow -8 1005 100 4900 2 310 10:20 18.12.2020
4724 Snow -8 1005 100 4800 2 290 09:38 18.12.2020
4725 Snow -7 1005 92 3000 2 250 09:20 18.12.2020
4726 Snow -7 1005 92 3000 2 250 08:53 18.12.2020
4727 Snow -8 1005 100 5000 2 250 08:29 18.12.2020
4728 Snow -7 1006 100 2800 3 240 07:36 18.12.2020
4729 Snow -7 1006 100 3000 3 240 07:18 18.12.2020
4730 Snow -8 1006 100 1600 3 240 06:42 18.12.2020
4731 Snow -8 1006 100 2500 3 240 05:38 18.12.2020
4732 Snow -8 1006 100 1400 4 240 04:51 18.12.2020
4733 Snow -8 1007 92 2300 5 240 01:57 18.12.2020
4734 Snow -8 1007 92 2800 5 230 01:37 18.12.2020
4735 Snow -9 1008 92 1700 5 230 23:58 17.12.2020
4736 Snow -9 1008 92 3300 5 230 23:25 17.12.2020
4737 Snow -9 1008 92 2700 5 230 22:52 17.12.2020
4738 Snow -9 1008 92 2700 5 230 22:28 17.12.2020
4739 Snow -9 1008 92 2700 5 230 22:28 17.12.2020
4740 Snow -9 1008 92 2300 5 230 21:55 17.12.2020
4741 Snow -9 1008 92 9000 6 230 21:37 17.12.2020
4742 Clouds -9 1009 92 10000 6 240 21:18 17.12.2020
4743 Clouds -9 1009 92 10000 6 240 21:18 17.12.2020
4744 Clouds -9 1009 92 10000 6 240 20:41 17.12.2020
4745 Snow -8 1009 85 10000 6 240 20:19 17.12.2020
4746 Snow -8 1009 92 10000 5 240 19:47 17.12.2020
4747 Snow -8 1009 92 10000 5 250 19:24 17.12.2020
4748 Snow -8 1009 92 10000 5 250 18:42 17.12.2020
4749 Snow -8 1009 92 10000 7 260 18:23 17.12.2020
4750 Snow -7 1009 85 10000 7 260 17:53 17.12.2020
4751 Snow -7 1009 85 10000 7 260 17:32 17.12.2020
4752 Snow -7 1009 85 10000 7 250 16:46 17.12.2020
4753 Clouds -7 1009 85 10000 7 250 16:27 17.12.2020
4754 Clouds -7 1009 85 10000 7 250 15:56 17.12.2020
4755 Snow -7 1009 92 10000 6 260 15:34 17.12.2020
4756 Snow -6 1009 85 9000 6 250 14:55 17.12.2020
4757 Clouds -7 1009 92 10000 7 270 14:35 17.12.2020
4758 Clouds -7 1009 92 10000 7 270 13:58 17.12.2020
4759 Snow -6 1009 92 9000 6 250 13:39 17.12.2020
4760 Snow -6 1009 92 9000 5 250 12:56 17.12.2020
4761 Snow -6 1009 92 8000 4 240 12:33 17.12.2020
4762 Snow -7 1009 100 4900 4 240 11:47 17.12.2020
4763 Snow -7 1009 100 4900 4 240 11:26 17.12.2020
4764 Snow -7 1009 100 8000 4 240 10:57 17.12.2020
4765 Snow -7 1009 100 8000 4 240 10:33 17.12.2020
4766 Snow -7 1009 100 8000 5 240 09:36 17.12.2020
4767 Snow -8 1009 100 9000 4 220 08:39 17.12.2020
4768 Snow -9 1009 100 10000 4 220 07:40 17.12.2020
4769 Snow -9 1009 100 3100 4 220 07:18 17.12.2020
4770 Snow -9 1010 100 6000 4 220 06:44 17.12.2020
4771 Snow -9 1010 100 6000 4 220 06:26 17.12.2020
4772 Snow -11 1012 100 10000 3 200 01:41 17.12.2020
4773 Clouds -11 1013 92 10000 4 200 00:19 17.12.2020
4774 Clear -11 1013 100 10000 4 200 23:38 16.12.2020
4775 Clouds -11 1013 100 10000 4 200 23:18 16.12.2020
4776 Clouds -11 1014 100 10000 4 200 22:47 16.12.2020
4777 Clouds -11 1014 100 10000 4 200 22:27 16.12.2020
4778 Clouds -10 1015 100 10000 4 210 21:41 16.12.2020
4779 Clouds -9 1015 100 10000 4 200 21:21 16.12.2020
4780 Clouds -9 1015 100 10000 4 200 20:46 16.12.2020
4781 Clouds -9 1016 100 10000 3 200 20:20 16.12.2020
4782 Clouds -9 1016 100 10000 4 200 19:37 16.12.2020
4783 Clouds -10 1016 100 10000 4 200 19:18 16.12.2020
4784 Clouds -10 1017 100 10000 3 190 18:42 16.12.2020
4785 Clouds -11 1017 100 10000 2 200 18:22 16.12.2020
4786 Clouds -11 1018 92 10000 2 200 17:35 16.12.2020
4787 Snow -12 1018 92 10000 2 200 16:42 16.12.2020
4788 Snow -11 1019 92 7000 4 240 16:22 16.12.2020
4789 Snow -11 1019 92 9000 4 210 15:54 16.12.2020
4790 Snow -11 1019 92 9000 4 210 15:36 16.12.2020
4791 Snow -12 1020 100 6000 1 0 14:56 16.12.2020
4792 Snow -12 1020 100 6000 1 0 14:37 16.12.2020
4793 Snow -15 1020 92 6000 1 0 14:19 16.12.2020
4794 Snow -13 1020 92 7000 1 240 13:39 16.12.2020
4795 Snow -13 1020 92 5000 1 0 13:19 16.12.2020
4796 Clouds -14 1020 92 6000 1 240 12:42 16.12.2020
4797 Clouds -15 1020 100 10000 2 210 11:49 16.12.2020
4798 Clouds -14 1021 92 10000 1 0 11:23 16.12.2020
4799 Clouds -13 1021 92 10000 1 0 10:53 16.12.2020
4800 Clouds -13 1021 92 10000 1 0 10:27 16.12.2020
4801 Clouds -13 1021 92 10000 1 0 10:27 16.12.2020
4802 Snow -12 1021 92 9000 2 200 09:54 16.12.2020
4803 Snow -12 1021 92 9000 1 0 09:24 16.12.2020
4804 Snow -13 1021 84 6000 2 150 08:22 16.12.2020
4805 Snow -14 1021 92 4300 2 150 07:42 16.12.2020
4806 Snow -14 1022 84 3500 2 150 07:20 16.12.2020
4807 Snow -17 1024 91 1400 3 140 03:35 16.12.2020
4808 Snow -20 1026 83 1400 4 130 01:57 16.12.2020
4809 Snow -21 1029 83 5000 3 140 23:46 15.12.2020
4810 Clouds -22 1030 83 10000 3 150 23:18 15.12.2020
4811 Clear -22 1030 83 10000 3 150 22:40 15.12.2020
4812 Clear -23 1030 83 10000 3 140 22:20 15.12.2020
4813 Clear -23 1031 83 10000 3 150 21:45 15.12.2020
4814 Clear -23 1031 83 10000 3 150 21:22 15.12.2020
4815 Clouds -25 1031 83 10000 2 110 20:45 15.12.2020
4816 Clouds -25 1032 83 10000 3 120 20:26 15.12.2020
4817 Clouds -25 1032 83 10000 3 120 19:55 15.12.2020
4818 Clouds -25 1032 83 10000 3 120 19:30 15.12.2020
4819 Clouds -26 1032 83 10000 3 90 18:40 15.12.2020
4820 Clouds -26 1032 83 10000 4 100 18:22 15.12.2020
4821 Clouds -26 1032 83 10000 4 100 17:56 15.12.2020
4822 Clouds -25 1032 75 10000 4 110 17:37 15.12.2020
4823 Clouds -26 1033 83 10000 4 100 17:18 15.12.2020
4824 Clouds -27 1033 82 10000 3 100 16:32 15.12.2020
4825 Clouds -26 1033 83 10000 3 100 15:50 15.12.2020
4826 Clouds -26 1033 75 10000 3 100 15:28 15.12.2020
4827 Clear -26 1033 83 10000 2 90 14:44 15.12.2020
4828 Clear -26 1033 83 10000 2 80 14:21 15.12.2020
4829 Clear -25 1033 75 10000 2 80 13:51 15.12.2020
4830 Clear -25 1033 75 10000 2 80 13:32 15.12.2020
4831 Clear -24 1032 83 10000 2 60 12:47 15.12.2020
4832 Clear -24 1032 83 10000 2 60 12:47 15.12.2020
4833 Clear -24 1032 83 10000 2 50 12:20 15.12.2020
4834 Clear -24 1032 83 10000 2 50 11:55 15.12.2020
4835 Clear -22 1031 76 10000 1 0 11:26 15.12.2020
4836 Clear -22 1031 83 10000 2 350 10:53 15.12.2020
4837 Clear -21 1030 76 10000 2 360 10:24 15.12.2020
4838 Clear -21 1030 83 10000 2 20 09:50 15.12.2020
4839 Clear -21 1030 83 10000 2 20 09:32 15.12.2020
4840 Clear -20 1029 76 10000 3 30 08:49 15.12.2020
4841 Clear -20 1029 76 10000 3 30 08:26 15.12.2020
4842 Clear -20 1028 83 10000 2 20 07:49 15.12.2020
4843 Clear -20 1028 83 10000 2 20 07:24 15.12.2020
4844 Clear -19 1027 84 10000 3 10 06:28 15.12.2020
4845 Clouds -13 1021 92 10000 6 360 02:55 15.12.2020
4846 Snow -9 1018 92 7000 4 310 00:34 15.12.2020
4847 Clouds -8 1017 92 10000 4 290 23:26 14.12.2020
4848 Clouds -10 1017 100 10000 3 280 22:55 14.12.2020
4849 Clouds -10 1017 100 10000 3 280 22:32 14.12.2020
4850 Clouds -10 1016 100 10000 4 280 21:45 14.12.2020
4851 Snow -10 1016 92 10000 4 280 21:22 14.12.2020
4852 Snow -9 1016 92 8000 5 280 20:51 14.12.2020
4853 Snow -9 1016 92 8000 5 280 20:51 14.12.2020
4854 Snow -9 1016 92 8000 5 280 20:29 14.12.2020
4855 Snow -9 1015 92 8000 6 280 19:53 14.12.2020
4856 Snow -9 1015 92 8000 6 280 19:29 14.12.2020
4857 Snow -9 1015 92 9000 6 280 18:44 14.12.2020
4858 Snow -9 1015 92 10000 6 280 18:25 14.12.2020
4859 Snow -9 1015 92 10000 6 280 17:46 14.12.2020
4860 Snow -9 1015 92 7000 6 260 17:23 14.12.2020
4861 Snow -9 1015 92 6000 5 260 16:50 14.12.2020
4862 Snow -9 1015 92 3700 6 260 16:28 14.12.2020
4863 Snow -9 1015 100 9000 6 250 15:35 14.12.2020
4864 Snow -8 1015 100 10000 5 250 14:58 14.12.2020
4865 Snow -8 1015 100 7000 5 250 14:40 14.12.2020
4866 Snow -8 1016 100 5000 5 250 14:21 14.12.2020
4867 Clouds -8 1016 100 10000 6 250 13:41 14.12.2020
4868 Clouds -8 1016 92 10000 5 260 13:18 14.12.2020
4869 Snow -8 1015 92 10000 6 280 12:50 14.12.2020
4870 Clouds -8 1016 92 10000 7 290 12:24 14.12.2020
4871 Clouds -8 1016 92 10000 8 290 11:31 14.12.2020
4872 Clouds -8 1015 92 10000 7 290 10:37 14.12.2020
4873 Clouds -8 1015 92 10000 7 290 10:37 14.12.2020
4874 Clouds -8 1015 92 10000 7 290 10:19 14.12.2020
4875 Clouds -8 1014 92 10000 7 280 09:29 14.12.2020
4876 Clouds -8 1014 85 10000 7 280 08:46 14.12.2020
4877 Clouds -8 1014 85 10000 7 280 08:27 14.12.2020
4878 Snow -9 1014 92 10000 6 280 07:28 14.12.2020
4879 Snow -9 1014 92 8000 5 270 06:45 14.12.2020
4880 Snow -10 1015 92 3200 4 250 04:52 14.12.2020
4881 Snow -11 1016 92 10000 4 230 02:26 14.12.2020
4882 Snow -12 1017 92 10000 4 230 00:55 14.12.2020
4883 Snow -12 1017 92 10000 4 230 00:31 14.12.2020
4884 Clear -13 1017 92 10000 4 220 23:48 13.12.2020
4885 Clear -13 1018 92 10000 3 220 23:25 13.12.2020
4886 Clear -13 1018 92 10000 3 220 22:46 13.12.2020
4887 Clear -13 1018 92 10000 4 220 22:19 13.12.2020
4888 Clear -13 1019 92 10000 3 210 21:42 13.12.2020
4889 Clear -13 1019 92 10000 3 210 21:23 13.12.2020
4890 Clear -13 1020 84 10000 3 230 20:35 13.12.2020
4891 Clear -13 1020 92 10000 2 210 19:53 13.12.2020
4892 Clear -13 1020 92 10000 2 210 19:32 13.12.2020
4893 Clear -13 1020 92 10000 3 210 18:58 13.12.2020
4894 Clouds -13 1021 84 10000 2 210 18:39 13.12.2020
4895 Clouds -14 1021 92 10000 3 230 18:19 13.12.2020
4896 Clouds -14 1022 92 10000 3 210 17:46 13.12.2020
4897 Clouds -14 1022 92 10000 2 230 17:20 13.12.2020
4898 Clear -14 1022 84 10000 3 240 16:54 13.12.2020
4899 Clear -14 1022 84 10000 3 240 16:54 13.12.2020
4900 Clear -14 1022 84 10000 3 240 16:36 13.12.2020
4901 Clear -15 1022 92 10000 3 240 15:56 13.12.2020
4902 Clear -15 1023 92 10000 2 230 15:38 13.12.2020
4903 Clear -15 1023 84 10000 2 240 15:18 13.12.2020
4904 Clear -15 1023 84 10000 2 250 14:42 13.12.2020
4905 Clear -15 1023 84 10000 3 240 14:18 13.12.2020
4906 Clear -15 1023 84 10000 2 240 13:41 13.12.2020
4907 Clear -15 1024 84 10000 2 220 13:22 13.12.2020
4908 Clear -16 1024 91 10000 2 280 12:37 13.12.2020
4909 Clear -15 1024 92 10000 2 270 12:18 13.12.2020
4910 Clear -15 1024 92 10000 3 250 11:35 13.12.2020
4911 Clear -15 1023 84 10000 3 280 10:47 13.12.2020
4912 Clear -15 1023 84 10000 3 280 10:29 13.12.2020
4913 Clear -16 1024 91 10000 3 280 09:52 13.12.2020
4914 Clear -16 1024 84 10000 3 280 08:53 13.12.2020
4915 Clear -16 1023 91 10000 3 270 08:32 13.12.2020
4916 Clear -17 1023 91 10000 4 280 07:27 13.12.2020
4917 Clear -15 1022 92 10000 3 280 03:26 13.12.2020
4918 Clear -14 1022 84 10000 3 270 02:32 13.12.2020
4919 Clear -15 1021 92 10000 3 280 01:37 13.12.2020
4920 Clouds -15 1021 92 10000 2 270 00:46 13.12.2020
4921 Clouds -15 1021 84 10000 3 270 23:45 12.12.2020
4922 Clouds -15 1021 84 10000 3 270 23:27 12.12.2020
4923 Clouds -16 1021 84 10000 2 250 22:39 12.12.2020
4924 Clouds -16 1021 84 10000 2 250 22:39 12.12.2020
4925 Clear -17 1021 84 10000 2 280 21:49 12.12.2020
4926 Clear -17 1021 84 10000 2 280 21:31 12.12.2020
4927 Clear -18 1021 91 10000 2 280 20:48 12.12.2020
4928 Clear -19 1021 91 10000 1 290 20:21 12.12.2020
4929 Clear -18 1021 91 10000 2 270 19:54 12.12.2020
4930 Clear -18 1021 91 10000 2 270 19:34 12.12.2020
4931 Clear -18 1021 91 10000 2 290 18:58 12.12.2020
4932 Clear -18 1021 91 10000 2 290 18:40 12.12.2020
4933 Clear -18 1021 84 10000 2 280 18:22 12.12.2020
4934 Clear -18 1021 84 10000 2 280 17:41 12.12.2020
4935 Clear -17 1021 84 10000 2 280 16:52 12.12.2020
4936 Clear -17 1021 84 10000 2 280 15:59 12.12.2020
4937 Clear -18 1021 91 10000 2 250 15:40 12.12.2020
4938 Clouds -17 1021 84 9000 2 260 14:54 12.12.2020
4939 Clouds -17 1021 91 8000 1 250 14:35 12.12.2020
4940 Clear -17 1021 84 10000 1 220 13:47 12.12.2020
4941 Clear -17 1021 84 10000 1 220 13:26 12.12.2020
4942 Clear -16 1021 91 10000 2 240 12:43 12.12.2020
4943 Clear -15 1021 92 10000 2 240 11:41 12.12.2020
4944 Clear -14 1021 92 10000 3 230 10:52 12.12.2020
4945 Clear -14 1022 92 10000 3 240 09:31 12.12.2020
4946 Clear -14 1022 92 10000 3 230 08:42 12.12.2020
4947 Clear -13 1025 92 10000 3 200 02:28 12.12.2020
4948 Clouds -13 1027 100 10000 4 210 23:40 11.12.2020
4949 Snow -12 1028 92 10000 4 240 22:21 11.12.2020
4950 Clouds -11 1027 100 10000 3 240 19:57 11.12.2020
4951 Mist -10 1028 100 2700 2 270 17:30 11.12.2020
4952 Clouds -10 1027 100 10000 1.29 273 14:40 11.12.2020
4953 Clouds -10 1027 92 10000 1 300 13:57 11.12.2020
4954 Clouds -10 1027 92 10000 1.51 267 12:36 11.12.2020
4955 Clouds -10 1027 92 10000 2 230 11:56 11.12.2020
4956 Clouds -10 1027 92 10000 1 0 11:37 11.12.2020
4957 Snow -11 1027 92 10000 2 220 10:41 11.12.2020
4958 Snow -11 1027 92 6000 2 190 07:51 11.12.2020
4959 Clouds -12 1027 92 10000 2 190 05:38 11.12.2020
4960 Clouds -12 1028 92 10000 2 200 04:47 11.12.2020
4961 Clouds -12 1029 100 10000 3 280 01:20 11.12.2020
4962 Clouds -12 1029 100 10000 3 270 23:37 10.12.2020
4963 Clouds -10 1029 85 10000 3 320 21:59 10.12.2020
4964 Clouds -10 1029 92 10000 5 280 21:29 10.12.2020
4965 Clouds -9 1030 85 10000 4 320 20:38 10.12.2020
4966 Clouds -9 1029 85 10000 3 320 19:33 10.12.2020
4967 Clouds -10 1029 92 10000 3 330 18:50 10.12.2020
4968 Clouds -9 1029 92 10000 4 330 17:36 10.12.2020
4969 Clouds -8 1028 85 10000 5 320 16:18 10.12.2020
4970 Clouds -8 1028 85 10000 4 330 15:24 10.12.2020
4971 Clouds -8 1028 85 10000 5 340 14:46 10.12.2020
4972 Clouds -8 1027 85 10000 6 330 14:21 10.12.2020
4973 Clouds -7 1026 79 10000 5 320 12:24 10.12.2020
4974 Clouds -7 1025 79 10000 5 330 10:57 10.12.2020
4975 Clouds -6 1023 79 10000 8 340 08:44 10.12.2020
4976 Clouds -5 1023 73 10000 6 330 07:34 10.12.2020
4977 Clouds -5 1022 73 10000 6 330 06:33 10.12.2020
4978 Clouds -5 1019 85 10000 7 310 02:50 10.12.2020
4979 Clouds -6 1019 92 10000 8 300 01:56 10.12.2020
4980 Snow -7 1018 100 10000 8 290 23:49 09.12.2020
4981 Snow -7 1019 100 10000 8 260 20:40 09.12.2020
4982 Snow -7 1019 100 10000 7 260 20:20 09.12.2020
4983 Clouds -6 1020 100 10000 6 250 18:42 09.12.2020
4984 Clouds -7 1021 100 10000 6 260 17:36 09.12.2020
4985 Clouds -7 1022 100 10000 6 280 16:40 09.12.2020
4986 Clouds -7 1022 100 10000 6 280 16:20 09.12.2020
4987 Clouds -7 1022 100 10000 3 280 14:51 09.12.2020
4988 Clouds -7 1022 100 10000 3 280 14:27 09.12.2020
4989 Clouds -8 1023 100 10000 2 280 13:46 09.12.2020
4990 Clouds -8 1023 92 10000 2 320 13:18 09.12.2020
4991 Snow -8 1023 92 4800 4 330 12:36 09.12.2020
4992 Snow -7 1023 100 6000 5 330 11:37 09.12.2020
4993 Snow -6 1022 100 9000 4 300 09:52 09.12.2020
4994 Snow -7 1021 100 9000 3 290 08:42 09.12.2020
4995 Snow -8 1021 100 10000 2 270 06:56 09.12.2020
4996 Clouds -8 1021 100 10000 1 0 05:33 09.12.2020
4997 Snow -10 1022 92 9000 2 200 02:43 09.12.2020
4998 Snow -11 1023 92 2500 2 180 00:42 09.12.2020
4999 Snow -11 1023 92 3700 2 170 23:35 08.12.2020
5000 Snow -13 1024 92 3400 2 170 22:26 08.12.2020
5001 Clouds -14 1025 92 10000 3 180 20:47 08.12.2020
5002 Clouds -15 1026 92 10000 2 180 19:31 08.12.2020
5003 Clear -16 1026 84 10000 2.2 195 18:36 08.12.2020
5004 Clear -20 1026 91 10000 1 0 17:19 08.12.2020
5005 Clear -23 1026 83 10000 1 80 15:23 08.12.2020
5006 Clear -21 1026 83 10000 1.1 123 13:50 08.12.2020
5007 Clear -19 1026 84 10000 1 80 12:41 08.12.2020
5008 Clear -19 1025 91 10000 1 0 11:55 08.12.2020
5009 Clear -17 1025 77 10000 3 90 10:57 08.12.2020
5010 Clear -16 1025 77 10000 3 90 10:39 08.12.2020
5011 Clear -16 1024 77 10000 3 90 09:38 08.12.2020
5012 Clear -15 1023 84 10000 4 60 07:38 08.12.2020
5013 Clear -10 1021 78 10000 5 40 05:26 08.12.2020
5014 Snow -6 1018 92 4800 4 50 02:29 08.12.2020
5015 Clouds -5 1017 100 10000 3 290 00:44 08.12.2020
5016 Clouds -5 1017 100 10000 4 280 23:25 07.12.2020
5017 Clouds -5 1017 92 10000 4 280 22:20 07.12.2020
5018 Clouds -5 1017 92 10000 4 280 21:26 07.12.2020
5019 Clouds -6 1017 100 10000 5 280 19:23 07.12.2020
5020 Clouds -6 1017 92 10000 6 290 17:55 07.12.2020
5021 Clouds -7 1016 92 10000 7 280 17:19 07.12.2020
5022 Clouds -8 1017 100 10000 5 280 16:37 07.12.2020
5023 Clouds -7 1016 92 10000 6 280 15:24 07.12.2020
5024 Clouds -7 1016 100 10000 6 280 14:31 07.12.2020
5025 Clouds -8 1016 100 10000 6 270 13:36 07.12.2020
5026 Clear -8 1016 100 10000 5 250 12:28 07.12.2020
5027 Clouds -7 1016 92 10000 6 260 11:42 07.12.2020
5028 Clouds -7 1016 92 10000 7 280 10:32 07.12.2020
5029 Clouds -7 1016 92 10000 8 270 08:57 07.12.2020
5030 Clouds -7 1016 92 10000 7 260 07:30 07.12.2020
5031 Clouds -7 1016 92 10000 7 250 05:27 07.12.2020
5032 Clouds -8 1017 100 10000 8 250 03:45 07.12.2020
5033 Clouds -8 1018 92 10000 7 250 00:39 07.12.2020
5034 Snow -8 1019 92 10000 8 260 22:48 06.12.2020
5035 Snow -8 1019 92 6000 8 250 21:44 06.12.2020
5036 Snow -8 1019 92 6000 8 250 21:44 06.12.2020
5037 Snow -8 1020 85 9000 8 250 20:41 06.12.2020
5038 Snow -8 1020 85 10000 8 240 20:19 06.12.2020
5039 Snow -9 1021 85 10000 6 230 19:20 06.12.2020
5040 Clear -10 1022 85 10000 5 220 17:28 06.12.2020
5041 Clear -10 1023 85 10000 6 230 16:33 06.12.2020
5042 Clouds -10 1025 85 10000 6 230 14:46 06.12.2020
5043 Clouds -12 1026 92 10000 5 230 12:53 06.12.2020
5044 Clouds -12 1027 85 10000 5 230 12:30 06.12.2020
5045 Clear -14 1028 92 10000 4 230 11:41 06.12.2020
5046 Clear -14 1028 84 10000 4 230 11:22 06.12.2020
5047 Clear -14 1028 84 10000 5 240 10:32 06.12.2020
5048 Clear -15 1029 84 10000 5 240 08:57 06.12.2020
5049 Clear -15 1030 84 10000 4 240 07:20 06.12.2020
5050 Clear -14 1031 84 10000 4 240 03:50 06.12.2020
5051 Clear -13 1032 100 10000 4 240 00:43 06.12.2020
5052 Clear -13 1032 100 10000 4 240 00:25 06.12.2020
5053 Clear -13 1032 100 10000 3 240 23:55 05.12.2020
5054 Clouds -12 1032 100 10000 4 240 22:24 05.12.2020
5055 Clear -12 1032 100 10000 4 250 21:53 05.12.2020
5056 Clear -12 1032 100 10000 3 240 21:28 05.12.2020
5057 Clear -12 1033 92 10000 4 250 19:50 05.12.2020
5058 Clear -12 1033 100 10000 4 240 18:45 05.12.2020
5059 Clear -11 1033 100 10000 4 250 17:36 05.12.2020
5060 Clouds -10 1033 92 10000 5 270 16:43 05.12.2020
5061 Clouds -10 1033 92 10000 5 270 16:23 05.12.2020
5062 Clouds -8 1034 92 10000 5 250 14:30 05.12.2020
5063 Clouds -7 1033 100 10000 6 290 12:32 05.12.2020
5064 Clouds -7 1033 100 10000 6 290 11:49 05.12.2020
5065 Clouds -6 1033 92 10000 6 290 10:33 05.12.2020
5066 Clouds -8 1033 100 10000 5 250 07:49 05.12.2020
5067 Clouds -8 1033 100 10000 5 250 07:25 05.12.2020
5068 Clouds -9 1033 100 10000 5 240 04:46 05.12.2020
5069 Clouds -10 1035 100 10000 5 220 23:56 04.12.2020
5070 Clouds -11 1035 100 10000 4 210 22:41 04.12.2020
5071 Clouds -12 1036 92 10000 3 230 20:30 04.12.2020
5072 Clouds -13 1036 92 10000 3 220 18:53 04.12.2020
5073 Clouds -14 1037 92 10000 2 210 18:21 04.12.2020
5074 Clouds -14 1037 92 10000 2 240 17:41 04.12.2020
5075 Clouds -15 1036 92 10000 2 210 15:54 04.12.2020
5076 Clear -15 1036 84 10000 2 180 15:18 04.12.2020
5077 Clouds -15 1037 92 10000 1 0 13:35 04.12.2020
5078 Clear -14 1037 84 10000 1 0 12:55 04.12.2020
5079 Clear -14 1036 92 10000 1 0 11:41 04.12.2020
5080 Clear -14 1036 92 10000 2 240 10:30 04.12.2020
5081 Clouds -16 1035 91 10000 2 270 07:53 04.12.2020
5082 Clear -19 1034 84 10000 2 280 06:40 04.12.2020
5083 Clear -18 1033 91 10000 2 280 04:50 04.12.2020
5084 Clear -17 1032 91 10000 3 280 23:51 03.12.2020
5085 Clouds -15 1032 92 10000 3 280 22:47 03.12.2020
5086 Clear -14 1031 92 10000 4 280 21:20 03.12.2020
5087 Clear -13 1031 84 10000 4 280 20:39 03.12.2020
5088 Snow -13 1031 84 10000 4 260 19:21 03.12.2020
5089 Snow -13 1031 84 10000 4 280 18:40 03.12.2020
5090 Snow -13 1031 84 9000 4 270 17:21 03.12.2020
5091 Snow -13 1031 92 7000 3 250 15:59 03.12.2020
5092 Snow -13 1031 84 6000 4 250 15:32 03.12.2020
5093 Clouds -14 1031 92 10000 4 250 14:48 03.12.2020
5094 Clouds -13 1031 84 10000 4 240 13:51 03.12.2020
5095 Snow -14 1032 92 10000 4 250 12:33 03.12.2020
5096 Snow -14 1032 92 10000 4 240 11:59 03.12.2020
5097 Snow -14 1032 92 10000 4 240 10:38 03.12.2020
5098 Snow -15 1032 92 7000 4 230 08:38 03.12.2020
5099 Clouds -16 1033 84 10000 4 240 03:45 03.12.2020
5100 Clouds -16 1034 84 10000 4 240 01:46 03.12.2020
5101 Clear -16 1034 91 10000 4 250 23:56 02.12.2020
5102 Clear -15 1034 84 10000 5 250 22:45 02.12.2020
5103 Clouds -15 1034 84 10000 5 250 21:43 02.12.2020
5104 Clouds -15 1034 84 10000 5 240 20:49 02.12.2020
5105 Clouds -15 1034 84 10000 5 240 20:31 02.12.2020
5106 Clouds -15 1035 84 10000 4 240 19:40 02.12.2020
5107 Clouds -15 1034 92 10000 5 240 17:49 02.12.2020
5108 Snow -15 1035 92 10000 5 240 17:30 02.12.2020
5109 Snow -13 1035 84 3300 5 240 15:43 02.12.2020
5110 Clear -13 1035 92 10000 5 230 13:26 02.12.2020
5111 Clear -13 1036 84 10000 4 220 11:30 02.12.2020
5112 Clear -13 1037 84 10000 4 240 10:24 02.12.2020
5113 Clear -14 1038 84 10000 4 230 07:42 02.12.2020
5114 Clear -15 1040 84 10000 5 230 23:30 01.12.2020
5115 Clear -15 1041 84 10000 4 230 22:20 01.12.2020
5116 Clear -14 1042 92 10000 4 230 19:36 01.12.2020
5117 Clear -14 1042 92 10000 4 230 19:36 01.12.2020
5118 Clear -14 1042 92 10000 4 230 18:55 01.12.2020
5119 Clear -13 1043 92 10000 4 240 16:47 01.12.2020
5120 Clear -12 1043 92 10000 4 250 14:53 01.12.2020
5121 Clear -12 1043 92 10000 4 250 12:48 01.12.2020
5122 Clouds -11 1043 85 10000 4 250 11:40 01.12.2020
5123 Clear -11 1043 92 10000 4 240 10:53 01.12.2020
5124 Clear -10 1043 85 10000 4 250 10:26 01.12.2020
5125 Clear -11 1043 85 10000 5 270 07:46 01.12.2020
5126 Clouds -10 1043 85 10000 5 260 05:58 01.12.2020
5127 Clouds -13 1043 84 10000 5 270 01:33 01.12.2020
5128 Clear -13 1043 84 10000 6 260 00:38 01.12.2020
5129 Clear -14 1043 92 10000 5 250 23:20 30.11.2020
5130 Clear -14 1043 92 10000 4 250 22:42 30.11.2020
5131 Clear -14 1043 92 10000 4 240 22:22 30.11.2020
5132 Clear -14 1043 92 10000 4 240 19:50 30.11.2020
5133 Clear -14 1043 92 10000 4 240 19:31 30.11.2020
5134 Clear -14 1044 92 10000 4 250 18:21 30.11.2020
5135 Clear -13 1043 84 10000 4 250 17:46 30.11.2020
5136 Clear -13 1043 92 10000 5 250 16:52 30.11.2020
5137 Clear -13 1044 92 10000 5 250 14:48 30.11.2020
5138 Clear -13 1044 92 10000 5 250 13:55 30.11.2020
5139 Clear -13 1044 92 10000 4 250 12:59 30.11.2020
5140 Clear -14 1044 92 10000 5 250 12:25 30.11.2020
5141 Clear -14 1044 84 10000 4 250 11:34 30.11.2020
5142 Clear -15 1044 92 10000 4 250 10:24 30.11.2020
5143 Clear -15 1044 84 10000 3 240 08:52 30.11.2020
5144 Clouds -17 1045 91 10000 2 250 01:25 30.11.2020
5145 Clouds -18 1046 84 10000 2 280 23:26 29.11.2020
5146 Clouds -19 1046 91 10000 2 260 21:44 29.11.2020
5147 Clouds -19 1046 91 10000 2 260 21:25 29.11.2020
5148 Clouds -19 1046 91 10000 2 250 19:19 29.11.2020
5149 Clouds -19 1046 84 10000 2 280 17:34 29.11.2020
5150 Clouds -19 1046 84 10000 2 280 14:22 29.11.2020
5151 Clouds -19 1046 84 10000 1 290 12:45 29.11.2020
5152 Snow -19 1045 84 8000 1 290 11:37 29.11.2020
5153 Snow -18 1045 84 5000 1 0 08:53 29.11.2020
5154 Snow -18 1045 84 4700 1 320 08:34 29.11.2020
5155 Clouds -19 1043 84 10000 1.45 2 02:31 29.11.2020
5156 Clouds -19 1043 84 10000 1 60 22:59 28.11.2020
5157 Clouds -20 1043 83 10000 1 0 22:18 28.11.2020
5158 Clouds -20 1042 83 10000 1 50 19:58 28.11.2020
5159 Clouds -20 1042 83 10000 1 0 19:27 28.11.2020
5160 Clouds -20 1042 83 10000 1 0 18:57 28.11.2020
5161 Clouds -19 1042 84 10000 1 70 18:20 28.11.2020
5162 Clouds -19 1042 84 10000 1 60 16:57 28.11.2020
5163 Clouds -18 1042 84 10000 2 50 14:58 28.11.2020
5164 Clouds -18 1041 84 10000 2 80 13:54 28.11.2020
5165 Clouds -17 1041 84 10000 2 70 11:27 28.11.2020
5166 Clouds -17 1040 91 10000 2 50 09:26 28.11.2020
5167 Clouds -17 1040 91 10000 2 100 03:39 28.11.2020
5168 Clouds -15 1039 84 10000 3 100 01:52 28.11.2020
5169 Clouds -16 1039 91 10000 3 100 23:21 27.11.2020
5170 Clouds -16 1039 91 10000 3 100 22:33 27.11.2020
5171 Clouds -14 1039 92 10000 3 90 20:39 27.11.2020
5172 Clouds -13 1039 100 10000 3 90 19:34 27.11.2020
5173 Clouds -12 1039 92 10000 3 100 18:57 27.11.2020
5174 Clear -13 1038 100 10000 1 0 16:51 27.11.2020
5175 Clouds -12 1038 100 10000 2 160 14:45 27.11.2020
5176 Clear -12 1037 92 10000 2 150 13:18 27.11.2020
5177 Clear -12 1038 100 10000 1 0 12:46 27.11.2020
5178 Clouds -10 1037 92 10000 2 160 11:34 27.11.2020
5179 Clouds -9 1037 92 10000 2 160 10:44 27.11.2020
5180 Clouds -10 1037 92 10000 3 160 09:51 27.11.2020
5181 Clouds -10 1037 85 10000 2 200 23:39 26.11.2020
5182 Clouds -13 1037 95 10000 3.07 159 22:25 26.11.2020
5183 Snow -9 1037 92 10000 4 210 21:45 26.11.2020
5184 Snow -8 1037 92 10000 3 190 20:43 26.11.2020
5185 Snow -7 1036 92 10000 4 200 18:37 26.11.2020
5186 Snow -7 1036 92 10000 4 180 17:31 26.11.2020
5187 Snow -7 1036 100 10000 2 210 13:58 26.11.2020
5188 Snow -7 1036 92 10000 3 190 12:58 26.11.2020
5189 Snow -7 1037 92 10000 3 210 12:39 26.11.2020
5190 Snow -6 1036 85 10000 4 210 10:50 26.11.2020
5191 Snow -6 1036 85 10000 4 210 10:23 26.11.2020
5192 Snow -6 1036 92 10000 4 190 09:37 26.11.2020
5193 Snow -6 1036 92 10000 4 200 08:58 26.11.2020
5194 Snow -6 1036 92 10000 4 190 08:34 26.11.2020
5195 Clouds -6 1035 100 10000 4 190 02:19 26.11.2020
5196 Clouds -5 1035 85 9000 5 200 22:20 25.11.2020
5197 Clouds -5 1034 85 10000 4 220 20:37 25.11.2020
5198 Clouds -5 1034 85 10000 4 210 19:18 25.11.2020
5199 Clouds -5 1034 85 10000 4 220 17:29 25.11.2020
5200 Clouds -5 1034 85 10000 4 210 15:46 25.11.2020
5201 Clouds -5 1034 85 10000 5 210 14:58 25.11.2020
5202 Clouds -5 1033 92 10000 5 200 13:46 25.11.2020
5203 Clouds -5 1033 92 10000 6 200 12:57 25.11.2020
5204 Clouds -5 1033 92 10000 6 200 12:57 25.11.2020
5205 Clouds -5 1032 92 10000 4 200 11:24 25.11.2020
5206 Clouds -5 1032 92 10000 5 200 09:21 25.11.2020
5207 Clouds -5 1032 92 10000 5 200 08:50 25.11.2020
5208 Clouds -5 1032 100 10000 6 210 07:41 25.11.2020
5209 Clouds -7 1031 100 10000 6 200 03:52 25.11.2020
5210 Clouds -7 1031 92 10000 5 200 01:49 25.11.2020
5211 Clouds -7 1031 100 10000 7 200 00:20 25.11.2020
5212 Clouds -7 1031 92 10000 6 200 23:35 24.11.2020
5213 Clouds -8 1031 100 10000 5 200 22:41 24.11.2020
5214 Clouds -9 1031 100 10000 5 200 21:44 24.11.2020
5215 Clouds -9 1031 100 10000 5 200 21:26 24.11.2020
5216 Clouds -9 1030 100 10000 5 190 19:48 24.11.2020
5217 Clear -9 1030 92 10000 4 200 17:41 24.11.2020
5218 Clear -9 1030 92 10000 4 190 17:22 24.11.2020
5219 Clear -9 1030 92 10000 4 190 16:38 24.11.2020
5220 Clear -9 1030 85 10000 4 190 15:56 24.11.2020
5221 Clear -8 1030 72 10000 4 190 15:20 24.11.2020
5222 Clear -8 1030 72 10000 4 200 14:45 24.11.2020
5223 Clear -8 1029 72 10000 4 200 13:38 24.11.2020
5224 Clear -8 1029 72 10000 3 210 12:39 24.11.2020
5225 Clear -7 1029 67 10000 4 190 12:18 24.11.2020
5226 Clear -7 1029 67 10000 4 200 11:25 24.11.2020
5227 Clear -8 1029 67 10000 4 200 10:25 24.11.2020
5228 Clear -8 1029 67 10000 5 210 09:40 24.11.2020
5229 Clear -8 1029 67 10000 5 200 08:59 24.11.2020
5230 Clear -9 1029 66 10000 4 200 06:42 24.11.2020
5231 Clear -9 1029 78 10000 3 190 01:00 24.11.2020
5232 Clear -8 1029 72 10000 4 200 22:24 23.11.2020
5233 Clear -8 1029 72 10000 4 200 22:24 23.11.2020
5234 Clear -8 1029 72 10000 4 200 21:32 23.11.2020
5235 Clear -9 1029 72 10000 4 200 20:32 23.11.2020
5236 Clear -9 1029 72 10000 4 190 19:59 23.11.2020
5237 Clear -10 1029 72 10000 4 200 17:58 23.11.2020
5238 Clear -10 1029 78 10000 5 190 16:56 23.11.2020
5239 Clear -10 1029 85 10000 4 190 15:33 23.11.2020
5240 Clear -9 1030 78 10000 4 190 14:37 23.11.2020
5241 Clear -8 1030 78 10000 4 190 12:41 23.11.2020
5242 Clear -8 1030 85 10000 4 190 12:21 23.11.2020
5243 Clear -8 1030 85 10000 5 190 11:43 23.11.2020
5244 Clear -7 1030 79 10000 4 190 10:45 23.11.2020
5245 Clear -7 1030 85 10000 3 200 09:31 23.11.2020
5246 Clear -7 1030 85 10000 4 200 08:37 23.11.2020
5247 Clouds -8 1030 100 10000 3 200 06:57 23.11.2020
5248 Clouds -10 1030 100 10000 2 210 00:23 23.11.2020
5249 Clear -10 1030 100 10000 3 220 22:46 22.11.2020
5250 Clouds -10 1030 100 10000 2 220 21:37 22.11.2020
5251 Clear -10 1030 100 10000 2 220 20:43 22.11.2020
5252 Clear -9 1029 100 10000 2 240 19:52 22.11.2020
5253 Clear -8 1030 100 10000 3 240 18:40 22.11.2020
5254 Clear -8 1029 100 10000 3 240 16:50 22.11.2020
5255 Clear -7 1029 100 10000 4 250 15:30 22.11.2020
5256 Clear -6 1029 100 10000 4 250 14:28 22.11.2020
5257 Clear -6 1028 92 10000 5 250 12:49 22.11.2020
5258 Clear -6 1028 92 10000 4 240 11:56 22.11.2020
5259 Clear -5 1027 92 10000 5 260 11:20 22.11.2020
5260 Clear -4 1027 85 10000 6 260 10:38 22.11.2020
5261 Clouds -4 1026 85 10000 6 260 08:26 22.11.2020
5262 Clear -2 1023 86 10000 5 250 01:47 22.11.2020
5263 Clear -2 1023 86 10000 4 240 22:52 21.11.2020
5264 Clear -2 1022 86 10000 4 250 21:39 21.11.2020
5265 Clear -2 1022 86 10000 5 250 20:55 21.11.2020
5266 Clear -2 1022 86 10000 5 270 20:31 21.11.2020
5267 Clear -3 1022 92 10000 4 250 19:52 21.11.2020
5268 Clear -3 1022 92 10000 4 250 19:25 21.11.2020
5269 Clear -2 1022 79 10000 6 260 17:57 21.11.2020
5270 Clear -2 1022 86 10000 6 250 16:48 21.11.2020
5271 Clear -2 1021 86 10000 7 260 15:45 21.11.2020
5272 Clear -2 1021 86 10000 7 250 15:21 21.11.2020
5273 Clear -2 1021 86 10000 6 250 14:42 21.11.2020
5274 Clear -2 1020 86 10000 6 250 13:27 21.11.2020
5275 Clear -2 1019 86 10000 7 250 12:24 21.11.2020
5276 Clear -1 1019 80 10000 7 260 11:50 21.11.2020
5277 Clear -1 1018 80 10000 7 250 10:28 21.11.2020
5278 Clouds -1 1018 80 10000 6 250 09:22 21.11.2020
5279 Clear -2 1017 86 10000 6 250 08:50 21.11.2020
5280 Clear -2 1016 86 10000 6 250 05:43 21.11.2020
5281 Clear -2 1016 86 10000 6 250 04:23 21.11.2020
5282 Clear -2 1014 86 10000 7 250 00:23 21.11.2020
5283 Clouds -2 1013 92 10000 6 240 23:21 20.11.2020
5284 Clouds -1 1013 86 10000 6 240 21:46 20.11.2020
5285 Clouds -1 1013 86 10000 6 240 21:26 20.11.2020
5286 Clouds -1 1013 86 10000 6 240 21:26 20.11.2020
5287 Clouds -1 1013 86 10000 6 250 20:42 20.11.2020
5288 Clouds -1 1012 86 10000 6 240 19:37 20.11.2020
5289 Clouds -2 1012 92 10000 7 250 18:28 20.11.2020
5290 Clouds -2 1012 92 10000 6 240 17:32 20.11.2020
5291 Clouds -2 1011 86 10000 6 240 16:48 20.11.2020
5292 Clouds -2 1011 86 10000 6 240 16:29 20.11.2020
5293 Clouds -3 1011 92 10000 7 240 15:47 20.11.2020
5294 Clouds -3 1011 86 10000 6 230 14:18 20.11.2020
5295 Clouds -3 1010 86 10000 7 230 13:22 20.11.2020
5296 Clouds -3 1010 86 10000 7 230 12:58 20.11.2020
5297 Clouds -3 1010 86 10000 7 230 11:55 20.11.2020
5298 Clouds -4 1010 85 10000 7 230 11:26 20.11.2020
5299 Clouds -4 1011 85 10000 7 230 09:53 20.11.2020
5300 Clouds -5 1011 85 10000 7 230 08:30 20.11.2020
5301 Clouds -5 1011 85 10000 7 230 07:51 20.11.2020
5302 Clouds -6 1012 79 10000 7 220 05:19 20.11.2020
5303 Clouds -7 1015 85 10000 6 210 00:21 20.11.2020
5304 Clear -7 1016 79 10000 6 220 22:30 19.11.2020
5305 Clear -7 1016 79 10000 6 220 21:53 19.11.2020
5306 Clear -7 1016 79 10000 6 220 20:57 19.11.2020
5307 Clear -7 1017 79 10000 6 230 20:20 19.11.2020
5308 Clouds -7 1017 73 10000 6 230 19:26 19.11.2020
5309 Clear -7 1017 73 10000 6 230 18:47 19.11.2020
5310 Clear -8 1018 72 10000 6 230 17:27 19.11.2020
5311 Clear -9 1018 78 10000 7 230 16:32 19.11.2020
5312 Clear -9 1019 78 10000 7 220 15:29 19.11.2020
5313 Clear -8 1019 72 10000 6 230 13:51 19.11.2020
5314 Clear -8 1019 72 10000 6 220 13:33 19.11.2020
5315 Clear -8 1019 72 10000 6 220 12:52 19.11.2020
5316 Clear -8 1020 72 10000 5 220 12:33 19.11.2020
5317 Clear -8 1020 72 10000 5 210 11:40 19.11.2020
5318 Clear -8 1021 67 10000 5 220 11:21 19.11.2020
5319 Clear -8 1021 67 10000 4 230 10:31 19.11.2020
5320 Clear -9 1021 72 10000 6 230 09:47 19.11.2020
5321 Clear -9 1021 72 10000 6 230 09:27 19.11.2020
5322 Clear -9 1022 66 10000 5 230 08:24 19.11.2020
5323 Clear -10 1022 66 10000 6 240 07:35 19.11.2020
5324 Clear -11 1025 92 10000 4 240 01:47 19.11.2020
5325 Clear -11 1026 100 10000 3 240 00:32 19.11.2020
5326 Clouds -10 1026 100 10000 4 240 23:31 18.11.2020
5327 Clouds -10 1026 100 10000 4 240 22:58 18.11.2020
5328 Clouds -10 1026 100 10000 4 240 22:28 18.11.2020
5329 Clouds -10 1027 100 10000 4 240 21:43 18.11.2020
5330 Clouds -10 1027 100 10000 4 240 21:25 18.11.2020
5331 Clouds -9 1027 100 10000 6 240 20:32 18.11.2020
5332 Clouds -9 1027 100 10000 4 240 19:39 18.11.2020
5333 Clouds -9 1028 100 10000 4 250 18:58 18.11.2020
5334 Clouds -9 1028 100 10000 4 250 18:39 18.11.2020
5335 Clouds -9 1028 100 10000 4 250 17:41 18.11.2020
5336 Clouds -8 1028 100 10000 4 260 16:26 18.11.2020
5337 Clouds -8 1028 100 10000 5 270 15:57 18.11.2020
5338 Mist -7 1028 100 9000 3 270 14:41 18.11.2020
5339 Clouds -8 1029 100 10000 4 280 13:46 18.11.2020
5340 Clouds -6 1028 100 10000 5 280 13:21 18.11.2020
5341 Clouds -5 1028 100 10000 5 280 12:42 18.11.2020
5342 Clouds -4 1028 100 10000 4 280 11:41 18.11.2020
5343 Clouds -4 1028 100 10000 4 280 10:54 18.11.2020
5344 Clouds -5 1028 100 10000 4 260 10:27 18.11.2020
5345 Clouds -5 1028 100 10000 5 280 08:23 18.11.2020
5346 Clouds -6 1028 100 10000 4 280 06:37 18.11.2020
5347 Snow -7 1027 92 10000 3 290 01:49 18.11.2020
5348 Clouds -8 1027 100 10000 4 300 23:53 17.11.2020
5349 Snow -7 1027 100 9000 4 300 22:53 17.11.2020
5350 Snow -7 1027 100 6000 4 290 22:29 17.11.2020
5351 Snow -7 1027 100 6000 4 300 21:52 17.11.2020
5352 Clouds -7 1027 100 10000 4 300 21:31 17.11.2020
5353 Clear -7 1027 100 10000 4 290 20:50 17.11.2020
5354 Clear -8 1027 100 10000 4 280 20:27 17.11.2020
5355 Clear -8 1027 100 10000 4 290 19:56 17.11.2020
5356 Clouds -8 1027 100 10000 5 290 18:34 17.11.2020
5357 Clouds -8 1027 100 10000 5 290 17:44 17.11.2020
5358 Clouds -8 1027 100 10000 5 290 16:55 17.11.2020
5359 Clouds -8 1028 100 10000 5 290 16:20 17.11.2020
5360 Clouds -8 1028 100 10000 5 290 15:41 17.11.2020
5361 Clouds -8 1028 100 10000 5 290 15:22 17.11.2020
5362 Clouds -8 1028 100 10000 5 290 14:56 17.11.2020
5363 Clouds -8 1028 100 10000 7 280 14:28 17.11.2020
5364 Clouds -8 1028 100 10000 6 250 13:36 17.11.2020
5365 Clouds -8 1028 100 10000 5 250 12:48 17.11.2020
5366 Clouds -8 1028 100 10000 5 250 12:24 17.11.2020
5367 Clouds -8 1028 100 10000 5 250 11:42 17.11.2020
5368 Clouds -8 1029 100 10000 6 250 10:49 17.11.2020
5369 Clouds -8 1029 100 10000 6 250 10:23 17.11.2020
5370 Clouds -8 1029 100 10000 4 240 09:50 17.11.2020
5371 Clouds -8 1029 100 10000 4 240 09:27 17.11.2020
5372 Clouds -8 1030 100 10000 5 250 08:22 17.11.2020
5373 Clouds -9 1030 100 10000 5 260 07:44 17.11.2020
5374 Snow -10 1030 100 9000 4 280 05:21 17.11.2020
5375 Clouds -11 1031 100 10000 4 280 03:31 17.11.2020
5376 Clouds -11 1031 100 10000 5 280 02:31 17.11.2020
5377 Clouds -11 1031 100 10000 5 280 01:23 17.11.2020
5378 Clouds -11 1031 92 10000 5 280 00:42 17.11.2020
5379 Clouds -11 1031 92 10000 5 280 23:41 16.11.2020
5380 Clouds -11 1031 85 10000 5 280 23:22 16.11.2020
5381 Clouds -12 1031 92 10000 5 280 22:37 16.11.2020
5382 Clear -12 1031 92 10000 5 280 22:18 16.11.2020
5383 Clear -12 1031 92 10000 5 280 21:43 16.11.2020
5384 Clear -12 1031 92 10000 5 280 21:23 16.11.2020
5385 Clear -12 1031 92 10000 4 270 20:27 16.11.2020
5386 Clear -12 1031 85 10000 5 280 19:56 16.11.2020
5387 Clear -12 1031 85 10000 5 280 19:32 16.11.2020
5388 Clear -12 1031 85 10000 6 280 18:56 16.11.2020
5389 Clear -12 1032 85 10000 5 280 18:28 16.11.2020
5390 Clear -12 1032 85 10000 5 250 17:41 16.11.2020
5391 Clear -12 1032 85 10000 4 270 17:19 16.11.2020
5392 Clear -13 1032 92 10000 3 260 16:51 16.11.2020
5393 Clear -13 1032 92 10000 3 260 16:26 16.11.2020
5394 Clear -13 1033 84 10000 3 260 15:47 16.11.2020
5395 Clear -13 1033 84 10000 3 260 15:28 16.11.2020
5396 Clear -13 1033 84 10000 3 260 14:53 16.11.2020
5397 Clear -14 1033 92 10000 4 270 13:50 16.11.2020
5398 Clear -14 1033 92 10000 3 260 13:21 16.11.2020
5399 Clear -14 1033 92 10000 3 260 12:30 16.11.2020
5400 Clear -14 1033 84 10000 3 250 11:43 16.11.2020
5401 Clear -15 1033 92 10000 4 250 11:22 16.11.2020
5402 Clear -15 1033 92 10000 3 250 10:44 16.11.2020
5403 Clear -15 1033 92 10000 3 250 10:26 16.11.2020
5404 Clear -15 1034 92 10000 3 250 09:52 16.11.2020
5405 Clear -15 1034 84 10000 3 240 09:34 16.11.2020
5406 Clear -16 1034 84 10000 2 260 08:48 16.11.2020
5407 Clear -18 1034 84 10000 1 0 08:19 16.11.2020
5408 Clear -20 1034 83 10000 1 0 06:56 16.11.2020
5409 Clouds -20 1034 91 9000 1 0 06:38 16.11.2020
5410 Clouds -24 1034 83 10000 2 280 05:22 16.11.2020
5411 Clouds -24 1034 83 9000 1.47 278 03:54 16.11.2020
5412 Clouds -25 1034 75 9000 1 310 01:44 16.11.2020
5413 Clouds -25 1034 75 10000 1.07 297 00:26 16.11.2020
5414 Clouds -25 1034 83 10000 0.92 305 23:29 15.11.2020
5415 Clear -25 1034 83 10000 0.92 305 22:57 15.11.2020
5416 Clear -25 1034 83 10000 0.45 309 22:22 15.11.2020
5417 Clear -24 1035 76 10000 1 320 21:51 15.11.2020
5418 Clouds -24 1035 76 10000 0.51 31 21:27 15.11.2020
5419 Clouds -24 1035 83 10000 1 0 20:48 15.11.2020
5420 Clouds -24 1035 83 10000 1 0 20:28 15.11.2020
5421 Clouds -24 1035 83 10000 1 20 19:54 15.11.2020
5422 Clouds -23 1035 83 10000 0.83 64 19:36 15.11.2020
5423 Clear -23 1035 83 10000 1.15 64 19:18 15.11.2020
5424 Clear -23 1035 83 10000 1 0 18:41 15.11.2020
5425 Clear -23 1035 83 10000 1 0 18:23 15.11.2020
5426 Clouds -22 1035 83 10000 1 0 17:47 15.11.2020
5427 Clouds -22 1035 83 10000 1 0 17:25 15.11.2020
5428 Clouds -22 1035 83 6000 1 80 16:52 15.11.2020
5429 Clouds -21 1035 83 10000 1 0 16:23 15.11.2020
5430 Clouds -21 1035 83 10000 1 70 15:57 15.11.2020
5431 Clear -21 1035 83 10000 2 90 15:39 15.11.2020
5432 Clear -21 1035 83 10000 1 0 15:20 15.11.2020
5433 Clear -20 1034 83 10000 2 50 14:41 15.11.2020
5434 Clouds -21 1034 83 10000 1 70 14:21 15.11.2020
5435 Clouds -20 1034 83 9000 1 0 13:40 15.11.2020
5436 Clouds -20 1034 83 10000 1.85 38 12:53 15.11.2020
5437 Clear -19 1034 84 10000 1 0 12:26 15.11.2020
5438 Clear -19 1034 84 10000 1 0 11:58 15.11.2020
5439 Clear -19 1034 91 10000 1 0 11:40 15.11.2020
5440 Clear -18 1034 84 10000 1 0 11:18 15.11.2020
5441 Clear -18 1034 84 10000 2 40 10:46 15.11.2020
5442 Clear -18 1034 84 10000 2 40 10:27 15.11.2020
5443 Clear -18 1034 84 10000 1 0 09:45 15.11.2020
5444 Clear -19 1034 84 10000 1 0 09:22 15.11.2020
5445 Clear -19 1034 84 10000 1 0 08:53 15.11.2020
5446 Clouds -19 1034 84 10000 1 0 08:30 15.11.2020
5447 Clouds -21 1034 83 10000 1 0 07:43 15.11.2020
5448 Clouds -23 1034 83 10000 1 60 05:18 15.11.2020
5449 Clear -23 1033 83 10000 1 80 04:49 15.11.2020
5450 Clouds -21 1032 83 10000 2 70 00:49 15.11.2020
5451 Clouds -21 1032 83 10000 2 70 00:28 15.11.2020
5452 Clouds -20 1032 83 10000 2 50 23:37 14.11.2020
5453 Clouds -18 1031 84 10000 1 50 22:50 14.11.2020
5454 Clouds -18 1031 84 10000 1 50 22:31 14.11.2020
5455 Fog -18 1031 91 800 2 60 21:44 14.11.2020
5456 Mist -17 1031 91 2100 2 70 21:22 14.11.2020
5457 Mist -17 1031 91 2100 2 70 20:57 14.11.2020
5458 Clouds -18 1031 91 10000 3 60 20:28 14.11.2020
5459 Clouds -17 1031 84 7000 2 50 19:52 14.11.2020
5460 Clouds -17 1030 91 9000 2 60 19:32 14.11.2020
5461 Mist -17 1030 91 4900 3 70 18:44 14.11.2020
5462 Mist -17 1030 91 4900 3 70 18:25 14.11.2020
5463 Mist -17 1030 91 3100 3 70 17:58 14.11.2020
5464 Clouds -17 1030 84 7000 2 60 17:40 14.11.2020
5465 Clouds -18 1029 91 9000 2 80 17:19 14.11.2020
5466 Clear -17 1029 84 10000 2 70 16:43 14.11.2020
5467 Clear -17 1029 91 10000 2 70 16:20 14.11.2020
5468 Clear -17 1029 91 10000 2 70 15:52 14.11.2020
5469 Clear -17 1029 91 10000 3 70 15:27 14.11.2020
5470 Clouds -16 1028 91 10000 3 70 14:47 14.11.2020
5471 Clouds -16 1028 91 10000 3 70 14:24 14.11.2020
5472 Clouds -15 1028 84 10000 3 70 13:45 14.11.2020
5473 Clouds -15 1028 84 10000 3 70 13:24 14.11.2020
5474 Clouds -15 1027 92 10000 4 40 12:48 14.11.2020
5475 Clouds -15 1027 92 10000 4 40 12:29 14.11.2020
5476 Clouds -14 1026 92 10000 4 40 11:46 14.11.2020
5477 Clouds -14 1026 92 10000 4 40 11:25 14.11.2020
5478 Clear -13 1026 84 10000 3 40 10:49 14.11.2020
5479 Clear -13 1026 84 10000 3 40 10:26 14.11.2020
5480 Clear -13 1026 84 10000 4 30 09:50 14.11.2020
5481 Clouds -13 1026 92 10000 3 40 09:28 14.11.2020
5482 Snow -13 1025 92 10000 3 40 08:55 14.11.2020
5483 Snow -13 1025 84 9000 3 30 08:37 14.11.2020
5484 Snow -13 1025 84 4000 3 40 07:50 14.11.2020
5485 Snow -13 1025 84 4000 3 40 07:28 14.11.2020
5486 Snow -13 1025 84 8000 5 40 06:32 14.11.2020
5487 Snow -13 1024 92 10000 3 30 05:33 14.11.2020
5488 Snow -12 1023 92 10000 2 40 04:18 14.11.2020
5489 Clouds -11 1022 92 10000 2 20 00:59 14.11.2020
5490 Snow -11 1021 92 10000 3 40 23:47 13.11.2020
5491 Snow -11 1021 92 10000 3 40 23:47 13.11.2020
5492 Snow -11 1021 92 10000 3 40 23:25 13.11.2020
5493 Snow -11 1021 92 10000 2 40 22:55 13.11.2020
5494 Snow -11 1021 92 10000 2 20 22:28 13.11.2020
5495 Snow -11 1021 100 10000 2 20 21:56 13.11.2020
5496 Snow -11 1021 100 10000 3 30 21:37 13.11.2020
5497 Snow -11 1021 100 9000 2 20 21:19 13.11.2020
5498 Snow -11 1020 100 9000 2 20 20:42 13.11.2020
5499 Snow -10 1020 92 9000 3 30 20:22 13.11.2020
5500 Snow -10 1020 92 9000 3 30 20:22 13.11.2020
5501 Snow -10 1020 92 9000 2 30 19:46 13.11.2020
5502 Snow -10 1020 92 9000 2 30 19:23 13.11.2020
5503 Snow -10 1020 92 9000 2 30 19:23 13.11.2020
5504 Snow -10 1020 92 7000 3 30 18:56 13.11.2020
5505 Snow -10 1020 92 5000 4 40 18:25 13.11.2020
5506 Clouds -10 1020 100 10000 4 40 17:43 13.11.2020
5507 Clouds -9 1019 92 10000 4 50 17:19 13.11.2020
5508 Clouds -9 1019 92 10000 4 60 16:49 13.11.2020
5509 Clouds -9 1019 92 10000 4 60 16:24 13.11.2020
5510 Clouds -9 1019 92 10000 3 60 15:50 13.11.2020
5511 Clouds -9 1019 92 10000 3 60 15:27 13.11.2020
5512 Clouds -9 1018 100 10000 3 50 14:48 13.11.2020
5513 Clouds -9 1018 100 10000 3 50 14:24 13.11.2020
5514 Clear -9 1018 100 10000 2 50 13:47 13.11.2020
5515 Clear -9 1018 100 10000 2 50 13:25 13.11.2020
5516 Clouds -9 1017 100 10000 2 40 12:47 13.11.2020
5517 Snow -8 1017 92 10000 2 60 12:24 13.11.2020
5518 Snow -8 1017 92 10000 3 60 11:49 13.11.2020
5519 Snow -8 1017 92 10000 3 60 11:29 13.11.2020
5520 Snow -8 1017 92 10000 3 50 10:57 13.11.2020
5521 Snow -8 1016 92 10000 2 60 10:39 13.11.2020
5522 Snow -8 1016 92 10000 3 60 10:21 13.11.2020
5523 Snow -8 1016 92 5000 3 70 09:42 13.11.2020
5524 Snow -8 1016 92 3900 3 70 09:20 13.11.2020
5525 Snow -8 1016 92 5000 3 70 08:50 13.11.2020
5526 Snow -8 1015 85 4500 4 70 08:20 13.11.2020
5527 Snow -8 1015 85 4600 4 50 07:44 13.11.2020
5528 Snow -8 1015 85 4600 4 50 07:26 13.11.2020
5529 Snow -8 1014 100 5000 3 50 06:48 13.11.2020
5530 Snow -8 1014 100 9000 2 60 05:43 13.11.2020
5531 Snow -8 1014 100 9000 2 60 05:43 13.11.2020
5532 Snow -8 1013 100 10000 2 70 04:59 13.11.2020
5533 Snow -7 1011 100 9000 3 70 01:45 13.11.2020
5534 Snow -7 1011 100 10000 3 70 00:51 13.11.2020
5535 Snow -7 1011 100 10000 3 80 00:31 13.11.2020
5536 Snow -7 1010 100 5000 3 70 23:38 12.11.2020
5537 Snow -7 1010 100 9000 3 70 23:19 12.11.2020
5538 Snow -7 1010 100 10000 3 70 22:50 12.11.2020
5539 Snow -7 1010 100 10000 3 70 22:30 12.11.2020
5540 Snow -7 1009 100 10000 3 70 21:43 12.11.2020
5541 Snow -7 1009 100 10000 3 70 21:24 12.11.2020
5542 Snow -7 1009 100 10000 3 70 20:58 12.11.2020
5543 Snow -7 1009 100 10000 2 70 20:39 12.11.2020
5544 Snow -7 1008 100 9000 2 70 20:21 12.11.2020
5545 Snow -7 1008 100 9000 2 70 20:21 12.11.2020
5546 Snow -7 1008 100 9000 2 70 19:45 12.11.2020
5547 Snow -7 1008 100 9000 2 70 19:27 12.11.2020
5548 Snow -7 1008 100 9000 2 100 18:49 12.11.2020
5549 Snow -7 1008 100 9000 2 100 18:24 12.11.2020
5550 Snow -6 1007 100 7000 2 90 17:46 12.11.2020
5551 Snow -6 1007 100 7000 2 90 17:27 12.11.2020
5552 Snow -6 1007 100 10000 2 110 16:47 12.11.2020
5553 Snow -6 1007 100 10000 2 110 16:27 12.11.2020
5554 Snow -6 1007 100 10000 3 140 15:59 12.11.2020
5555 Snow -6 1007 100 9000 2 140 15:40 12.11.2020
5556 Snow -6 1007 100 9000 2 150 15:20 12.11.2020
5557 Snow -6 1007 100 10000 3 160 14:46 12.11.2020
5558 Snow -6 1007 100 10000 3 160 14:25 12.11.2020
5559 Clouds -6 1006 100 10000 2 170 13:49 12.11.2020
5560 Clouds -6 1006 100 10000 2 150 13:21 12.11.2020
5561 Clouds -6 1006 100 10000 2 150 12:59 12.11.2020
5562 Clouds -6 1006 100 10000 3 200 12:39 12.11.2020
5563 Clouds -6 1006 100 10000 2 160 12:18 12.11.2020
5564 Clouds -6 1006 92 10000 3 210 11:45 12.11.2020
5565 Clouds -6 1006 92 10000 3 210 11:26 12.11.2020
5566 Clouds -6 1005 85 10000 1 0 10:41 12.11.2020
5567 Clouds -6 1005 85 10000 1 0 10:23 12.11.2020
5568 Clouds -7 1005 92 10000 3 210 09:46 12.11.2020
5569 Clouds -7 1005 85 10000 2 220 09:22 12.11.2020
5570 Clouds -7 1005 85 10000 2 220 08:56 12.11.2020
5571 Clouds -7 1005 85 10000 4 210 08:37 12.11.2020
5572 Clouds -7 1005 85 10000 4 220 08:19 12.11.2020
5573 Clouds -7 1005 85 10000 2 220 07:42 12.11.2020
5574 Clouds -7 1004 85 10000 4 240 07:18 12.11.2020
5575 Clouds -7 1004 85 10000 3 250 06:47 12.11.2020
5576 Clouds -7 1004 85 10000 3 250 05:19 12.11.2020
5577 Clouds -8 1003 100 10000 3 250 03:21 12.11.2020
5578 Clouds -8 1002 100 10000 5 270 01:33 12.11.2020
5579 Clouds -8 1001 100 10000 5 280 23:58 11.11.2020
5580 Clouds -8 1001 100 10000 4 300 23:25 11.11.2020
5581 Clouds -8 1001 100 10000 5 290 22:58 11.11.2020
5582 Clouds -8 1000 100 10000 6 270 22:39 11.11.2020
5583 Clouds -7 1000 100 10000 4 300 22:19 11.11.2020
5584 Clouds -7 1000 100 10000 3 320 21:41 11.11.2020
5585 Clouds -7 1000 100 10000 3 320 21:23 11.11.2020
5586 Mist -7 999 100 5000 4 330 20:57 11.11.2020
5587 Clouds -7 999 100 10000 4 320 20:39 11.11.2020
5588 Clouds -7 999 100 10000 4 320 20:20 11.11.2020
5589 Clouds -7 998 100 10000 4 320 19:48 11.11.2020
5590 Clouds -7 998 100 10000 4 320 19:30 11.11.2020
5591 Clouds -6 998 100 10000 4 330 18:50 11.11.2020
5592 Clouds -6 998 100 10000 4 330 18:32 11.11.2020
5593 Clouds -6 997 100 10000 4 330 17:42 11.11.2020
5594 Clouds -5 997 100 10000 3 320 17:23 11.11.2020
5595 Clouds -5 997 100 10000 3 320 16:54 11.11.2020
5596 Clouds -5 997 100 10000 2 320 16:32 11.11.2020
5597 Clouds -6 997 100 10000 2 330 15:50 11.11.2020
5598 Clouds -6 997 100 10000 2 330 15:27 11.11.2020
5599 Clouds -6 997 100 10000 1 0 14:56 11.11.2020
5600 Clouds -6 997 100 10000 2 20 14:35 11.11.2020
5601 Clouds -6 997 100 10000 2 360 13:57 11.11.2020
5602 Clouds -7 997 100 10000 3 360 13:35 11.11.2020
5603 Clouds -6 997 100 10000 3 360 12:48 11.11.2020
5604 Clouds -6 997 100 10000 3 350 12:21 11.11.2020
5605 Clouds -5 997 100 10000 2 10 11:49 11.11.2020
5606 Clouds -5 997 100 10000 2 10 11:30 11.11.2020
5607 Clouds -5 997 100 10000 2 10 11:30 11.11.2020
5608 Clouds -4 997 92 10000 2 10 10:43 11.11.2020
5609 Clouds -4 997 92 10000 2 10 10:24 11.11.2020
5610 Clouds -4 998 92 10000 3 10 09:49 11.11.2020
5611 Clouds -4 998 92 10000 3 10 09:28 11.11.2020
5612 Clouds -4 998 92 10000 2 30 08:49 11.11.2020
5613 Clouds -4 998 92 10000 2 30 08:29 11.11.2020
5614 Clouds -4 999 92 10000 1 60 07:58 11.11.2020
5615 Clouds -4 999 92 10000 1 0 07:39 11.11.2020
5616 Clouds -4 999 92 10000 2 60 06:30 11.11.2020
5617 Clouds -4 1000 92 10000 1 0 04:47 11.11.2020
5618 Clouds -3 1001 92 10000 2 190 01:33 11.11.2020
5619 Clouds -4 1001 100 10000 2 200 00:54 11.11.2020
5620 Clouds -3 1001 92 10000 2 230 23:57 10.11.2020
5621 Clouds -3 1001 100 10000 2 230 23:25 10.11.2020
5622 Clouds -3 1001 100 10000 2 240 22:58 10.11.2020
5623 Clouds -3 1001 100 10000 2 230 22:36 10.11.2020
5624 Clouds -3 1001 100 10000 2 230 22:18 10.11.2020
5625 Clouds -4 1001 100 10000 2 230 21:39 10.11.2020
5626 Clouds -4 1001 100 10000 1 240 21:19 10.11.2020
5627 Clouds -4 1001 92 10000 1 0 20:43 10.11.2020
5628 Clouds -4 1001 92 10000 1 0 20:23 10.11.2020
5629 Clouds -5 1001 100 10000 2 280 19:56 10.11.2020
5630 Clouds -5 1001 100 10000 2 270 19:38 10.11.2020
5631 Clouds -5 1001 100 10000 2 250 19:20 10.11.2020
5632 Clouds -5 1001 100 10000 2 240 18:41 10.11.2020
5633 Clouds -5 1000 100 10000 3 240 18:20 10.11.2020
5634 Clouds -5 1000 100 10000 2 240 17:45 10.11.2020
5635 Clouds -5 1000 100 10000 2 240 17:45 10.11.2020
5636 Clouds -5 1000 100 10000 2 240 17:27 10.11.2020
5637 Clear -5 1000 100 10000 3 280 16:58 10.11.2020
5638 Snow -4 1000 100 9000 3 250 16:39 10.11.2020
5639 Snow -4 1000 100 10000 3 250 16:20 10.11.2020
5640 Snow -5 999 100 10000 2 260 15:47 10.11.2020
5641 Snow -5 999 100 10000 2 260 15:27 10.11.2020
5642 Clouds -4 999 100 10000 3 280 14:43 10.11.2020
5643 Clouds -4 998 100 10000 3 290 14:23 10.11.2020
5644 Clouds -4 998 100 10000 3 290 13:58 10.11.2020
5645 Clouds -4 998 100 10000 3 290 13:37 10.11.2020
5646 Clouds -4 998 100 10000 3 290 13:19 10.11.2020
5647 Clouds -3 997 100 10000 4 290 12:44 10.11.2020
5648 Clouds -3 997 100 10000 4 290 12:24 10.11.2020
5649 Snow -2 997 100 8000 4 280 11:41 10.11.2020
5650 Snow -2 996 100 10000 3 250 11:21 10.11.2020
5651 Snow -2 996 100 9000 3 240 10:48 10.11.2020
5652 Snow -2 996 100 9000 3 240 10:28 10.11.2020
5653 Snow -2 996 100 7000 3 250 09:57 10.11.2020
5654 Clouds -2 995 100 10000 2 240 09:39 10.11.2020
5655 Clouds -2 995 100 10000 2 240 09:39 10.11.2020
5656 Clouds -2 995 100 9000 3 250 09:19 10.11.2020
5657 Clouds -2 995 100 10000 3 240 08:49 10.11.2020
5658 Clouds -2 995 100 10000 3 240 08:25 10.11.2020
5659 Clouds -3 995 100 10000 4 250 07:43 10.11.2020
5660 Clouds -3 995 100 10000 4 250 07:20 10.11.2020
5661 Clouds -3 994 100 10000 4 260 06:39 10.11.2020
5662 Clouds -3 994 92 10000 4 250 05:41 10.11.2020
5663 Clouds -3 993 100 10000 5 270 04:39 10.11.2020
5664 Snow -2 992 100 4600 5 250 02:18 10.11.2020
5665 Snow -1 991 100 4100 3 240 01:25 10.11.2020
5666 Snow -2 991 100 4700 3 260 23:53 09.11.2020
5667 Clouds -2 991 100 10000 4 280 23:24 09.11.2020
5668 Clouds -2 991 100 10000 3 280 22:44 09.11.2020
5669 Clouds -2 991 100 10000 3 280 22:23 09.11.2020
5670 Snow -2 990 100 8000 3 280 21:46 09.11.2020
5671 Snow -2 990 100 8000 3 280 21:27 09.11.2020
5672 Snow -2 990 100 5000 3 280 20:46 09.11.2020
5673 Snow -2 989 100 10000 4 280 20:24 09.11.2020
5674 Snow -2 989 100 10000 4 280 19:59 09.11.2020
5675 Snow -2 989 100 8000 2 250 19:40 09.11.2020
5676 Snow -2 989 100 8000 2 250 19:21 09.11.2020
5677 Clouds -2 989 100 10000 3 290 18:41 09.11.2020
5678 Clouds -2 989 100 10000 3 290 18:41 09.11.2020
5679 Clouds -2 989 100 10000 3 290 18:20 09.11.2020
5680 Snow -1 988 92 5000 2 280 17:48 09.11.2020
5681 Snow -1 988 92 5000 2 280 17:29 09.11.2020
5682 Mist -2 988 100 3900 1.79 286 16:46 09.11.2020
5683 Mist -2 988 100 3900 1.67 294 16:27 09.11.2020
5684 Mist -2 987 100 1200 1.67 294 15:51 09.11.2020
5685 Mist -2 987 100 1200 1.67 294 15:30 09.11.2020
5686 Fog -2 987 92 250 1.53 298 14:57 09.11.2020
5687 Fog -3 987 100 150 1.53 298 14:37 09.11.2020
5688 Fog -2 987 100 400 1.2 292 14:19 09.11.2020
5689 Fog -2 987 100 500 1.2 292 13:43 09.11.2020
5690 Snow -2 986 100 4500 0.62 266 13:19 09.11.2020
5691 Mist -1 986 100 2000 0.61 268 12:46 09.11.2020
5692 Snow -1 986 100 6000 1 0 12:21 09.11.2020
5693 Clear -1 986 92 10000 1 190 11:43 09.11.2020
5694 Clear -1 986 92 10000 1 190 11:25 09.11.2020
5695 Clouds -1 985 100 10000 1 200 10:59 09.11.2020
5696 Clouds 0 985 99 10000 2 200 10:41 09.11.2020
5697 Clouds 0 985 98 10000 2 210 10:22 09.11.2020
5698 Clouds 0 985 98 10000 1 0 09:31 09.11.2020
5699 Clouds 0 985 98 10000 2 220 08:57 09.11.2020
5700 Clouds 0 985 98 10000 2 220 08:28 09.11.2020
5701 Snow 0 985 98 7000 2 220 07:57 09.11.2020
5702 Snow 0 984 98 10000 3 220 07:24 09.11.2020
5703 Clouds 0 984 98 10000 3 220 06:58 09.11.2020
5704 Clouds 0 984 98 10000 3 230 05:38 09.11.2020
5705 Clouds -1 983 100 10000 2 210 02:57 09.11.2020
5706 Clear -1 982 100 10000 2 270 01:41 09.11.2020
5707 Clouds -1 982 100 10000 3 250 00:56 09.11.2020
5708 Clouds 0 981 98 10000 5 270 23:50 08.11.2020
5709 Clouds 0 981 98 10000 5 270 23:28 08.11.2020
5710 Clouds 0 980 98 10000 5 280 22:43 08.11.2020
5711 Clouds 0 980 98 10000 4 270 22:22 08.11.2020
5712 Snow 0 980 98 4900 4 280 21:49 08.11.2020
5713 Snow 0 980 98 4900 4 280 21:24 08.11.2020
5714 Snow 0 979 98 2500 4 280 20:57 08.11.2020
5715 Snow 0 979 98 2200 4 280 20:38 08.11.2020
5716 Snow 0 979 99 5000 4 280 20:20 08.11.2020
5717 Snow 0 979 99 4400 3 280 19:46 08.11.2020
5718 Snow 0 979 98 4400 3 280 19:24 08.11.2020
5719 Snow 0 979 99 2300 3 290 18:59 08.11.2020
5720 Snow 0 979 99 2200 3 290 18:41 08.11.2020
5721 Snow 0 979 99 3200 2 300 18:21 08.11.2020
5722 Snow 0 979 99 3200 2 300 17:57 08.11.2020
5723 Snow 0 979 99 3000 2 290 17:36 08.11.2020
5724 Snow 0 980 98 3400 2 290 17:18 08.11.2020
5725 Snow 0 980 98 1800 2 290 16:39 08.11.2020
5726 Snow 0 981 99 2300 1 0 16:21 08.11.2020
5727 Snow 0 981 99 2000 1 290 15:50 08.11.2020
5728 Snow 0 981 98 2000 1 290 15:28 08.11.2020
5729 Snow 0 982 98 1600 1.31 328 14:44 08.11.2020
5730 Snow 0 982 99 1600 1.28 311 14:24 08.11.2020
5731 Snow 0 982 99 1600 1.28 311 14:24 08.11.2020
5732 Snow 0 982 99 1300 1 190 13:57 08.11.2020
5733 Snow 0 983 99 2600 1 0 13:39 08.11.2020
5734 Snow 0 983 98 1800 1 0 13:20 08.11.2020
5735 Snow 0 984 98 1900 1 150 12:41 08.11.2020
5736 Snow 0 984 98 1900 1 150 12:23 08.11.2020
5737 Snow 0 985 98 1600 1 150 11:56 08.11.2020
5738 Snow 0 985 98 1900 2 180 11:38 08.11.2020
5739 Snow 0 985 98 2700 2 190 11:19 08.11.2020
5740 Snow 0 986 98 3300 1 190 10:47 08.11.2020
5741 Snow 0 987 99 4200 2 200 10:18 08.11.2020
5742 Snow 0 987 99 3200 2 190 09:42 08.11.2020
5743 Snow 0 987 99 3200 2 190 09:24 08.11.2020
5744 Mist 0 988 99 4100 3 200 08:47 08.11.2020
5745 Snow 0 988 99 4100 3 200 08:47 08.11.2020
5746 Snow 0 988 98 4100 3 200 08:27 08.11.2020
5747 Snow 0 988 98 6000 3 200 07:53 08.11.2020
5748 Snow 0 989 98 7000 3 200 07:33 08.11.2020
5749 Mist 0 989 98 1300 3 210 06:45 08.11.2020
5750 Mist 0 990 98 3000 3 210 05:55 08.11.2020
5751 Fog 0 991 97 1000 4 210 04:54 08.11.2020
5752 Clouds 0 991 97 10000 4 210 03:27 08.11.2020
5753 Clouds 0 992 97 10000 3 210 01:20 08.11.2020
5754 Snow 0 993 97 9000 3 200 00:49 08.11.2020
5755 Snow 0 993 97 9000 3 210 00:20 08.11.2020
5756 Snow 0 994 97 6000 3 200 23:40 07.11.2020
5757 Snow 0 994 97 3300 3 200 23:22 07.11.2020
5758 Snow 0 994 97 4100 3 200 22:40 07.11.2020
5759 Snow 0 994 97 4600 3 210 22:21 07.11.2020
5760 Snow 0 994 97 6000 3 210 21:44 07.11.2020
5761 Snow 0 995 97 5000 4 200 21:21 07.11.2020
5762 Snow 1 995 100 6000 4 200 20:48 07.11.2020
5763 Snow 1 995 100 6000 4 200 20:30 07.11.2020
5764 Snow 1 995 100 5000 4 200 19:51 07.11.2020
5765 Clouds 1 996 100 10000 4 200 19:29 07.11.2020
5766 Clouds 1 996 97 10000 4 210 18:58 07.11.2020
5767 Clouds 1 996 97 10000 5 200 18:37 07.11.2020
5768 Clouds 2 996 96 10000 4 200 18:18 07.11.2020
5769 Clouds 1 997 96 10000 4 210 17:38 07.11.2020
5770 Clouds 1 997 93 10000 4 200 16:58 07.11.2020
5771 Clear 1 997 93 10000 4 200 16:40 07.11.2020
5772 Clear 2 997 93 10000 4 200 16:21 07.11.2020
5773 Clear 2 997 93 10000 4 200 15:43 07.11.2020
5774 Clear 2 997 93 10000 3 200 15:23 07.11.2020
5775 Clear 2 997 100 10000 3 190 14:48 07.11.2020
5776 Clear 2 997 100 10000 3 190 14:29 07.11.2020
5777 Clear 2 998 100 10000 4 190 13:56 07.11.2020
5778 Clouds 2 998 100 10000 4 190 13:31 07.11.2020
5779 Clouds 2 998 100 10000 4 190 12:55 07.11.2020
5780 Clear 2 998 100 10000 4 190 12:30 07.11.2020
5781 Clouds 2 999 100 10000 4 190 11:45 07.11.2020
5782 Clouds 2 999 100 10000 4 190 11:45 07.11.2020
5783 Clouds 2 999 100 10000 4 190 11:24 07.11.2020
5784 Clouds 3 998 100 10000 4 190 10:46 07.11.2020
5785 Clouds 3 998 100 10000 4 190 10:28 07.11.2020
5786 Clouds 3 998 100 10000 3 200 09:57 07.11.2020
5787 Clouds 3 999 100 8000 4 200 09:37 07.11.2020
5788 Mist 3 999 100 5000 3 200 08:56 07.11.2020
5789 Rain 2 1000 100 5000 4 190 08:37 07.11.2020
5790 Rain 2 999 100 5000 4 190 07:56 07.11.2020
5791 Rain 2 1000 100 3500 4 190 07:32 07.11.2020
5792 Mist 2 1000 100 3500 4 190 06:48 07.11.2020
5793 Rain 1 1001 100 5000 3 150 05:37 07.11.2020
5794 Rain 1 1002 100 8000 2 160 03:25 07.11.2020
5795 Clouds 1 1003 100 10000 3 160 01:44 07.11.2020
5796 Clouds 1 1003 100 10000 3 160 01:25 07.11.2020
5797 Clouds 1 1004 100 10000 4 180 00:27 07.11.2020
5798 Clouds 2 1004 93 10000 3 190 23:25 06.11.2020
5799 Clouds 1 1005 100 10000 4 190 22:45 06.11.2020
5800 Clouds 1 1005 100 10000 4 190 22:45 06.11.2020
5801 Clouds 1 1005 100 10000 4 190 22:20 06.11.2020
5802 Clouds 1 1005 100 10000 4 190 21:56 06.11.2020
5803 Clouds 1 1005 100 10000 4 200 21:37 06.11.2020
5804 Clouds 1 1005 100 9000 4 200 21:18 06.11.2020
5805 Mist 1 1006 100 2000 3 200 20:43 06.11.2020
5806 Fog 1 1006 100 1200 3 200 20:19 06.11.2020
5807 Snow 1 1006 98 7000 4 200 19:45 06.11.2020
5808 Snow 1 1006 97 7000 4 200 19:26 06.11.2020
5809 Snow 0 1006 97 7000 4 200 18:47 06.11.2020
5810 Snow 1 1006 97 9000 4 210 18:24 06.11.2020
5811 Clouds 1 1007 97 9000 4 210 17:52 06.11.2020
5812 Clouds 1 1007 97 9000 4 210 17:31 06.11.2020
5813 Mist 0 1007 97 4600 4 210 16:58 06.11.2020
5814 Mist 1 1007 97 4300 5 210 16:33 06.11.2020
5815 Mist 1 1007 100 3700 4 210 15:55 06.11.2020
5816 Mist 1 1007 100 3700 4 210 15:33 06.11.2020
5817 Clouds 1 1007 100 7000 4 220 14:54 06.11.2020
5818 Clouds 1 1007 100 10000 4 220 14:28 06.11.2020
5819 Clouds 0 1007 95 10000 4 220 13:50 06.11.2020
5820 Clouds 0 1007 94 10000 4 220 13:26 06.11.2020
5821 Clouds 0 1007 95 10000 4 230 12:55 06.11.2020
5822 Clouds 0 1007 95 10000 5 230 12:36 06.11.2020
5823 Clouds 0 1006 96 10000 5 230 12:18 06.11.2020
5824 Clouds 0 1006 96 10000 5 230 11:36 06.11.2020
5825 Clouds 0 1006 96 10000 4 230 10:52 06.11.2020
5826 Clouds 0 1006 97 10000 5 230 10:32 06.11.2020
5827 Clouds 0 1006 97 10000 4 240 09:50 06.11.2020
5828 Clouds 0 1006 97 10000 4 240 09:27 06.11.2020
5829 Snow 0 1006 97 9000 4 230 08:58 06.11.2020
5830 Snow 0 1006 97 3800 4 210 08:40 06.11.2020
5831 Snow 0 1006 97 2900 5 220 08:18 06.11.2020
5832 Snow 1 1006 100 4200 5 210 07:40 06.11.2020
5833 Rain 1 1006 100 2500 4 200 07:18 06.11.2020
5834 Rain 1 1006 100 2500 4 200 07:18 06.11.2020
5835 Snow 1 1006 100 7000 5 190 06:39 06.11.2020
5836 Snow 1 1006 100 9000 5 190 05:36 06.11.2020
5837 Clouds 1 1009 100 10000 4 160 01:45 06.11.2020
5838 Clouds 1 1011 100 10000 5 190 00:24 06.11.2020
5839 Clouds 1 1011 100 10000 5 180 23:47 05.11.2020
5840 Clouds 1 1012 100 10000 5 190 23:19 05.11.2020
5841 Clouds 1 1012 100 10000 3 180 22:42 05.11.2020
5842 Clouds 1 1012 100 10000 4 190 22:24 05.11.2020
5843 Clouds 1 1013 100 10000 5 200 21:44 05.11.2020
5844 Clouds 1 1013 100 10000 5 200 21:24 05.11.2020
5845 Clouds 1 1013 100 10000 4 200 20:59 05.11.2020
5846 Clouds 1 1013 100 10000 3 200 20:41 05.11.2020
5847 Clouds 1 1013 100 10000 3 200 20:41 05.11.2020
5848 Clouds 1 1013 100 10000 4 200 20:21 05.11.2020
5849 Clouds 1 1014 100 10000 4 230 19:44 05.11.2020
5850 Clouds 1 1014 100 10000 4 230 19:25 05.11.2020
5851 Clouds 1 1014 100 10000 3 230 18:55 05.11.2020
5852 Clouds 1 1014 100 10000 3 240 18:37 05.11.2020
5853 Clouds 1 1014 100 10000 4 250 18:18 05.11.2020
5854 Clouds 1 1014 100 10000 5 250 17:41 05.11.2020
5855 Clouds 1 1014 100 10000 4 260 17:23 05.11.2020
5856 Clouds 1 1014 100 10000 5 280 16:43 05.11.2020
5857 Clouds 1 1014 100 10000 5 280 16:24 05.11.2020
5858 Clouds 2 1014 100 10000 6 270 15:50 05.11.2020
5859 Clouds 2 1014 100 10000 6 270 15:26 05.11.2020
5860 Clouds 2 1013 100 10000 5 250 14:50 05.11.2020
5861 Clouds 2 1013 100 10000 5 250 14:31 05.11.2020
5862 Rain 2 1013 100 8000 5 270 13:51 05.11.2020
5863 Rain 2 1013 100 8000 5 270 13:33 05.11.2020
5864 Clouds 3 1013 86 10000 5 270 12:54 05.11.2020
5865 Clouds 3 1012 93 10000 5 280 12:30 05.11.2020
5866 Clouds 3 1012 86 10000 6 290 11:58 05.11.2020
5867 Clouds 3 1011 93 10000 6 290 11:39 05.11.2020
5868 Clouds 3 1011 86 10000 7 290 11:21 05.11.2020
5869 Clouds 3 1010 86 10000 8 290 10:47 05.11.2020
5870 Clouds 3 1010 86 10000 8 290 10:26 05.11.2020
5871 Clouds 3 1010 86 10000 8 290 09:48 05.11.2020
5872 Clouds 3 1010 86 10000 8 290 09:24 05.11.2020
5873 Clouds 3 1009 86 10000 7 290 08:48 05.11.2020
5874 Clouds 3 1009 86 10000 7 290 08:29 05.11.2020
5875 Clouds 3 1008 86 10000 8 280 07:42 05.11.2020
5876 Clouds 3 1008 86 10000 8 280 07:23 05.11.2020
5877 Clouds 3 1007 86 10000 9 290 06:42 05.11.2020
5878 Clouds 2 1007 100 10000 9 280 05:54 05.11.2020
5879 Rain 2 1004 100 9000 8 280 01:39 05.11.2020
5880 Clouds 2 1004 100 10000 7 280 00:34 05.11.2020
5881 Clouds 2 1004 100 10000 7 280 23:46 04.11.2020
5882 Clouds 2 1004 100 10000 7 280 23:26 04.11.2020
5883 Clouds 2 1004 100 10000 7 280 22:54 04.11.2020
5884 Rain 2 1004 100 9000 7 280 22:36 04.11.2020
5885 Rain 2 1004 100 8000 8 280 22:18 04.11.2020
5886 Rain 2 1003 100 10000 8 280 21:42 04.11.2020
5887 Rain 2 1003 100 10000 8 280 21:24 04.11.2020
5888 Clouds 2 1003 93 10000 8 280 20:45 04.11.2020
5889 Clouds 2 1003 93 10000 8 280 20:27 04.11.2020
5890 Clouds 2 1003 93 10000 7 280 19:50 04.11.2020
5891 Clouds 2 1003 100 10000 8 280 19:30 04.11.2020
5892 Clouds 2 1003 100 10000 7 280 18:56 04.11.2020
5893 Clouds 2 1003 100 10000 7 270 18:38 04.11.2020
5894 Clouds 2 1003 100 10000 7 280 18:20 04.11.2020
5895 Clouds 2 1003 100 10000 8 280 17:41 04.11.2020
5896 Rain 2 1004 93 10000 8 280 17:23 04.11.2020
5897 Rain 2 1004 93 10000 7 280 16:42 04.11.2020
5898 Rain 2 1004 100 10000 8 280 16:24 04.11.2020
5899 Clouds 1 1004 100 10000 7 280 15:49 04.11.2020
5900 Clouds 1 1004 100 10000 7 280 15:26 04.11.2020
5901 Clouds 1 1004 100 10000 7 280 14:59 04.11.2020
5902 Clouds 1 1004 100 10000 7 280 14:41 04.11.2020
5903 Clouds 1 1004 100 10000 6 270 14:21 04.11.2020
5904 Rain 1 1004 100 10000 8 270 13:47 04.11.2020
5905 Clouds 1 1004 100 10000 7 260 13:20 04.11.2020
5906 Clouds 1 1004 100 10000 7 260 12:54 04.11.2020
5907 Clouds 1 1004 100 10000 8 260 12:36 04.11.2020
5908 Snow 1 1004 100 9000 7 260 12:18 04.11.2020
5909 Rain 1 1004 100 10000 8 260 11:42 04.11.2020
5910 Snow 1 1004 93 10000 8 250 11:20 04.11.2020
5911 Clouds 1 1004 86 10000 8 250 10:47 04.11.2020
5912 Clouds 1 1004 86 10000 8 250 10:22 04.11.2020
5913 Clouds 1 1004 92 10000 7 250 09:53 04.11.2020
5914 Rain 0 1005 92 8000 8 250 09:25 04.11.2020
5915 Clouds 0 1006 92 10000 7 250 08:47 04.11.2020
5916 Clouds -1 1006 100 10000 8 250 08:21 04.11.2020
5917 Clouds -1 1006 100 10000 8 250 07:55 04.11.2020
5918 Clouds -1 1006 100 10000 7 240 07:30 04.11.2020
5919 Clouds -1 1007 92 10000 7 240 06:55 04.11.2020
5920 Clouds -1 1008 86 10000 6 240 06:36 04.11.2020
5921 Clouds -3 1011 92 10000 6 230 03:55 04.11.2020
5922 Clear -3 1013 86 10000 6 240 02:24 04.11.2020
5923 Clear -3 1015 86 10000 5 230 00:43 04.11.2020
5924 Clear -3 1016 92 10000 5 240 23:44 03.11.2020
5925 Clear -3 1016 92 10000 5 240 23:23 03.11.2020
5926 Clear -4 1017 100 10000 5 240 22:41 03.11.2020
5927 Clear -4 1017 100 10000 4 240 22:21 03.11.2020
5928 Clear -4 1017 100 10000 4 240 21:56 03.11.2020
5929 Clear -4 1018 100 10000 5 240 21:38 03.11.2020
5930 Clear -4 1018 100 10000 4 240 21:20 03.11.2020
5931 Clear -4 1019 100 10000 4 250 20:44 03.11.2020
5932 Clear -4 1019 100 10000 4 250 20:44 03.11.2020
5933 Clear -4 1019 100 10000 4 250 20:23 03.11.2020
5934 Clear -3 1020 92 10000 4 250 19:44 03.11.2020
5935 Clear -3 1020 92 10000 4 250 19:44 03.11.2020
5936 Clear -3 1020 92 10000 4 250 19:23 03.11.2020
5937 Clear -3 1020 92 10000 6 250 18:46 03.11.2020
5938 Clear -3 1021 100 10000 7 260 18:21 03.11.2020
5939 Clear -3 1021 100 10000 7 260 17:59 03.11.2020
5940 Clouds -3 1021 100 10000 7 250 17:41 03.11.2020
5941 Clouds -2 1021 92 10000 7 260 17:22 03.11.2020
5942 Clouds -2 1021 92 10000 7 260 16:45 03.11.2020
5943 Clouds -2 1021 92 10000 7 260 16:45 03.11.2020
5944 Clouds -2 1021 92 10000 7 260 16:23 03.11.2020
5945 Clouds -2 1021 92 10000 7 250 15:46 03.11.2020
5946 Clouds -2 1021 92 10000 7 250 15:25 03.11.2020
5947 Snow -3 1022 100 4700 6 240 14:52 03.11.2020
5948 Snow -3 1022 100 4700 6 240 14:33 03.11.2020
5949 Clear -3 1022 86 10000 6 240 13:46 03.11.2020
5950 Clear -3 1022 86 10000 6 240 13:23 03.11.2020
5951 Clear -3 1023 86 10000 6 240 12:59 03.11.2020
5952 Clear -3 1023 86 10000 6 240 12:37 03.11.2020
5953 Clear -3 1023 79 10000 5 230 12:19 03.11.2020
5954 Clear -3 1024 79 10000 5 240 11:41 03.11.2020
5955 Clear -4 1024 85 10000 5 250 11:20 03.11.2020
5956 Clear -4 1024 85 10000 5 240 10:39 03.11.2020
5957 Clear -3 1024 86 10000 4 240 10:21 03.11.2020
5958 Clear -3 1024 86 10000 4 240 09:51 03.11.2020
5959 Clear -3 1025 86 10000 4 240 09:33 03.11.2020
5960 Clear -3 1025 86 10000 4 260 08:56 03.11.2020
5961 Clear -4 1025 92 10000 6 280 08:35 03.11.2020
5962 Clear -4 1025 100 10000 4 260 07:54 03.11.2020
5963 Clouds -4 1025 100 10000 4 280 07:27 03.11.2020
5964 Clouds -4 1025 100 10000 5 280 06:51 03.11.2020
5965 Snow -4 1025 100 10000 4 290 05:49 03.11.2020
5966 Snow -4 1024 100 5000 3 280 03:20 03.11.2020
5967 Clouds -4 1023 100 10000 2 310 00:42 03.11.2020
5968 Clouds -4 1023 100 10000 3 300 23:54 02.11.2020
5969 Clouds -4 1023 100 10000 3 310 23:36 02.11.2020
5970 Clouds -4 1022 100 10000 3 300 22:56 02.11.2020
5971 Clouds -4 1022 100 10000 3 290 22:36 02.11.2020
5972 Snow -4 1022 100 9000 4 300 21:59 02.11.2020
5973 Snow -4 1022 100 10000 3 320 21:38 02.11.2020
5974 Clouds -4 1022 100 10000 3 330 21:19 02.11.2020
5975 Clouds -4 1022 100 10000 3 320 20:41 02.11.2020
5976 Clouds -4 1022 100 10000 3 280 20:20 02.11.2020
5977 Clouds -4 1022 100 10000 3 280 19:49 02.11.2020
5978 Clouds -4 1022 100 10000 3 280 19:27 02.11.2020
5979 Clouds -4 1022 100 10000 4 270 18:57 02.11.2020
5980 Clouds -4 1022 100 10000 5 260 18:39 02.11.2020
5981 Clouds -4 1022 100 10000 4 270 18:20 02.11.2020
5982 Snow -4 1022 100 3900 4 260 17:42 02.11.2020
5983 Snow -4 1022 100 3900 4 260 17:24 02.11.2020
5984 Snow -4 1022 100 8000 4 270 16:54 02.11.2020
5985 Snow -4 1022 100 7000 5 280 16:36 02.11.2020
5986 Clouds -4 1022 100 10000 7 280 16:18 02.11.2020
5987 Clouds -3 1022 100 10000 7 260 15:39 02.11.2020
5988 Clouds -3 1022 100 10000 6 260 15:20 02.11.2020
5989 Clouds -3 1022 100 10000 6 260 15:20 02.11.2020
5990 Clouds -3 1022 100 10000 5 250 14:49 02.11.2020
5991 Clouds -3 1021 100 10000 5 260 14:19 02.11.2020
5992 Clouds -3 1021 100 10000 5 260 13:51 02.11.2020
5993 Clouds -3 1021 100 10000 4 250 13:22 02.11.2020
5994 Clouds -3 1021 100 10000 4 250 12:52 02.11.2020
5995 Clouds -3 1021 100 10000 4 240 12:28 02.11.2020
5996 Clouds -3 1021 100 10000 4 250 11:46 02.11.2020
5997 Clouds -3 1021 100 10000 5 230 11:22 02.11.2020
5998 Clouds -3 1021 100 10000 5 230 10:59 02.11.2020
5999 Clouds -3 1021 100 10000 3 240 10:39 02.11.2020
6000 Clear -2 1021 100 10000 4 240 10:18 02.11.2020
6001 Clear -2 1021 100 10000 4 240 09:42 02.11.2020
6002 Clear -2 1021 100 10000 4 240 09:21 02.11.2020
6003 Clear -1 1021 92 10000 4 250 08:39 02.11.2020
6004 Clouds -2 1021 100 10000 4 260 08:19 02.11.2020
6005 Clouds -2 1021 100 10000 5 270 07:43 02.11.2020
6006 Clouds -2 1021 100 10000 6 280 06:48 02.11.2020
6007 Clear -2 1021 100 10000 5 270 06:22 02.11.2020
6008 Clouds -1 1019 100 10000 6 290 01:39 02.11.2020
6009 Clouds -1 1019 100 10000 6 280 00:42 02.11.2020
6010 Clouds -1 1019 100 10000 6 280 00:23 02.11.2020
6011 Clouds 0 1018 97 10000 5 280 23:40 01.11.2020
6012 Clouds 0 1018 97 10000 6 280 23:21 01.11.2020
6013 Clouds 0 1018 97 10000 5 290 22:45 01.11.2020
6014 Clouds 0 1018 97 10000 5 290 22:23 01.11.2020
6015 Clouds 0 1017 97 10000 5 290 21:46 01.11.2020
6016 Clouds 0 1017 97 10000 5 290 21:27 01.11.2020
6017 Clouds 0 1017 97 10000 5 290 21:27 01.11.2020
6018 Clouds 0 1017 97 10000 6 290 20:52 01.11.2020
6019 Clouds 0 1017 97 10000 5 290 20:30 01.11.2020
6020 Snow 0 1017 95 10000 5 290 19:59 01.11.2020
6021 Snow 0 1016 95 10000 5 290 19:41 01.11.2020
6022 Snow 0 1016 96 10000 5 290 19:21 01.11.2020
6023 Snow -1 1016 100 8000 5 290 18:41 01.11.2020
6024 Snow -1 1016 100 7000 4 290 18:19 01.11.2020
6025 Snow -1 1016 100 7000 4 290 18:19 01.11.2020
6026 Snow -1 1016 100 7000 4 290 17:56 01.11.2020
6027 Snow -1 1016 100 10000 5 290 17:37 01.11.2020
6028 Snow -1 1015 100 9000 4 300 17:18 01.11.2020
6029 Snow -1 1015 100 8000 6 310 16:39 01.11.2020
6030 Snow 0 1015 97 5000 6 300 16:19 01.11.2020
6031 Snow 0 1014 97 2600 5 300 15:40 01.11.2020
6032 Snow 0 1014 97 2600 5 300 15:21 01.11.2020
6033 Snow 0 1014 97 8000 5 300 14:54 01.11.2020
6034 Snow 0 1013 97 9000 5 300 14:36 01.11.2020
6035 Clouds 0 1013 98 10000 4 290 14:18 01.11.2020
6036 Clouds 0 1013 98 10000 4 290 14:18 01.11.2020
6037 Clouds 0 1012 98 10000 5 310 13:44 01.11.2020
6038 Clouds 0 1012 98 10000 5 310 13:26 01.11.2020
6039 Clouds 0 1012 98 10000 6 300 12:43 01.11.2020
6040 Clouds 0 1011 97 10000 5 280 12:22 01.11.2020
6041 Clouds 0 1011 97 10000 5 280 11:50 01.11.2020
6042 Clouds 0 1010 97 10000 4 290 11:19 01.11.2020
6043 Clouds 0 1010 97 10000 5 300 10:43 01.11.2020
6044 Clouds 0 1010 94 10000 5 300 10:24 01.11.2020
6045 Clouds 0 1010 94 10000 4 290 09:53 01.11.2020
6046 Clouds 0 1010 94 10000 5 290 09:34 01.11.2020
6047 Snow 0 1009 96 2000 4 300 08:46 01.11.2020
6048 Snow 0 1009 98 2500 4 300 08:19 01.11.2020
6049 Snow 0 1009 98 3700 4 290 07:35 01.11.2020
6050 Snow 0 1009 98 1900 3 240 03:26 01.11.2020
6051 Snow 1 1009 98 8000 4 230 01:47 01.11.2020
6052 Clouds 0 1010 98 10000 4 230 00:23 01.11.2020
6053 Clear 0 1010 94 10000 3 210 23:25 31.10.2020
6054 Clear 0 1010 94 10000 4 210 22:56 31.10.2020
6055 Clear 0 1011 94 10000 4 220 22:36 31.10.2020
6056 Clear 1 1011 86 10000 4 220 22:18 31.10.2020
6057 Clear 0 1011 94 10000 5 220 21:43 31.10.2020
6058 Clear 0 1011 94 10000 5 220 21:18 31.10.2020
6059 Clear 0 1011 94 10000 5 210 20:38 31.10.2020
6060 Clear 0 1012 93 10000 4 210 20:18 31.10.2020
6061 Clear 0 1012 93 10000 4 220 19:40 31.10.2020
6062 Clear 0 1013 92 10000 3 220 19:20 31.10.2020
6063 Clear 0 1013 92 10000 3 220 18:47 31.10.2020
6064 Clear 0 1013 93 10000 3 220 18:23 31.10.2020
6065 Clear 0 1013 93 10000 4 220 17:40 31.10.2020
6066 Clear 0 1014 94 10000 4 220 17:22 31.10.2020
6067 Clear 0 1014 94 10000 4 220 16:43 31.10.2020
6068 Clear 0 1014 94 10000 4 220 16:25 31.10.2020
6069 Clear 0 1014 94 10000 4 220 15:45 31.10.2020
6070 Clear 0 1014 95 10000 4 220 15:24 31.10.2020
6071 Clear 1 1014 86 10000 6 220 14:50 31.10.2020
6072 Clear 1 1014 86 10000 5 220 14:31 31.10.2020
6073 Clear 1 1014 86 10000 5 210 13:50 31.10.2020
6074 Clear 1 1015 86 10000 4 210 13:26 31.10.2020
6075 Clear 1 1015 86 10000 5 210 12:43 31.10.2020
6076 Clear 2 1015 80 10000 5 200 11:51 31.10.2020
6077 Clear 2 1015 80 10000 5 200 11:30 31.10.2020
6078 Clear 2 1015 80 10000 5 200 10:59 31.10.2020
6079 Clear 2 1016 80 10000 4 200 10:36 31.10.2020
6080 Clear 2 1016 80 10000 5 210 09:47 31.10.2020
6081 Clear 2 1016 80 10000 5 210 09:28 31.10.2020
6082 Clear 2 1017 80 10000 6 210 08:47 31.10.2020
6083 Clear 2 1017 80 10000 6 200 07:59 31.10.2020
6084 Clouds 1 1017 95 10000 5 210 07:27 31.10.2020
6085 Clouds 1 1018 100 10000 5 210 06:42 31.10.2020
6086 Clouds 1 1018 100 10000 5 210 06:20 31.10.2020
6087 Clouds 1 1019 100 10000 5 210 03:46 31.10.2020
6088 Clouds 1 1019 100 7000 4 220 01:30 31.10.2020
6089 Mist 1 1020 100 5000 5 230 00:47 31.10.2020
6090 Mist 1 1020 100 1800 5 220 23:53 30.10.2020
6091 Mist 1 1020 100 1400 4 230 23:27 30.10.2020
6092 Mist 1 1020 100 4100 5 230 22:56 30.10.2020
6093 Clouds 1 1020 100 10000 5 230 22:28 30.10.2020
6094 Clouds 2 1020 100 10000 5 240 21:59 30.10.2020
6095 Clouds 2 1020 100 10000 5 240 21:40 30.10.2020
6096 Clouds 2 1020 100 10000 5 240 21:21 30.10.2020
6097 Clouds 2 1020 100 10000 5 240 20:43 30.10.2020
6098 Clouds 2 1020 100 10000 5 240 20:24 30.10.2020
6099 Clouds 2 1020 100 10000 5 240 19:53 30.10.2020
6100 Clouds 2 1020 100 10000 5 240 19:21 30.10.2020
6101 Clouds 2 1020 100 10000 5 240 18:52 30.10.2020
6102 Clouds 2 1020 100 10000 4 240 18:34 30.10.2020
6103 Clouds 2 1020 100 10000 4 240 17:57 30.10.2020
6104 Clouds 2 1020 100 10000 4 230 17:39 30.10.2020
6105 Clouds 2 1020 100 10000 4 240 17:20 30.10.2020
6106 Clouds 2 1020 100 10000 3 230 16:49 30.10.2020
6107 Clouds 1 1020 100 10000 4 230 16:19 30.10.2020
6108 Clouds 1 1020 100 10000 4 240 15:41 30.10.2020
6109 Clouds 1 1020 100 10000 3 240 15:20 30.10.2020
6110 Mist 1 1020 100 5000 3 240 14:45 30.10.2020
6111 Mist 1 1020 100 5000 3 240 14:26 30.10.2020
6112 Fog 1 1020 100 600 5 250 13:55 30.10.2020
6113 Fog 1 1020 100 900 5 250 13:37 30.10.2020
6114 Fog 1 1020 100 600 5 250 13:18 30.10.2020
6115 Fog 1 1020 100 550 5 250 12:24 30.10.2020
6116 Fog 1 1020 100 1100 4 250 11:59 30.10.2020
6117 Clouds 1 1020 100 10000 5 250 11:40 30.10.2020
6118 Clouds 1 1020 100 10000 5 250 11:19 30.10.2020
6119 Fog 1 1020 100 2100 5 250 10:47 30.10.2020
6120 Fog 1 1020 100 2100 5 250 10:23 30.10.2020
6121 Clouds 2 1019 100 10000 4 270 09:45 30.10.2020
6122 Clouds 2 1019 100 10000 4 270 09:22 30.10.2020
6123 Clouds 2 1018 100 10000 6 290 08:42 30.10.2020
6124 Clouds 2 1018 100 10000 6 290 08:23 30.10.2020
6125 Clouds 1 1018 100 10000 4 280 07:49 30.10.2020
6126 Clouds 1 1018 100 10000 4 280 07:31 30.10.2020
6127 Snow 1 1018 100 9000 4 290 06:38 30.10.2020
6128 Snow 0 1016 98 8000 2 300 04:47 30.10.2020
6129 Clouds 0 1015 97 10000 2 290 02:27 30.10.2020
6130 Clouds 0 1014 97 10000 4 310 00:40 30.10.2020
6131 Clouds 0 1013 97 10000 4 310 23:49 29.10.2020
6132 Clouds 0 1013 97 10000 4 310 23:31 29.10.2020
6133 Clouds 0 1012 97 10000 4 330 22:58 29.10.2020
6134 Clouds 0 1012 97 10000 5 330 22:40 29.10.2020
6135 Clouds 0 1011 97 10000 6 320 22:21 29.10.2020
6136 Clouds 0 1011 97 10000 5 320 21:37 29.10.2020
6137 Clouds 1 1010 100 10000 6 320 21:18 29.10.2020
6138 Clouds 1 1009 100 10000 5 320 20:41 29.10.2020
6139 Clouds 1 1009 100 10000 4 310 20:19 29.10.2020
6140 Clouds 1 1008 100 10000 4 300 19:43 29.10.2020
6141 Clouds 1 1008 100 10000 4 300 19:22 29.10.2020
6142 Clouds 0 1007 98 10000 4 290 18:49 29.10.2020
6143 Clouds 0 1007 98 10000 4 290 18:29 29.10.2020
6144 Snow 0 1007 98 10000 3 270 17:57 29.10.2020
6145 Snow -1 1007 100 7000 2 260 17:38 29.10.2020
6146 Snow -1 1006 100 3700 2 240 17:19 29.10.2020
6147 Snow -2 1006 100 4300 2 230 16:45 29.10.2020
6148 Snow -2 1006 100 3700 2 210 16:20 29.10.2020
6149 Snow -2 1006 100 3700 2 210 15:56 29.10.2020
6150 Snow -3 1006 100 6000 3 180 15:37 29.10.2020
6151 Snow -3 1006 100 1900 3 190 15:19 29.10.2020
6152 Snow -4 1007 100 1200 3 190 14:44 29.10.2020
6153 Snow -4 1007 100 1100 4 190 14:23 29.10.2020
6154 Clouds -4 1007 100 10000 4 190 13:47 29.10.2020
6155 Clouds -4 1007 100 10000 4 190 13:27 29.10.2020
6156 Snow -5 1008 100 3500 4 190 12:44 29.10.2020
6157 Snow -5 1008 100 7000 5 190 12:20 29.10.2020
6158 Snow -5 1008 100 7000 5 190 11:56 29.10.2020
6159 Snow -6 1008 100 1700 5 190 11:38 29.10.2020
6160 Snow -6 1009 100 4200 4 170 11:20 29.10.2020
6161 Snow -7 1009 100 1300 4 160 10:37 29.10.2020
6162 Snow -7 1009 100 1300 4 160 10:37 29.10.2020
6163 Snow -7 1009 100 1300 4 160 10:37 29.10.2020
6164 Snow -8 1009 100 1100 5 160 10:19 29.10.2020
6165 Snow -8 1010 100 650 5 150 09:50 29.10.2020
6166 Snow -8 1010 100 650 5 150 09:26 29.10.2020
6167 Snow -8 1011 92 1700 5 150 08:46 29.10.2020
6168 Snow -8 1011 92 1700 5 150 08:24 29.10.2020
6169 Snow -8 1012 85 4100 4 150 07:51 29.10.2020
6170 Snow -8 1013 78 2800 4 150 07:21 29.10.2020
6171 Clear -8 1014 67 10000 5 180 06:47 29.10.2020
6172 Clear -11 1017 85 10000 2 190 04:50 29.10.2020
6173 Clouds -12 1018 89 10000 2.28 186 02:32 29.10.2020
6174 Clear -13 1021 89 10000 1.87 241 00:45 29.10.2020
6175 Clear -14 1021 89 10000 1.46 273 00:23 29.10.2020
6176 Clear -14 1021 89 10000 1.46 273 23:43 28.10.2020
6177 Clear -14 1022 89 10000 1.61 301 23:20 28.10.2020
6178 Clear -16 1020 84 10000 2 280 22:44 28.10.2020
6179 Clear -16 1020 84 10000 2 280 22:25 28.10.2020
6180 Clear -16 1020 84 10000 2 290 21:45 28.10.2020
6181 Clear -16 1020 84 10000 2 290 21:26 28.10.2020
6182 Clear -16 1020 91 10000 2 280 20:59 28.10.2020
6183 Clear -16 1020 84 10000 2 290 20:40 28.10.2020
6184 Clear -16 1020 84 10000 3 280 20:18 28.10.2020
6185 Clear -17 1020 91 10000 2 300 19:45 28.10.2020
6186 Clear -17 1020 91 10000 2 300 19:26 28.10.2020
6187 Clear -14 1020 92 10000 3 330 18:43 28.10.2020
6188 Clear -14 1020 92 10000 3 330 18:20 28.10.2020
6189 Clear -13 1020 84 10000 3 330 17:44 28.10.2020
6190 Clear -13 1020 84 10000 4 320 17:22 28.10.2020
6191 Clear -13 1020 84 10000 4 320 16:47 28.10.2020
6192 Clear -13 1020 84 10000 4 320 16:29 28.10.2020
6193 Clear -12 1020 85 10000 4 320 15:45 28.10.2020
6194 Clear -13 1021 93 10000 3.41 341 15:20 28.10.2020
6195 Clear -10 1019 72 10000 5 320 14:53 28.10.2020
6196 Clear -10 1019 72 10000 5 320 14:32 28.10.2020
6197 Clear -12 1021 93 10000 3.92 336 13:59 28.10.2020
6198 Clear -12 1021 93 10000 4.07 334 12:38 28.10.2020
6199 Clear -12 1021 93 10000 4.07 334 12:38 28.10.2020
6200 Clear -12 1021 93 10000 4.32 332 12:20 28.10.2020
6201 Clear -12 1021 93 10000 4.32 332 11:43 28.10.2020
6202 Clear -11 1020 93 10000 4.58 335 11:22 28.10.2020
6203 Clear -9 1017 72 10000 5 320 10:57 28.10.2020
6204 Clear -9 1017 72 10000 5 320 10:57 28.10.2020
6205 Clear -9 1017 72 10000 5 320 10:39 28.10.2020
6206 Clear -9 1017 72 10000 6 320 10:21 28.10.2020
6207 Clear -9 1017 72 10000 6 320 09:38 28.10.2020
6208 Clear -9 1017 72 10000 6 320 09:38 28.10.2020
6209 Clear -9 1017 72 10000 5 330 09:20 28.10.2020
6210 Clear -10 1017 78 10000 5 330 08:47 28.10.2020
6211 Clear -10 1017 78 10000 5 330 08:25 28.10.2020
6212 Clear -11 1017 78 10000 5 330 07:48 28.10.2020
6213 Clear -11 1017 78 10000 5 330 07:30 28.10.2020
6214 Clear -12 1017 85 10000 6 330 06:40 28.10.2020
6215 Clear -13 1017 84 10000 5 330 05:49 28.10.2020
6216 Clear -13 1017 84 10000 4 330 04:52 28.10.2020
6217 Clear -14 1017 92 10000 4 330 04:25 28.10.2020
6218 Clear -13 1017 92 10000 4 350 02:25 28.10.2020
6219 Clear -12 1016 85 10000 4 350 01:29 28.10.2020
6220 Clear -12 1016 92 10000 5 350 23:54 27.10.2020
6221 Clear -12 1016 92 10000 5 350 23:26 27.10.2020
6222 Clear -12 1016 92 10000 5 350 22:57 27.10.2020
6223 Clear -11 1016 92 10000 4 360 22:38 27.10.2020
6224 Clear -11 1016 92 10000 5 10 22:19 27.10.2020
6225 Clear -11 1016 92 10000 5 10 21:55 27.10.2020
6226 Clear -11 1016 92 10000 5 360 21:37 27.10.2020
6227 Clear -11 1016 92 10000 5 360 21:37 27.10.2020
6228 Clear -11 1016 92 10000 5 360 21:37 27.10.2020
6229 Clear -11 1016 92 10000 5 360 21:37 27.10.2020
6230 Clear -11 1016 92 10000 5 350 21:18 27.10.2020
6231 Clear -11 1017 92 10000 5 360 20:41 27.10.2020
6232 Clear -11 1017 92 10000 6 360 20:22 27.10.2020
6233 Clear -10 1017 85 10000 5 360 19:39 27.10.2020
6234 Clear -10 1017 85 10000 5 360 19:21 27.10.2020
6235 Clear -10 1017 92 10000 6 10 18:58 27.10.2020
6236 Clear -10 1017 92 10000 5 20 18:40 27.10.2020
6237 Clear -9 1017 85 10000 6 20 18:19 27.10.2020
6238 Clear -9 1017 85 10000 6 20 17:43 27.10.2020
6239 Clear -9 1017 92 10000 6 20 17:21 27.10.2020
6240 Clear -8 1017 85 10000 6 20 16:49 27.10.2020
6241 Clear -8 1017 85 10000 6 20 16:30 27.10.2020
6242 Clear -8 1017 85 10000 6 20 15:55 27.10.2020
6243 Clear -8 1017 85 10000 6 20 15:37 27.10.2020
6244 Clear -7 1016 85 10000 6 30 15:18 27.10.2020
6245 Clear -7 1016 85 10000 6 30 14:42 27.10.2020
6246 Clear -7 1016 85 10000 6 30 14:23 27.10.2020
6247 Clear -6 1016 79 10000 5 20 13:46 27.10.2020
6248 Clear -6 1016 79 10000 5 20 13:22 27.10.2020
6249 Clouds -6 1016 85 10000 6 30 12:40 27.10.2020
6250 Clouds -5 1015 79 10000 6 30 12:22 27.10.2020
6251 Clouds -5 1015 79 10000 5 30 11:42 27.10.2020
6252 Clouds -6 1015 85 10000 6 30 11:23 27.10.2020
6253 Clouds -6 1015 85 10000 7 40 10:47 27.10.2020
6254 Clouds -6 1015 85 10000 7 40 10:28 27.10.2020
6255 Snow -5 1015 85 10000 6 40 09:46 27.10.2020
6256 Snow -5 1015 85 10000 6 40 09:26 27.10.2020
6257 Snow -5 1015 85 10000 7 40 08:39 27.10.2020
6258 Snow -5 1015 85 10000 6 40 08:20 27.10.2020
6259 Snow -5 1014 92 10000 7 50 07:45 27.10.2020
6260 Snow -5 1014 92 10000 7 50 07:45 27.10.2020
6261 Snow -5 1014 92 10000 7 50 07:26 27.10.2020
6262 Snow -5 1015 100 10000 6 50 06:22 27.10.2020
6263 Snow -5 1015 100 10000 6 50 06:22 27.10.2020
6264 Snow -5 1015 100 10000 7 60 05:53 27.10.2020
6265 Snow -5 1015 100 10000 7 60 05:53 27.10.2020
6266 Snow -5 1015 100 10000 7 60 05:34 27.10.2020
6267 Clouds -5 1015 100 10000 6 50 04:50 27.10.2020
6268 Clouds -5 1014 100 10000 6 60 02:34 27.10.2020
6269 Clouds -5 1014 100 10000 7 60 00:58 27.10.2020
6270 Clouds -4 1014 100 10000 6 70 23:46 26.10.2020
6271 Clouds -4 1014 100 10000 6 70 23:26 26.10.2020
6272 Clouds -4 1014 100 10000 7 70 22:49 26.10.2020
6273 Clouds -4 1014 100 10000 7 70 22:27 26.10.2020
6274 Clouds -4 1014 100 10000 7 70 21:50 26.10.2020
6275 Clouds -4 1014 100 10000 7 70 21:50 26.10.2020
6276 Clouds -4 1013 100 10000 6 80 21:21 26.10.2020
6277 Clouds -4 1013 100 10000 6 80 20:58 26.10.2020
6278 Clouds -4 1013 100 10000 7 70 20:39 26.10.2020
6279 Clouds -4 1013 100 10000 6 80 20:19 26.10.2020
6280 Clouds -4 1013 100 10000 7 80 19:47 26.10.2020
6281 Clouds -4 1013 100 10000 7 80 19:24 26.10.2020
6282 Clouds -4 1013 100 10000 7 90 18:45 26.10.2020
6283 Clouds -4 1013 100 10000 7 90 18:25 26.10.2020
6284 Clouds -4 1013 100 10000 6 90 17:59 26.10.2020
6285 Clouds -3 1013 92 10000 6 80 17:39 26.10.2020
6286 Clouds -3 1013 92 10000 7 90 17:21 26.10.2020
6287 Clouds -3 1013 92 10000 6 90 16:43 26.10.2020
6288 Clouds -3 1013 92 10000 7 90 16:21 26.10.2020
6289 Clouds -3 1013 92 10000 7 90 15:43 26.10.2020
6290 Clouds -3 1013 92 10000 7 90 15:24 26.10.2020
6291 Clouds -3 1013 100 10000 7 90 14:53 26.10.2020
6292 Clouds -3 1013 100 10000 6 90 14:32 26.10.2020
6293 Clouds -3 1012 100 10000 7 90 13:44 26.10.2020
6294 Clouds -3 1012 100 10000 7 90 13:24 26.10.2020
6295 Clouds -3 1012 100 10000 7 90 12:52 26.10.2020
6296 Clouds -3 1012 100 10000 7 90 12:31 26.10.2020
6297 Clouds -3 1012 100 10000 7 90 11:57 26.10.2020
6298 Clouds -3 1012 100 10000 6 90 11:39 26.10.2020
6299 Clouds -3 1012 100 10000 6 90 11:39 26.10.2020
6300 Snow -3 1011 100 10000 7 100 11:21 26.10.2020
6301 Snow -3 1011 100 10000 7 100 10:48 26.10.2020
6302 Snow -3 1011 100 10000 7 100 10:26 26.10.2020
6303 Snow -3 1011 100 10000 7 110 09:55 26.10.2020
6304 Snow -3 1011 100 10000 8 100 09:29 26.10.2020
6305 Clouds -3 1011 100 10000 7 100 08:54 26.10.2020
6306 Snow -3 1011 100 10000 8 100 08:24 26.10.2020
6307 Snow -3 1010 100 10000 7 110 07:38 26.10.2020
6308 Snow -3 1010 100 10000 6 110 07:20 26.10.2020
6309 Snow -3 1010 100 9000 5 120 05:31 26.10.2020
6310 Clouds -3 1010 100 10000 5 120 04:19 26.10.2020
6311 Clouds -3 1010 100 10000 4 110 03:20 26.10.2020
6312 Clouds -3 1010 100 10000 4 110 03:20 26.10.2020
6313 Clouds -3 1009 100 10000 5 120 01:34 26.10.2020
6314 Clouds -3 1010 92 10000 5 110 00:35 26.10.2020
6315 Clouds -3 1010 92 10000 4 120 23:46 25.10.2020
6316 Clouds -3 1010 92 10000 4 120 23:25 25.10.2020
6317 Clouds -3 1010 92 10000 5 120 22:45 25.10.2020
6318 Clouds -3 1010 92 10000 5 120 22:27 25.10.2020
6319 Clouds -4 1010 100 9000 4 110 21:51 25.10.2020
6320 Clouds -4 1010 100 10000 5 110 21:31 25.10.2020
6321 Clouds -4 1010 100 10000 4 110 20:59 25.10.2020
6322 Clouds -4 1010 100 10000 4 110 20:40 25.10.2020
6323 Clouds -4 1010 100 10000 4 120 20:22 25.10.2020
6324 Clouds -4 1010 100 10000 4 120 19:50 25.10.2020
6325 Clouds -4 1010 100 10000 5 110 19:27 25.10.2020
6326 Clouds -4 1010 100 10000 5 110 18:59 25.10.2020
6327 Clouds -4 1010 100 10000 4 110 18:40 25.10.2020
6328 Clouds -4 1010 100 10000 4 110 18:21 25.10.2020
6329 Clouds -4 1010 100 10000 4 110 17:54 25.10.2020
6330 Clouds -4 1010 100 10000 4 110 17:36 25.10.2020
6331 Clouds -4 1010 100 10000 4 120 17:18 25.10.2020
6332 Snow -4 1010 100 10000 5 120 16:39 25.10.2020
6333 Snow -4 1010 100 10000 5 120 16:21 25.10.2020
6334 Snow -4 1011 100 10000 5 130 15:47 25.10.2020
6335 Snow -4 1011 100 10000 5 130 15:26 25.10.2020
6336 Snow -4 1011 100 7000 5 130 14:52 25.10.2020
6337 Snow -4 1011 100 7000 5 130 14:29 25.10.2020
6338 Snow -4 1011 100 7000 6 140 13:44 25.10.2020
6339 Snow -4 1011 100 7000 6 140 13:23 25.10.2020
6340 Snow -4 1011 100 9000 5 140 12:49 25.10.2020
6341 Snow -4 1011 100 9000 5 140 12:27 25.10.2020
6342 Snow -4 1011 100 6000 5 130 11:58 25.10.2020
6343 Snow -3 1011 92 6000 5 140 11:40 25.10.2020
6344 Snow -3 1011 92 3600 5 140 11:19 25.10.2020
6345 Snow -4 1011 100 3900 5 140 10:45 25.10.2020
6346 Snow -4 1011 100 3900 5 140 10:25 25.10.2020
6347 Snow -4 1011 92 5000 5 140 09:50 25.10.2020
6348 Snow -4 1011 100 3800 5 140 09:21 25.10.2020
6349 Snow -4 1011 100 3800 5 140 08:56 25.10.2020
6350 Snow -4 1012 92 3300 6 140 08:37 25.10.2020
6351 Snow -4 1012 100 1800 6 140 08:19 25.10.2020
6352 Snow -5 1012 100 2100 6 140 07:42 25.10.2020
6353 Snow -5 1012 100 8000 6 140 06:52 25.10.2020
6354 Snow -5 1013 92 2600 6 140 06:19 25.10.2020
6355 Clouds -5 1013 92 10000 6 140 05:18 25.10.2020
6356 Clouds -5 1014 92 10000 6 130 04:20 25.10.2020
6357 Clouds -4 1015 100 10000 5 150 02:19 25.10.2020
6358 Clouds -4 1016 92 10000 4 160 00:52 25.10.2020
6359 Clouds -4 1016 92 10000 4 160 00:26 25.10.2020
6360 Clouds -4 1017 100 10000 4 160 23:54 24.10.2020
6361 Clouds -4 1017 92 10000 4 170 23:29 24.10.2020
6362 Clouds -4 1017 100 10000 3 170 22:57 24.10.2020
6363 Clouds -4 1017 100 10000 3 170 22:38 24.10.2020
6364 Clouds -4 1017 100 10000 3 180 22:20 24.10.2020
6365 Clouds -4 1018 92 10000 4 190 21:43 24.10.2020
6366 Clouds -4 1018 92 10000 4 190 21:21 24.10.2020
6367 Clouds -4 1018 92 10000 4 190 21:21 24.10.2020
6368 Snow -4 1018 92 10000 5 180 20:49 24.10.2020
6369 Snow -4 1018 92 10000 5 180 20:25 24.10.2020
6370 Snow -4 1018 100 9000 3 190 19:57 24.10.2020
6371 Snow -4 1018 92 9000 3 180 19:37 24.10.2020
6372 Clouds -4 1018 100 10000 3 190 19:19 24.10.2020
6373 Clouds -4 1018 100 10000 3 180 18:46 24.10.2020
6374 Clouds -4 1018 100 10000 3 180 18:26 24.10.2020
6375 Snow -4 1018 100 10000 2 140 17:42 24.10.2020
6376 Snow -4 1018 100 10000 2 140 17:22 24.10.2020
6377 Clouds -5 1018 100 10000 2 110 16:47 24.10.2020
6378 Clouds -5 1018 100 10000 2 110 16:28 24.10.2020
6379 Snow -5 1018 92 10000 3 140 15:41 24.10.2020
6380 Snow -5 1018 92 10000 3 140 15:20 24.10.2020
6381 Snow -5 1018 92 9000 3 130 14:56 24.10.2020
6382 Snow -5 1018 92 10000 2 130 14:29 24.10.2020
6383 Clouds -5 1018 92 10000 2 160 13:49 24.10.2020
6384 Clouds -5 1018 92 10000 2 160 13:31 24.10.2020
6385 Clouds -5 1018 85 10000 1 0 12:58 24.10.2020
6386 Clouds -5 1018 85 10000 1 0 12:58 24.10.2020
6387 Clouds -5 1018 79 10000 2 90 12:37 24.10.2020
6388 Clouds -4 1018 79 10000 1 0 12:19 24.10.2020
6389 Clouds -5 1018 79 10000 1 0 11:43 24.10.2020
6390 Clear -5 1018 73 10000 2 200 11:18 24.10.2020
6391 Clear -4 1017 68 10000 1 0 10:39 24.10.2020
6392 Clouds -5 1017 79 10000 2 70 10:18 24.10.2020
6393 Snow -5 1017 79 9000 3 230 09:42 24.10.2020
6394 Snow -5 1017 79 9000 2.97 230 09:21 24.10.2020
6395 Snow -6 1017 85 10000 2.97 230 08:51 24.10.2020
6396 Snow -6 1017 85 10000 2 350 08:18 24.10.2020
6397 Snow -6 1017 79 10000 2 340 07:48 24.10.2020
6398 Snow -6 1017 79 10000 3 310 07:19 24.10.2020
6399 Snow -6 1017 79 10000 4 270 06:44 24.10.2020
6400 Clouds -7 1016 85 10000 3 280 04:45 24.10.2020
6401 Clouds -7 1015 85 10000 2 300 02:20 24.10.2020
6402 Clouds -7 1015 85 10000 4 310 00:44 24.10.2020
6403 Clouds -7 1015 85 10000 4 310 00:23 24.10.2020
6404 Clouds -6 1015 79 10000 3 300 23:59 23.10.2020
6405 Clouds -6 1014 85 10000 2 290 23:37 23.10.2020
6406 Clouds -6 1014 85 10000 2 280 23:18 23.10.2020
6407 Clouds -6 1014 79 10000 2 340 22:42 23.10.2020
6408 Clouds -6 1014 79 10000 2 340 22:21 23.10.2020
6409 Snow -6 1014 85 10000 2 320 21:53 23.10.2020
6410 Snow -6 1014 85 10000 2 280 21:29 23.10.2020
6411 Snow -7 1014 100 10000 2 280 20:57 23.10.2020
6412 Snow -7 1014 100 10000 3 290 20:37 23.10.2020
6413 Snow -7 1014 100 9000 3 280 20:18 23.10.2020
6414 Snow -7 1013 100 9000 2 280 19:42 23.10.2020
6415 Snow -7 1013 100 9000 2 280 19:24 23.10.2020
6416 Snow -7 1013 100 8000 2 280 18:42 23.10.2020
6417 Snow -8 1013 100 9000 2 270 18:22 23.10.2020
6418 Snow -8 1013 100 10000 2 280 17:44 23.10.2020
6419 Snow -8 1013 100 10000 2 280 17:21 23.10.2020
6420 Clouds -8 1013 92 10000 2 280 16:47 23.10.2020
6421 Clouds -8 1013 92 10000 2 280 16:26 23.10.2020
6422 Clouds -7 1012 85 10000 3 290 15:55 23.10.2020
6423 Clouds -7 1012 92 10000 3 280 15:36 23.10.2020
6424 Clouds -7 1012 92 10000 2 290 15:18 23.10.2020
6425 Clouds -7 1011 92 10000 2 300 14:41 23.10.2020
6426 Clouds -7 1011 92 10000 2 300 14:22 23.10.2020
6427 Clouds -7 1011 92 10000 2 300 14:22 23.10.2020
6428 Clouds -7 1011 85 10000 3 290 13:40 23.10.2020
6429 Clouds -7 1010 85 10000 3 290 13:21 23.10.2020
6430 Clouds -7 1010 85 10000 3 280 12:48 23.10.2020
6431 Clouds -7 1010 85 10000 3 280 12:28 23.10.2020
6432 Clouds -7 1009 85 10000 3 310 11:48 23.10.2020
6433 Clouds -7 1009 85 10000 3 310 11:23 23.10.2020
6434 Clouds -6 1009 79 10000 3 310 10:48 23.10.2020
6435 Clouds -6 1009 79 10000 3 310 10:26 23.10.2020
6436 Clouds -7 1009 85 10000 2 330 09:50 23.10.2020
6437 Clouds -7 1008 85 10000 2 330 09:27 23.10.2020
6438 Clouds -7 1008 85 10000 3 310 08:57 23.10.2020
6439 Clouds -8 1008 92 10000 3 330 08:38 23.10.2020
6440 Clouds -8 1008 92 10000 3 320 07:48 23.10.2020
6441 Clouds -8 1008 92 10000 3 320 07:26 23.10.2020
6442 Clear -9 1007 100 10000 3 330 06:43 23.10.2020
6443 Clear -9 1007 100 10000 4 330 05:59 23.10.2020
6444 Clouds -6 1005 100 10000 4 320 03:29 23.10.2020
6445 Clouds -5 1005 92 10000 3 320 02:26 23.10.2020
6446 Clouds -5 1004 100 10000 3 320 00:49 23.10.2020
6447 Clouds -5 1004 100 10000 3 320 23:59 22.10.2020
6448 Clouds -5 1004 100 10000 2 310 23:31 22.10.2020
6449 Clouds -5 1003 100 10000 3 320 22:56 22.10.2020
6450 Clouds -5 1003 100 10000 3 340 22:38 22.10.2020
6451 Clouds -4 1003 100 10000 4 340 22:19 22.10.2020
6452 Clouds -4 1003 100 10000 4 330 21:43 22.10.2020
6453 Snow -4 1002 100 8000 4 340 21:24 22.10.2020
6454 Snow -4 1002 100 8000 4 340 20:57 22.10.2020
6455 Snow -3 1002 100 10000 5 330 20:39 22.10.2020
6456 Snow -2 1002 100 5000 3 280 20:18 22.10.2020
6457 Snow -1 1001 100 2600 3 260 19:41 22.10.2020
6458 Snow -2 1001 100 3800 3 230 19:19 22.10.2020
6459 Clouds -2 1001 100 10000 2 230 18:43 22.10.2020
6460 Clouds -2 1001 100 10000 2 230 18:21 22.10.2020
6461 Snow -2 1001 100 8000 3 240 17:47 22.10.2020
6462 Snow -2 1001 100 8000 3 240 17:26 22.10.2020
6463 Clouds -2 1001 100 10000 2 240 16:57 22.10.2020
6464 Clouds -2 1001 100 10000 2 260 16:39 22.10.2020
6465 Clouds -2 1001 100 10000 3 250 16:20 22.10.2020
6466 Clouds -2 1001 100 10000 3 250 15:44 22.10.2020
6467 Clouds -2 1001 100 10000 3 250 15:25 22.10.2020
6468 Snow -2 1000 100 10000 3 260 14:47 22.10.2020
6469 Snow -2 1000 100 10000 3 260 14:25 22.10.2020
6470 Clouds -2 1000 100 10000 3 290 13:49 22.10.2020
6471 Clouds -2 1000 100 10000 3 290 13:24 22.10.2020
6472 Snow -2 1000 100 8000 3 300 12:53 22.10.2020
6473 Snow -1 1000 100 7000 4 300 12:24 22.10.2020
6474 Clouds -1 999 92 10000 2 290 11:50 22.10.2020
6475 Clouds -1 999 92 10000 2 300 11:20 22.10.2020
6476 Clouds -1 999 92 10000 2 300 10:51 22.10.2020
6477 Clouds -1 998 92 10000 2 310 10:29 22.10.2020
6478 Clouds -1 998 92 10000 3 320 09:52 22.10.2020
6479 Snow -1 998 100 10000 4 310 09:33 22.10.2020
6480 Snow -1 998 100 10000 3 350 08:51 22.10.2020
6481 Snow -1 998 100 2700 3 350 08:31 22.10.2020
6482 Snow -1 998 100 2000 3 340 07:58 22.10.2020
6483 Snow -1 998 100 8000 3 350 07:36 22.10.2020
6484 Snow -1 997 100 4200 3 340 06:58 22.10.2020
6485 Snow -2 997 100 8000 3 330 06:35 22.10.2020
6486 Snow -2 997 100 1700 2 330 05:42 22.10.2020
6487 Snow -2 997 100 1700 2 340 05:19 22.10.2020
6488 Snow -1 997 100 1800 2 10 01:50 22.10.2020
6489 Snow -1 997 100 4300 2 20 00:26 22.10.2020
6490 Clouds 0 998 99 10000 2 360 23:51 21.10.2020
6491 Clouds 0 998 99 10000 2 360 23:32 21.10.2020
6492 Clouds 0 998 99 10000 2 360 22:43 21.10.2020
6493 Clouds 0 998 99 10000 2 10 22:20 21.10.2020
6494 Clouds 0 998 99 10000 2 10 22:20 21.10.2020
6495 Clouds 0 998 99 10000 2 10 21:56 21.10.2020
6496 Clouds 0 998 99 10000 2 10 21:56 21.10.2020
6497 Clouds 0 998 99 10000 2 350 21:38 21.10.2020
6498 Clouds 0 999 99 10000 3 330 21:18 21.10.2020
6499 Clouds 0 999 99 10000 2 330 20:48 21.10.2020
6500 Clouds 0 999 99 10000 0.16 309 20:19 21.10.2020
6501 Clouds 0 999 99 10000 0.36 247 19:56 21.10.2020
6502 Clouds 0 1000 99 10000 1 310 19:36 21.10.2020
6503 Clouds 0 1000 98 10000 1 0 19:18 21.10.2020
6504 Snow 0 1000 98 4200 1 310 18:45 21.10.2020
6505 Drizzle 0 1000 98 2600 2 290 18:21 21.10.2020
6506 Clouds 1 1001 98 9000 3 270 17:42 21.10.2020
6507 Clouds 1 1001 96 10000 2 270 17:19 21.10.2020
6508 Clouds 1 1001 96 10000 2 270 16:41 21.10.2020
6509 Clouds 1 1001 95 8000 2 250 16:21 21.10.2020
6510 Mist 1 1001 95 4600 2 240 15:55 21.10.2020
6511 Snow 1 1001 95 3900 2 240 15:37 21.10.2020
6512 Clouds 1 1001 92 9000 1 220 15:18 21.10.2020
6513 Clouds 0 1001 92 10000 2 330 14:43 21.10.2020
6514 Clouds 0 1001 90 10000 2 330 14:25 21.10.2020
6515 Snow 2 1001 93 9000 2 250 13:42 21.10.2020
6516 Snow 2 1001 93 9000 2 250 13:24 21.10.2020
6517 Clouds 2 1001 100 10000 2 230 12:47 21.10.2020
6518 Clouds 2 1001 100 10000 2 230 12:24 21.10.2020
6519 Clouds 2 1001 100 10000 3 250 11:59 21.10.2020
6520 Snow 2 1001 100 9000 4 260 11:40 21.10.2020
6521 Snow 2 1001 100 9000 4 260 11:19 21.10.2020
6522 Clouds 2 1001 100 10000 4 250 10:41 21.10.2020
6523 Clouds 2 1001 100 10000 4 250 10:21 21.10.2020
6524 Clouds 2 1001 100 10000 5 250 09:51 21.10.2020
6525 Rain 2 1001 100 9000 5 250 09:28 21.10.2020
6526 Clouds 1 1001 100 10000 5 280 08:42 21.10.2020
6527 Clouds 1 1001 100 10000 5 280 08:24 21.10.2020
6528 Clouds 1 1001 100 10000 5 260 07:58 21.10.2020
6529 Clouds 1 1001 100 10000 5 270 07:31 21.10.2020
6530 Clouds 1 1000 100 10000 5 270 06:50 21.10.2020
6531 Clouds 1 1000 100 10000 5 270 06:26 21.10.2020
6532 Snow 1 999 100 10000 4 280 04:46 21.10.2020
6533 Mist 1 1000 100 2500 2.33 242 00:50 21.10.2020
6534 Rain 2 1001 100 1200 1 150 23:42 20.10.2020
6535 Mist 2 1001 100 4200 1 0 22:52 20.10.2020
6536 Mist 2 1001 100 4200 1 0 22:27 20.10.2020
6537 Mist 2 1001 100 4200 1 0 22:27 20.10.2020
6538 Mist 2 1003 100 5000 2 190 21:48 20.10.2020
6539 Drizzle 2 1003 100 7000 3 190 21:20 20.10.2020
6540 Drizzle 2 1004 100 5000 3 200 20:44 20.10.2020
6541 Mist 2 1004 100 5000 3 200 20:25 20.10.2020
6542 Drizzle 2 1004 100 5000 3 200 20:25 20.10.2020
6543 Drizzle 2 1004 100 5000 3 200 20:25 20.10.2020
6544 Mist 2 1004 100 3800 3 200 19:57 20.10.2020
6545 Rain 2 1005 100 4200 3 190 19:39 20.10.2020
6546 Rain 2 1005 100 4300 4 190 19:21 20.10.2020
6547 Mist 2 1005 100 1200 4 190 18:46 20.10.2020
6548 Mist 2 1005 100 1200 4 190 18:26 20.10.2020
6549 Mist 1 1006 100 3100 3 140 17:43 20.10.2020
6550 Mist 1 1006 100 3100 3 140 17:24 20.10.2020
6551 Fog 1 1007 100 1200 4 150 16:48 20.10.2020
6552 Fog 1 1007 100 1200 4 150 16:26 20.10.2020
6553 Fog 1 1007 100 600 4 160 15:50 20.10.2020
6554 Fog 1 1007 100 450 4 160 15:32 20.10.2020
6555 Fog 1 1008 100 800 3 160 14:56 20.10.2020
6556 Clouds 1 1008 100 10000 3 170 14:37 20.10.2020
6557 Clouds 1 1008 100 10000 3 170 14:19 20.10.2020
6558 Clouds 1 1008 100 10000 2 180 13:42 20.10.2020
6559 Clouds 1 1008 100 10000 2 180 13:22 20.10.2020
6560 Clouds 1 1009 100 10000 2 200 12:54 20.10.2020
6561 Clouds 1 1009 100 10000 1 0 12:36 20.10.2020
6562 Clouds 1 1008 100 10000 1 240 12:18 20.10.2020
6563 Clouds 1 1009 100 10000 2 250 11:36 20.10.2020
6564 Clouds 1 1009 100 10000 2 250 11:18 20.10.2020
6565 Snow 1 1009 100 10000 1 0 10:29 20.10.2020
6566 Snow 1 1009 100 6000 3 250 09:51 20.10.2020
6567 Snow 1 1009 100 4500 3 240 09:21 20.10.2020
6568 Snow 1 1009 100 10000 3 250 08:58 20.10.2020
6569 Snow 0 1008 91 2200 2 260 08:31 20.10.2020
6570 Snow 0 1008 97 10000 3 250 07:51 20.10.2020
6571 Clouds 0 1008 97 10000 3 280 07:25 20.10.2020
6572 Clouds 0 1008 98 10000 3 280 06:29 20.10.2020
6573 Clouds 0 1008 98 10000 3 270 05:22 20.10.2020
6574 Clouds 0 1006 98 10000 4 280 02:44 20.10.2020
6575 Clouds 0 1006 98 10000 4 280 02:18 20.10.2020
6576 Clouds 0 1005 98 9000 5 280 00:57 20.10.2020
6577 Clouds 0 1005 98 10000 4 270 00:39 20.10.2020
6578 Clouds 0 1005 98 10000 4 280 00:19 20.10.2020
6579 Clouds 0 1005 98 10000 4 290 23:40 19.10.2020
6580 Clouds 0 1005 98 10000 4 280 23:19 19.10.2020
6581 Clouds 0 1004 98 10000 4 280 22:42 19.10.2020
6582 Clouds 0 1004 98 10000 4 280 22:20 19.10.2020
6583 Clouds 0 1004 98 10000 4 260 21:42 19.10.2020
6584 Clouds 0 1004 98 10000 4 260 21:20 19.10.2020
6585 Clouds 0 1003 98 10000 3 240 20:45 19.10.2020
6586 Clouds 0 1003 99 10000 3 240 20:27 19.10.2020
6587 Snow 0 1003 98 3900 2 240 19:47 19.10.2020
6588 Snow 0 1003 99 3900 2 240 19:22 19.10.2020
6589 Snow 0 1003 99 2500 2 240 18:53 19.10.2020
6590 Snow 0 1003 99 5000 2 230 18:33 19.10.2020
6591 Snow 0 1004 99 10000 3 210 17:57 19.10.2020
6592 Snow 0 1004 99 4100 3 210 17:39 19.10.2020
6593 Snow 0 1004 98 4100 3 200 17:20 19.10.2020
6594 Snow 1 1004 100 6000 4 190 16:42 19.10.2020
6595 Snow 1 1004 100 6000 4 190 16:21 19.10.2020
6596 Clouds 0 1006 98 50 4.58 199 15:40 19.10.2020
6597 Clouds 0 1007 98 31 4.67 191 15:22 19.10.2020
6598 Clouds 0 1007 98 31 4.67 191 14:50 19.10.2020
6599 Clouds 0 1008 97 21 5.21 196 14:24 19.10.2020
6600 Clouds 0 1008 97 21 5.21 196 13:49 19.10.2020
6601 Clouds 0 1009 97 23 5.04 200 13:31 19.10.2020
6602 Clouds 0 1009 97 25 5.64 192 12:49 19.10.2020
6603 Clouds 0 1009 97 25 5.64 192 12:31 19.10.2020
6604 Clouds 0 1010 97 42 6.1 186 11:51 19.10.2020
6605 Snow 0 1009 97 1800 5 150 11:25 19.10.2020
6606 Snow 0 1009 97 1800 5 150 10:56 19.10.2020
6607 Snow 0 1009 97 1800 5 150 10:36 19.10.2020
6608 Snow 0 1010 95 4300 5 150 10:18 19.10.2020
6609 Snow 0 1011 95 2400 4 150 09:42 19.10.2020
6610 Snow 0 1012 97 1800 4 170 09:18 19.10.2020
6611 Snow -1 1013 100 4600 4 180 08:47 19.10.2020
6612 Snow -1 1013 100 4600 4 180 08:21 19.10.2020
6613 Clouds -2 1014 100 10000 5 190 07:22 19.10.2020
6614 Clouds -2 1015 100 10000 5 190 06:51 19.10.2020
6615 Clouds -2 1015 100 10000 3 190 06:18 19.10.2020
6616 Clouds -2 1017 86 10000 4 220 03:47 19.10.2020
6617 Clouds -2 1017 86 10000 5 240 01:59 19.10.2020
6618 Clouds -2 1017 79 10000 4 240 00:44 19.10.2020
6619 Clouds -2 1017 79 10000 4 230 23:59 18.10.2020
6620 Clouds -2 1017 79 10000 4 230 23:41 18.10.2020
6621 Clouds -2 1017 79 10000 4 230 23:21 18.10.2020
6622 Clouds -1 1017 74 10000 4 250 22:45 18.10.2020
6623 Clouds -1 1017 74 10000 6 250 22:20 18.10.2020
6624 Clouds -1 1017 74 10000 6 250 21:50 18.10.2020
6625 Clouds -1 1017 74 10000 6 250 21:29 18.10.2020
6626 Clouds -1 1017 74 10000 6 270 20:47 18.10.2020
6627 Clouds -1 1017 74 10000 6 270 20:25 18.10.2020
6628 Clouds -1 1016 74 10000 6 270 19:57 18.10.2020
6629 Clouds -1 1016 74 10000 6 270 19:39 18.10.2020
6630 Clouds -1 1016 74 10000 6 260 19:19 18.10.2020
6631 Clouds -1 1016 74 10000 6 280 18:46 18.10.2020
6632 Clouds -1 1015 74 10000 7 280 18:24 18.10.2020
6633 Clouds -1 1015 74 10000 7 270 17:42 18.10.2020
6634 Clouds -1 1015 74 10000 7 270 17:24 18.10.2020
6635 Clouds -1 1014 68 10000 7 280 16:44 18.10.2020
6636 Clouds -1 1014 68 10000 7 280 16:26 18.10.2020
6637 Clouds -1 1014 68 10000 7 280 15:55 18.10.2020
6638 Clouds -1 1013 68 10000 5 270 15:37 18.10.2020
6639 Clouds -1 1013 68 10000 7 280 15:18 18.10.2020
6640 Clouds 0 1012 91 10000 8 280 14:43 18.10.2020
6641 Clouds 0 1012 90 10000 8 280 14:25 18.10.2020
6642 Clouds 0 1011 90 10000 8 290 13:45 18.10.2020
6643 Clouds 0 1011 90 10000 8 290 13:26 18.10.2020
6644 Clouds 0 1010 90 10000 8 300 12:57 18.10.2020
6645 Clouds -1 1010 68 10000 9 300 12:39 18.10.2020
6646 Clouds -1 1009 63 10000 10 300 12:19 18.10.2020
6647 Clouds -1 1008 58 10000 10 300 11:40 18.10.2020
6648 Clouds -1 1008 58 10000 10 300 11:22 18.10.2020
6649 Clouds -1 1006 68 10000 11 300 10:40 18.10.2020
6650 Clouds -1 1006 68 10000 10 310 10:19 18.10.2020
6651 Clouds -1 1004 68 10000 10 300 09:47 18.10.2020
6652 Clouds -1 1004 74 10000 10 300 09:21 18.10.2020
6653 Clouds -1 1004 74 10000 10 300 08:56 18.10.2020
6654 Clouds -1 1003 74 10000 10 300 08:36 18.10.2020
6655 Clouds -1 1002 74 10000 10 300 08:18 18.10.2020
6656 Snow -2 999 86 8000 10 300 05:59 18.10.2020
6657 Clouds -1 996 80 10000 10 300 03:58 18.10.2020
6658 Snow -1 995 86 9000 10 290 02:54 18.10.2020
6659 Snow -1 993 100 4500 9 290 01:36 18.10.2020
6660 Snow -1 992 100 2000 9 280 00:46 18.10.2020
6661 Snow -1 992 100 2000 9 280 00:24 18.10.2020
6662 Snow -1 992 92 8000 9 280 23:42 17.10.2020
6663 Snow -1 992 86 10000 8 280 23:21 17.10.2020
6664 Snow -1 992 86 10000 8 280 22:57 17.10.2020
6665 Clouds 0 991 97 10000 8 290 22:39 17.10.2020
6666 Clouds -1 991 80 10000 7 280 22:18 17.10.2020
6667 Snow -1 991 80 10000 8 290 21:43 17.10.2020
6668 Clouds -1 990 80 10000 7 300 21:21 17.10.2020
6669 Clouds -1 990 80 10000 7 300 20:46 17.10.2020
6670 Clouds -1 990 80 10000 6 300 20:21 17.10.2020
6671 Clouds -1 990 80 10000 5 310 19:46 17.10.2020
6672 Clouds -1 990 80 10000 5 310 19:24 17.10.2020
6673 Clouds -1 990 80 10000 5 320 18:47 17.10.2020
6674 Clouds -1 990 80 10000 5 320 18:29 17.10.2020
6675 Snow -1 990 86 4900 4 330 17:59 17.10.2020
6676 Snow -1 991 92 2400 3 310 17:39 17.10.2020
6677 Snow -1 991 100 1700 3 290 17:20 17.10.2020
6678 Snow -1 991 100 7000 3 270 16:48 17.10.2020
6679 Snow -1 992 100 5000 2 280 16:22 17.10.2020
6680 Snow -1 992 100 1500 3 240 15:43 17.10.2020
6681 Snow -1 992 100 1500 3 240 15:23 17.10.2020
6682 Snow 0 993 96 10000 4 210 14:59 17.10.2020
6683 Clouds 1 993 69 10000 2 240 14:38 17.10.2020
6684 Clouds 1 993 69 10000 3 240 14:19 17.10.2020
6685 Clouds 1 994 69 10000 4 240 13:47 17.10.2020
6686 Clouds 1 994 69 10000 4 240 13:29 17.10.2020
6687 Clouds 1 994 69 10000 4 220 12:59 17.10.2020
6688 Clouds 1 995 69 10000 5 230 12:38 17.10.2020
6689 Clouds 1 995 69 10000 5 230 12:18 17.10.2020
6690 Clouds 1 996 64 10000 6 240 11:38 17.10.2020
6691 Clouds 1 996 69 10000 5 240 11:18 17.10.2020
6692 Clouds 1 997 69 10000 6 220 10:33 17.10.2020
6693 Clouds 1 997 69 10000 6 230 09:51 17.10.2020
6694 Clouds 1 997 64 10000 6 240 09:33 17.10.2020
6695 Clouds 1 997 64 10000 6 250 08:56 17.10.2020
6696 Clouds 1 998 69 10000 7 250 08:25 17.10.2020
6697 Clouds 1 998 69 10000 7 260 07:46 17.10.2020
6698 Clouds 1 998 69 10000 7 260 07:24 17.10.2020
6699 Clear 0 997 89 10000 7 250 05:36 17.10.2020
6700 Clouds 2 997 80 10000 12 270 02:30 17.10.2020
6701 Clouds 2 996 74 10000 9 280 01:59 17.10.2020
6702 Clouds 3 995 74 10000 12 280 00:52 17.10.2020
6703 Rain 7 993 93 10000 10 260 23:57 16.10.2020
6704 Clouds 8 993 81 10000 7 250 23:24 16.10.2020
6705 Clouds 7 993 87 10000 5 220 22:45 16.10.2020
6706 Clouds 7 993 87 10000 5 220 22:24 16.10.2020
6707 Clouds 7 992 87 10000 5 210 21:56 16.10.2020
6708 Clouds 6 993 93 10000 5 220 21:37 16.10.2020
6709 Rain 6 993 93 10000 5 230 21:19 16.10.2020
6710 Rain 6 993 87 10000 6 230 20:41 16.10.2020
6711 Rain 6 994 81 10000 5 210 20:23 16.10.2020
6712 Clouds 6 994 87 10000 5 210 19:44 16.10.2020
6713 Clouds 6 994 87 10000 5 210 19:26 16.10.2020
6714 Clouds 5 994 93 10000 4 200 18:54 16.10.2020
6715 Clouds 5 995 93 10000 5 200 18:33 16.10.2020
6716 Rain 5 996 100 10000 5 200 17:47 16.10.2020
6717 Rain 5 996 100 10000 5 200 17:29 16.10.2020
6718 Rain 5 997 100 10000 6 200 16:50 16.10.2020
6719 Rain 5 997 100 10000 6 200 16:31 16.10.2020
6720 Rain 5 997 100 10000 6 200 16:31 16.10.2020
6721 Rain 4 997 100 10000 5 190 15:59 16.10.2020
6722 Rain 4 998 93 8000 6 200 15:24 16.10.2020
6723 Clouds 5 998 75 10000 5 190 14:44 16.10.2020
6724 Clouds 5 999 75 10000 5 190 14:20 16.10.2020
6725 Clouds 5 999 75 10000 5 190 13:57 16.10.2020
6726 Clouds 5 999 75 10000 6 190 13:38 16.10.2020
6727 Clouds 5 1000 85 10000 6 190 13:20 16.10.2020
6728 Clouds 5 1000 85 10000 6 190 12:47 16.10.2020
6729 Clouds 4 1001 84 10000 6 200 12:23 16.10.2020
6730 Clouds 4 1001 84 10000 6 190 11:49 16.10.2020
6731 Clouds 4 1001 83 10000 6 190 11:29 16.10.2020
6732 Clouds 4 1002 83 10000 6 190 10:57 16.10.2020
6733 Clouds 4 1003 69 10000 6 190 10:38 16.10.2020
6734 Clouds 3 1003 69 10000 7 170 10:18 16.10.2020
6735 Clouds 2 1004 74 10000 7 170 09:37 16.10.2020
6736 Clouds 1 1006 74 10000 7 170 09:19 16.10.2020
6737 Clouds 1 1007 74 10000 7 160 08:38 16.10.2020
6738 Clouds 1 1009 80 10000 6 170 07:55 16.10.2020
6739 Snow 0 1009 86 10000 6 160 07:32 16.10.2020
6740 Clouds 0 1010 88 10000 6 160 06:54 16.10.2020
6741 Clouds -1 1015 92 10000 6 190 04:38 16.10.2020
6742 Clouds -1 1017 92 10000 4 190 03:50 16.10.2020
6743 Clouds -2 1019 100 10000 2 200 01:35 16.10.2020
6744 Clouds -2 1020 100 10000 3 200 00:33 16.10.2020
6745 Clouds -1 1020 100 10000 2 210 23:43 15.10.2020
6746 Clouds -1 1020 100 10000 2 240 23:21 15.10.2020
6747 Clouds -1 1020 100 10000 2 240 22:58 15.10.2020
6748 Clouds -1 1021 100 10000 2 250 22:39 15.10.2020
6749 Clouds -1 1021 100 10000 3 240 22:20 15.10.2020
6750 Clouds -1 1021 100 10000 3 240 21:39 15.10.2020
6751 Clear -1 1021 100 10000 3 250 21:20 15.10.2020
6752 Clear -1 1021 100 10000 3 250 20:46 15.10.2020
6753 Clear -1 1021 100 10000 4 260 20:22 15.10.2020
6754 Clear 0 1021 96 10000 4 260 19:48 15.10.2020
6755 Clear 0 1021 96 10000 4 260 19:28 15.10.2020
6756 Clear 0 1021 96 10000 4 270 18:59 15.10.2020
6757 Clear 0 1021 96 10000 5 280 18:39 15.10.2020
6758 Clear 0 1021 95 10000 4 260 18:20 15.10.2020
6759 Clear 0 1021 95 10000 4 270 17:44 15.10.2020
6760 Clear 1 1021 86 10000 4 260 17:23 15.10.2020
6761 Clear 0 1021 94 10000 3 260 16:46 15.10.2020
6762<